<?xml version="1.0" encoding="UTF-8" standalone="no" ?>
<gpx xmlns="http://www.topografix.com/GPX/1/1" xmlns:xsi="http://www.w3.org/2001/XMLSchema-instance" xsi:schemaLocation="http://www.topografix.com/GPX/1/1 http://www.topografix.com/GPX/1/1/gpx.xsd" version="1.1" creator="VisuGPX - https://www.visugpx.com">
  <metadata>
    <name>Rando vtt chez les Baïken à Bonnes</name>
    <desc><![CDATA[Passages techniques...]]></desc>
  </metadata>
  <trk>
    <name><![CDATA[Rando vtt chez les Baïken à Bonnes_1]]></name>
    <trkseg>
      <trkpt lat="46.58646" lon="0.58977">
        <ele>115.2</ele>
        <time>2020-06-28T06:12:27Z</time>
      </trkpt>
      <trkpt lat="46.58655" lon="0.58977">
        <ele>115.1</ele>
        <time>2020-06-28T06:15:02Z</time>
      </trkpt>
      <trkpt lat="46.58658" lon="0.58991">
        <ele>115</ele>
        <time>2020-06-28T06:18:52Z</time>
      </trkpt>
      <trkpt lat="46.58656" lon="0.58978">
        <ele>115</ele>
        <time>2020-06-28T06:19:57Z</time>
      </trkpt>
      <trkpt lat="46.58655" lon="0.58995">
        <ele>114.9</ele>
        <time>2020-06-28T06:22:15Z</time>
      </trkpt>
      <trkpt lat="46.58656" lon="0.59011">
        <ele>114.8</ele>
        <time>2020-06-28T06:22:20Z</time>
      </trkpt>
      <trkpt lat="46.58656" lon="0.59024">
        <ele>114.7</ele>
        <time>2020-06-28T06:22:23Z</time>
      </trkpt>
      <trkpt lat="46.58658" lon="0.59041">
        <ele>114.6</ele>
        <time>2020-06-28T06:22:26Z</time>
      </trkpt>
      <trkpt lat="46.5866" lon="0.59058">
        <ele>114.5</ele>
        <time>2020-06-28T06:22:29Z</time>
      </trkpt>
      <trkpt lat="46.58664" lon="0.59075">
        <ele>114.5</ele>
        <time>2020-06-28T06:22:32Z</time>
      </trkpt>
      <trkpt lat="46.58669" lon="0.5909">
        <ele>114.4</ele>
        <time>2020-06-28T06:22:35Z</time>
      </trkpt>
      <trkpt lat="46.58673" lon="0.59102">
        <ele>114.3</ele>
        <time>2020-06-28T06:22:39Z</time>
      </trkpt>
      <trkpt lat="46.58671" lon="0.59117">
        <ele>114.2</ele>
        <time>2020-06-28T06:22:44Z</time>
      </trkpt>
      <trkpt lat="46.5867" lon="0.59135">
        <ele>114.1</ele>
        <time>2020-06-28T06:22:47Z</time>
      </trkpt>
      <trkpt lat="46.58667" lon="0.59151">
        <ele>114.3</ele>
        <time>2020-06-28T06:22:49Z</time>
      </trkpt>
      <trkpt lat="46.58664" lon="0.59168">
        <ele>114.4</ele>
        <time>2020-06-28T06:22:51Z</time>
      </trkpt>
      <trkpt lat="46.58659" lon="0.59184">
        <ele>114.5</ele>
        <time>2020-06-28T06:22:53Z</time>
      </trkpt>
      <trkpt lat="46.58651" lon="0.59204">
        <ele>114.5</ele>
        <time>2020-06-28T06:22:55Z</time>
      </trkpt>
      <trkpt lat="46.58644" lon="0.59221">
        <ele>114.5</ele>
        <time>2020-06-28T06:22:57Z</time>
      </trkpt>
      <trkpt lat="46.58638" lon="0.59237">
        <ele>114.4</ele>
        <time>2020-06-28T06:22:59Z</time>
      </trkpt>
      <trkpt lat="46.58631" lon="0.59253">
        <ele>114.3</ele>
        <time>2020-06-28T06:23:01Z</time>
      </trkpt>
      <trkpt lat="46.58625" lon="0.59265">
        <ele>114.3</ele>
        <time>2020-06-28T06:23:03Z</time>
      </trkpt>
      <trkpt lat="46.58618" lon="0.59278">
        <ele>114.2</ele>
        <time>2020-06-28T06:23:05Z</time>
      </trkpt>
      <trkpt lat="46.58611" lon="0.59287">
        <ele>114.1</ele>
        <time>2020-06-28T06:23:07Z</time>
      </trkpt>
      <trkpt lat="46.58603" lon="0.59294">
        <ele>113.9</ele>
        <time>2020-06-28T06:23:09Z</time>
      </trkpt>
      <trkpt lat="46.58594" lon="0.59306">
        <ele>113.5</ele>
        <time>2020-06-28T06:23:12Z</time>
      </trkpt>
      <trkpt lat="46.58584" lon="0.59318">
        <ele>113.1</ele>
        <time>2020-06-28T06:23:15Z</time>
      </trkpt>
      <trkpt lat="46.58574" lon="0.59325">
        <ele>112.9</ele>
        <time>2020-06-28T06:23:18Z</time>
      </trkpt>
      <trkpt lat="46.5857" lon="0.59338">
        <ele>112.4</ele>
        <time>2020-06-28T06:23:25Z</time>
      </trkpt>
      <trkpt lat="46.5856" lon="0.59347">
        <ele>112.2</ele>
        <time>2020-06-28T06:28:48Z</time>
      </trkpt>
      <trkpt lat="46.58569" lon="0.59344">
        <ele>112.3</ele>
        <time>2020-06-28T06:30:04Z</time>
      </trkpt>
      <trkpt lat="46.58562" lon="0.59335">
        <ele>112.4</ele>
        <time>2020-06-28T06:30:18Z</time>
      </trkpt>
      <trkpt lat="46.5857" lon="0.59344">
        <ele>112.3</ele>
        <time>2020-06-28T06:31:08Z</time>
      </trkpt>
      <trkpt lat="46.58562" lon="0.5935">
        <ele>112.1</ele>
        <time>2020-06-28T06:33:11Z</time>
      </trkpt>
      <trkpt lat="46.58555" lon="0.5934">
        <ele>112.2</ele>
        <time>2020-06-28T06:33:38Z</time>
      </trkpt>
      <trkpt lat="46.58563" lon="0.59348">
        <ele>112.2</ele>
        <time>2020-06-28T06:35:05Z</time>
      </trkpt>
      <trkpt lat="46.58556" lon="0.59337">
        <ele>112.3</ele>
        <time>2020-06-28T06:35:25Z</time>
      </trkpt>
      <trkpt lat="46.58565" lon="0.59336">
        <ele>112.4</ele>
        <time>2020-06-28T06:36:21Z</time>
      </trkpt>
      <trkpt lat="46.58573" lon="0.59343">
        <ele>112.3</ele>
        <time>2020-06-28T06:38:19Z</time>
      </trkpt>
      <trkpt lat="46.58566" lon="0.59354">
        <ele>112.1</ele>
        <time>2020-06-28T06:38:44Z</time>
      </trkpt>
      <trkpt lat="46.58572" lon="0.59343">
        <ele>112.3</ele>
        <time>2020-06-28T06:39:27Z</time>
      </trkpt>
      <trkpt lat="46.58578" lon="0.59334">
        <ele>112.6</ele>
        <time>2020-06-28T06:39:36Z</time>
      </trkpt>
      <trkpt lat="46.58584" lon="0.59324">
        <ele>112.9</ele>
        <time>2020-06-28T06:39:44Z</time>
      </trkpt>
      <trkpt lat="46.58592" lon="0.59315">
        <ele>113.2</ele>
        <time>2020-06-28T06:39:54Z</time>
      </trkpt>
      <trkpt lat="46.58596" lon="0.59302">
        <ele>113.5</ele>
        <time>2020-06-28T06:39:57Z</time>
      </trkpt>
      <trkpt lat="46.58606" lon="0.59298">
        <ele>113.7</ele>
        <time>2020-06-28T06:40:08Z</time>
      </trkpt>
      <trkpt lat="46.58617" lon="0.59291">
        <ele>113.9</ele>
        <time>2020-06-28T06:40:11Z</time>
      </trkpt>
      <trkpt lat="46.58626" lon="0.59285">
        <ele>113.9</ele>
        <time>2020-06-28T06:40:13Z</time>
      </trkpt>
      <trkpt lat="46.58635" lon="0.59276">
        <ele>114</ele>
        <time>2020-06-28T06:40:36Z</time>
      </trkpt>
      <trkpt lat="46.58634" lon="0.59261">
        <ele>114.1</ele>
        <time>2020-06-28T06:40:44Z</time>
      </trkpt>
      <trkpt lat="46.58632" lon="0.59247">
        <ele>114.3</ele>
        <time>2020-06-28T06:40:47Z</time>
      </trkpt>
      <trkpt lat="46.58637" lon="0.59235">
        <ele>114.3</ele>
        <time>2020-06-28T06:40:50Z</time>
      </trkpt>
      <trkpt lat="46.58643" lon="0.59225">
        <ele>114.3</ele>
        <time>2020-06-28T06:40:53Z</time>
      </trkpt>
      <trkpt lat="46.5865" lon="0.5921">
        <ele>114.3</ele>
        <time>2020-06-28T06:40:57Z</time>
      </trkpt>
      <trkpt lat="46.58658" lon="0.59197">
        <ele>114.3</ele>
        <time>2020-06-28T06:41:01Z</time>
      </trkpt>
      <trkpt lat="46.58662" lon="0.59185">
        <ele>114.3</ele>
        <time>2020-06-28T06:41:04Z</time>
      </trkpt>
      <trkpt lat="46.58667" lon="0.59168">
        <ele>114.2</ele>
        <time>2020-06-28T06:41:08Z</time>
      </trkpt>
      <trkpt lat="46.58671" lon="0.59156">
        <ele>114.2</ele>
        <time>2020-06-28T06:41:11Z</time>
      </trkpt>
      <trkpt lat="46.58674" lon="0.59139">
        <ele>114.1</ele>
        <time>2020-06-28T06:41:14Z</time>
      </trkpt>
      <trkpt lat="46.58675" lon="0.59123">
        <ele>114.2</ele>
        <time>2020-06-28T06:41:17Z</time>
      </trkpt>
      <trkpt lat="46.58677" lon="0.5911">
        <ele>114.3</ele>
        <time>2020-06-28T06:41:21Z</time>
      </trkpt>
      <trkpt lat="46.58674" lon="0.59092">
        <ele>114.4</ele>
        <time>2020-06-28T06:41:25Z</time>
      </trkpt>
      <trkpt lat="46.58667" lon="0.59076">
        <ele>114.5</ele>
        <time>2020-06-28T06:41:28Z</time>
      </trkpt>
      <trkpt lat="46.58662" lon="0.59059">
        <ele>114.6</ele>
        <time>2020-06-28T06:41:31Z</time>
      </trkpt>
      <trkpt lat="46.58657" lon="0.5904">
        <ele>114.8</ele>
        <time>2020-06-28T06:41:34Z</time>
      </trkpt>
      <trkpt lat="46.58655" lon="0.59027">
        <ele>114.9</ele>
        <time>2020-06-28T06:41:36Z</time>
      </trkpt>
      <trkpt lat="46.58654" lon="0.5901">
        <ele>115</ele>
        <time>2020-06-28T06:41:39Z</time>
      </trkpt>
      <trkpt lat="46.58652" lon="0.58993">
        <ele>115.1</ele>
        <time>2020-06-28T06:41:42Z</time>
      </trkpt>
      <trkpt lat="46.58651" lon="0.58977">
        <ele>115.2</ele>
        <time>2020-06-28T06:41:45Z</time>
      </trkpt>
      <trkpt lat="46.58651" lon="0.58962">
        <ele>115.3</ele>
        <time>2020-06-28T06:41:48Z</time>
      </trkpt>
      <trkpt lat="46.5865" lon="0.58946">
        <ele>115.4</ele>
        <time>2020-06-28T06:41:51Z</time>
      </trkpt>
      <trkpt lat="46.5865" lon="0.58932">
        <ele>115.5</ele>
        <time>2020-06-28T06:41:54Z</time>
      </trkpt>
      <trkpt lat="46.58649" lon="0.58916">
        <ele>115.6</ele>
        <time>2020-06-28T06:41:57Z</time>
      </trkpt>
      <trkpt lat="46.58649" lon="0.589">
        <ele>115.7</ele>
        <time>2020-06-28T06:42:00Z</time>
      </trkpt>
      <trkpt lat="46.58648" lon="0.58886">
        <ele>115.8</ele>
        <time>2020-06-28T06:42:03Z</time>
      </trkpt>
      <trkpt lat="46.58647" lon="0.58869">
        <ele>115.9</ele>
        <time>2020-06-28T06:42:06Z</time>
      </trkpt>
      <trkpt lat="46.58646" lon="0.58854">
        <ele>116</ele>
        <time>2020-06-28T06:42:09Z</time>
      </trkpt>
      <trkpt lat="46.58645" lon="0.58837">
        <ele>116.1</ele>
        <time>2020-06-28T06:42:12Z</time>
      </trkpt>
      <trkpt lat="46.58644" lon="0.58821">
        <ele>116.2</ele>
        <time>2020-06-28T06:42:15Z</time>
      </trkpt>
      <trkpt lat="46.58643" lon="0.58805">
        <ele>116.3</ele>
        <time>2020-06-28T06:42:18Z</time>
      </trkpt>
      <trkpt lat="46.58641" lon="0.58788">
        <ele>116.4</ele>
        <time>2020-06-28T06:42:21Z</time>
      </trkpt>
      <trkpt lat="46.5864" lon="0.58772">
        <ele>116.5</ele>
        <time>2020-06-28T06:42:24Z</time>
      </trkpt>
      <trkpt lat="46.58639" lon="0.58756">
        <ele>116.6</ele>
        <time>2020-06-28T06:42:27Z</time>
      </trkpt>
      <trkpt lat="46.58638" lon="0.5874">
        <ele>116.7</ele>
        <time>2020-06-28T06:42:30Z</time>
      </trkpt>
      <trkpt lat="46.58637" lon="0.58724">
        <ele>116.8</ele>
        <time>2020-06-28T06:42:33Z</time>
      </trkpt>
      <trkpt lat="46.58637" lon="0.58707">
        <ele>116.9</ele>
        <time>2020-06-28T06:42:36Z</time>
      </trkpt>
      <trkpt lat="46.58635" lon="0.58691">
        <ele>117</ele>
        <time>2020-06-28T06:42:39Z</time>
      </trkpt>
      <trkpt lat="46.58634" lon="0.58674">
        <ele>117.1</ele>
        <time>2020-06-28T06:42:42Z</time>
      </trkpt>
      <trkpt lat="46.58634" lon="0.58659">
        <ele>117.2</ele>
        <time>2020-06-28T06:42:45Z</time>
      </trkpt>
      <trkpt lat="46.58632" lon="0.58643">
        <ele>117.3</ele>
        <time>2020-06-28T06:42:48Z</time>
      </trkpt>
      <trkpt lat="46.58631" lon="0.58628">
        <ele>117.4</ele>
        <time>2020-06-28T06:42:51Z</time>
      </trkpt>
      <trkpt lat="46.58631" lon="0.58611">
        <ele>117.5</ele>
        <time>2020-06-28T06:42:54Z</time>
      </trkpt>
      <trkpt lat="46.5863" lon="0.58594">
        <ele>117.6</ele>
        <time>2020-06-28T06:42:57Z</time>
      </trkpt>
      <trkpt lat="46.58629" lon="0.58578">
        <ele>117.7</ele>
        <time>2020-06-28T06:43:00Z</time>
      </trkpt>
      <trkpt lat="46.58628" lon="0.58562">
        <ele>117.8</ele>
        <time>2020-06-28T06:43:03Z</time>
      </trkpt>
      <trkpt lat="46.58627" lon="0.58547">
        <ele>118</ele>
        <time>2020-06-28T06:43:06Z</time>
      </trkpt>
      <trkpt lat="46.58627" lon="0.58532">
        <ele>118.3</ele>
        <time>2020-06-28T06:43:09Z</time>
      </trkpt>
      <trkpt lat="46.58626" lon="0.58515">
        <ele>118.4</ele>
        <time>2020-06-28T06:43:12Z</time>
      </trkpt>
      <trkpt lat="46.58625" lon="0.58498">
        <ele>118.6</ele>
        <time>2020-06-28T06:43:15Z</time>
      </trkpt>
      <trkpt lat="46.58623" lon="0.5848">
        <ele>118.9</ele>
        <time>2020-06-28T06:43:18Z</time>
      </trkpt>
      <trkpt lat="46.58623" lon="0.58464">
        <ele>119.1</ele>
        <time>2020-06-28T06:43:21Z</time>
      </trkpt>
      <trkpt lat="46.58622" lon="0.58447">
        <ele>119.2</ele>
        <time>2020-06-28T06:43:24Z</time>
      </trkpt>
      <trkpt lat="46.58622" lon="0.58432">
        <ele>119.9</ele>
        <time>2020-06-28T06:43:27Z</time>
      </trkpt>
      <trkpt lat="46.58621" lon="0.58416">
        <ele>120.3</ele>
        <time>2020-06-28T06:43:30Z</time>
      </trkpt>
      <trkpt lat="46.58618" lon="0.58398">
        <ele>120.3</ele>
        <time>2020-06-28T06:43:33Z</time>
      </trkpt>
      <trkpt lat="46.58618" lon="0.58382">
        <ele>120.3</ele>
        <time>2020-06-28T06:43:36Z</time>
      </trkpt>
      <trkpt lat="46.5862" lon="0.58364">
        <ele>120.1</ele>
        <time>2020-06-28T06:43:39Z</time>
      </trkpt>
      <trkpt lat="46.58622" lon="0.58348">
        <ele>120.8</ele>
        <time>2020-06-28T06:43:42Z</time>
      </trkpt>
      <trkpt lat="46.58622" lon="0.58335">
        <ele>121.2</ele>
        <time>2020-06-28T06:43:44Z</time>
      </trkpt>
      <trkpt lat="46.58624" lon="0.58316">
        <ele>121.6</ele>
        <time>2020-06-28T06:43:47Z</time>
      </trkpt>
      <trkpt lat="46.58625" lon="0.58302">
        <ele>121.6</ele>
        <time>2020-06-28T06:43:49Z</time>
      </trkpt>
      <trkpt lat="46.58624" lon="0.58285">
        <ele>121.6</ele>
        <time>2020-06-28T06:43:52Z</time>
      </trkpt>
      <trkpt lat="46.58621" lon="0.58272">
        <ele>121.6</ele>
        <time>2020-06-28T06:43:54Z</time>
      </trkpt>
      <trkpt lat="46.58617" lon="0.58255">
        <ele>121.5</ele>
        <time>2020-06-28T06:43:57Z</time>
      </trkpt>
      <trkpt lat="46.58613" lon="0.58237">
        <ele>121.6</ele>
        <time>2020-06-28T06:44:00Z</time>
      </trkpt>
      <trkpt lat="46.58609" lon="0.58219">
        <ele>121.6</ele>
        <time>2020-06-28T06:44:03Z</time>
      </trkpt>
      <trkpt lat="46.58605" lon="0.58203">
        <ele>121.6</ele>
        <time>2020-06-28T06:44:06Z</time>
      </trkpt>
      <trkpt lat="46.58602" lon="0.5819">
        <ele>121.7</ele>
        <time>2020-06-28T06:44:08Z</time>
      </trkpt>
      <trkpt lat="46.58598" lon="0.58172">
        <ele>121.7</ele>
        <time>2020-06-28T06:44:11Z</time>
      </trkpt>
      <trkpt lat="46.58594" lon="0.58154">
        <ele>121.6</ele>
        <time>2020-06-28T06:44:14Z</time>
      </trkpt>
      <trkpt lat="46.5859" lon="0.58137">
        <ele>121.5</ele>
        <time>2020-06-28T06:44:17Z</time>
      </trkpt>
      <trkpt lat="46.58587" lon="0.58119">
        <ele>121.5</ele>
        <time>2020-06-28T06:44:20Z</time>
      </trkpt>
      <trkpt lat="46.58584" lon="0.58107">
        <ele>121.4</ele>
        <time>2020-06-28T06:44:22Z</time>
      </trkpt>
      <trkpt lat="46.5858" lon="0.58088">
        <ele>121.5</ele>
        <time>2020-06-28T06:44:25Z</time>
      </trkpt>
      <trkpt lat="46.58576" lon="0.5807">
        <ele>121.6</ele>
        <time>2020-06-28T06:44:28Z</time>
      </trkpt>
      <trkpt lat="46.58573" lon="0.58056">
        <ele>121.9</ele>
        <time>2020-06-28T06:44:30Z</time>
      </trkpt>
      <trkpt lat="46.5857" lon="0.58043">
        <ele>122.2</ele>
        <time>2020-06-28T06:44:32Z</time>
      </trkpt>
      <trkpt lat="46.58568" lon="0.5803">
        <ele>122.3</ele>
        <time>2020-06-28T06:44:34Z</time>
      </trkpt>
      <trkpt lat="46.58564" lon="0.58012">
        <ele>122.5</ele>
        <time>2020-06-28T06:44:37Z</time>
      </trkpt>
      <trkpt lat="46.58562" lon="0.57999">
        <ele>122.6</ele>
        <time>2020-06-28T06:44:39Z</time>
      </trkpt>
      <trkpt lat="46.58559" lon="0.57987">
        <ele>122.6</ele>
        <time>2020-06-28T06:44:41Z</time>
      </trkpt>
      <trkpt lat="46.58556" lon="0.57973">
        <ele>122.7</ele>
        <time>2020-06-28T06:44:43Z</time>
      </trkpt>
      <trkpt lat="46.58554" lon="0.5796">
        <ele>122.7</ele>
        <time>2020-06-28T06:44:45Z</time>
      </trkpt>
      <trkpt lat="46.58551" lon="0.57948">
        <ele>122.7</ele>
        <time>2020-06-28T06:44:47Z</time>
      </trkpt>
      <trkpt lat="46.58548" lon="0.57929">
        <ele>122.7</ele>
        <time>2020-06-28T06:44:50Z</time>
      </trkpt>
      <trkpt lat="46.58544" lon="0.57911">
        <ele>122.7</ele>
        <time>2020-06-28T06:44:53Z</time>
      </trkpt>
      <trkpt lat="46.5854" lon="0.57893">
        <ele>122.6</ele>
        <time>2020-06-28T06:44:56Z</time>
      </trkpt>
      <trkpt lat="46.58538" lon="0.57879">
        <ele>122.5</ele>
        <time>2020-06-28T06:44:58Z</time>
      </trkpt>
      <trkpt lat="46.58535" lon="0.57866">
        <ele>122.5</ele>
        <time>2020-06-28T06:45:00Z</time>
      </trkpt>
      <trkpt lat="46.58532" lon="0.57853">
        <ele>122.5</ele>
        <time>2020-06-28T06:45:02Z</time>
      </trkpt>
      <trkpt lat="46.58529" lon="0.5784">
        <ele>122.6</ele>
        <time>2020-06-28T06:45:04Z</time>
      </trkpt>
      <trkpt lat="46.58526" lon="0.57828">
        <ele>122.7</ele>
        <time>2020-06-28T06:45:06Z</time>
      </trkpt>
      <trkpt lat="46.58524" lon="0.57815">
        <ele>122.7</ele>
        <time>2020-06-28T06:45:08Z</time>
      </trkpt>
      <trkpt lat="46.58521" lon="0.57802">
        <ele>122.9</ele>
        <time>2020-06-28T06:45:10Z</time>
      </trkpt>
      <trkpt lat="46.58517" lon="0.57784">
        <ele>123.2</ele>
        <time>2020-06-28T06:45:13Z</time>
      </trkpt>
      <trkpt lat="46.58514" lon="0.57771">
        <ele>123.3</ele>
        <time>2020-06-28T06:45:15Z</time>
      </trkpt>
      <trkpt lat="46.58511" lon="0.57758">
        <ele>123.5</ele>
        <time>2020-06-28T06:45:17Z</time>
      </trkpt>
      <trkpt lat="46.58508" lon="0.57745">
        <ele>123.6</ele>
        <time>2020-06-28T06:45:19Z</time>
      </trkpt>
      <trkpt lat="46.58505" lon="0.57732">
        <ele>123.8</ele>
        <time>2020-06-28T06:45:21Z</time>
      </trkpt>
      <trkpt lat="46.58502" lon="0.5772">
        <ele>123.9</ele>
        <time>2020-06-28T06:45:23Z</time>
      </trkpt>
      <trkpt lat="46.58499" lon="0.57707">
        <ele>124</ele>
        <time>2020-06-28T06:45:25Z</time>
      </trkpt>
      <trkpt lat="46.58496" lon="0.57694">
        <ele>124</ele>
        <time>2020-06-28T06:45:27Z</time>
      </trkpt>
      <trkpt lat="46.58493" lon="0.57682">
        <ele>124.1</ele>
        <time>2020-06-28T06:45:29Z</time>
      </trkpt>
      <trkpt lat="46.5849" lon="0.57669">
        <ele>124.1</ele>
        <time>2020-06-28T06:45:31Z</time>
      </trkpt>
      <trkpt lat="46.58487" lon="0.57656">
        <ele>124.2</ele>
        <time>2020-06-28T06:45:33Z</time>
      </trkpt>
      <trkpt lat="46.58484" lon="0.57643">
        <ele>124.2</ele>
        <time>2020-06-28T06:45:35Z</time>
      </trkpt>
      <trkpt lat="46.58479" lon="0.57625">
        <ele>124.2</ele>
        <time>2020-06-28T06:45:38Z</time>
      </trkpt>
      <trkpt lat="46.58475" lon="0.57612">
        <ele>124.2</ele>
        <time>2020-06-28T06:45:40Z</time>
      </trkpt>
      <trkpt lat="46.58472" lon="0.57599">
        <ele>124.1</ele>
        <time>2020-06-28T06:45:42Z</time>
      </trkpt>
      <trkpt lat="46.58468" lon="0.57585">
        <ele>124.1</ele>
        <time>2020-06-28T06:45:44Z</time>
      </trkpt>
      <trkpt lat="46.58464" lon="0.57567">
        <ele>123.9</ele>
        <time>2020-06-28T06:45:47Z</time>
      </trkpt>
      <trkpt lat="46.58472" lon="0.57556">
        <ele>124.1</ele>
        <time>2020-06-28T06:45:50Z</time>
      </trkpt>
      <trkpt lat="46.58484" lon="0.57545">
        <ele>124.2</ele>
        <time>2020-06-28T06:45:53Z</time>
      </trkpt>
      <trkpt lat="46.58492" lon="0.57536">
        <ele>124.3</ele>
        <time>2020-06-28T06:45:55Z</time>
      </trkpt>
      <trkpt lat="46.58501" lon="0.5753">
        <ele>124.5</ele>
        <time>2020-06-28T06:45:57Z</time>
      </trkpt>
      <trkpt lat="46.58512" lon="0.57531">
        <ele>124.7</ele>
        <time>2020-06-28T06:45:59Z</time>
      </trkpt>
      <trkpt lat="46.58524" lon="0.57538">
        <ele>124.7</ele>
        <time>2020-06-28T06:46:02Z</time>
      </trkpt>
      <trkpt lat="46.58534" lon="0.57542">
        <ele>124.6</ele>
        <time>2020-06-28T06:46:04Z</time>
      </trkpt>
      <trkpt lat="46.58546" lon="0.57547">
        <ele>124.3</ele>
        <time>2020-06-28T06:46:07Z</time>
      </trkpt>
      <trkpt lat="46.58558" lon="0.57551">
        <ele>123.9</ele>
        <time>2020-06-28T06:46:10Z</time>
      </trkpt>
      <trkpt lat="46.58567" lon="0.57554">
        <ele>123.6</ele>
        <time>2020-06-28T06:46:12Z</time>
      </trkpt>
      <trkpt lat="46.58577" lon="0.57557">
        <ele>123.3</ele>
        <time>2020-06-28T06:46:14Z</time>
      </trkpt>
      <trkpt lat="46.58588" lon="0.5756">
        <ele>122.9</ele>
        <time>2020-06-28T06:46:16Z</time>
      </trkpt>
      <trkpt lat="46.58601" lon="0.57564">
        <ele>122.5</ele>
        <time>2020-06-28T06:46:18Z</time>
      </trkpt>
      <trkpt lat="46.58613" lon="0.57567">
        <ele>122.1</ele>
        <time>2020-06-28T06:46:20Z</time>
      </trkpt>
      <trkpt lat="46.58625" lon="0.57571">
        <ele>121.4</ele>
        <time>2020-06-28T06:46:22Z</time>
      </trkpt>
      <trkpt lat="46.58637" lon="0.57575">
        <ele>120.8</ele>
        <time>2020-06-28T06:46:24Z</time>
      </trkpt>
      <trkpt lat="46.58649" lon="0.57579">
        <ele>120.1</ele>
        <time>2020-06-28T06:46:26Z</time>
      </trkpt>
      <trkpt lat="46.58662" lon="0.57583">
        <ele>119.5</ele>
        <time>2020-06-28T06:46:28Z</time>
      </trkpt>
      <trkpt lat="46.58674" lon="0.57587">
        <ele>119.1</ele>
        <time>2020-06-28T06:46:30Z</time>
      </trkpt>
      <trkpt lat="46.58687" lon="0.57591">
        <ele>118.6</ele>
        <time>2020-06-28T06:46:32Z</time>
      </trkpt>
      <trkpt lat="46.58701" lon="0.57594">
        <ele>117.9</ele>
        <time>2020-06-28T06:46:34Z</time>
      </trkpt>
      <trkpt lat="46.58714" lon="0.57598">
        <ele>117.4</ele>
        <time>2020-06-28T06:46:36Z</time>
      </trkpt>
      <trkpt lat="46.58726" lon="0.57603">
        <ele>116.9</ele>
        <time>2020-06-28T06:46:38Z</time>
      </trkpt>
      <trkpt lat="46.58739" lon="0.57607">
        <ele>116.7</ele>
        <time>2020-06-28T06:46:40Z</time>
      </trkpt>
      <trkpt lat="46.58751" lon="0.57611">
        <ele>116.5</ele>
        <time>2020-06-28T06:46:42Z</time>
      </trkpt>
      <trkpt lat="46.58764" lon="0.57615">
        <ele>116.2</ele>
        <time>2020-06-28T06:46:44Z</time>
      </trkpt>
      <trkpt lat="46.58777" lon="0.5762">
        <ele>116.1</ele>
        <time>2020-06-28T06:46:46Z</time>
      </trkpt>
      <trkpt lat="46.58789" lon="0.57624">
        <ele>115.7</ele>
        <time>2020-06-28T06:46:48Z</time>
      </trkpt>
      <trkpt lat="46.58801" lon="0.57628">
        <ele>115.4</ele>
        <time>2020-06-28T06:46:50Z</time>
      </trkpt>
      <trkpt lat="46.58813" lon="0.57632">
        <ele>115.2</ele>
        <time>2020-06-28T06:46:52Z</time>
      </trkpt>
      <trkpt lat="46.58825" lon="0.57636">
        <ele>114.9</ele>
        <time>2020-06-28T06:46:54Z</time>
      </trkpt>
      <trkpt lat="46.58837" lon="0.57639">
        <ele>114.5</ele>
        <time>2020-06-28T06:46:56Z</time>
      </trkpt>
      <trkpt lat="46.58849" lon="0.57643">
        <ele>113.9</ele>
        <time>2020-06-28T06:46:58Z</time>
      </trkpt>
      <trkpt lat="46.58861" lon="0.57647">
        <ele>113.4</ele>
        <time>2020-06-28T06:47:00Z</time>
      </trkpt>
      <trkpt lat="46.58874" lon="0.57652">
        <ele>112.9</ele>
        <time>2020-06-28T06:47:02Z</time>
      </trkpt>
      <trkpt lat="46.58886" lon="0.57656">
        <ele>112.7</ele>
        <time>2020-06-28T06:47:04Z</time>
      </trkpt>
      <trkpt lat="46.58898" lon="0.5766">
        <ele>112.4</ele>
        <time>2020-06-28T06:47:06Z</time>
      </trkpt>
      <trkpt lat="46.58911" lon="0.57663">
        <ele>112.2</ele>
        <time>2020-06-28T06:47:08Z</time>
      </trkpt>
      <trkpt lat="46.58923" lon="0.57668">
        <ele>112</ele>
        <time>2020-06-28T06:47:10Z</time>
      </trkpt>
      <trkpt lat="46.58934" lon="0.57671">
        <ele>111.6</ele>
        <time>2020-06-28T06:47:12Z</time>
      </trkpt>
      <trkpt lat="46.58946" lon="0.57675">
        <ele>111.2</ele>
        <time>2020-06-28T06:47:14Z</time>
      </trkpt>
      <trkpt lat="46.58959" lon="0.57679">
        <ele>111</ele>
        <time>2020-06-28T06:47:16Z</time>
      </trkpt>
      <trkpt lat="46.5897" lon="0.57683">
        <ele>110.9</ele>
        <time>2020-06-28T06:47:18Z</time>
      </trkpt>
      <trkpt lat="46.58982" lon="0.57688">
        <ele>111</ele>
        <time>2020-06-28T06:47:20Z</time>
      </trkpt>
      <trkpt lat="46.58993" lon="0.57691">
        <ele>110.8</ele>
        <time>2020-06-28T06:47:22Z</time>
      </trkpt>
      <trkpt lat="46.59002" lon="0.5769">
        <ele>110.6</ele>
        <time>2020-06-28T06:47:24Z</time>
      </trkpt>
      <trkpt lat="46.59008" lon="0.57676">
        <ele>110.4</ele>
        <time>2020-06-28T06:47:27Z</time>
      </trkpt>
      <trkpt lat="46.5901" lon="0.57662">
        <ele>110.3</ele>
        <time>2020-06-28T06:47:29Z</time>
      </trkpt>
      <trkpt lat="46.5901" lon="0.57646">
        <ele>110.3</ele>
        <time>2020-06-28T06:47:31Z</time>
      </trkpt>
      <trkpt lat="46.59011" lon="0.57629">
        <ele>110.2</ele>
        <time>2020-06-28T06:47:33Z</time>
      </trkpt>
      <trkpt lat="46.59012" lon="0.57613">
        <ele>110.1</ele>
        <time>2020-06-28T06:47:35Z</time>
      </trkpt>
      <trkpt lat="46.59014" lon="0.57595">
        <ele>110.1</ele>
        <time>2020-06-28T06:47:37Z</time>
      </trkpt>
      <trkpt lat="46.59018" lon="0.57577">
        <ele>110.1</ele>
        <time>2020-06-28T06:47:39Z</time>
      </trkpt>
      <trkpt lat="46.59023" lon="0.57559">
        <ele>110.2</ele>
        <time>2020-06-28T06:47:41Z</time>
      </trkpt>
      <trkpt lat="46.59028" lon="0.57543">
        <ele>110.4</ele>
        <time>2020-06-28T06:47:43Z</time>
      </trkpt>
      <trkpt lat="46.59032" lon="0.57528">
        <ele>110.7</ele>
        <time>2020-06-28T06:47:45Z</time>
      </trkpt>
      <trkpt lat="46.59036" lon="0.57514">
        <ele>110.9</ele>
        <time>2020-06-28T06:47:47Z</time>
      </trkpt>
      <trkpt lat="46.59039" lon="0.575">
        <ele>111</ele>
        <time>2020-06-28T06:47:49Z</time>
      </trkpt>
      <trkpt lat="46.59041" lon="0.57487">
        <ele>111.2</ele>
        <time>2020-06-28T06:47:51Z</time>
      </trkpt>
      <trkpt lat="46.59043" lon="0.57473">
        <ele>111.5</ele>
        <time>2020-06-28T06:47:53Z</time>
      </trkpt>
      <trkpt lat="46.59044" lon="0.57456">
        <ele>112</ele>
        <time>2020-06-28T06:47:55Z</time>
      </trkpt>
      <trkpt lat="46.59043" lon="0.57441">
        <ele>112.5</ele>
        <time>2020-06-28T06:47:57Z</time>
      </trkpt>
      <trkpt lat="46.59042" lon="0.57426">
        <ele>113</ele>
        <time>2020-06-28T06:47:59Z</time>
      </trkpt>
      <trkpt lat="46.59041" lon="0.57413">
        <ele>113.3</ele>
        <time>2020-06-28T06:48:01Z</time>
      </trkpt>
      <trkpt lat="46.59039" lon="0.574">
        <ele>113.7</ele>
        <time>2020-06-28T06:48:03Z</time>
      </trkpt>
      <trkpt lat="46.59038" lon="0.57386">
        <ele>114</ele>
        <time>2020-06-28T06:48:05Z</time>
      </trkpt>
      <trkpt lat="46.59037" lon="0.57369">
        <ele>114.5</ele>
        <time>2020-06-28T06:48:08Z</time>
      </trkpt>
      <trkpt lat="46.59036" lon="0.57355">
        <ele>114.9</ele>
        <time>2020-06-28T06:48:11Z</time>
      </trkpt>
      <trkpt lat="46.59035" lon="0.57339">
        <ele>115.2</ele>
        <time>2020-06-28T06:48:14Z</time>
      </trkpt>
      <trkpt lat="46.59035" lon="0.57326">
        <ele>115.4</ele>
        <time>2020-06-28T06:48:16Z</time>
      </trkpt>
      <trkpt lat="46.59036" lon="0.57306">
        <ele>115.7</ele>
        <time>2020-06-28T06:48:19Z</time>
      </trkpt>
      <trkpt lat="46.59036" lon="0.57287">
        <ele>115.9</ele>
        <time>2020-06-28T06:48:22Z</time>
      </trkpt>
      <trkpt lat="46.59037" lon="0.57273">
        <ele>116.1</ele>
        <time>2020-06-28T06:48:25Z</time>
      </trkpt>
      <trkpt lat="46.59048" lon="0.57275">
        <ele>116.5</ele>
        <time>2020-06-28T06:48:28Z</time>
      </trkpt>
      <trkpt lat="46.59057" lon="0.57282">
        <ele>116.4</ele>
        <time>2020-06-28T06:48:30Z</time>
      </trkpt>
      <trkpt lat="46.59066" lon="0.57289">
        <ele>116</ele>
        <time>2020-06-28T06:48:32Z</time>
      </trkpt>
      <trkpt lat="46.59075" lon="0.57295">
        <ele>115.7</ele>
        <time>2020-06-28T06:48:34Z</time>
      </trkpt>
      <trkpt lat="46.59084" lon="0.57302">
        <ele>115.5</ele>
        <time>2020-06-28T06:48:36Z</time>
      </trkpt>
      <trkpt lat="46.59092" lon="0.57309">
        <ele>115.2</ele>
        <time>2020-06-28T06:48:38Z</time>
      </trkpt>
      <trkpt lat="46.59102" lon="0.57316">
        <ele>115</ele>
        <time>2020-06-28T06:48:40Z</time>
      </trkpt>
      <trkpt lat="46.5911" lon="0.57324">
        <ele>114.9</ele>
        <time>2020-06-28T06:48:42Z</time>
      </trkpt>
      <trkpt lat="46.5912" lon="0.57331">
        <ele>114.6</ele>
        <time>2020-06-28T06:48:44Z</time>
      </trkpt>
      <trkpt lat="46.5913" lon="0.57339">
        <ele>114.4</ele>
        <time>2020-06-28T06:48:46Z</time>
      </trkpt>
      <trkpt lat="46.5914" lon="0.57346">
        <ele>114.5</ele>
        <time>2020-06-28T06:48:48Z</time>
      </trkpt>
      <trkpt lat="46.59149" lon="0.57352">
        <ele>114.6</ele>
        <time>2020-06-28T06:48:50Z</time>
      </trkpt>
      <trkpt lat="46.59159" lon="0.5736">
        <ele>114.5</ele>
        <time>2020-06-28T06:48:52Z</time>
      </trkpt>
      <trkpt lat="46.59169" lon="0.57368">
        <ele>114.6</ele>
        <time>2020-06-28T06:48:54Z</time>
      </trkpt>
      <trkpt lat="46.5918" lon="0.57376">
        <ele>114.5</ele>
        <time>2020-06-28T06:48:56Z</time>
      </trkpt>
      <trkpt lat="46.59192" lon="0.57382">
        <ele>114.1</ele>
        <time>2020-06-28T06:48:58Z</time>
      </trkpt>
      <trkpt lat="46.59203" lon="0.5739">
        <ele>114</ele>
        <time>2020-06-28T06:49:00Z</time>
      </trkpt>
      <trkpt lat="46.59213" lon="0.57398">
        <ele>114.3</ele>
        <time>2020-06-28T06:49:02Z</time>
      </trkpt>
      <trkpt lat="46.59223" lon="0.57405">
        <ele>114.7</ele>
        <time>2020-06-28T06:49:04Z</time>
      </trkpt>
      <trkpt lat="46.59232" lon="0.57412">
        <ele>115</ele>
        <time>2020-06-28T06:49:06Z</time>
      </trkpt>
      <trkpt lat="46.59241" lon="0.57419">
        <ele>115.7</ele>
        <time>2020-06-28T06:49:08Z</time>
      </trkpt>
      <trkpt lat="46.59251" lon="0.57426">
        <ele>116.5</ele>
        <time>2020-06-28T06:49:10Z</time>
      </trkpt>
      <trkpt lat="46.59261" lon="0.57428">
        <ele>116.8</ele>
        <time>2020-06-28T06:49:13Z</time>
      </trkpt>
      <trkpt lat="46.5927" lon="0.57428">
        <ele>116.9</ele>
        <time>2020-06-28T06:49:15Z</time>
      </trkpt>
      <trkpt lat="46.5928" lon="0.5743">
        <ele>116.8</ele>
        <time>2020-06-28T06:49:17Z</time>
      </trkpt>
      <trkpt lat="46.5929" lon="0.57432">
        <ele>116.9</ele>
        <time>2020-06-28T06:49:19Z</time>
      </trkpt>
      <trkpt lat="46.59299" lon="0.57436">
        <ele>117</ele>
        <time>2020-06-28T06:49:21Z</time>
      </trkpt>
      <trkpt lat="46.59311" lon="0.57441">
        <ele>117.2</ele>
        <time>2020-06-28T06:49:24Z</time>
      </trkpt>
      <trkpt lat="46.59321" lon="0.57442">
        <ele>117.3</ele>
        <time>2020-06-28T06:49:27Z</time>
      </trkpt>
      <trkpt lat="46.59331" lon="0.5744">
        <ele>117.3</ele>
        <time>2020-06-28T06:49:29Z</time>
      </trkpt>
      <trkpt lat="46.59341" lon="0.57438">
        <ele>117.1</ele>
        <time>2020-06-28T06:49:31Z</time>
      </trkpt>
      <trkpt lat="46.59354" lon="0.57431">
        <ele>117.4</ele>
        <time>2020-06-28T06:49:33Z</time>
      </trkpt>
      <trkpt lat="46.59364" lon="0.57427">
        <ele>117.6</ele>
        <time>2020-06-28T06:49:35Z</time>
      </trkpt>
      <trkpt lat="46.59376" lon="0.57421">
        <ele>117.6</ele>
        <time>2020-06-28T06:49:37Z</time>
      </trkpt>
      <trkpt lat="46.5939" lon="0.57416">
        <ele>117.8</ele>
        <time>2020-06-28T06:49:39Z</time>
      </trkpt>
      <trkpt lat="46.59401" lon="0.57417">
        <ele>117.9</ele>
        <time>2020-06-28T06:49:41Z</time>
      </trkpt>
      <trkpt lat="46.59412" lon="0.57416">
        <ele>117.8</ele>
        <time>2020-06-28T06:49:43Z</time>
      </trkpt>
      <trkpt lat="46.59421" lon="0.57414">
        <ele>117.5</ele>
        <time>2020-06-28T06:49:45Z</time>
      </trkpt>
      <trkpt lat="46.59432" lon="0.5741">
        <ele>116.6</ele>
        <time>2020-06-28T06:49:47Z</time>
      </trkpt>
      <trkpt lat="46.59446" lon="0.57404">
        <ele>115.4</ele>
        <time>2020-06-28T06:49:49Z</time>
      </trkpt>
      <trkpt lat="46.59461" lon="0.57397">
        <ele>114.6</ele>
        <time>2020-06-28T06:49:51Z</time>
      </trkpt>
      <trkpt lat="46.59476" lon="0.57393">
        <ele>114.5</ele>
        <time>2020-06-28T06:49:53Z</time>
      </trkpt>
      <trkpt lat="46.59491" lon="0.57391">
        <ele>114.7</ele>
        <time>2020-06-28T06:49:55Z</time>
      </trkpt>
      <trkpt lat="46.59504" lon="0.57389">
        <ele>114.7</ele>
        <time>2020-06-28T06:49:57Z</time>
      </trkpt>
      <trkpt lat="46.59517" lon="0.57388">
        <ele>114.8</ele>
        <time>2020-06-28T06:49:59Z</time>
      </trkpt>
      <trkpt lat="46.59528" lon="0.57392">
        <ele>114.8</ele>
        <time>2020-06-28T06:50:01Z</time>
      </trkpt>
      <trkpt lat="46.59534" lon="0.57405">
        <ele>114.1</ele>
        <time>2020-06-28T06:50:03Z</time>
      </trkpt>
      <trkpt lat="46.59541" lon="0.5742">
        <ele>113.6</ele>
        <time>2020-06-28T06:50:05Z</time>
      </trkpt>
      <trkpt lat="46.59548" lon="0.57437">
        <ele>113.1</ele>
        <time>2020-06-28T06:50:07Z</time>
      </trkpt>
      <trkpt lat="46.59553" lon="0.57457">
        <ele>112.5</ele>
        <time>2020-06-28T06:50:09Z</time>
      </trkpt>
      <trkpt lat="46.59558" lon="0.57477">
        <ele>112.1</ele>
        <time>2020-06-28T06:50:11Z</time>
      </trkpt>
      <trkpt lat="46.59562" lon="0.57495">
        <ele>111.6</ele>
        <time>2020-06-28T06:50:13Z</time>
      </trkpt>
      <trkpt lat="46.59565" lon="0.57513">
        <ele>111.3</ele>
        <time>2020-06-28T06:50:15Z</time>
      </trkpt>
      <trkpt lat="46.59569" lon="0.57527">
        <ele>111</ele>
        <time>2020-06-28T06:50:17Z</time>
      </trkpt>
      <trkpt lat="46.59573" lon="0.5754">
        <ele>110.7</ele>
        <time>2020-06-28T06:50:19Z</time>
      </trkpt>
      <trkpt lat="46.59579" lon="0.57553">
        <ele>110.2</ele>
        <time>2020-06-28T06:50:21Z</time>
      </trkpt>
      <trkpt lat="46.59587" lon="0.57569">
        <ele>109.9</ele>
        <time>2020-06-28T06:50:23Z</time>
      </trkpt>
      <trkpt lat="46.59597" lon="0.57586">
        <ele>109.6</ele>
        <time>2020-06-28T06:50:25Z</time>
      </trkpt>
      <trkpt lat="46.59608" lon="0.57603">
        <ele>109.3</ele>
        <time>2020-06-28T06:50:27Z</time>
      </trkpt>
      <trkpt lat="46.59617" lon="0.57619">
        <ele>109</ele>
        <time>2020-06-28T06:50:29Z</time>
      </trkpt>
      <trkpt lat="46.59626" lon="0.57634">
        <ele>108.6</ele>
        <time>2020-06-28T06:50:31Z</time>
      </trkpt>
      <trkpt lat="46.59635" lon="0.57647">
        <ele>108.5</ele>
        <time>2020-06-28T06:50:33Z</time>
      </trkpt>
      <trkpt lat="46.59642" lon="0.57661">
        <ele>108.5</ele>
        <time>2020-06-28T06:50:35Z</time>
      </trkpt>
      <trkpt lat="46.59649" lon="0.57677">
        <ele>108.3</ele>
        <time>2020-06-28T06:50:37Z</time>
      </trkpt>
      <trkpt lat="46.59657" lon="0.57693">
        <ele>108.3</ele>
        <time>2020-06-28T06:50:39Z</time>
      </trkpt>
      <trkpt lat="46.59664" lon="0.57708">
        <ele>108.3</ele>
        <time>2020-06-28T06:50:41Z</time>
      </trkpt>
      <trkpt lat="46.5967" lon="0.57723">
        <ele>108.1</ele>
        <time>2020-06-28T06:50:43Z</time>
      </trkpt>
      <trkpt lat="46.59676" lon="0.57737">
        <ele>108</ele>
        <time>2020-06-28T06:50:45Z</time>
      </trkpt>
      <trkpt lat="46.59682" lon="0.57749">
        <ele>107.9</ele>
        <time>2020-06-28T06:50:47Z</time>
      </trkpt>
      <trkpt lat="46.59689" lon="0.57761">
        <ele>107.7</ele>
        <time>2020-06-28T06:50:49Z</time>
      </trkpt>
      <trkpt lat="46.59696" lon="0.57774">
        <ele>107.5</ele>
        <time>2020-06-28T06:50:51Z</time>
      </trkpt>
      <trkpt lat="46.59703" lon="0.57789">
        <ele>107.4</ele>
        <time>2020-06-28T06:50:53Z</time>
      </trkpt>
      <trkpt lat="46.5971" lon="0.57803">
        <ele>107.4</ele>
        <time>2020-06-28T06:50:55Z</time>
      </trkpt>
      <trkpt lat="46.59714" lon="0.57817">
        <ele>107.4</ele>
        <time>2020-06-28T06:50:57Z</time>
      </trkpt>
      <trkpt lat="46.59719" lon="0.57835">
        <ele>107.3</ele>
        <time>2020-06-28T06:50:59Z</time>
      </trkpt>
      <trkpt lat="46.59722" lon="0.57853">
        <ele>106.8</ele>
        <time>2020-06-28T06:51:01Z</time>
      </trkpt>
      <trkpt lat="46.59726" lon="0.57866">
        <ele>106.4</ele>
        <time>2020-06-28T06:51:03Z</time>
      </trkpt>
      <trkpt lat="46.5973" lon="0.57879">
        <ele>106.1</ele>
        <time>2020-06-28T06:51:05Z</time>
      </trkpt>
      <trkpt lat="46.59735" lon="0.57896">
        <ele>105.9</ele>
        <time>2020-06-28T06:51:07Z</time>
      </trkpt>
      <trkpt lat="46.59741" lon="0.57916">
        <ele>105.3</ele>
        <time>2020-06-28T06:51:09Z</time>
      </trkpt>
      <trkpt lat="46.59745" lon="0.57935">
        <ele>104.7</ele>
        <time>2020-06-28T06:51:11Z</time>
      </trkpt>
      <trkpt lat="46.59746" lon="0.57955">
        <ele>104.4</ele>
        <time>2020-06-28T06:51:13Z</time>
      </trkpt>
      <trkpt lat="46.59747" lon="0.57973">
        <ele>104.3</ele>
        <time>2020-06-28T06:51:15Z</time>
      </trkpt>
      <trkpt lat="46.59748" lon="0.57992">
        <ele>104.1</ele>
        <time>2020-06-28T06:51:17Z</time>
      </trkpt>
      <trkpt lat="46.59752" lon="0.58008">
        <ele>104.1</ele>
        <time>2020-06-28T06:51:19Z</time>
      </trkpt>
      <trkpt lat="46.59757" lon="0.58021">
        <ele>104.1</ele>
        <time>2020-06-28T06:51:21Z</time>
      </trkpt>
      <trkpt lat="46.59761" lon="0.58035">
        <ele>104</ele>
        <time>2020-06-28T06:51:23Z</time>
      </trkpt>
      <trkpt lat="46.59764" lon="0.58051">
        <ele>103.9</ele>
        <time>2020-06-28T06:51:25Z</time>
      </trkpt>
      <trkpt lat="46.59768" lon="0.58067">
        <ele>103.7</ele>
        <time>2020-06-28T06:51:27Z</time>
      </trkpt>
      <trkpt lat="46.59771" lon="0.5808">
        <ele>103.6</ele>
        <time>2020-06-28T06:51:29Z</time>
      </trkpt>
      <trkpt lat="46.59775" lon="0.58098">
        <ele>103.6</ele>
        <time>2020-06-28T06:51:32Z</time>
      </trkpt>
      <trkpt lat="46.5978" lon="0.58113">
        <ele>103.5</ele>
        <time>2020-06-28T06:51:34Z</time>
      </trkpt>
      <trkpt lat="46.59783" lon="0.58128">
        <ele>103.4</ele>
        <time>2020-06-28T06:51:37Z</time>
      </trkpt>
      <trkpt lat="46.59788" lon="0.58145">
        <ele>103.3</ele>
        <time>2020-06-28T06:51:40Z</time>
      </trkpt>
      <trkpt lat="46.59791" lon="0.58159">
        <ele>103.2</ele>
        <time>2020-06-28T06:51:42Z</time>
      </trkpt>
      <trkpt lat="46.59795" lon="0.58179">
        <ele>103.1</ele>
        <time>2020-06-28T06:51:45Z</time>
      </trkpt>
      <trkpt lat="46.59799" lon="0.58194">
        <ele>103</ele>
        <time>2020-06-28T06:51:47Z</time>
      </trkpt>
      <trkpt lat="46.59805" lon="0.58213">
        <ele>102.8</ele>
        <time>2020-06-28T06:51:50Z</time>
      </trkpt>
      <trkpt lat="46.5981" lon="0.58225">
        <ele>102.6</ele>
        <time>2020-06-28T06:51:52Z</time>
      </trkpt>
      <trkpt lat="46.59813" lon="0.58237">
        <ele>102.2</ele>
        <time>2020-06-28T06:51:54Z</time>
      </trkpt>
      <trkpt lat="46.59812" lon="0.58252">
        <ele>101.7</ele>
        <time>2020-06-28T06:51:57Z</time>
      </trkpt>
      <trkpt lat="46.59811" lon="0.58267">
        <ele>100.9</ele>
        <time>2020-06-28T06:51:59Z</time>
      </trkpt>
      <trkpt lat="46.59814" lon="0.58285">
        <ele>99.9</ele>
        <time>2020-06-28T06:52:01Z</time>
      </trkpt>
      <trkpt lat="46.59817" lon="0.58299">
        <ele>99.1</ele>
        <time>2020-06-28T06:52:03Z</time>
      </trkpt>
      <trkpt lat="46.59821" lon="0.58314">
        <ele>97.9</ele>
        <time>2020-06-28T06:52:05Z</time>
      </trkpt>
      <trkpt lat="46.59829" lon="0.58323">
        <ele>97.8</ele>
        <time>2020-06-28T06:52:08Z</time>
      </trkpt>
      <trkpt lat="46.59838" lon="0.58332">
        <ele>97.7</ele>
        <time>2020-06-28T06:52:11Z</time>
      </trkpt>
      <trkpt lat="46.59848" lon="0.58343">
        <ele>97.5</ele>
        <time>2020-06-28T06:52:14Z</time>
      </trkpt>
      <trkpt lat="46.59857" lon="0.58353">
        <ele>97.2</ele>
        <time>2020-06-28T06:52:17Z</time>
      </trkpt>
      <trkpt lat="46.59869" lon="0.58357">
        <ele>96.9</ele>
        <time>2020-06-28T06:52:20Z</time>
      </trkpt>
      <trkpt lat="46.59874" lon="0.58344">
        <ele>97.7</ele>
        <time>2020-06-28T06:52:23Z</time>
      </trkpt>
      <trkpt lat="46.59871" lon="0.58332">
        <ele>98.5</ele>
        <time>2020-06-28T06:52:26Z</time>
      </trkpt>
      <trkpt lat="46.59871" lon="0.58317">
        <ele>99.4</ele>
        <time>2020-06-28T06:52:28Z</time>
      </trkpt>
      <trkpt lat="46.59872" lon="0.58303">
        <ele>100.1</ele>
        <time>2020-06-28T06:52:30Z</time>
      </trkpt>
      <trkpt lat="46.59873" lon="0.58289">
        <ele>100.9</ele>
        <time>2020-06-28T06:52:32Z</time>
      </trkpt>
      <trkpt lat="46.59873" lon="0.58274">
        <ele>101.7</ele>
        <time>2020-06-28T06:52:34Z</time>
      </trkpt>
      <trkpt lat="46.59874" lon="0.5826">
        <ele>102.4</ele>
        <time>2020-06-28T06:52:36Z</time>
      </trkpt>
      <trkpt lat="46.59875" lon="0.58241">
        <ele>103.3</ele>
        <time>2020-06-28T06:52:38Z</time>
      </trkpt>
      <trkpt lat="46.59875" lon="0.58225">
        <ele>104.2</ele>
        <time>2020-06-28T06:52:40Z</time>
      </trkpt>
      <trkpt lat="46.59875" lon="0.5821">
        <ele>105.2</ele>
        <time>2020-06-28T06:52:44Z</time>
      </trkpt>
      <trkpt lat="46.59876" lon="0.58197">
        <ele>106.1</ele>
        <time>2020-06-28T06:53:23Z</time>
      </trkpt>
      <trkpt lat="46.59877" lon="0.58183">
        <ele>107.1</ele>
        <time>2020-06-28T06:53:33Z</time>
      </trkpt>
      <trkpt lat="46.59874" lon="0.58168">
        <ele>107.8</ele>
        <time>2020-06-28T06:53:38Z</time>
      </trkpt>
      <trkpt lat="46.59867" lon="0.58156">
        <ele>108.5</ele>
        <time>2020-06-28T06:53:43Z</time>
      </trkpt>
      <trkpt lat="46.59863" lon="0.58142">
        <ele>109.4</ele>
        <time>2020-06-28T06:53:47Z</time>
      </trkpt>
      <trkpt lat="46.59855" lon="0.58131">
        <ele>109</ele>
        <time>2020-06-28T06:53:50Z</time>
      </trkpt>
      <trkpt lat="46.59847" lon="0.58122">
        <ele>108.5</ele>
        <time>2020-06-28T06:53:53Z</time>
      </trkpt>
      <trkpt lat="46.5984" lon="0.58113">
        <ele>107.9</ele>
        <time>2020-06-28T06:53:56Z</time>
      </trkpt>
      <trkpt lat="46.59834" lon="0.58102">
        <ele>107.4</ele>
        <time>2020-06-28T06:53:59Z</time>
      </trkpt>
      <trkpt lat="46.59829" lon="0.58087">
        <ele>106.8</ele>
        <time>2020-06-28T06:54:02Z</time>
      </trkpt>
      <trkpt lat="46.59823" lon="0.58076">
        <ele>106.4</ele>
        <time>2020-06-28T06:54:04Z</time>
      </trkpt>
      <trkpt lat="46.59816" lon="0.58065">
        <ele>105.8</ele>
        <time>2020-06-28T06:54:07Z</time>
      </trkpt>
      <trkpt lat="46.59808" lon="0.58054">
        <ele>104.7</ele>
        <time>2020-06-28T06:54:11Z</time>
      </trkpt>
      <trkpt lat="46.59801" lon="0.58039">
        <ele>103.6</ele>
        <time>2020-06-28T06:54:14Z</time>
      </trkpt>
      <trkpt lat="46.59797" lon="0.58023">
        <ele>103.1</ele>
        <time>2020-06-28T06:54:17Z</time>
      </trkpt>
      <trkpt lat="46.59796" lon="0.58008">
        <ele>102.9</ele>
        <time>2020-06-28T06:54:20Z</time>
      </trkpt>
      <trkpt lat="46.59808" lon="0.5801">
        <ele>103.1</ele>
        <time>2020-06-28T06:54:25Z</time>
      </trkpt>
      <trkpt lat="46.59817" lon="0.58022">
        <ele>103.8</ele>
        <time>2020-06-28T06:54:28Z</time>
      </trkpt>
      <trkpt lat="46.59824" lon="0.58033">
        <ele>105</ele>
        <time>2020-06-28T06:54:31Z</time>
      </trkpt>
      <trkpt lat="46.59836" lon="0.58043">
        <ele>106.2</ele>
        <time>2020-06-28T06:54:37Z</time>
      </trkpt>
      <trkpt lat="46.59846" lon="0.58049">
        <ele>106.7</ele>
        <time>2020-06-28T06:54:40Z</time>
      </trkpt>
      <trkpt lat="46.59856" lon="0.58057">
        <ele>107.3</ele>
        <time>2020-06-28T06:54:44Z</time>
      </trkpt>
      <trkpt lat="46.59864" lon="0.58064">
        <ele>107.9</ele>
        <time>2020-06-28T06:54:47Z</time>
      </trkpt>
      <trkpt lat="46.59874" lon="0.58073">
        <ele>108.6</ele>
        <time>2020-06-28T06:54:50Z</time>
      </trkpt>
      <trkpt lat="46.59883" lon="0.58083">
        <ele>109.2</ele>
        <time>2020-06-28T06:54:54Z</time>
      </trkpt>
      <trkpt lat="46.59891" lon="0.5809">
        <ele>109.6</ele>
        <time>2020-06-28T06:54:57Z</time>
      </trkpt>
      <trkpt lat="46.599" lon="0.58097">
        <ele>110</ele>
        <time>2020-06-28T06:55:00Z</time>
      </trkpt>
      <trkpt lat="46.59908" lon="0.58104">
        <ele>110.3</ele>
        <time>2020-06-28T06:55:03Z</time>
      </trkpt>
      <trkpt lat="46.59915" lon="0.58112">
        <ele>110.5</ele>
        <time>2020-06-28T06:55:06Z</time>
      </trkpt>
      <trkpt lat="46.59925" lon="0.58121">
        <ele>110.6</ele>
        <time>2020-06-28T06:55:09Z</time>
      </trkpt>
      <trkpt lat="46.59932" lon="0.58128">
        <ele>110.4</ele>
        <time>2020-06-28T06:55:12Z</time>
      </trkpt>
      <trkpt lat="46.5994" lon="0.58137">
        <ele>110.2</ele>
        <time>2020-06-28T06:55:16Z</time>
      </trkpt>
      <trkpt lat="46.59946" lon="0.58151">
        <ele>110</ele>
        <time>2020-06-28T06:55:20Z</time>
      </trkpt>
      <trkpt lat="46.59949" lon="0.58166">
        <ele>109.9</ele>
        <time>2020-06-28T06:55:23Z</time>
      </trkpt>
      <trkpt lat="46.59954" lon="0.58183">
        <ele>109.6</ele>
        <time>2020-06-28T06:55:26Z</time>
      </trkpt>
      <trkpt lat="46.59958" lon="0.58197">
        <ele>109.3</ele>
        <time>2020-06-28T06:55:28Z</time>
      </trkpt>
      <trkpt lat="46.59963" lon="0.5821">
        <ele>109.1</ele>
        <time>2020-06-28T06:55:30Z</time>
      </trkpt>
      <trkpt lat="46.59974" lon="0.58224">
        <ele>109</ele>
        <time>2020-06-28T06:55:32Z</time>
      </trkpt>
      <trkpt lat="46.59983" lon="0.58233">
        <ele>109.2</ele>
        <time>2020-06-28T06:55:34Z</time>
      </trkpt>
      <trkpt lat="46.59994" lon="0.58239">
        <ele>109.7</ele>
        <time>2020-06-28T06:55:36Z</time>
      </trkpt>
      <trkpt lat="46.60005" lon="0.58245">
        <ele>110.3</ele>
        <time>2020-06-28T06:55:38Z</time>
      </trkpt>
      <trkpt lat="46.60016" lon="0.58254">
        <ele>110.7</ele>
        <time>2020-06-28T06:55:41Z</time>
      </trkpt>
      <trkpt lat="46.60027" lon="0.58255">
        <ele>111</ele>
        <time>2020-06-28T06:55:43Z</time>
      </trkpt>
      <trkpt lat="46.60037" lon="0.58258">
        <ele>111.3</ele>
        <time>2020-06-28T06:55:45Z</time>
      </trkpt>
      <trkpt lat="46.60046" lon="0.58262">
        <ele>111.6</ele>
        <time>2020-06-28T06:55:47Z</time>
      </trkpt>
      <trkpt lat="46.60057" lon="0.58262">
        <ele>111.8</ele>
        <time>2020-06-28T06:55:49Z</time>
      </trkpt>
      <trkpt lat="46.60068" lon="0.58262">
        <ele>111.7</ele>
        <time>2020-06-28T06:55:51Z</time>
      </trkpt>
      <trkpt lat="46.60081" lon="0.58262">
        <ele>111.7</ele>
        <time>2020-06-28T06:55:54Z</time>
      </trkpt>
      <trkpt lat="46.6009" lon="0.58264">
        <ele>111.7</ele>
        <time>2020-06-28T06:55:56Z</time>
      </trkpt>
      <trkpt lat="46.60104" lon="0.58264">
        <ele>111.8</ele>
        <time>2020-06-28T06:55:58Z</time>
      </trkpt>
      <trkpt lat="46.60113" lon="0.58265">
        <ele>111.8</ele>
        <time>2020-06-28T06:56:00Z</time>
      </trkpt>
      <trkpt lat="46.60124" lon="0.58265">
        <ele>111.7</ele>
        <time>2020-06-28T06:56:02Z</time>
      </trkpt>
      <trkpt lat="46.60133" lon="0.58265">
        <ele>111.6</ele>
        <time>2020-06-28T06:56:04Z</time>
      </trkpt>
      <trkpt lat="46.60143" lon="0.58267">
        <ele>111.5</ele>
        <time>2020-06-28T06:56:06Z</time>
      </trkpt>
      <trkpt lat="46.60152" lon="0.58269">
        <ele>111.3</ele>
        <time>2020-06-28T06:56:08Z</time>
      </trkpt>
      <trkpt lat="46.60165" lon="0.58273">
        <ele>111.1</ele>
        <time>2020-06-28T06:56:11Z</time>
      </trkpt>
      <trkpt lat="46.60176" lon="0.58278">
        <ele>110.9</ele>
        <time>2020-06-28T06:56:13Z</time>
      </trkpt>
      <trkpt lat="46.60187" lon="0.5828">
        <ele>110.6</ele>
        <time>2020-06-28T06:56:15Z</time>
      </trkpt>
      <trkpt lat="46.60198" lon="0.58282">
        <ele>110.3</ele>
        <time>2020-06-28T06:56:17Z</time>
      </trkpt>
      <trkpt lat="46.60208" lon="0.58283">
        <ele>109.9</ele>
        <time>2020-06-28T06:56:19Z</time>
      </trkpt>
      <trkpt lat="46.60217" lon="0.58285">
        <ele>109.6</ele>
        <time>2020-06-28T06:56:21Z</time>
      </trkpt>
      <trkpt lat="46.60231" lon="0.58289">
        <ele>109.3</ele>
        <time>2020-06-28T06:56:24Z</time>
      </trkpt>
      <trkpt lat="46.60242" lon="0.58302">
        <ele>108.9</ele>
        <time>2020-06-28T06:56:27Z</time>
      </trkpt>
      <trkpt lat="46.60247" lon="0.58314">
        <ele>108.6</ele>
        <time>2020-06-28T06:56:29Z</time>
      </trkpt>
      <trkpt lat="46.60252" lon="0.58327">
        <ele>108.1</ele>
        <time>2020-06-28T06:56:31Z</time>
      </trkpt>
      <trkpt lat="46.60259" lon="0.58344">
        <ele>107.7</ele>
        <time>2020-06-28T06:56:34Z</time>
      </trkpt>
      <trkpt lat="46.60264" lon="0.58355">
        <ele>107.4</ele>
        <time>2020-06-28T06:56:36Z</time>
      </trkpt>
      <trkpt lat="46.6027" lon="0.58367">
        <ele>106.9</ele>
        <time>2020-06-28T06:56:38Z</time>
      </trkpt>
      <trkpt lat="46.60279" lon="0.58389">
        <ele>106</ele>
        <time>2020-06-28T06:56:42Z</time>
      </trkpt>
      <trkpt lat="46.60287" lon="0.58403">
        <ele>105.3</ele>
        <time>2020-06-28T06:56:44Z</time>
      </trkpt>
      <trkpt lat="46.60294" lon="0.58416">
        <ele>104.3</ele>
        <time>2020-06-28T06:56:46Z</time>
      </trkpt>
      <trkpt lat="46.60302" lon="0.58429">
        <ele>103.3</ele>
        <time>2020-06-28T06:56:48Z</time>
      </trkpt>
      <trkpt lat="46.6031" lon="0.58443">
        <ele>101.9</ele>
        <time>2020-06-28T06:56:50Z</time>
      </trkpt>
      <trkpt lat="46.60318" lon="0.5846">
        <ele>100.1</ele>
        <time>2020-06-28T06:56:52Z</time>
      </trkpt>
      <trkpt lat="46.60327" lon="0.58475">
        <ele>98.8</ele>
        <time>2020-06-28T06:56:54Z</time>
      </trkpt>
      <trkpt lat="46.60336" lon="0.58493">
        <ele>98.2</ele>
        <time>2020-06-28T06:56:56Z</time>
      </trkpt>
      <trkpt lat="46.60343" lon="0.58507">
        <ele>98.2</ele>
        <time>2020-06-28T06:56:58Z</time>
      </trkpt>
      <trkpt lat="46.60352" lon="0.58514">
        <ele>98.4</ele>
        <time>2020-06-28T06:57:00Z</time>
      </trkpt>
      <trkpt lat="46.60351" lon="0.58531">
        <ele>97.8</ele>
        <time>2020-06-28T06:57:12Z</time>
      </trkpt>
      <trkpt lat="46.60348" lon="0.58545">
        <ele>97.4</ele>
        <time>2020-06-28T06:57:15Z</time>
      </trkpt>
      <trkpt lat="46.60345" lon="0.58562">
        <ele>96.9</ele>
        <time>2020-06-28T06:57:18Z</time>
      </trkpt>
      <trkpt lat="46.60344" lon="0.58579">
        <ele>96.5</ele>
        <time>2020-06-28T06:57:22Z</time>
      </trkpt>
      <trkpt lat="46.60341" lon="0.58591">
        <ele>96.2</ele>
        <time>2020-06-28T06:57:48Z</time>
      </trkpt>
      <trkpt lat="46.60338" lon="0.58605">
        <ele>95.8</ele>
        <time>2020-06-28T06:58:15Z</time>
      </trkpt>
      <trkpt lat="46.60337" lon="0.5862">
        <ele>95.2</ele>
        <time>2020-06-28T06:58:17Z</time>
      </trkpt>
      <trkpt lat="46.6034" lon="0.58637">
        <ele>94.6</ele>
        <time>2020-06-28T06:58:20Z</time>
      </trkpt>
      <trkpt lat="46.60342" lon="0.58654">
        <ele>94</ele>
        <time>2020-06-28T06:58:23Z</time>
      </trkpt>
      <trkpt lat="46.60343" lon="0.5867">
        <ele>93.5</ele>
        <time>2020-06-28T06:58:25Z</time>
      </trkpt>
      <trkpt lat="46.60347" lon="0.58685">
        <ele>93</ele>
        <time>2020-06-28T06:58:27Z</time>
      </trkpt>
      <trkpt lat="46.60349" lon="0.5871">
        <ele>92.5</ele>
        <time>2020-06-28T06:58:29Z</time>
      </trkpt>
      <trkpt lat="46.60351" lon="0.58725">
        <ele>92.4</ele>
        <time>2020-06-28T06:58:30Z</time>
      </trkpt>
      <trkpt lat="46.60353" lon="0.58742">
        <ele>92.3</ele>
        <time>2020-06-28T06:58:32Z</time>
      </trkpt>
      <trkpt lat="46.60354" lon="0.58759">
        <ele>92.2</ele>
        <time>2020-06-28T06:58:34Z</time>
      </trkpt>
      <trkpt lat="46.60356" lon="0.58776">
        <ele>92</ele>
        <time>2020-06-28T06:58:37Z</time>
      </trkpt>
      <trkpt lat="46.60361" lon="0.58788">
        <ele>91.7</ele>
        <time>2020-06-28T06:58:41Z</time>
      </trkpt>
      <trkpt lat="46.60366" lon="0.58806">
        <ele>91.1</ele>
        <time>2020-06-28T06:58:45Z</time>
      </trkpt>
      <trkpt lat="46.60364" lon="0.58821">
        <ele>90.6</ele>
        <time>2020-06-28T06:58:47Z</time>
      </trkpt>
      <trkpt lat="46.60363" lon="0.58841">
        <ele>90</ele>
        <time>2020-06-28T06:58:49Z</time>
      </trkpt>
      <trkpt lat="46.60358" lon="0.58857">
        <ele>89.6</ele>
        <time>2020-06-28T06:58:51Z</time>
      </trkpt>
      <trkpt lat="46.60347" lon="0.58869">
        <ele>89.2</ele>
        <time>2020-06-28T06:58:53Z</time>
      </trkpt>
      <trkpt lat="46.60336" lon="0.58878">
        <ele>88.9</ele>
        <time>2020-06-28T06:58:55Z</time>
      </trkpt>
      <trkpt lat="46.60323" lon="0.58876">
        <ele>88.4</ele>
        <time>2020-06-28T06:58:58Z</time>
      </trkpt>
      <trkpt lat="46.60309" lon="0.58872">
        <ele>87.8</ele>
        <time>2020-06-28T06:59:00Z</time>
      </trkpt>
      <trkpt lat="46.60295" lon="0.58868">
        <ele>87.2</ele>
        <time>2020-06-28T06:59:02Z</time>
      </trkpt>
      <trkpt lat="46.60283" lon="0.58865">
        <ele>86.6</ele>
        <time>2020-06-28T06:59:04Z</time>
      </trkpt>
      <trkpt lat="46.60272" lon="0.58852">
        <ele>85.8</ele>
        <time>2020-06-28T06:59:06Z</time>
      </trkpt>
      <trkpt lat="46.6026" lon="0.58845">
        <ele>85.2</ele>
        <time>2020-06-28T06:59:08Z</time>
      </trkpt>
      <trkpt lat="46.60252" lon="0.58839">
        <ele>84.8</ele>
        <time>2020-06-28T06:59:10Z</time>
      </trkpt>
      <trkpt lat="46.60244" lon="0.5883">
        <ele>84.4</ele>
        <time>2020-06-28T06:59:12Z</time>
      </trkpt>
      <trkpt lat="46.60233" lon="0.5882">
        <ele>83.9</ele>
        <time>2020-06-28T06:59:14Z</time>
      </trkpt>
      <trkpt lat="46.60223" lon="0.58806">
        <ele>83.2</ele>
        <time>2020-06-28T06:59:16Z</time>
      </trkpt>
      <trkpt lat="46.60215" lon="0.58798">
        <ele>82.6</ele>
        <time>2020-06-28T06:59:18Z</time>
      </trkpt>
      <trkpt lat="46.60206" lon="0.5879">
        <ele>82.1</ele>
        <time>2020-06-28T06:59:20Z</time>
      </trkpt>
      <trkpt lat="46.60194" lon="0.58783">
        <ele>81.5</ele>
        <time>2020-06-28T06:59:23Z</time>
      </trkpt>
      <trkpt lat="46.60184" lon="0.58779">
        <ele>81.1</ele>
        <time>2020-06-28T06:59:25Z</time>
      </trkpt>
      <trkpt lat="46.6017" lon="0.58779">
        <ele>80.6</ele>
        <time>2020-06-28T06:59:28Z</time>
      </trkpt>
      <trkpt lat="46.60161" lon="0.5878">
        <ele>80.2</ele>
        <time>2020-06-28T06:59:30Z</time>
      </trkpt>
      <trkpt lat="46.60151" lon="0.58784">
        <ele>79.7</ele>
        <time>2020-06-28T06:59:32Z</time>
      </trkpt>
      <trkpt lat="46.60141" lon="0.58787">
        <ele>79.3</ele>
        <time>2020-06-28T06:59:34Z</time>
      </trkpt>
      <trkpt lat="46.6013" lon="0.58789">
        <ele>78.8</ele>
        <time>2020-06-28T06:59:36Z</time>
      </trkpt>
      <trkpt lat="46.6012" lon="0.58793">
        <ele>78.5</ele>
        <time>2020-06-28T06:59:38Z</time>
      </trkpt>
      <trkpt lat="46.60108" lon="0.58798">
        <ele>78.2</ele>
        <time>2020-06-28T06:59:40Z</time>
      </trkpt>
      <trkpt lat="46.60098" lon="0.58801">
        <ele>77.9</ele>
        <time>2020-06-28T06:59:42Z</time>
      </trkpt>
      <trkpt lat="46.60089" lon="0.58807">
        <ele>77.7</ele>
        <time>2020-06-28T06:59:44Z</time>
      </trkpt>
      <trkpt lat="46.60079" lon="0.58814">
        <ele>77.5</ele>
        <time>2020-06-28T06:59:46Z</time>
      </trkpt>
      <trkpt lat="46.60071" lon="0.58822">
        <ele>77.3</ele>
        <time>2020-06-28T06:59:48Z</time>
      </trkpt>
      <trkpt lat="46.60066" lon="0.58838">
        <ele>77.1</ele>
        <time>2020-06-28T06:59:52Z</time>
      </trkpt>
      <trkpt lat="46.60055" lon="0.58856">
        <ele>76.8</ele>
        <time>2020-06-28T06:59:55Z</time>
      </trkpt>
      <trkpt lat="46.60047" lon="0.58871">
        <ele>76.4</ele>
        <time>2020-06-28T06:59:57Z</time>
      </trkpt>
      <trkpt lat="46.60041" lon="0.58886">
        <ele>76.1</ele>
        <time>2020-06-28T06:59:59Z</time>
      </trkpt>
      <trkpt lat="46.60037" lon="0.589">
        <ele>75.9</ele>
        <time>2020-06-28T07:00:01Z</time>
      </trkpt>
      <trkpt lat="46.60031" lon="0.58914">
        <ele>75.8</ele>
        <time>2020-06-28T07:00:03Z</time>
      </trkpt>
      <trkpt lat="46.60026" lon="0.58925">
        <ele>75.8</ele>
        <time>2020-06-28T07:00:05Z</time>
      </trkpt>
      <trkpt lat="46.60022" lon="0.5894">
        <ele>75.8</ele>
        <time>2020-06-28T07:00:07Z</time>
      </trkpt>
      <trkpt lat="46.60017" lon="0.58954">
        <ele>75.8</ele>
        <time>2020-06-28T07:00:09Z</time>
      </trkpt>
      <trkpt lat="46.60012" lon="0.58967">
        <ele>75.8</ele>
        <time>2020-06-28T07:00:12Z</time>
      </trkpt>
      <trkpt lat="46.60009" lon="0.58982">
        <ele>75.5</ele>
        <time>2020-06-28T07:00:15Z</time>
      </trkpt>
      <trkpt lat="46.6001" lon="0.58999">
        <ele>75.1</ele>
        <time>2020-06-28T07:00:18Z</time>
      </trkpt>
      <trkpt lat="46.60011" lon="0.59013">
        <ele>74.7</ele>
        <time>2020-06-28T07:00:21Z</time>
      </trkpt>
      <trkpt lat="46.60014" lon="0.59025">
        <ele>74.3</ele>
        <time>2020-06-28T07:00:25Z</time>
      </trkpt>
      <trkpt lat="46.60016" lon="0.59039">
        <ele>73.9</ele>
        <time>2020-06-28T07:00:28Z</time>
      </trkpt>
      <trkpt lat="46.60019" lon="0.59055">
        <ele>73.4</ele>
        <time>2020-06-28T07:00:31Z</time>
      </trkpt>
      <trkpt lat="46.60026" lon="0.5907">
        <ele>72.9</ele>
        <time>2020-06-28T07:00:34Z</time>
      </trkpt>
      <trkpt lat="46.60033" lon="0.59083">
        <ele>72.4</ele>
        <time>2020-06-28T07:00:36Z</time>
      </trkpt>
      <trkpt lat="46.60042" lon="0.59097">
        <ele>71.9</ele>
        <time>2020-06-28T07:00:38Z</time>
      </trkpt>
      <trkpt lat="46.60047" lon="0.59109">
        <ele>71.6</ele>
        <time>2020-06-28T07:00:40Z</time>
      </trkpt>
      <trkpt lat="46.60054" lon="0.59118">
        <ele>71.3</ele>
        <time>2020-06-28T07:00:42Z</time>
      </trkpt>
      <trkpt lat="46.60062" lon="0.59129">
        <ele>71</ele>
        <time>2020-06-28T07:00:44Z</time>
      </trkpt>
      <trkpt lat="46.60072" lon="0.59145">
        <ele>70.7</ele>
        <time>2020-06-28T07:00:46Z</time>
      </trkpt>
      <trkpt lat="46.60085" lon="0.59164">
        <ele>70.4</ele>
        <time>2020-06-28T07:00:48Z</time>
      </trkpt>
      <trkpt lat="46.60094" lon="0.59176">
        <ele>70.3</ele>
        <time>2020-06-28T07:00:50Z</time>
      </trkpt>
      <trkpt lat="46.601" lon="0.59187">
        <ele>70.2</ele>
        <time>2020-06-28T07:00:52Z</time>
      </trkpt>
      <trkpt lat="46.60108" lon="0.59196">
        <ele>70.1</ele>
        <time>2020-06-28T07:00:54Z</time>
      </trkpt>
      <trkpt lat="46.60114" lon="0.59205">
        <ele>70.1</ele>
        <time>2020-06-28T07:00:56Z</time>
      </trkpt>
      <trkpt lat="46.6012" lon="0.59214">
        <ele>70</ele>
        <time>2020-06-28T07:00:59Z</time>
      </trkpt>
      <trkpt lat="46.60126" lon="0.59228">
        <ele>69.8</ele>
        <time>2020-06-28T07:01:01Z</time>
      </trkpt>
      <trkpt lat="46.60131" lon="0.59239">
        <ele>69.6</ele>
        <time>2020-06-28T07:01:03Z</time>
      </trkpt>
      <trkpt lat="46.60138" lon="0.59253">
        <ele>69.4</ele>
        <time>2020-06-28T07:01:05Z</time>
      </trkpt>
      <trkpt lat="46.60143" lon="0.59265">
        <ele>69.1</ele>
        <time>2020-06-28T07:01:07Z</time>
      </trkpt>
      <trkpt lat="46.60154" lon="0.59276">
        <ele>68.9</ele>
        <time>2020-06-28T07:01:09Z</time>
      </trkpt>
      <trkpt lat="46.60164" lon="0.59285">
        <ele>68.8</ele>
        <time>2020-06-28T07:01:11Z</time>
      </trkpt>
      <trkpt lat="46.60174" lon="0.59294">
        <ele>68.8</ele>
        <time>2020-06-28T07:01:13Z</time>
      </trkpt>
      <trkpt lat="46.60183" lon="0.59306">
        <ele>68.8</ele>
        <time>2020-06-28T07:01:15Z</time>
      </trkpt>
      <trkpt lat="46.6019" lon="0.59315">
        <ele>68.8</ele>
        <time>2020-06-28T07:01:17Z</time>
      </trkpt>
      <trkpt lat="46.60196" lon="0.59327">
        <ele>68.9</ele>
        <time>2020-06-28T07:01:19Z</time>
      </trkpt>
      <trkpt lat="46.60201" lon="0.5934">
        <ele>69</ele>
        <time>2020-06-28T07:01:21Z</time>
      </trkpt>
      <trkpt lat="46.60204" lon="0.59356">
        <ele>68.9</ele>
        <time>2020-06-28T07:01:26Z</time>
      </trkpt>
      <trkpt lat="46.60207" lon="0.59373">
        <ele>68.9</ele>
        <time>2020-06-28T07:01:29Z</time>
      </trkpt>
      <trkpt lat="46.60211" lon="0.5939">
        <ele>68.8</ele>
        <time>2020-06-28T07:01:32Z</time>
      </trkpt>
      <trkpt lat="46.60214" lon="0.59404">
        <ele>68.8</ele>
        <time>2020-06-28T07:01:34Z</time>
      </trkpt>
      <trkpt lat="46.60217" lon="0.59419">
        <ele>68.8</ele>
        <time>2020-06-28T07:01:36Z</time>
      </trkpt>
      <trkpt lat="46.60209" lon="0.59426">
        <ele>70.1</ele>
        <time>2020-06-28T07:01:39Z</time>
      </trkpt>
      <trkpt lat="46.60199" lon="0.59421">
        <ele>71.4</ele>
        <time>2020-06-28T07:01:42Z</time>
      </trkpt>
      <trkpt lat="46.6019" lon="0.59416">
        <ele>73</ele>
        <time>2020-06-28T07:01:46Z</time>
      </trkpt>
      <trkpt lat="46.6018" lon="0.59418">
        <ele>74.8</ele>
        <time>2020-06-28T07:01:51Z</time>
      </trkpt>
      <trkpt lat="46.6017" lon="0.59416">
        <ele>76.6</ele>
        <time>2020-06-28T07:01:56Z</time>
      </trkpt>
      <trkpt lat="46.60161" lon="0.59411">
        <ele>78.5</ele>
        <time>2020-06-28T07:02:01Z</time>
      </trkpt>
      <trkpt lat="46.60151" lon="0.59404">
        <ele>80</ele>
        <time>2020-06-28T07:02:04Z</time>
      </trkpt>
      <trkpt lat="46.60143" lon="0.59395">
        <ele>81.3</ele>
        <time>2020-06-28T07:02:08Z</time>
      </trkpt>
      <trkpt lat="46.60134" lon="0.59388">
        <ele>82.3</ele>
        <time>2020-06-28T07:02:12Z</time>
      </trkpt>
      <trkpt lat="46.60127" lon="0.59379">
        <ele>83.3</ele>
        <time>2020-06-28T07:02:16Z</time>
      </trkpt>
      <trkpt lat="46.60118" lon="0.5937">
        <ele>84.3</ele>
        <time>2020-06-28T07:02:21Z</time>
      </trkpt>
      <trkpt lat="46.6011" lon="0.59362">
        <ele>85.3</ele>
        <time>2020-06-28T07:02:25Z</time>
      </trkpt>
      <trkpt lat="46.60102" lon="0.59352">
        <ele>86.6</ele>
        <time>2020-06-28T07:02:30Z</time>
      </trkpt>
      <trkpt lat="46.60093" lon="0.59344">
        <ele>87.7</ele>
        <time>2020-06-28T07:02:35Z</time>
      </trkpt>
      <trkpt lat="46.60086" lon="0.59335">
        <ele>88.7</ele>
        <time>2020-06-28T07:02:39Z</time>
      </trkpt>
      <trkpt lat="46.60076" lon="0.59326">
        <ele>89.9</ele>
        <time>2020-06-28T07:02:44Z</time>
      </trkpt>
      <trkpt lat="46.60067" lon="0.59322">
        <ele>91.3</ele>
        <time>2020-06-28T07:02:49Z</time>
      </trkpt>
      <trkpt lat="46.60057" lon="0.59322">
        <ele>92.6</ele>
        <time>2020-06-28T07:02:53Z</time>
      </trkpt>
      <trkpt lat="46.60045" lon="0.59326">
        <ele>93.8</ele>
        <time>2020-06-28T07:02:59Z</time>
      </trkpt>
      <trkpt lat="46.60035" lon="0.59319">
        <ele>94.2</ele>
        <time>2020-06-28T07:03:03Z</time>
      </trkpt>
      <trkpt lat="46.60027" lon="0.59311">
        <ele>95.1</ele>
        <time>2020-06-28T07:03:07Z</time>
      </trkpt>
      <trkpt lat="46.60018" lon="0.59304">
        <ele>96.3</ele>
        <time>2020-06-28T07:03:10Z</time>
      </trkpt>
      <trkpt lat="46.60009" lon="0.59295">
        <ele>97.6</ele>
        <time>2020-06-28T07:03:13Z</time>
      </trkpt>
      <trkpt lat="46.60001" lon="0.59284">
        <ele>98.6</ele>
        <time>2020-06-28T07:03:16Z</time>
      </trkpt>
      <trkpt lat="46.59993" lon="0.59274">
        <ele>99.5</ele>
        <time>2020-06-28T07:03:19Z</time>
      </trkpt>
      <trkpt lat="46.59984" lon="0.59268">
        <ele>100.1</ele>
        <time>2020-06-28T07:03:23Z</time>
      </trkpt>
      <trkpt lat="46.59975" lon="0.59256">
        <ele>100.3</ele>
        <time>2020-06-28T07:03:27Z</time>
      </trkpt>
      <trkpt lat="46.59967" lon="0.59247">
        <ele>100.6</ele>
        <time>2020-06-28T07:03:30Z</time>
      </trkpt>
      <trkpt lat="46.59956" lon="0.59237">
        <ele>100.7</ele>
        <time>2020-06-28T07:03:33Z</time>
      </trkpt>
      <trkpt lat="46.59945" lon="0.59224">
        <ele>100.3</ele>
        <time>2020-06-28T07:03:36Z</time>
      </trkpt>
      <trkpt lat="46.59938" lon="0.59216">
        <ele>100</ele>
        <time>2020-06-28T07:03:38Z</time>
      </trkpt>
      <trkpt lat="46.59928" lon="0.59203">
        <ele>99.3</ele>
        <time>2020-06-28T07:03:41Z</time>
      </trkpt>
      <trkpt lat="46.59918" lon="0.59193">
        <ele>98</ele>
        <time>2020-06-28T07:03:45Z</time>
      </trkpt>
      <trkpt lat="46.59909" lon="0.59186">
        <ele>97.5</ele>
        <time>2020-06-28T07:03:48Z</time>
      </trkpt>
      <trkpt lat="46.59899" lon="0.59182">
        <ele>97.2</ele>
        <time>2020-06-28T07:03:50Z</time>
      </trkpt>
      <trkpt lat="46.5989" lon="0.59172">
        <ele>97.1</ele>
        <time>2020-06-28T07:03:53Z</time>
      </trkpt>
      <trkpt lat="46.59881" lon="0.59165">
        <ele>97.5</ele>
        <time>2020-06-28T07:03:56Z</time>
      </trkpt>
      <trkpt lat="46.59872" lon="0.59157">
        <ele>98</ele>
        <time>2020-06-28T07:03:59Z</time>
      </trkpt>
      <trkpt lat="46.59862" lon="0.59148">
        <ele>98.4</ele>
        <time>2020-06-28T07:04:01Z</time>
      </trkpt>
      <trkpt lat="46.59852" lon="0.59139">
        <ele>99.4</ele>
        <time>2020-06-28T07:04:03Z</time>
      </trkpt>
      <trkpt lat="46.59842" lon="0.59132">
        <ele>100.2</ele>
        <time>2020-06-28T07:04:05Z</time>
      </trkpt>
      <trkpt lat="46.59833" lon="0.59126">
        <ele>101</ele>
        <time>2020-06-28T07:04:07Z</time>
      </trkpt>
      <trkpt lat="46.59824" lon="0.59121">
        <ele>101.7</ele>
        <time>2020-06-28T07:04:09Z</time>
      </trkpt>
      <trkpt lat="46.59811" lon="0.59124">
        <ele>102.5</ele>
        <time>2020-06-28T07:04:12Z</time>
      </trkpt>
      <trkpt lat="46.598" lon="0.59131">
        <ele>102.9</ele>
        <time>2020-06-28T07:04:15Z</time>
      </trkpt>
      <trkpt lat="46.59788" lon="0.59133">
        <ele>102.8</ele>
        <time>2020-06-28T07:04:18Z</time>
      </trkpt>
      <trkpt lat="46.59775" lon="0.59132">
        <ele>102.8</ele>
        <time>2020-06-28T07:04:21Z</time>
      </trkpt>
      <trkpt lat="46.59761" lon="0.59132">
        <ele>103</ele>
        <time>2020-06-28T07:04:24Z</time>
      </trkpt>
      <trkpt lat="46.59751" lon="0.59132">
        <ele>103.3</ele>
        <time>2020-06-28T07:04:26Z</time>
      </trkpt>
      <trkpt lat="46.59741" lon="0.59131">
        <ele>103.9</ele>
        <time>2020-06-28T07:04:28Z</time>
      </trkpt>
      <trkpt lat="46.59729" lon="0.59131">
        <ele>104.6</ele>
        <time>2020-06-28T07:04:30Z</time>
      </trkpt>
      <trkpt lat="46.59719" lon="0.59131">
        <ele>105.2</ele>
        <time>2020-06-28T07:04:32Z</time>
      </trkpt>
      <trkpt lat="46.59706" lon="0.59131">
        <ele>106.1</ele>
        <time>2020-06-28T07:04:35Z</time>
      </trkpt>
      <trkpt lat="46.59697" lon="0.59132">
        <ele>107</ele>
        <time>2020-06-28T07:04:37Z</time>
      </trkpt>
      <trkpt lat="46.59687" lon="0.59131">
        <ele>107.7</ele>
        <time>2020-06-28T07:04:39Z</time>
      </trkpt>
      <trkpt lat="46.59677" lon="0.59127">
        <ele>108.4</ele>
        <time>2020-06-28T07:04:41Z</time>
      </trkpt>
      <trkpt lat="46.59668" lon="0.59122">
        <ele>108.9</ele>
        <time>2020-06-28T07:04:44Z</time>
      </trkpt>
      <trkpt lat="46.59658" lon="0.59121">
        <ele>109.5</ele>
        <time>2020-06-28T07:04:47Z</time>
      </trkpt>
      <trkpt lat="46.59645" lon="0.59122">
        <ele>110</ele>
        <time>2020-06-28T07:04:50Z</time>
      </trkpt>
      <trkpt lat="46.59633" lon="0.59122">
        <ele>110.4</ele>
        <time>2020-06-28T07:04:53Z</time>
      </trkpt>
      <trkpt lat="46.59622" lon="0.59122">
        <ele>110.8</ele>
        <time>2020-06-28T07:04:56Z</time>
      </trkpt>
      <trkpt lat="46.59612" lon="0.5912">
        <ele>110.7</ele>
        <time>2020-06-28T07:05:00Z</time>
      </trkpt>
      <trkpt lat="46.596" lon="0.59116">
        <ele>110.8</ele>
        <time>2020-06-28T07:05:04Z</time>
      </trkpt>
      <trkpt lat="46.59603" lon="0.59129">
        <ele>110.7</ele>
        <time>2020-06-28T07:05:11Z</time>
      </trkpt>
      <trkpt lat="46.59613" lon="0.59142">
        <ele>110.5</ele>
        <time>2020-06-28T07:05:14Z</time>
      </trkpt>
      <trkpt lat="46.59622" lon="0.59148">
        <ele>110.4</ele>
        <time>2020-06-28T07:05:16Z</time>
      </trkpt>
      <trkpt lat="46.59631" lon="0.5916">
        <ele>110.1</ele>
        <time>2020-06-28T07:05:18Z</time>
      </trkpt>
      <trkpt lat="46.5964" lon="0.59171">
        <ele>109.8</ele>
        <time>2020-06-28T07:05:20Z</time>
      </trkpt>
      <trkpt lat="46.59648" lon="0.5918">
        <ele>109.6</ele>
        <time>2020-06-28T07:05:22Z</time>
      </trkpt>
      <trkpt lat="46.59656" lon="0.59191">
        <ele>109.3</ele>
        <time>2020-06-28T07:05:24Z</time>
      </trkpt>
      <trkpt lat="46.59667" lon="0.59203">
        <ele>108.9</ele>
        <time>2020-06-28T07:05:26Z</time>
      </trkpt>
      <trkpt lat="46.59675" lon="0.59213">
        <ele>108.7</ele>
        <time>2020-06-28T07:05:28Z</time>
      </trkpt>
      <trkpt lat="46.59684" lon="0.59225">
        <ele>108.3</ele>
        <time>2020-06-28T07:05:30Z</time>
      </trkpt>
      <trkpt lat="46.59692" lon="0.59235">
        <ele>107.6</ele>
        <time>2020-06-28T07:05:32Z</time>
      </trkpt>
      <trkpt lat="46.59703" lon="0.59241">
        <ele>107</ele>
        <time>2020-06-28T07:05:34Z</time>
      </trkpt>
      <trkpt lat="46.59717" lon="0.59245">
        <ele>106.1</ele>
        <time>2020-06-28T07:05:36Z</time>
      </trkpt>
      <trkpt lat="46.59734" lon="0.59247">
        <ele>104.8</ele>
        <time>2020-06-28T07:05:38Z</time>
      </trkpt>
      <trkpt lat="46.59744" lon="0.59248">
        <ele>104.3</ele>
        <time>2020-06-28T07:05:39Z</time>
      </trkpt>
      <trkpt lat="46.59753" lon="0.59248">
        <ele>103.5</ele>
        <time>2020-06-28T07:05:40Z</time>
      </trkpt>
      <trkpt lat="46.59768" lon="0.59251">
        <ele>102.1</ele>
        <time>2020-06-28T07:05:42Z</time>
      </trkpt>
      <trkpt lat="46.5978" lon="0.59261">
        <ele>100.7</ele>
        <time>2020-06-28T07:05:44Z</time>
      </trkpt>
      <trkpt lat="46.5979" lon="0.59274">
        <ele>100.3</ele>
        <time>2020-06-28T07:05:46Z</time>
      </trkpt>
      <trkpt lat="46.59798" lon="0.59292">
        <ele>99.9</ele>
        <time>2020-06-28T07:05:48Z</time>
      </trkpt>
      <trkpt lat="46.59802" lon="0.59304">
        <ele>99.5</ele>
        <time>2020-06-28T07:05:49Z</time>
      </trkpt>
      <trkpt lat="46.59812" lon="0.59324">
        <ele>98.9</ele>
        <time>2020-06-28T07:05:51Z</time>
      </trkpt>
      <trkpt lat="46.59821" lon="0.59342">
        <ele>98.4</ele>
        <time>2020-06-28T07:05:53Z</time>
      </trkpt>
      <trkpt lat="46.59831" lon="0.5936">
        <ele>98</ele>
        <time>2020-06-28T07:05:55Z</time>
      </trkpt>
      <trkpt lat="46.59841" lon="0.59378">
        <ele>97.6</ele>
        <time>2020-06-28T07:05:57Z</time>
      </trkpt>
      <trkpt lat="46.59848" lon="0.59397">
        <ele>97.2</ele>
        <time>2020-06-28T07:05:59Z</time>
      </trkpt>
      <trkpt lat="46.59856" lon="0.59418">
        <ele>96.6</ele>
        <time>2020-06-28T07:06:01Z</time>
      </trkpt>
      <trkpt lat="46.59864" lon="0.5944">
        <ele>96.2</ele>
        <time>2020-06-28T07:06:03Z</time>
      </trkpt>
      <trkpt lat="46.59871" lon="0.5946">
        <ele>96</ele>
        <time>2020-06-28T07:06:05Z</time>
      </trkpt>
      <trkpt lat="46.59878" lon="0.59479">
        <ele>95.7</ele>
        <time>2020-06-28T07:06:07Z</time>
      </trkpt>
      <trkpt lat="46.59885" lon="0.59494">
        <ele>95.2</ele>
        <time>2020-06-28T07:06:09Z</time>
      </trkpt>
      <trkpt lat="46.59892" lon="0.59509">
        <ele>94.2</ele>
        <time>2020-06-28T07:06:11Z</time>
      </trkpt>
      <trkpt lat="46.59901" lon="0.59526">
        <ele>92.7</ele>
        <time>2020-06-28T07:06:13Z</time>
      </trkpt>
      <trkpt lat="46.59909" lon="0.59544">
        <ele>91.2</ele>
        <time>2020-06-28T07:06:15Z</time>
      </trkpt>
      <trkpt lat="46.59917" lon="0.59563">
        <ele>89.6</ele>
        <time>2020-06-28T07:06:17Z</time>
      </trkpt>
      <trkpt lat="46.59926" lon="0.59583">
        <ele>87.8</ele>
        <time>2020-06-28T07:06:19Z</time>
      </trkpt>
      <trkpt lat="46.59933" lon="0.59593">
        <ele>86.8</ele>
        <time>2020-06-28T07:06:20Z</time>
      </trkpt>
      <trkpt lat="46.5994" lon="0.59603">
        <ele>85.7</ele>
        <time>2020-06-28T07:06:21Z</time>
      </trkpt>
      <trkpt lat="46.59945" lon="0.59616">
        <ele>84.5</ele>
        <time>2020-06-28T07:06:22Z</time>
      </trkpt>
      <trkpt lat="46.59954" lon="0.59627">
        <ele>83</ele>
        <time>2020-06-28T07:06:23Z</time>
      </trkpt>
      <trkpt lat="46.59963" lon="0.59638">
        <ele>81.6</ele>
        <time>2020-06-28T07:06:24Z</time>
      </trkpt>
      <trkpt lat="46.5997" lon="0.5965">
        <ele>80.3</ele>
        <time>2020-06-28T07:06:25Z</time>
      </trkpt>
      <trkpt lat="46.59976" lon="0.59662">
        <ele>79.1</ele>
        <time>2020-06-28T07:06:26Z</time>
      </trkpt>
      <trkpt lat="46.59984" lon="0.59675">
        <ele>77.8</ele>
        <time>2020-06-28T07:06:27Z</time>
      </trkpt>
      <trkpt lat="46.59993" lon="0.59689">
        <ele>76.4</ele>
        <time>2020-06-28T07:06:28Z</time>
      </trkpt>
      <trkpt lat="46.60002" lon="0.59701">
        <ele>75.2</ele>
        <time>2020-06-28T07:06:29Z</time>
      </trkpt>
      <trkpt lat="46.6001" lon="0.59711">
        <ele>74</ele>
        <time>2020-06-28T07:06:30Z</time>
      </trkpt>
      <trkpt lat="46.60017" lon="0.5972">
        <ele>73</ele>
        <time>2020-06-28T07:06:31Z</time>
      </trkpt>
      <trkpt lat="46.60025" lon="0.59728">
        <ele>72</ele>
        <time>2020-06-28T07:06:32Z</time>
      </trkpt>
      <trkpt lat="46.60035" lon="0.59744">
        <ele>70.5</ele>
        <time>2020-06-28T07:06:34Z</time>
      </trkpt>
      <trkpt lat="46.60046" lon="0.59752">
        <ele>69</ele>
        <time>2020-06-28T07:06:36Z</time>
      </trkpt>
      <trkpt lat="46.60058" lon="0.59762">
        <ele>67.4</ele>
        <time>2020-06-28T07:06:39Z</time>
      </trkpt>
      <trkpt lat="46.60059" lon="0.59777">
        <ele>65.4</ele>
        <time>2020-06-28T07:06:44Z</time>
      </trkpt>
      <trkpt lat="46.60051" lon="0.59784">
        <ele>65.3</ele>
        <time>2020-06-28T07:06:46Z</time>
      </trkpt>
      <trkpt lat="46.60041" lon="0.59791">
        <ele>65.2</ele>
        <time>2020-06-28T07:06:48Z</time>
      </trkpt>
      <trkpt lat="46.60031" lon="0.59799">
        <ele>65.1</ele>
        <time>2020-06-28T07:06:50Z</time>
      </trkpt>
      <trkpt lat="46.6002" lon="0.59808">
        <ele>64.8</ele>
        <time>2020-06-28T07:06:52Z</time>
      </trkpt>
      <trkpt lat="46.60009" lon="0.59817">
        <ele>64.4</ele>
        <time>2020-06-28T07:06:54Z</time>
      </trkpt>
      <trkpt lat="46.59996" lon="0.59826">
        <ele>64.2</ele>
        <time>2020-06-28T07:06:56Z</time>
      </trkpt>
      <trkpt lat="46.59984" lon="0.59834">
        <ele>64.1</ele>
        <time>2020-06-28T07:06:58Z</time>
      </trkpt>
      <trkpt lat="46.59972" lon="0.59842">
        <ele>64.1</ele>
        <time>2020-06-28T07:07:00Z</time>
      </trkpt>
      <trkpt lat="46.59959" lon="0.59848">
        <ele>64.1</ele>
        <time>2020-06-28T07:07:02Z</time>
      </trkpt>
      <trkpt lat="46.59949" lon="0.59855">
        <ele>64.2</ele>
        <time>2020-06-28T07:07:04Z</time>
      </trkpt>
      <trkpt lat="46.59939" lon="0.59866">
        <ele>64.3</ele>
        <time>2020-06-28T07:07:06Z</time>
      </trkpt>
      <trkpt lat="46.59926" lon="0.59875">
        <ele>64.3</ele>
        <time>2020-06-28T07:07:08Z</time>
      </trkpt>
      <trkpt lat="46.59913" lon="0.59882">
        <ele>64.4</ele>
        <time>2020-06-28T07:07:10Z</time>
      </trkpt>
      <trkpt lat="46.59899" lon="0.59891">
        <ele>64.5</ele>
        <time>2020-06-28T07:07:12Z</time>
      </trkpt>
      <trkpt lat="46.59886" lon="0.59899">
        <ele>64.6</ele>
        <time>2020-06-28T07:07:14Z</time>
      </trkpt>
      <trkpt lat="46.59876" lon="0.59906">
        <ele>64.6</ele>
        <time>2020-06-28T07:07:16Z</time>
      </trkpt>
      <trkpt lat="46.59866" lon="0.59916">
        <ele>64.6</ele>
        <time>2020-06-28T07:07:18Z</time>
      </trkpt>
      <trkpt lat="46.59855" lon="0.59927">
        <ele>64.6</ele>
        <time>2020-06-28T07:07:20Z</time>
      </trkpt>
      <trkpt lat="46.59845" lon="0.59937">
        <ele>64.5</ele>
        <time>2020-06-28T07:07:22Z</time>
      </trkpt>
      <trkpt lat="46.59834" lon="0.59945">
        <ele>64.5</ele>
        <time>2020-06-28T07:07:24Z</time>
      </trkpt>
      <trkpt lat="46.59822" lon="0.59952">
        <ele>64.7</ele>
        <time>2020-06-28T07:07:26Z</time>
      </trkpt>
      <trkpt lat="46.5981" lon="0.59957">
        <ele>65</ele>
        <time>2020-06-28T07:07:28Z</time>
      </trkpt>
      <trkpt lat="46.59798" lon="0.59965">
        <ele>65.4</ele>
        <time>2020-06-28T07:07:30Z</time>
      </trkpt>
      <trkpt lat="46.59787" lon="0.59974">
        <ele>65.9</ele>
        <time>2020-06-28T07:07:32Z</time>
      </trkpt>
      <trkpt lat="46.59776" lon="0.59981">
        <ele>66.5</ele>
        <time>2020-06-28T07:07:34Z</time>
      </trkpt>
      <trkpt lat="46.59766" lon="0.59984">
        <ele>67.2</ele>
        <time>2020-06-28T07:07:36Z</time>
      </trkpt>
      <trkpt lat="46.59754" lon="0.59987">
        <ele>68.2</ele>
        <time>2020-06-28T07:07:39Z</time>
      </trkpt>
      <trkpt lat="46.59741" lon="0.59991">
        <ele>69.4</ele>
        <time>2020-06-28T07:07:42Z</time>
      </trkpt>
      <trkpt lat="46.59732" lon="0.59996">
        <ele>70.5</ele>
        <time>2020-06-28T07:07:44Z</time>
      </trkpt>
      <trkpt lat="46.59725" lon="0.60009">
        <ele>69.9</ele>
        <time>2020-06-28T07:07:47Z</time>
      </trkpt>
      <trkpt lat="46.59718" lon="0.60023">
        <ele>69.1</ele>
        <time>2020-06-28T07:07:50Z</time>
      </trkpt>
      <trkpt lat="46.59711" lon="0.60033">
        <ele>68.4</ele>
        <time>2020-06-28T07:07:52Z</time>
      </trkpt>
      <trkpt lat="46.59705" lon="0.60045">
        <ele>67.6</ele>
        <time>2020-06-28T07:07:54Z</time>
      </trkpt>
      <trkpt lat="46.59698" lon="0.60058">
        <ele>66.8</ele>
        <time>2020-06-28T07:07:56Z</time>
      </trkpt>
      <trkpt lat="46.59689" lon="0.60076">
        <ele>65.9</ele>
        <time>2020-06-28T07:07:58Z</time>
      </trkpt>
      <trkpt lat="46.59677" lon="0.60093">
        <ele>65.1</ele>
        <time>2020-06-28T07:08:00Z</time>
      </trkpt>
      <trkpt lat="46.59662" lon="0.60102">
        <ele>65</ele>
        <time>2020-06-28T07:08:02Z</time>
      </trkpt>
      <trkpt lat="46.59648" lon="0.60104">
        <ele>65.4</ele>
        <time>2020-06-28T07:08:04Z</time>
      </trkpt>
      <trkpt lat="46.59635" lon="0.60109">
        <ele>65.8</ele>
        <time>2020-06-28T07:08:06Z</time>
      </trkpt>
      <trkpt lat="46.59624" lon="0.60115">
        <ele>66.1</ele>
        <time>2020-06-28T07:08:08Z</time>
      </trkpt>
      <trkpt lat="46.59612" lon="0.60122">
        <ele>66.4</ele>
        <time>2020-06-28T07:08:10Z</time>
      </trkpt>
      <trkpt lat="46.59602" lon="0.60128">
        <ele>66.7</ele>
        <time>2020-06-28T07:08:12Z</time>
      </trkpt>
      <trkpt lat="46.5959" lon="0.60136">
        <ele>67</ele>
        <time>2020-06-28T07:08:14Z</time>
      </trkpt>
      <trkpt lat="46.59578" lon="0.60143">
        <ele>67.4</ele>
        <time>2020-06-28T07:08:16Z</time>
      </trkpt>
      <trkpt lat="46.59568" lon="0.6015">
        <ele>67.8</ele>
        <time>2020-06-28T07:08:18Z</time>
      </trkpt>
      <trkpt lat="46.59559" lon="0.60154">
        <ele>68</ele>
        <time>2020-06-28T07:08:20Z</time>
      </trkpt>
      <trkpt lat="46.5955" lon="0.60156">
        <ele>68.3</ele>
        <time>2020-06-28T07:08:22Z</time>
      </trkpt>
      <trkpt lat="46.59541" lon="0.60163">
        <ele>68.5</ele>
        <time>2020-06-28T07:08:24Z</time>
      </trkpt>
      <trkpt lat="46.59529" lon="0.60169">
        <ele>68.7</ele>
        <time>2020-06-28T07:08:26Z</time>
      </trkpt>
      <trkpt lat="46.59519" lon="0.60176">
        <ele>69</ele>
        <time>2020-06-28T07:08:28Z</time>
      </trkpt>
      <trkpt lat="46.59507" lon="0.60183">
        <ele>69.3</ele>
        <time>2020-06-28T07:08:30Z</time>
      </trkpt>
      <trkpt lat="46.59495" lon="0.60191">
        <ele>69.6</ele>
        <time>2020-06-28T07:08:32Z</time>
      </trkpt>
      <trkpt lat="46.59484" lon="0.60199">
        <ele>69.9</ele>
        <time>2020-06-28T07:08:34Z</time>
      </trkpt>
      <trkpt lat="46.59474" lon="0.60205">
        <ele>70.1</ele>
        <time>2020-06-28T07:08:36Z</time>
      </trkpt>
      <trkpt lat="46.59464" lon="0.60212">
        <ele>70.2</ele>
        <time>2020-06-28T07:08:38Z</time>
      </trkpt>
      <trkpt lat="46.59453" lon="0.60219">
        <ele>70.3</ele>
        <time>2020-06-28T07:08:40Z</time>
      </trkpt>
      <trkpt lat="46.59441" lon="0.60227">
        <ele>70.3</ele>
        <time>2020-06-28T07:08:42Z</time>
      </trkpt>
      <trkpt lat="46.59431" lon="0.60236">
        <ele>70.1</ele>
        <time>2020-06-28T07:08:44Z</time>
      </trkpt>
      <trkpt lat="46.59421" lon="0.60245">
        <ele>69.7</ele>
        <time>2020-06-28T07:08:46Z</time>
      </trkpt>
      <trkpt lat="46.5941" lon="0.60252">
        <ele>69.2</ele>
        <time>2020-06-28T07:08:48Z</time>
      </trkpt>
      <trkpt lat="46.594" lon="0.60262">
        <ele>68.5</ele>
        <time>2020-06-28T07:08:50Z</time>
      </trkpt>
      <trkpt lat="46.59389" lon="0.60276">
        <ele>67.6</ele>
        <time>2020-06-28T07:08:52Z</time>
      </trkpt>
      <trkpt lat="46.59378" lon="0.60292">
        <ele>66.7</ele>
        <time>2020-06-28T07:08:54Z</time>
      </trkpt>
      <trkpt lat="46.59368" lon="0.60308">
        <ele>65.8</ele>
        <time>2020-06-28T07:08:56Z</time>
      </trkpt>
      <trkpt lat="46.59354" lon="0.60324">
        <ele>64.9</ele>
        <time>2020-06-28T07:08:58Z</time>
      </trkpt>
      <trkpt lat="46.59339" lon="0.60338">
        <ele>64.4</ele>
        <time>2020-06-28T07:09:00Z</time>
      </trkpt>
      <trkpt lat="46.59324" lon="0.60349">
        <ele>64.2</ele>
        <time>2020-06-28T07:09:02Z</time>
      </trkpt>
      <trkpt lat="46.59311" lon="0.60357">
        <ele>64</ele>
        <time>2020-06-28T07:09:04Z</time>
      </trkpt>
      <trkpt lat="46.59298" lon="0.60362">
        <ele>63.8</ele>
        <time>2020-06-28T07:09:06Z</time>
      </trkpt>
      <trkpt lat="46.59284" lon="0.60364">
        <ele>63.8</ele>
        <time>2020-06-28T07:09:08Z</time>
      </trkpt>
      <trkpt lat="46.59269" lon="0.60364">
        <ele>64.1</ele>
        <time>2020-06-28T07:09:10Z</time>
      </trkpt>
      <trkpt lat="46.59257" lon="0.60361">
        <ele>64.3</ele>
        <time>2020-06-28T07:09:12Z</time>
      </trkpt>
      <trkpt lat="46.59245" lon="0.60358">
        <ele>64.4</ele>
        <time>2020-06-28T07:09:14Z</time>
      </trkpt>
      <trkpt lat="46.59233" lon="0.60355">
        <ele>64.6</ele>
        <time>2020-06-28T07:09:16Z</time>
      </trkpt>
      <trkpt lat="46.59223" lon="0.60354">
        <ele>64.7</ele>
        <time>2020-06-28T07:09:18Z</time>
      </trkpt>
      <trkpt lat="46.59212" lon="0.60352">
        <ele>64.8</ele>
        <time>2020-06-28T07:09:21Z</time>
      </trkpt>
      <trkpt lat="46.59201" lon="0.60351">
        <ele>64.9</ele>
        <time>2020-06-28T07:09:23Z</time>
      </trkpt>
      <trkpt lat="46.5919" lon="0.6035">
        <ele>65.1</ele>
        <time>2020-06-28T07:09:25Z</time>
      </trkpt>
      <trkpt lat="46.59178" lon="0.60351">
        <ele>65.4</ele>
        <time>2020-06-28T07:09:27Z</time>
      </trkpt>
      <trkpt lat="46.59165" lon="0.60352">
        <ele>65.9</ele>
        <time>2020-06-28T07:09:29Z</time>
      </trkpt>
      <trkpt lat="46.59155" lon="0.60354">
        <ele>66.3</ele>
        <time>2020-06-28T07:09:31Z</time>
      </trkpt>
      <trkpt lat="46.59146" lon="0.60356">
        <ele>66.6</ele>
        <time>2020-06-28T07:09:33Z</time>
      </trkpt>
      <trkpt lat="46.59137" lon="0.60357">
        <ele>67</ele>
        <time>2020-06-28T07:09:37Z</time>
      </trkpt>
      <trkpt lat="46.59128" lon="0.60368">
        <ele>67.4</ele>
        <time>2020-06-28T07:09:41Z</time>
      </trkpt>
      <trkpt lat="46.59135" lon="0.60379">
        <ele>65.2</ele>
        <time>2020-06-28T07:09:44Z</time>
      </trkpt>
      <trkpt lat="46.59145" lon="0.60383">
        <ele>64.5</ele>
        <time>2020-06-28T07:09:46Z</time>
      </trkpt>
      <trkpt lat="46.59156" lon="0.60388">
        <ele>63.8</ele>
        <time>2020-06-28T07:09:48Z</time>
      </trkpt>
      <trkpt lat="46.59163" lon="0.60396">
        <ele>62.4</ele>
        <time>2020-06-28T07:09:50Z</time>
      </trkpt>
      <trkpt lat="46.59174" lon="0.60403">
        <ele>60.7</ele>
        <time>2020-06-28T07:09:53Z</time>
      </trkpt>
      <trkpt lat="46.59181" lon="0.60415">
        <ele>57.8</ele>
        <time>2020-06-28T07:09:57Z</time>
      </trkpt>
      <trkpt lat="46.59176" lon="0.60427">
        <ele>56.1</ele>
        <time>2020-06-28T07:10:02Z</time>
      </trkpt>
      <trkpt lat="46.59168" lon="0.60434">
        <ele>56.1</ele>
        <time>2020-06-28T07:10:05Z</time>
      </trkpt>
      <trkpt lat="46.5916" lon="0.6044">
        <ele>56.6</ele>
        <time>2020-06-28T07:10:09Z</time>
      </trkpt>
      <trkpt lat="46.59151" lon="0.60446">
        <ele>56.7</ele>
        <time>2020-06-28T07:10:14Z</time>
      </trkpt>
      <trkpt lat="46.59142" lon="0.60453">
        <ele>57</ele>
        <time>2020-06-28T07:10:18Z</time>
      </trkpt>
      <trkpt lat="46.59134" lon="0.6046">
        <ele>57.6</ele>
        <time>2020-06-28T07:10:24Z</time>
      </trkpt>
      <trkpt lat="46.59123" lon="0.60462">
        <ele>58.6</ele>
        <time>2020-06-28T07:10:28Z</time>
      </trkpt>
      <trkpt lat="46.59111" lon="0.60469">
        <ele>59.4</ele>
        <time>2020-06-28T07:10:33Z</time>
      </trkpt>
      <trkpt lat="46.59103" lon="0.60475">
        <ele>60.5</ele>
        <time>2020-06-28T07:10:39Z</time>
      </trkpt>
      <trkpt lat="46.59093" lon="0.60483">
        <ele>61.1</ele>
        <time>2020-06-28T07:10:44Z</time>
      </trkpt>
      <trkpt lat="46.59084" lon="0.6049">
        <ele>62.1</ele>
        <time>2020-06-28T07:10:48Z</time>
      </trkpt>
      <trkpt lat="46.59077" lon="0.60498">
        <ele>62.7</ele>
        <time>2020-06-28T07:10:54Z</time>
      </trkpt>
      <trkpt lat="46.59067" lon="0.60504">
        <ele>63.4</ele>
        <time>2020-06-28T07:11:00Z</time>
      </trkpt>
      <trkpt lat="46.59058" lon="0.60512">
        <ele>64.3</ele>
        <time>2020-06-28T07:11:06Z</time>
      </trkpt>
      <trkpt lat="46.5905" lon="0.6052">
        <ele>65.2</ele>
        <time>2020-06-28T07:11:11Z</time>
      </trkpt>
      <trkpt lat="46.59041" lon="0.60526">
        <ele>65.9</ele>
        <time>2020-06-28T07:11:17Z</time>
      </trkpt>
      <trkpt lat="46.59031" lon="0.60531">
        <ele>66.8</ele>
        <time>2020-06-28T07:11:22Z</time>
      </trkpt>
      <trkpt lat="46.59023" lon="0.60538">
        <ele>67.8</ele>
        <time>2020-06-28T07:11:27Z</time>
      </trkpt>
      <trkpt lat="46.59011" lon="0.60541">
        <ele>69.6</ele>
        <time>2020-06-28T07:11:35Z</time>
      </trkpt>
      <trkpt lat="46.59001" lon="0.60545">
        <ele>72.3</ele>
        <time>2020-06-28T07:11:39Z</time>
      </trkpt>
      <trkpt lat="46.58993" lon="0.60554">
        <ele>71.5</ele>
        <time>2020-06-28T07:11:43Z</time>
      </trkpt>
      <trkpt lat="46.58984" lon="0.60563">
        <ele>72.3</ele>
        <time>2020-06-28T07:11:48Z</time>
      </trkpt>
      <trkpt lat="46.58974" lon="0.60574">
        <ele>73.7</ele>
        <time>2020-06-28T07:11:52Z</time>
      </trkpt>
      <trkpt lat="46.58967" lon="0.60584">
        <ele>72.7</ele>
        <time>2020-06-28T07:11:57Z</time>
      </trkpt>
      <trkpt lat="46.58958" lon="0.6059">
        <ele>74.7</ele>
        <time>2020-06-28T07:12:02Z</time>
      </trkpt>
      <trkpt lat="46.5895" lon="0.606">
        <ele>75.4</ele>
        <time>2020-06-28T07:12:05Z</time>
      </trkpt>
      <trkpt lat="46.58941" lon="0.60612">
        <ele>75.7</ele>
        <time>2020-06-28T07:12:09Z</time>
      </trkpt>
      <trkpt lat="46.58934" lon="0.60621">
        <ele>76.2</ele>
        <time>2020-06-28T07:12:12Z</time>
      </trkpt>
      <trkpt lat="46.58926" lon="0.6063">
        <ele>76.8</ele>
        <time>2020-06-28T07:12:15Z</time>
      </trkpt>
      <trkpt lat="46.58916" lon="0.60637">
        <ele>77.6</ele>
        <time>2020-06-28T07:12:17Z</time>
      </trkpt>
      <trkpt lat="46.58908" lon="0.60644">
        <ele>79.3</ele>
        <time>2020-06-28T07:12:20Z</time>
      </trkpt>
      <trkpt lat="46.58897" lon="0.60656">
        <ele>81.4</ele>
        <time>2020-06-28T07:12:23Z</time>
      </trkpt>
      <trkpt lat="46.58889" lon="0.60666">
        <ele>80.9</ele>
        <time>2020-06-28T07:12:24Z</time>
      </trkpt>
      <trkpt lat="46.58877" lon="0.60675">
        <ele>83</ele>
        <time>2020-06-28T07:12:26Z</time>
      </trkpt>
      <trkpt lat="46.58869" lon="0.60682">
        <ele>83.7</ele>
        <time>2020-06-28T07:12:28Z</time>
      </trkpt>
      <trkpt lat="46.58858" lon="0.60689">
        <ele>85.3</ele>
        <time>2020-06-28T07:12:31Z</time>
      </trkpt>
      <trkpt lat="46.58849" lon="0.60698">
        <ele>86.7</ele>
        <time>2020-06-28T07:12:34Z</time>
      </trkpt>
      <trkpt lat="46.5884" lon="0.60708">
        <ele>87.8</ele>
        <time>2020-06-28T07:12:37Z</time>
      </trkpt>
      <trkpt lat="46.58831" lon="0.60715">
        <ele>88.8</ele>
        <time>2020-06-28T07:12:39Z</time>
      </trkpt>
      <trkpt lat="46.58824" lon="0.60725">
        <ele>90</ele>
        <time>2020-06-28T07:12:41Z</time>
      </trkpt>
      <trkpt lat="46.58817" lon="0.60737">
        <ele>90.9</ele>
        <time>2020-06-28T07:12:43Z</time>
      </trkpt>
      <trkpt lat="46.58806" lon="0.60747">
        <ele>92.5</ele>
        <time>2020-06-28T07:12:46Z</time>
      </trkpt>
      <trkpt lat="46.58797" lon="0.60751">
        <ele>94.8</ele>
        <time>2020-06-28T07:12:48Z</time>
      </trkpt>
      <trkpt lat="46.58786" lon="0.60764">
        <ele>96.2</ele>
        <time>2020-06-28T07:12:51Z</time>
      </trkpt>
      <trkpt lat="46.58775" lon="0.60777">
        <ele>97.3</ele>
        <time>2020-06-28T07:12:53Z</time>
      </trkpt>
      <trkpt lat="46.58768" lon="0.60785">
        <ele>98.5</ele>
        <time>2020-06-28T07:12:55Z</time>
      </trkpt>
      <trkpt lat="46.58758" lon="0.60795">
        <ele>98.9</ele>
        <time>2020-06-28T07:12:58Z</time>
      </trkpt>
      <trkpt lat="46.58748" lon="0.608">
        <ele>100.5</ele>
        <time>2020-06-28T07:13:02Z</time>
      </trkpt>
      <trkpt lat="46.58745" lon="0.60813">
        <ele>99.9</ele>
        <time>2020-06-28T07:13:15Z</time>
      </trkpt>
      <trkpt lat="46.58742" lon="0.60827">
        <ele>99.1</ele>
        <time>2020-06-28T07:13:18Z</time>
      </trkpt>
      <trkpt lat="46.58735" lon="0.6084">
        <ele>99.6</ele>
        <time>2020-06-28T07:13:23Z</time>
      </trkpt>
      <trkpt lat="46.58727" lon="0.60854">
        <ele>99</ele>
        <time>2020-06-28T07:13:26Z</time>
      </trkpt>
      <trkpt lat="46.58719" lon="0.60862">
        <ele>98.6</ele>
        <time>2020-06-28T07:13:28Z</time>
      </trkpt>
      <trkpt lat="46.58709" lon="0.60873">
        <ele>99.1</ele>
        <time>2020-06-28T07:13:31Z</time>
      </trkpt>
      <trkpt lat="46.58701" lon="0.60886">
        <ele>97.6</ele>
        <time>2020-06-28T07:13:33Z</time>
      </trkpt>
      <trkpt lat="46.58694" lon="0.60898">
        <ele>96.9</ele>
        <time>2020-06-28T07:13:36Z</time>
      </trkpt>
      <trkpt lat="46.58684" lon="0.60908">
        <ele>97.7</ele>
        <time>2020-06-28T07:13:39Z</time>
      </trkpt>
      <trkpt lat="46.58674" lon="0.6091">
        <ele>99.6</ele>
        <time>2020-06-28T07:13:43Z</time>
      </trkpt>
      <trkpt lat="46.58663" lon="0.60917">
        <ele>100.8</ele>
        <time>2020-06-28T07:13:48Z</time>
      </trkpt>
      <trkpt lat="46.58654" lon="0.60925">
        <ele>101</ele>
        <time>2020-06-28T07:13:51Z</time>
      </trkpt>
      <trkpt lat="46.58645" lon="0.60938">
        <ele>100.5</ele>
        <time>2020-06-28T07:13:54Z</time>
      </trkpt>
      <trkpt lat="46.58637" lon="0.60952">
        <ele>100.1</ele>
        <time>2020-06-28T07:13:59Z</time>
      </trkpt>
      <trkpt lat="46.58626" lon="0.60962">
        <ele>100</ele>
        <time>2020-06-28T07:14:02Z</time>
      </trkpt>
      <trkpt lat="46.58619" lon="0.60978">
        <ele>99.2</ele>
        <time>2020-06-28T07:14:05Z</time>
      </trkpt>
      <trkpt lat="46.58615" lon="0.60992">
        <ele>97.4</ele>
        <time>2020-06-28T07:14:07Z</time>
      </trkpt>
      <trkpt lat="46.58604" lon="0.61003">
        <ele>98.6</ele>
        <time>2020-06-28T07:14:10Z</time>
      </trkpt>
      <trkpt lat="46.58594" lon="0.61011">
        <ele>99.7</ele>
        <time>2020-06-28T07:14:13Z</time>
      </trkpt>
      <trkpt lat="46.58585" lon="0.61023">
        <ele>100.5</ele>
        <time>2020-06-28T07:14:17Z</time>
      </trkpt>
      <trkpt lat="46.58575" lon="0.6103">
        <ele>101.8</ele>
        <time>2020-06-28T07:14:22Z</time>
      </trkpt>
      <trkpt lat="46.58569" lon="0.61044">
        <ele>100.7</ele>
        <time>2020-06-28T07:14:25Z</time>
      </trkpt>
      <trkpt lat="46.5856" lon="0.61056">
        <ele>100.7</ele>
        <time>2020-06-28T07:14:27Z</time>
      </trkpt>
      <trkpt lat="46.5855" lon="0.61068">
        <ele>100.9</ele>
        <time>2020-06-28T07:14:29Z</time>
      </trkpt>
      <trkpt lat="46.58537" lon="0.61073">
        <ele>101.9</ele>
        <time>2020-06-28T07:14:32Z</time>
      </trkpt>
      <trkpt lat="46.58527" lon="0.6108">
        <ele>102.9</ele>
        <time>2020-06-28T07:14:35Z</time>
      </trkpt>
      <trkpt lat="46.58519" lon="0.61089">
        <ele>103.4</ele>
        <time>2020-06-28T07:14:37Z</time>
      </trkpt>
      <trkpt lat="46.58511" lon="0.61105">
        <ele>103</ele>
        <time>2020-06-28T07:14:40Z</time>
      </trkpt>
      <trkpt lat="46.58503" lon="0.61115">
        <ele>103.1</ele>
        <time>2020-06-28T07:14:42Z</time>
      </trkpt>
      <trkpt lat="46.58494" lon="0.6113">
        <ele>102.9</ele>
        <time>2020-06-28T07:14:44Z</time>
      </trkpt>
      <trkpt lat="46.58487" lon="0.61144">
        <ele>102.7</ele>
        <time>2020-06-28T07:14:46Z</time>
      </trkpt>
      <trkpt lat="46.58478" lon="0.61151">
        <ele>103.2</ele>
        <time>2020-06-28T07:14:48Z</time>
      </trkpt>
      <trkpt lat="46.58469" lon="0.61162">
        <ele>103.6</ele>
        <time>2020-06-28T07:14:50Z</time>
      </trkpt>
      <trkpt lat="46.58465" lon="0.61176">
        <ele>102.6</ele>
        <time>2020-06-28T07:14:52Z</time>
      </trkpt>
      <trkpt lat="46.58456" lon="0.61189">
        <ele>101.9</ele>
        <time>2020-06-28T07:14:55Z</time>
      </trkpt>
      <trkpt lat="46.58448" lon="0.61199">
        <ele>102.3</ele>
        <time>2020-06-28T07:14:57Z</time>
      </trkpt>
      <trkpt lat="46.5844" lon="0.61211">
        <ele>101.8</ele>
        <time>2020-06-28T07:14:59Z</time>
      </trkpt>
      <trkpt lat="46.58431" lon="0.61224">
        <ele>102</ele>
        <time>2020-06-28T07:15:01Z</time>
      </trkpt>
      <trkpt lat="46.58423" lon="0.61236">
        <ele>102.3</ele>
        <time>2020-06-28T07:15:03Z</time>
      </trkpt>
      <trkpt lat="46.58415" lon="0.61248">
        <ele>102.1</ele>
        <time>2020-06-28T07:15:05Z</time>
      </trkpt>
      <trkpt lat="46.58407" lon="0.61258">
        <ele>102.4</ele>
        <time>2020-06-28T07:15:07Z</time>
      </trkpt>
      <trkpt lat="46.58398" lon="0.61276">
        <ele>101.4</ele>
        <time>2020-06-28T07:15:09Z</time>
      </trkpt>
      <trkpt lat="46.58388" lon="0.61292">
        <ele>99</ele>
        <time>2020-06-28T07:15:11Z</time>
      </trkpt>
      <trkpt lat="46.58378" lon="0.6131">
        <ele>98.1</ele>
        <time>2020-06-28T07:15:13Z</time>
      </trkpt>
      <trkpt lat="46.58369" lon="0.61325">
        <ele>97.3</ele>
        <time>2020-06-28T07:15:15Z</time>
      </trkpt>
      <trkpt lat="46.58358" lon="0.61338">
        <ele>97</ele>
        <time>2020-06-28T07:15:17Z</time>
      </trkpt>
      <trkpt lat="46.58347" lon="0.61353">
        <ele>96.4</ele>
        <time>2020-06-28T07:15:19Z</time>
      </trkpt>
      <trkpt lat="46.58336" lon="0.61367">
        <ele>96.4</ele>
        <time>2020-06-28T07:15:21Z</time>
      </trkpt>
      <trkpt lat="46.58326" lon="0.61381">
        <ele>96.6</ele>
        <time>2020-06-28T07:15:23Z</time>
      </trkpt>
      <trkpt lat="46.58316" lon="0.61397">
        <ele>95.2</ele>
        <time>2020-06-28T07:15:25Z</time>
      </trkpt>
      <trkpt lat="46.58306" lon="0.61409">
        <ele>94.2</ele>
        <time>2020-06-28T07:15:27Z</time>
      </trkpt>
      <trkpt lat="46.58296" lon="0.61422">
        <ele>93.3</ele>
        <time>2020-06-28T07:15:29Z</time>
      </trkpt>
      <trkpt lat="46.58288" lon="0.61431">
        <ele>92.1</ele>
        <time>2020-06-28T07:15:31Z</time>
      </trkpt>
      <trkpt lat="46.58276" lon="0.6144">
        <ele>91.1</ele>
        <time>2020-06-28T07:15:33Z</time>
      </trkpt>
      <trkpt lat="46.58265" lon="0.61452">
        <ele>90.1</ele>
        <time>2020-06-28T07:15:35Z</time>
      </trkpt>
      <trkpt lat="46.58252" lon="0.61462">
        <ele>89.9</ele>
        <time>2020-06-28T07:15:37Z</time>
      </trkpt>
      <trkpt lat="46.58241" lon="0.6147">
        <ele>88.9</ele>
        <time>2020-06-28T07:15:39Z</time>
      </trkpt>
      <trkpt lat="46.5823" lon="0.6148">
        <ele>88.2</ele>
        <time>2020-06-28T07:15:41Z</time>
      </trkpt>
      <trkpt lat="46.58223" lon="0.61493">
        <ele>85.5</ele>
        <time>2020-06-28T07:15:43Z</time>
      </trkpt>
      <trkpt lat="46.58223" lon="0.61509">
        <ele>80.7</ele>
        <time>2020-06-28T07:15:45Z</time>
      </trkpt>
      <trkpt lat="46.58219" lon="0.61524">
        <ele>77.4</ele>
        <time>2020-06-28T07:15:47Z</time>
      </trkpt>
      <trkpt lat="46.58209" lon="0.61534">
        <ele>76.6</ele>
        <time>2020-06-28T07:15:49Z</time>
      </trkpt>
      <trkpt lat="46.58199" lon="0.61547">
        <ele>76.2</ele>
        <time>2020-06-28T07:15:51Z</time>
      </trkpt>
      <trkpt lat="46.58191" lon="0.61561">
        <ele>76.3</ele>
        <time>2020-06-28T07:15:53Z</time>
      </trkpt>
      <trkpt lat="46.58188" lon="0.61577">
        <ele>74.3</ele>
        <time>2020-06-28T07:15:56Z</time>
      </trkpt>
      <trkpt lat="46.58188" lon="0.61592">
        <ele>71</ele>
        <time>2020-06-28T07:16:02Z</time>
      </trkpt>
      <trkpt lat="46.5818" lon="0.61604">
        <ele>71.4</ele>
        <time>2020-06-28T07:16:06Z</time>
      </trkpt>
      <trkpt lat="46.58169" lon="0.61617">
        <ele>70.6</ele>
        <time>2020-06-28T07:16:09Z</time>
      </trkpt>
      <trkpt lat="46.5816" lon="0.61626">
        <ele>71.6</ele>
        <time>2020-06-28T07:16:11Z</time>
      </trkpt>
      <trkpt lat="46.58153" lon="0.61638">
        <ele>69.5</ele>
        <time>2020-06-28T07:16:13Z</time>
      </trkpt>
      <trkpt lat="46.58144" lon="0.61644">
        <ele>70.1</ele>
        <time>2020-06-28T07:16:15Z</time>
      </trkpt>
      <trkpt lat="46.58135" lon="0.61651">
        <ele>72.7</ele>
        <time>2020-06-28T07:16:17Z</time>
      </trkpt>
      <trkpt lat="46.58127" lon="0.61663">
        <ele>71.3</ele>
        <time>2020-06-28T07:16:19Z</time>
      </trkpt>
      <trkpt lat="46.58116" lon="0.61672">
        <ele>72.5</ele>
        <time>2020-06-28T07:16:21Z</time>
      </trkpt>
      <trkpt lat="46.58101" lon="0.61687">
        <ele>73</ele>
        <time>2020-06-28T07:16:23Z</time>
      </trkpt>
      <trkpt lat="46.58093" lon="0.61696">
        <ele>72.7</ele>
        <time>2020-06-28T07:16:25Z</time>
      </trkpt>
      <trkpt lat="46.58086" lon="0.61704">
        <ele>72.3</ele>
        <time>2020-06-28T07:16:28Z</time>
      </trkpt>
      <trkpt lat="46.58075" lon="0.61714">
        <ele>73.7</ele>
        <time>2020-06-28T07:16:31Z</time>
      </trkpt>
      <trkpt lat="46.58064" lon="0.61725">
        <ele>72.4</ele>
        <time>2020-06-28T07:16:34Z</time>
      </trkpt>
      <trkpt lat="46.58057" lon="0.61735">
        <ele>73.9</ele>
        <time>2020-06-28T07:16:36Z</time>
      </trkpt>
      <trkpt lat="46.58049" lon="0.61751">
        <ele>68.9</ele>
        <time>2020-06-28T07:16:38Z</time>
      </trkpt>
      <trkpt lat="46.58043" lon="0.61762">
        <ele>68.2</ele>
        <time>2020-06-28T07:16:40Z</time>
      </trkpt>
      <trkpt lat="46.58034" lon="0.6177">
        <ele>68.2</ele>
        <time>2020-06-28T07:16:42Z</time>
      </trkpt>
      <trkpt lat="46.58031" lon="0.61783">
        <ele>67.2</ele>
        <time>2020-06-28T07:16:44Z</time>
      </trkpt>
      <trkpt lat="46.58032" lon="0.61799">
        <ele>65.8</ele>
        <time>2020-06-28T07:16:50Z</time>
      </trkpt>
      <trkpt lat="46.5803" lon="0.61816">
        <ele>66.1</ele>
        <time>2020-06-28T07:16:52Z</time>
      </trkpt>
      <trkpt lat="46.58023" lon="0.61834">
        <ele>67.8</ele>
        <time>2020-06-28T07:16:54Z</time>
      </trkpt>
      <trkpt lat="46.58018" lon="0.61853">
        <ele>68.5</ele>
        <time>2020-06-28T07:16:56Z</time>
      </trkpt>
      <trkpt lat="46.58012" lon="0.61871">
        <ele>67.8</ele>
        <time>2020-06-28T07:16:58Z</time>
      </trkpt>
      <trkpt lat="46.57998" lon="0.61885">
        <ele>67.8</ele>
        <time>2020-06-28T07:17:00Z</time>
      </trkpt>
      <trkpt lat="46.57992" lon="0.619">
        <ele>68.8</ele>
        <time>2020-06-28T07:17:01Z</time>
      </trkpt>
      <trkpt lat="46.57987" lon="0.61919">
        <ele>68.8</ele>
        <time>2020-06-28T07:17:03Z</time>
      </trkpt>
      <trkpt lat="46.57988" lon="0.61934">
        <ele>68.9</ele>
        <time>2020-06-28T07:17:05Z</time>
      </trkpt>
      <trkpt lat="46.57982" lon="0.61947">
        <ele>68.4</ele>
        <time>2020-06-28T07:17:08Z</time>
      </trkpt>
      <trkpt lat="46.57976" lon="0.61964">
        <ele>68.1</ele>
        <time>2020-06-28T07:17:12Z</time>
      </trkpt>
      <trkpt lat="46.57968" lon="0.61975">
        <ele>69</ele>
        <time>2020-06-28T07:17:15Z</time>
      </trkpt>
      <trkpt lat="46.57961" lon="0.61987">
        <ele>69.4</ele>
        <time>2020-06-28T07:17:19Z</time>
      </trkpt>
      <trkpt lat="46.57956" lon="0.62001">
        <ele>69</ele>
        <time>2020-06-28T07:17:21Z</time>
      </trkpt>
      <trkpt lat="46.57946" lon="0.62012">
        <ele>68.3</ele>
        <time>2020-06-28T07:17:23Z</time>
      </trkpt>
      <trkpt lat="46.57937" lon="0.6202">
        <ele>68.9</ele>
        <time>2020-06-28T07:17:25Z</time>
      </trkpt>
      <trkpt lat="46.57929" lon="0.62036">
        <ele>70.4</ele>
        <time>2020-06-28T07:17:27Z</time>
      </trkpt>
      <trkpt lat="46.57921" lon="0.62045">
        <ele>73</ele>
        <time>2020-06-28T07:17:30Z</time>
      </trkpt>
      <trkpt lat="46.57911" lon="0.62043">
        <ele>76.3</ele>
        <time>2020-06-28T07:17:33Z</time>
      </trkpt>
      <trkpt lat="46.57901" lon="0.6205">
        <ele>78.5</ele>
        <time>2020-06-28T07:17:36Z</time>
      </trkpt>
      <trkpt lat="46.5789" lon="0.62064">
        <ele>78.2</ele>
        <time>2020-06-28T07:17:38Z</time>
      </trkpt>
      <trkpt lat="46.57876" lon="0.62078">
        <ele>77.1</ele>
        <time>2020-06-28T07:17:40Z</time>
      </trkpt>
      <trkpt lat="46.57866" lon="0.62088">
        <ele>76.7</ele>
        <time>2020-06-28T07:17:42Z</time>
      </trkpt>
      <trkpt lat="46.57857" lon="0.62099">
        <ele>76.4</ele>
        <time>2020-06-28T07:17:44Z</time>
      </trkpt>
      <trkpt lat="46.57848" lon="0.6211">
        <ele>77</ele>
        <time>2020-06-28T07:17:46Z</time>
      </trkpt>
      <trkpt lat="46.57839" lon="0.6212">
        <ele>77.1</ele>
        <time>2020-06-28T07:17:48Z</time>
      </trkpt>
      <trkpt lat="46.57832" lon="0.6213">
        <ele>77.7</ele>
        <time>2020-06-28T07:17:50Z</time>
      </trkpt>
      <trkpt lat="46.57823" lon="0.62138">
        <ele>78.1</ele>
        <time>2020-06-28T07:17:52Z</time>
      </trkpt>
      <trkpt lat="46.57811" lon="0.6214">
        <ele>79.1</ele>
        <time>2020-06-28T07:17:55Z</time>
      </trkpt>
      <trkpt lat="46.57803" lon="0.62134">
        <ele>80.2</ele>
        <time>2020-06-28T07:17:58Z</time>
      </trkpt>
      <trkpt lat="46.57795" lon="0.62125">
        <ele>81.1</ele>
        <time>2020-06-28T07:18:01Z</time>
      </trkpt>
      <trkpt lat="46.57785" lon="0.6212">
        <ele>81.9</ele>
        <time>2020-06-28T07:18:03Z</time>
      </trkpt>
      <trkpt lat="46.57773" lon="0.62113">
        <ele>82.4</ele>
        <time>2020-06-28T07:18:06Z</time>
      </trkpt>
      <trkpt lat="46.57762" lon="0.62107">
        <ele>83.1</ele>
        <time>2020-06-28T07:18:09Z</time>
      </trkpt>
      <trkpt lat="46.5775" lon="0.62103">
        <ele>84.4</ele>
        <time>2020-06-28T07:18:12Z</time>
      </trkpt>
      <trkpt lat="46.57738" lon="0.62108">
        <ele>85.2</ele>
        <time>2020-06-28T07:18:15Z</time>
      </trkpt>
      <trkpt lat="46.57728" lon="0.62119">
        <ele>85.2</ele>
        <time>2020-06-28T07:18:18Z</time>
      </trkpt>
      <trkpt lat="46.5772" lon="0.62133">
        <ele>84.7</ele>
        <time>2020-06-28T07:18:21Z</time>
      </trkpt>
      <trkpt lat="46.57711" lon="0.62147">
        <ele>83.7</ele>
        <time>2020-06-28T07:18:24Z</time>
      </trkpt>
      <trkpt lat="46.57705" lon="0.62159">
        <ele>82.9</ele>
        <time>2020-06-28T07:18:26Z</time>
      </trkpt>
      <trkpt lat="46.57698" lon="0.62173">
        <ele>82.2</ele>
        <time>2020-06-28T07:18:29Z</time>
      </trkpt>
      <trkpt lat="46.57692" lon="0.62184">
        <ele>82</ele>
        <time>2020-06-28T07:18:31Z</time>
      </trkpt>
      <trkpt lat="46.57685" lon="0.62198">
        <ele>81.6</ele>
        <time>2020-06-28T07:18:34Z</time>
      </trkpt>
      <trkpt lat="46.57676" lon="0.62213">
        <ele>81.5</ele>
        <time>2020-06-28T07:18:37Z</time>
      </trkpt>
      <trkpt lat="46.57667" lon="0.62225">
        <ele>81.9</ele>
        <time>2020-06-28T07:18:39Z</time>
      </trkpt>
      <trkpt lat="46.57659" lon="0.62238">
        <ele>82.9</ele>
        <time>2020-06-28T07:18:42Z</time>
      </trkpt>
      <trkpt lat="46.57653" lon="0.6225">
        <ele>83.6</ele>
        <time>2020-06-28T07:18:45Z</time>
      </trkpt>
      <trkpt lat="46.57646" lon="0.62258">
        <ele>84.3</ele>
        <time>2020-06-28T07:18:48Z</time>
      </trkpt>
      <trkpt lat="46.5764" lon="0.62269">
        <ele>85.1</ele>
        <time>2020-06-28T07:18:51Z</time>
      </trkpt>
      <trkpt lat="46.57635" lon="0.62282">
        <ele>86.2</ele>
        <time>2020-06-28T07:18:54Z</time>
      </trkpt>
      <trkpt lat="46.57631" lon="0.62296">
        <ele>87.2</ele>
        <time>2020-06-28T07:18:57Z</time>
      </trkpt>
      <trkpt lat="46.57622" lon="0.62309">
        <ele>88.8</ele>
        <time>2020-06-28T07:19:00Z</time>
      </trkpt>
      <trkpt lat="46.57615" lon="0.62319">
        <ele>90.3</ele>
        <time>2020-06-28T07:19:02Z</time>
      </trkpt>
      <trkpt lat="46.57608" lon="0.62327">
        <ele>91.5</ele>
        <time>2020-06-28T07:19:04Z</time>
      </trkpt>
      <trkpt lat="46.57599" lon="0.62336">
        <ele>92.9</ele>
        <time>2020-06-28T07:19:06Z</time>
      </trkpt>
      <trkpt lat="46.57591" lon="0.62349">
        <ele>94.4</ele>
        <time>2020-06-28T07:19:09Z</time>
      </trkpt>
      <trkpt lat="46.57582" lon="0.62363">
        <ele>95.6</ele>
        <time>2020-06-28T07:19:12Z</time>
      </trkpt>
      <trkpt lat="46.57575" lon="0.62373">
        <ele>95.9</ele>
        <time>2020-06-28T07:19:14Z</time>
      </trkpt>
      <trkpt lat="46.57567" lon="0.62389">
        <ele>95</ele>
        <time>2020-06-28T07:19:17Z</time>
      </trkpt>
      <trkpt lat="46.57558" lon="0.62406">
        <ele>93.6</ele>
        <time>2020-06-28T07:19:20Z</time>
      </trkpt>
      <trkpt lat="46.57552" lon="0.6242">
        <ele>92.4</ele>
        <time>2020-06-28T07:19:22Z</time>
      </trkpt>
      <trkpt lat="46.57547" lon="0.6243">
        <ele>91.2</ele>
        <time>2020-06-28T07:19:24Z</time>
      </trkpt>
      <trkpt lat="46.5754" lon="0.62443">
        <ele>90.1</ele>
        <time>2020-06-28T07:19:26Z</time>
      </trkpt>
      <trkpt lat="46.57534" lon="0.62454">
        <ele>89.5</ele>
        <time>2020-06-28T07:19:28Z</time>
      </trkpt>
      <trkpt lat="46.57527" lon="0.62468">
        <ele>88.6</ele>
        <time>2020-06-28T07:19:31Z</time>
      </trkpt>
      <trkpt lat="46.5752" lon="0.6248">
        <ele>87.8</ele>
        <time>2020-06-28T07:19:33Z</time>
      </trkpt>
      <trkpt lat="46.57512" lon="0.62495">
        <ele>87</ele>
        <time>2020-06-28T07:19:36Z</time>
      </trkpt>
      <trkpt lat="46.57506" lon="0.62506">
        <ele>86.4</ele>
        <time>2020-06-28T07:19:38Z</time>
      </trkpt>
      <trkpt lat="46.57498" lon="0.62524">
        <ele>85.4</ele>
        <time>2020-06-28T07:19:41Z</time>
      </trkpt>
      <trkpt lat="46.57492" lon="0.62537">
        <ele>84.6</ele>
        <time>2020-06-28T07:19:43Z</time>
      </trkpt>
      <trkpt lat="46.57487" lon="0.62552">
        <ele>83.7</ele>
        <time>2020-06-28T07:19:45Z</time>
      </trkpt>
      <trkpt lat="46.57483" lon="0.62566">
        <ele>82.8</ele>
        <time>2020-06-28T07:19:47Z</time>
      </trkpt>
      <trkpt lat="46.57479" lon="0.62579">
        <ele>82.4</ele>
        <time>2020-06-28T07:19:49Z</time>
      </trkpt>
      <trkpt lat="46.57473" lon="0.62595">
        <ele>81.6</ele>
        <time>2020-06-28T07:19:51Z</time>
      </trkpt>
      <trkpt lat="46.57468" lon="0.62608">
        <ele>80.8</ele>
        <time>2020-06-28T07:19:53Z</time>
      </trkpt>
      <trkpt lat="46.57461" lon="0.62622">
        <ele>80</ele>
        <time>2020-06-28T07:19:55Z</time>
      </trkpt>
      <trkpt lat="46.57454" lon="0.62636">
        <ele>79.1</ele>
        <time>2020-06-28T07:19:57Z</time>
      </trkpt>
      <trkpt lat="46.57448" lon="0.62651">
        <ele>78.3</ele>
        <time>2020-06-28T07:19:59Z</time>
      </trkpt>
      <trkpt lat="46.57443" lon="0.62665">
        <ele>77.7</ele>
        <time>2020-06-28T07:20:01Z</time>
      </trkpt>
      <trkpt lat="46.57438" lon="0.62679">
        <ele>77.1</ele>
        <time>2020-06-28T07:20:03Z</time>
      </trkpt>
      <trkpt lat="46.57431" lon="0.62694">
        <ele>76.4</ele>
        <time>2020-06-28T07:20:05Z</time>
      </trkpt>
      <trkpt lat="46.57423" lon="0.62711">
        <ele>75.6</ele>
        <time>2020-06-28T07:20:07Z</time>
      </trkpt>
      <trkpt lat="46.57416" lon="0.62725">
        <ele>74.7</ele>
        <time>2020-06-28T07:20:09Z</time>
      </trkpt>
      <trkpt lat="46.57411" lon="0.62739">
        <ele>74</ele>
        <time>2020-06-28T07:20:11Z</time>
      </trkpt>
      <trkpt lat="46.57405" lon="0.62755">
        <ele>73.1</ele>
        <time>2020-06-28T07:20:13Z</time>
      </trkpt>
      <trkpt lat="46.57399" lon="0.6277">
        <ele>72.3</ele>
        <time>2020-06-28T07:20:15Z</time>
      </trkpt>
      <trkpt lat="46.57394" lon="0.62783">
        <ele>71.5</ele>
        <time>2020-06-28T07:20:17Z</time>
      </trkpt>
      <trkpt lat="46.5739" lon="0.62797">
        <ele>70.6</ele>
        <time>2020-06-28T07:20:19Z</time>
      </trkpt>
      <trkpt lat="46.57386" lon="0.62811">
        <ele>69.9</ele>
        <time>2020-06-28T07:20:21Z</time>
      </trkpt>
      <trkpt lat="46.57383" lon="0.62824">
        <ele>69.4</ele>
        <time>2020-06-28T07:20:23Z</time>
      </trkpt>
      <trkpt lat="46.57378" lon="0.6284">
        <ele>69.2</ele>
        <time>2020-06-28T07:20:27Z</time>
      </trkpt>
      <trkpt lat="46.57377" lon="0.62853">
        <ele>68.8</ele>
        <time>2020-06-28T07:20:31Z</time>
      </trkpt>
      <trkpt lat="46.57376" lon="0.62869">
        <ele>68.2</ele>
        <time>2020-06-28T07:20:34Z</time>
      </trkpt>
      <trkpt lat="46.57376" lon="0.62884">
        <ele>67.8</ele>
        <time>2020-06-28T07:20:36Z</time>
      </trkpt>
      <trkpt lat="46.57375" lon="0.62902">
        <ele>67.4</ele>
        <time>2020-06-28T07:20:38Z</time>
      </trkpt>
      <trkpt lat="46.57374" lon="0.6292">
        <ele>67.1</ele>
        <time>2020-06-28T07:20:40Z</time>
      </trkpt>
      <trkpt lat="46.57372" lon="0.62937">
        <ele>67</ele>
        <time>2020-06-28T07:20:42Z</time>
      </trkpt>
      <trkpt lat="46.5737" lon="0.62954">
        <ele>66.9</ele>
        <time>2020-06-28T07:20:44Z</time>
      </trkpt>
      <trkpt lat="46.57368" lon="0.6297">
        <ele>66.9</ele>
        <time>2020-06-28T07:20:46Z</time>
      </trkpt>
      <trkpt lat="46.57365" lon="0.62984">
        <ele>67</ele>
        <time>2020-06-28T07:20:48Z</time>
      </trkpt>
      <trkpt lat="46.57362" lon="0.63">
        <ele>67.2</ele>
        <time>2020-06-28T07:20:50Z</time>
      </trkpt>
      <trkpt lat="46.57359" lon="0.63015">
        <ele>67.4</ele>
        <time>2020-06-28T07:20:52Z</time>
      </trkpt>
      <trkpt lat="46.57354" lon="0.63031">
        <ele>67.7</ele>
        <time>2020-06-28T07:20:55Z</time>
      </trkpt>
      <trkpt lat="46.5735" lon="0.63045">
        <ele>68</ele>
        <time>2020-06-28T07:20:58Z</time>
      </trkpt>
      <trkpt lat="46.57345" lon="0.63058">
        <ele>68.2</ele>
        <time>2020-06-28T07:21:01Z</time>
      </trkpt>
      <trkpt lat="46.5734" lon="0.63072">
        <ele>68.5</ele>
        <time>2020-06-28T07:21:04Z</time>
      </trkpt>
      <trkpt lat="46.5734" lon="0.63085">
        <ele>68.7</ele>
        <time>2020-06-28T07:23:04Z</time>
      </trkpt>
      <trkpt lat="46.57335" lon="0.63096">
        <ele>68.8</ele>
        <time>2020-06-28T07:23:10Z</time>
      </trkpt>
      <trkpt lat="46.5733" lon="0.63108">
        <ele>69</ele>
        <time>2020-06-28T07:23:58Z</time>
      </trkpt>
      <trkpt lat="46.57325" lon="0.63119">
        <ele>69.2</ele>
        <time>2020-06-28T07:24:05Z</time>
      </trkpt>
      <trkpt lat="46.57318" lon="0.63128">
        <ele>69.3</ele>
        <time>2020-06-28T07:24:32Z</time>
      </trkpt>
      <trkpt lat="46.57312" lon="0.63139">
        <ele>69.5</ele>
        <time>2020-06-28T07:24:39Z</time>
      </trkpt>
      <trkpt lat="46.57307" lon="0.6315">
        <ele>69.6</ele>
        <time>2020-06-28T07:24:43Z</time>
      </trkpt>
      <trkpt lat="46.57302" lon="0.63162">
        <ele>69.8</ele>
        <time>2020-06-28T07:24:46Z</time>
      </trkpt>
      <trkpt lat="46.57297" lon="0.63175">
        <ele>70</ele>
        <time>2020-06-28T07:24:49Z</time>
      </trkpt>
      <trkpt lat="46.57292" lon="0.63188">
        <ele>70.1</ele>
        <time>2020-06-28T07:24:52Z</time>
      </trkpt>
      <trkpt lat="46.57286" lon="0.63201">
        <ele>70.2</ele>
        <time>2020-06-28T07:24:55Z</time>
      </trkpt>
      <trkpt lat="46.57281" lon="0.63216">
        <ele>70.3</ele>
        <time>2020-06-28T07:24:58Z</time>
      </trkpt>
      <trkpt lat="46.57277" lon="0.6323">
        <ele>70.4</ele>
        <time>2020-06-28T07:25:01Z</time>
      </trkpt>
      <trkpt lat="46.57275" lon="0.63243">
        <ele>70.4</ele>
        <time>2020-06-28T07:25:03Z</time>
      </trkpt>
      <trkpt lat="46.57272" lon="0.63261">
        <ele>70.5</ele>
        <time>2020-06-28T07:25:06Z</time>
      </trkpt>
      <trkpt lat="46.5727" lon="0.63278">
        <ele>70.5</ele>
        <time>2020-06-28T07:25:09Z</time>
      </trkpt>
      <trkpt lat="46.57269" lon="0.63293">
        <ele>70.6</ele>
        <time>2020-06-28T07:25:12Z</time>
      </trkpt>
      <trkpt lat="46.57266" lon="0.6331">
        <ele>70.6</ele>
        <time>2020-06-28T07:25:15Z</time>
      </trkpt>
      <trkpt lat="46.57264" lon="0.63326">
        <ele>70.6</ele>
        <time>2020-06-28T07:25:18Z</time>
      </trkpt>
      <trkpt lat="46.57262" lon="0.63344">
        <ele>70.6</ele>
        <time>2020-06-28T07:25:21Z</time>
      </trkpt>
      <trkpt lat="46.5726" lon="0.63363">
        <ele>70.6</ele>
        <time>2020-06-28T07:25:24Z</time>
      </trkpt>
      <trkpt lat="46.57257" lon="0.63382">
        <ele>70.6</ele>
        <time>2020-06-28T07:25:27Z</time>
      </trkpt>
      <trkpt lat="46.57253" lon="0.63402">
        <ele>70.6</ele>
        <time>2020-06-28T07:25:30Z</time>
      </trkpt>
      <trkpt lat="46.5725" lon="0.63416">
        <ele>70.6</ele>
        <time>2020-06-28T07:25:32Z</time>
      </trkpt>
      <trkpt lat="46.57248" lon="0.63429">
        <ele>70.6</ele>
        <time>2020-06-28T07:25:34Z</time>
      </trkpt>
      <trkpt lat="46.57244" lon="0.63448">
        <ele>70.6</ele>
        <time>2020-06-28T07:25:37Z</time>
      </trkpt>
      <trkpt lat="46.5724" lon="0.63461">
        <ele>70.5</ele>
        <time>2020-06-28T07:25:39Z</time>
      </trkpt>
      <trkpt lat="46.57236" lon="0.63475">
        <ele>70.5</ele>
        <time>2020-06-28T07:25:41Z</time>
      </trkpt>
      <trkpt lat="46.57232" lon="0.63489">
        <ele>70.4</ele>
        <time>2020-06-28T07:25:43Z</time>
      </trkpt>
      <trkpt lat="46.57228" lon="0.63501">
        <ele>70.4</ele>
        <time>2020-06-28T07:25:45Z</time>
      </trkpt>
      <trkpt lat="46.57222" lon="0.63512">
        <ele>70.4</ele>
        <time>2020-06-28T07:25:47Z</time>
      </trkpt>
      <trkpt lat="46.57216" lon="0.63525">
        <ele>70.4</ele>
        <time>2020-06-28T07:25:49Z</time>
      </trkpt>
      <trkpt lat="46.57212" lon="0.63537">
        <ele>70.4</ele>
        <time>2020-06-28T07:25:51Z</time>
      </trkpt>
      <trkpt lat="46.57206" lon="0.63551">
        <ele>70.4</ele>
        <time>2020-06-28T07:25:53Z</time>
      </trkpt>
      <trkpt lat="46.572" lon="0.63564">
        <ele>70.4</ele>
        <time>2020-06-28T07:25:55Z</time>
      </trkpt>
      <trkpt lat="46.57195" lon="0.63579">
        <ele>70.4</ele>
        <time>2020-06-28T07:25:57Z</time>
      </trkpt>
      <trkpt lat="46.57191" lon="0.63591">
        <ele>70.4</ele>
        <time>2020-06-28T07:25:59Z</time>
      </trkpt>
      <trkpt lat="46.57186" lon="0.63604">
        <ele>70.5</ele>
        <time>2020-06-28T07:26:01Z</time>
      </trkpt>
      <trkpt lat="46.57181" lon="0.63621">
        <ele>70.3</ele>
        <time>2020-06-28T07:26:03Z</time>
      </trkpt>
      <trkpt lat="46.57177" lon="0.63634">
        <ele>70</ele>
        <time>2020-06-28T07:26:05Z</time>
      </trkpt>
      <trkpt lat="46.57172" lon="0.63647">
        <ele>69.7</ele>
        <time>2020-06-28T07:26:07Z</time>
      </trkpt>
      <trkpt lat="46.57165" lon="0.63662">
        <ele>69.4</ele>
        <time>2020-06-28T07:26:09Z</time>
      </trkpt>
      <trkpt lat="46.57159" lon="0.63675">
        <ele>69.1</ele>
        <time>2020-06-28T07:26:11Z</time>
      </trkpt>
      <trkpt lat="46.57153" lon="0.63687">
        <ele>68.8</ele>
        <time>2020-06-28T07:26:13Z</time>
      </trkpt>
      <trkpt lat="46.57147" lon="0.637">
        <ele>68.5</ele>
        <time>2020-06-28T07:26:15Z</time>
      </trkpt>
      <trkpt lat="46.57141" lon="0.63714">
        <ele>68.2</ele>
        <time>2020-06-28T07:26:17Z</time>
      </trkpt>
      <trkpt lat="46.57134" lon="0.63731">
        <ele>67.7</ele>
        <time>2020-06-28T07:26:19Z</time>
      </trkpt>
      <trkpt lat="46.57128" lon="0.63744">
        <ele>67.5</ele>
        <time>2020-06-28T07:26:21Z</time>
      </trkpt>
      <trkpt lat="46.57122" lon="0.63757">
        <ele>67.2</ele>
        <time>2020-06-28T07:26:23Z</time>
      </trkpt>
      <trkpt lat="46.57115" lon="0.63769">
        <ele>66.9</ele>
        <time>2020-06-28T07:26:25Z</time>
      </trkpt>
      <trkpt lat="46.57108" lon="0.63783">
        <ele>66.6</ele>
        <time>2020-06-28T07:26:27Z</time>
      </trkpt>
      <trkpt lat="46.571" lon="0.63797">
        <ele>66.3</ele>
        <time>2020-06-28T07:26:29Z</time>
      </trkpt>
      <trkpt lat="46.57095" lon="0.6381">
        <ele>66.2</ele>
        <time>2020-06-28T07:26:31Z</time>
      </trkpt>
      <trkpt lat="46.57087" lon="0.63827">
        <ele>65.9</ele>
        <time>2020-06-28T07:26:33Z</time>
      </trkpt>
      <trkpt lat="46.57081" lon="0.63843">
        <ele>65.6</ele>
        <time>2020-06-28T07:26:35Z</time>
      </trkpt>
      <trkpt lat="46.57071" lon="0.63857">
        <ele>65.2</ele>
        <time>2020-06-28T07:26:37Z</time>
      </trkpt>
      <trkpt lat="46.57062" lon="0.6387">
        <ele>65</ele>
        <time>2020-06-28T07:26:39Z</time>
      </trkpt>
      <trkpt lat="46.57056" lon="0.63884">
        <ele>64.9</ele>
        <time>2020-06-28T07:26:41Z</time>
      </trkpt>
      <trkpt lat="46.57048" lon="0.63898">
        <ele>64.8</ele>
        <time>2020-06-28T07:26:43Z</time>
      </trkpt>
      <trkpt lat="46.5704" lon="0.63911">
        <ele>64.7</ele>
        <time>2020-06-28T07:26:45Z</time>
      </trkpt>
      <trkpt lat="46.57031" lon="0.63921">
        <ele>64.7</ele>
        <time>2020-06-28T07:26:47Z</time>
      </trkpt>
      <trkpt lat="46.57023" lon="0.6393">
        <ele>64.7</ele>
        <time>2020-06-28T07:26:49Z</time>
      </trkpt>
      <trkpt lat="46.57013" lon="0.63938">
        <ele>64.7</ele>
        <time>2020-06-28T07:26:51Z</time>
      </trkpt>
      <trkpt lat="46.57003" lon="0.63945">
        <ele>64.7</ele>
        <time>2020-06-28T07:26:53Z</time>
      </trkpt>
      <trkpt lat="46.56993" lon="0.63951">
        <ele>64.7</ele>
        <time>2020-06-28T07:26:55Z</time>
      </trkpt>
      <trkpt lat="46.56982" lon="0.6396">
        <ele>64.9</ele>
        <time>2020-06-28T07:26:57Z</time>
      </trkpt>
      <trkpt lat="46.56971" lon="0.6397">
        <ele>65.2</ele>
        <time>2020-06-28T07:26:59Z</time>
      </trkpt>
      <trkpt lat="46.56963" lon="0.6398">
        <ele>65.6</ele>
        <time>2020-06-28T07:27:01Z</time>
      </trkpt>
      <trkpt lat="46.56955" lon="0.63989">
        <ele>66</ele>
        <time>2020-06-28T07:27:03Z</time>
      </trkpt>
      <trkpt lat="46.56948" lon="0.63998">
        <ele>66.4</ele>
        <time>2020-06-28T07:27:06Z</time>
      </trkpt>
      <trkpt lat="46.5694" lon="0.64007">
        <ele>66.9</ele>
        <time>2020-06-28T07:27:15Z</time>
      </trkpt>
      <trkpt lat="46.56936" lon="0.64021">
        <ele>67.5</ele>
        <time>2020-06-28T07:27:18Z</time>
      </trkpt>
      <trkpt lat="46.56938" lon="0.64034">
        <ele>67.6</ele>
        <time>2020-06-28T07:27:21Z</time>
      </trkpt>
      <trkpt lat="46.56939" lon="0.6405">
        <ele>67.7</ele>
        <time>2020-06-28T07:27:24Z</time>
      </trkpt>
      <trkpt lat="46.56941" lon="0.64068">
        <ele>67.8</ele>
        <time>2020-06-28T07:27:27Z</time>
      </trkpt>
      <trkpt lat="46.56943" lon="0.64081">
        <ele>68</ele>
        <time>2020-06-28T07:27:29Z</time>
      </trkpt>
      <trkpt lat="46.56944" lon="0.64096">
        <ele>68</ele>
        <time>2020-06-28T07:27:31Z</time>
      </trkpt>
      <trkpt lat="46.56946" lon="0.6411">
        <ele>68.1</ele>
        <time>2020-06-28T07:27:33Z</time>
      </trkpt>
      <trkpt lat="46.56947" lon="0.64124">
        <ele>68.1</ele>
        <time>2020-06-28T07:27:35Z</time>
      </trkpt>
      <trkpt lat="46.56949" lon="0.64138">
        <ele>68.1</ele>
        <time>2020-06-28T07:27:37Z</time>
      </trkpt>
      <trkpt lat="46.5695" lon="0.64151">
        <ele>68.1</ele>
        <time>2020-06-28T07:27:39Z</time>
      </trkpt>
      <trkpt lat="46.56952" lon="0.64165">
        <ele>68</ele>
        <time>2020-06-28T07:27:41Z</time>
      </trkpt>
      <trkpt lat="46.56953" lon="0.64178">
        <ele>68</ele>
        <time>2020-06-28T07:27:43Z</time>
      </trkpt>
      <trkpt lat="46.56955" lon="0.64197">
        <ele>68</ele>
        <time>2020-06-28T07:27:46Z</time>
      </trkpt>
      <trkpt lat="46.56953" lon="0.6421">
        <ele>68</ele>
        <time>2020-06-28T07:27:48Z</time>
      </trkpt>
      <trkpt lat="46.56945" lon="0.64225">
        <ele>68</ele>
        <time>2020-06-28T07:27:51Z</time>
      </trkpt>
      <trkpt lat="46.56952" lon="0.64237">
        <ele>68</ele>
        <time>2020-06-28T07:27:55Z</time>
      </trkpt>
      <trkpt lat="46.56962" lon="0.6423">
        <ele>67.5</ele>
        <time>2020-06-28T07:27:57Z</time>
      </trkpt>
      <trkpt lat="46.56971" lon="0.64228">
        <ele>67</ele>
        <time>2020-06-28T07:27:59Z</time>
      </trkpt>
      <trkpt lat="46.56983" lon="0.64227">
        <ele>66.5</ele>
        <time>2020-06-28T07:28:01Z</time>
      </trkpt>
      <trkpt lat="46.56996" lon="0.64228">
        <ele>66</ele>
        <time>2020-06-28T07:28:03Z</time>
      </trkpt>
      <trkpt lat="46.57011" lon="0.64231">
        <ele>65.6</ele>
        <time>2020-06-28T07:28:05Z</time>
      </trkpt>
      <trkpt lat="46.5702" lon="0.6423">
        <ele>65.5</ele>
        <time>2020-06-28T07:28:07Z</time>
      </trkpt>
      <trkpt lat="46.57031" lon="0.64225">
        <ele>65.4</ele>
        <time>2020-06-28T07:28:09Z</time>
      </trkpt>
      <trkpt lat="46.57044" lon="0.64224">
        <ele>65.4</ele>
        <time>2020-06-28T07:28:11Z</time>
      </trkpt>
      <trkpt lat="46.57054" lon="0.6422">
        <ele>65.3</ele>
        <time>2020-06-28T07:28:13Z</time>
      </trkpt>
      <trkpt lat="46.57066" lon="0.6422">
        <ele>65.2</ele>
        <time>2020-06-28T07:28:15Z</time>
      </trkpt>
      <trkpt lat="46.57079" lon="0.64223">
        <ele>65.2</ele>
        <time>2020-06-28T07:28:17Z</time>
      </trkpt>
      <trkpt lat="46.57091" lon="0.64224">
        <ele>65.1</ele>
        <time>2020-06-28T07:28:19Z</time>
      </trkpt>
      <trkpt lat="46.57105" lon="0.64225">
        <ele>65.3</ele>
        <time>2020-06-28T07:28:21Z</time>
      </trkpt>
      <trkpt lat="46.57115" lon="0.64226">
        <ele>65.4</ele>
        <time>2020-06-28T07:28:23Z</time>
      </trkpt>
      <trkpt lat="46.57127" lon="0.64223">
        <ele>65.5</ele>
        <time>2020-06-28T07:28:25Z</time>
      </trkpt>
      <trkpt lat="46.57138" lon="0.64221">
        <ele>65.6</ele>
        <time>2020-06-28T07:28:27Z</time>
      </trkpt>
      <trkpt lat="46.57148" lon="0.64218">
        <ele>65.6</ele>
        <time>2020-06-28T07:28:29Z</time>
      </trkpt>
      <trkpt lat="46.57158" lon="0.64215">
        <ele>65.7</ele>
        <time>2020-06-28T07:28:31Z</time>
      </trkpt>
      <trkpt lat="46.57167" lon="0.64215">
        <ele>65.8</ele>
        <time>2020-06-28T07:28:33Z</time>
      </trkpt>
      <trkpt lat="46.5718" lon="0.64221">
        <ele>66</ele>
        <time>2020-06-28T07:28:36Z</time>
      </trkpt>
      <trkpt lat="46.57183" lon="0.64235">
        <ele>66.1</ele>
        <time>2020-06-28T07:28:38Z</time>
      </trkpt>
      <trkpt lat="46.57185" lon="0.64251">
        <ele>66.1</ele>
        <time>2020-06-28T07:28:40Z</time>
      </trkpt>
      <trkpt lat="46.57188" lon="0.64266">
        <ele>66.2</ele>
        <time>2020-06-28T07:28:42Z</time>
      </trkpt>
      <trkpt lat="46.57192" lon="0.64286">
        <ele>66.5</ele>
        <time>2020-06-28T07:28:45Z</time>
      </trkpt>
      <trkpt lat="46.57194" lon="0.643">
        <ele>66.8</ele>
        <time>2020-06-28T07:28:47Z</time>
      </trkpt>
      <trkpt lat="46.57196" lon="0.64315">
        <ele>67.2</ele>
        <time>2020-06-28T07:28:49Z</time>
      </trkpt>
      <trkpt lat="46.57199" lon="0.64328">
        <ele>67.7</ele>
        <time>2020-06-28T07:28:51Z</time>
      </trkpt>
      <trkpt lat="46.57203" lon="0.64347">
        <ele>68.7</ele>
        <time>2020-06-28T07:28:54Z</time>
      </trkpt>
      <trkpt lat="46.57206" lon="0.64361">
        <ele>69.6</ele>
        <time>2020-06-28T07:28:56Z</time>
      </trkpt>
      <trkpt lat="46.5721" lon="0.64373">
        <ele>70.6</ele>
        <time>2020-06-28T07:28:59Z</time>
      </trkpt>
      <trkpt lat="46.57212" lon="0.64388">
        <ele>71.6</ele>
        <time>2020-06-28T07:29:03Z</time>
      </trkpt>
      <trkpt lat="46.57212" lon="0.64404">
        <ele>72.5</ele>
        <time>2020-06-28T07:29:08Z</time>
      </trkpt>
      <trkpt lat="46.57206" lon="0.64415">
        <ele>72.4</ele>
        <time>2020-06-28T07:29:10Z</time>
      </trkpt>
      <trkpt lat="46.57199" lon="0.64432">
        <ele>72.5</ele>
        <time>2020-06-28T07:29:13Z</time>
      </trkpt>
      <trkpt lat="46.57191" lon="0.64447">
        <ele>73.2</ele>
        <time>2020-06-28T07:29:16Z</time>
      </trkpt>
      <trkpt lat="46.57184" lon="0.64458">
        <ele>73.9</ele>
        <time>2020-06-28T07:29:19Z</time>
      </trkpt>
      <trkpt lat="46.57178" lon="0.6447">
        <ele>74.6</ele>
        <time>2020-06-28T07:29:22Z</time>
      </trkpt>
      <trkpt lat="46.57172" lon="0.64484">
        <ele>75.3</ele>
        <time>2020-06-28T07:29:28Z</time>
      </trkpt>
      <trkpt lat="46.57164" lon="0.64491">
        <ele>76</ele>
        <time>2020-06-28T07:29:38Z</time>
      </trkpt>
      <trkpt lat="46.5716" lon="0.64503">
        <ele>77.2</ele>
        <time>2020-06-28T07:29:49Z</time>
      </trkpt>
      <trkpt lat="46.57155" lon="0.64516">
        <ele>78.9</ele>
        <time>2020-06-28T07:30:17Z</time>
      </trkpt>
      <trkpt lat="46.57151" lon="0.64529">
        <ele>80.7</ele>
        <time>2020-06-28T07:30:23Z</time>
      </trkpt>
      <trkpt lat="46.57148" lon="0.64542">
        <ele>82.7</ele>
        <time>2020-06-28T07:30:28Z</time>
      </trkpt>
      <trkpt lat="46.57143" lon="0.64555">
        <ele>84.7</ele>
        <time>2020-06-28T07:30:34Z</time>
      </trkpt>
      <trkpt lat="46.57139" lon="0.64567">
        <ele>86.6</ele>
        <time>2020-06-28T07:30:40Z</time>
      </trkpt>
      <trkpt lat="46.57135" lon="0.64581">
        <ele>88.5</ele>
        <time>2020-06-28T07:30:47Z</time>
      </trkpt>
      <trkpt lat="46.5713" lon="0.64594">
        <ele>90.3</ele>
        <time>2020-06-28T07:30:52Z</time>
      </trkpt>
      <trkpt lat="46.57125" lon="0.64606">
        <ele>91.9</ele>
        <time>2020-06-28T07:30:57Z</time>
      </trkpt>
      <trkpt lat="46.5712" lon="0.6462">
        <ele>93.6</ele>
        <time>2020-06-28T07:31:02Z</time>
      </trkpt>
      <trkpt lat="46.57116" lon="0.64634">
        <ele>95.5</ele>
        <time>2020-06-28T07:31:08Z</time>
      </trkpt>
      <trkpt lat="46.57112" lon="0.64646">
        <ele>97.2</ele>
        <time>2020-06-28T07:31:13Z</time>
      </trkpt>
      <trkpt lat="46.57108" lon="0.64661">
        <ele>99</ele>
        <time>2020-06-28T07:31:20Z</time>
      </trkpt>
      <trkpt lat="46.57104" lon="0.64674">
        <ele>100.7</ele>
        <time>2020-06-28T07:31:26Z</time>
      </trkpt>
      <trkpt lat="46.57102" lon="0.64688">
        <ele>102.3</ele>
        <time>2020-06-28T07:31:32Z</time>
      </trkpt>
      <trkpt lat="46.57101" lon="0.64701">
        <ele>103.9</ele>
        <time>2020-06-28T07:31:39Z</time>
      </trkpt>
      <trkpt lat="46.57097" lon="0.64714">
        <ele>105.6</ele>
        <time>2020-06-28T07:31:45Z</time>
      </trkpt>
      <trkpt lat="46.57093" lon="0.64728">
        <ele>107.4</ele>
        <time>2020-06-28T07:31:52Z</time>
      </trkpt>
      <trkpt lat="46.5709" lon="0.64741">
        <ele>109.1</ele>
        <time>2020-06-28T07:31:58Z</time>
      </trkpt>
      <trkpt lat="46.57089" lon="0.64755">
        <ele>110.8</ele>
        <time>2020-06-28T07:32:06Z</time>
      </trkpt>
      <trkpt lat="46.57093" lon="0.6477">
        <ele>112.5</ele>
        <time>2020-06-28T07:32:13Z</time>
      </trkpt>
      <trkpt lat="46.57103" lon="0.64768">
        <ele>113.5</ele>
        <time>2020-06-28T07:32:22Z</time>
      </trkpt>
      <trkpt lat="46.57111" lon="0.6476">
        <ele>114</ele>
        <time>2020-06-28T07:32:28Z</time>
      </trkpt>
      <trkpt lat="46.57121" lon="0.6475">
        <ele>114.6</ele>
        <time>2020-06-28T07:32:32Z</time>
      </trkpt>
      <trkpt lat="46.5713" lon="0.64741">
        <ele>115.2</ele>
        <time>2020-06-28T07:32:35Z</time>
      </trkpt>
      <trkpt lat="46.5714" lon="0.64731">
        <ele>115.6</ele>
        <time>2020-06-28T07:32:38Z</time>
      </trkpt>
      <trkpt lat="46.57149" lon="0.64722">
        <ele>115.9</ele>
        <time>2020-06-28T07:32:41Z</time>
      </trkpt>
      <trkpt lat="46.57159" lon="0.64718">
        <ele>116.2</ele>
        <time>2020-06-28T07:32:46Z</time>
      </trkpt>
      <trkpt lat="46.57168" lon="0.64715">
        <ele>116.6</ele>
        <time>2020-06-28T07:32:49Z</time>
      </trkpt>
      <trkpt lat="46.57177" lon="0.64711">
        <ele>116.8</ele>
        <time>2020-06-28T07:32:51Z</time>
      </trkpt>
      <trkpt lat="46.57187" lon="0.64705">
        <ele>117.1</ele>
        <time>2020-06-28T07:32:53Z</time>
      </trkpt>
      <trkpt lat="46.57197" lon="0.64696">
        <ele>117.6</ele>
        <time>2020-06-28T07:32:55Z</time>
      </trkpt>
      <trkpt lat="46.57207" lon="0.64686">
        <ele>118</ele>
        <time>2020-06-28T07:32:58Z</time>
      </trkpt>
      <trkpt lat="46.57216" lon="0.64679">
        <ele>118.4</ele>
        <time>2020-06-28T07:33:02Z</time>
      </trkpt>
      <trkpt lat="46.57227" lon="0.64674">
        <ele>118.7</ele>
        <time>2020-06-28T07:33:06Z</time>
      </trkpt>
      <trkpt lat="46.57236" lon="0.64669">
        <ele>119</ele>
        <time>2020-06-28T07:33:08Z</time>
      </trkpt>
      <trkpt lat="46.57248" lon="0.64662">
        <ele>119.3</ele>
        <time>2020-06-28T07:33:10Z</time>
      </trkpt>
      <trkpt lat="46.5726" lon="0.64654">
        <ele>119.5</ele>
        <time>2020-06-28T07:33:12Z</time>
      </trkpt>
      <trkpt lat="46.57268" lon="0.64648">
        <ele>119.6</ele>
        <time>2020-06-28T07:33:14Z</time>
      </trkpt>
      <trkpt lat="46.57282" lon="0.64641">
        <ele>119.9</ele>
        <time>2020-06-28T07:33:17Z</time>
      </trkpt>
      <trkpt lat="46.57294" lon="0.64636">
        <ele>120.2</ele>
        <time>2020-06-28T07:33:20Z</time>
      </trkpt>
      <trkpt lat="46.57303" lon="0.64632">
        <ele>120.5</ele>
        <time>2020-06-28T07:33:24Z</time>
      </trkpt>
      <trkpt lat="46.57302" lon="0.64616">
        <ele>119.5</ele>
        <time>2020-06-28T07:33:39Z</time>
      </trkpt>
      <trkpt lat="46.57295" lon="0.64599">
        <ele>117.8</ele>
        <time>2020-06-28T07:33:42Z</time>
      </trkpt>
      <trkpt lat="46.5729" lon="0.64585">
        <ele>115.9</ele>
        <time>2020-06-28T07:33:44Z</time>
      </trkpt>
      <trkpt lat="46.57287" lon="0.64573">
        <ele>114.1</ele>
        <time>2020-06-28T07:33:46Z</time>
      </trkpt>
      <trkpt lat="46.57283" lon="0.64559">
        <ele>112</ele>
        <time>2020-06-28T07:33:48Z</time>
      </trkpt>
      <trkpt lat="46.57277" lon="0.64547">
        <ele>109.9</ele>
        <time>2020-06-28T07:33:50Z</time>
      </trkpt>
      <trkpt lat="46.57272" lon="0.64534">
        <ele>107.7</ele>
        <time>2020-06-28T07:33:52Z</time>
      </trkpt>
      <trkpt lat="46.57267" lon="0.64523">
        <ele>105.6</ele>
        <time>2020-06-28T07:33:54Z</time>
      </trkpt>
      <trkpt lat="46.57258" lon="0.64511">
        <ele>102.4</ele>
        <time>2020-06-28T07:33:57Z</time>
      </trkpt>
      <trkpt lat="46.57251" lon="0.64501">
        <ele>99.4</ele>
        <time>2020-06-28T07:34:00Z</time>
      </trkpt>
      <trkpt lat="46.57245" lon="0.64491">
        <ele>96.5</ele>
        <time>2020-06-28T07:34:03Z</time>
      </trkpt>
      <trkpt lat="46.5724" lon="0.64479">
        <ele>93.4</ele>
        <time>2020-06-28T07:34:07Z</time>
      </trkpt>
      <trkpt lat="46.57235" lon="0.64467">
        <ele>89.8</ele>
        <time>2020-06-28T07:34:13Z</time>
      </trkpt>
      <trkpt lat="46.57228" lon="0.64456">
        <ele>85.8</ele>
        <time>2020-06-28T07:34:20Z</time>
      </trkpt>
      <trkpt lat="46.57222" lon="0.64443">
        <ele>81.8</ele>
        <time>2020-06-28T07:34:25Z</time>
      </trkpt>
      <trkpt lat="46.57223" lon="0.64429">
        <ele>78.3</ele>
        <time>2020-06-28T07:34:35Z</time>
      </trkpt>
      <trkpt lat="46.57231" lon="0.64418">
        <ele>81</ele>
        <time>2020-06-28T07:34:43Z</time>
      </trkpt>
      <trkpt lat="46.57241" lon="0.64409">
        <ele>83.7</ele>
        <time>2020-06-28T07:34:46Z</time>
      </trkpt>
      <trkpt lat="46.5725" lon="0.64404">
        <ele>85.7</ele>
        <time>2020-06-28T07:34:50Z</time>
      </trkpt>
      <trkpt lat="46.57257" lon="0.64394">
        <ele>87.4</ele>
        <time>2020-06-28T07:34:58Z</time>
      </trkpt>
      <trkpt lat="46.57266" lon="0.64384">
        <ele>88.8</ele>
        <time>2020-06-28T07:35:03Z</time>
      </trkpt>
      <trkpt lat="46.57275" lon="0.64374">
        <ele>90.1</ele>
        <time>2020-06-28T07:35:06Z</time>
      </trkpt>
      <trkpt lat="46.57285" lon="0.64368">
        <ele>91.1</ele>
        <time>2020-06-28T07:35:10Z</time>
      </trkpt>
      <trkpt lat="46.57293" lon="0.64362">
        <ele>92.1</ele>
        <time>2020-06-28T07:35:16Z</time>
      </trkpt>
      <trkpt lat="46.57301" lon="0.64351">
        <ele>93.1</ele>
        <time>2020-06-28T07:35:22Z</time>
      </trkpt>
      <trkpt lat="46.5731" lon="0.64344">
        <ele>94.3</ele>
        <time>2020-06-28T07:35:26Z</time>
      </trkpt>
      <trkpt lat="46.57317" lon="0.64333">
        <ele>95.5</ele>
        <time>2020-06-28T07:35:33Z</time>
      </trkpt>
      <trkpt lat="46.57325" lon="0.64322">
        <ele>97.1</ele>
        <time>2020-06-28T07:35:41Z</time>
      </trkpt>
      <trkpt lat="46.57335" lon="0.64316">
        <ele>98.7</ele>
        <time>2020-06-28T07:35:46Z</time>
      </trkpt>
      <trkpt lat="46.57343" lon="0.64313">
        <ele>100.4</ele>
        <time>2020-06-28T07:35:50Z</time>
      </trkpt>
      <trkpt lat="46.57353" lon="0.64309">
        <ele>102.7</ele>
        <time>2020-06-28T07:35:57Z</time>
      </trkpt>
      <trkpt lat="46.57362" lon="0.64312">
        <ele>104.9</ele>
        <time>2020-06-28T07:36:08Z</time>
      </trkpt>
      <trkpt lat="46.57371" lon="0.64306">
        <ele>107.5</ele>
        <time>2020-06-28T07:36:28Z</time>
      </trkpt>
      <trkpt lat="46.57378" lon="0.64297">
        <ele>109.7</ele>
        <time>2020-06-28T07:36:32Z</time>
      </trkpt>
      <trkpt lat="46.57385" lon="0.64286">
        <ele>112</ele>
        <time>2020-06-28T07:36:41Z</time>
      </trkpt>
      <trkpt lat="46.57391" lon="0.64275">
        <ele>113.9</ele>
        <time>2020-06-28T07:36:49Z</time>
      </trkpt>
      <trkpt lat="46.574" lon="0.64273">
        <ele>115.8</ele>
        <time>2020-06-28T07:37:06Z</time>
      </trkpt>
      <trkpt lat="46.57409" lon="0.64276">
        <ele>117.4</ele>
        <time>2020-06-28T07:37:14Z</time>
      </trkpt>
      <trkpt lat="46.57419" lon="0.64283">
        <ele>118.9</ele>
        <time>2020-06-28T07:37:28Z</time>
      </trkpt>
      <trkpt lat="46.57428" lon="0.64288">
        <ele>120.2</ele>
        <time>2020-06-28T07:37:35Z</time>
      </trkpt>
      <trkpt lat="46.57437" lon="0.64294">
        <ele>121.5</ele>
        <time>2020-06-28T07:37:41Z</time>
      </trkpt>
      <trkpt lat="46.57445" lon="0.643">
        <ele>122.6</ele>
        <time>2020-06-28T07:37:49Z</time>
      </trkpt>
      <trkpt lat="46.57454" lon="0.64307">
        <ele>123.8</ele>
        <time>2020-06-28T07:37:57Z</time>
      </trkpt>
      <trkpt lat="46.57463" lon="0.64312">
        <ele>124.8</ele>
        <time>2020-06-28T07:38:04Z</time>
      </trkpt>
      <trkpt lat="46.57472" lon="0.64319">
        <ele>125.7</ele>
        <time>2020-06-28T07:38:11Z</time>
      </trkpt>
      <trkpt lat="46.57481" lon="0.64324">
        <ele>126.2</ele>
        <time>2020-06-28T07:38:18Z</time>
      </trkpt>
      <trkpt lat="46.5749" lon="0.64326">
        <ele>126.7</ele>
        <time>2020-06-28T07:38:24Z</time>
      </trkpt>
      <trkpt lat="46.57491" lon="0.64341">
        <ele>126.7</ele>
        <time>2020-06-28T07:38:33Z</time>
      </trkpt>
      <trkpt lat="46.57486" lon="0.64352">
        <ele>126.4</ele>
        <time>2020-06-28T07:38:36Z</time>
      </trkpt>
      <trkpt lat="46.57482" lon="0.64365">
        <ele>126.2</ele>
        <time>2020-06-28T07:38:39Z</time>
      </trkpt>
      <trkpt lat="46.57478" lon="0.64377">
        <ele>126</ele>
        <time>2020-06-28T07:38:42Z</time>
      </trkpt>
      <trkpt lat="46.57471" lon="0.64394">
        <ele>125.7</ele>
        <time>2020-06-28T07:38:45Z</time>
      </trkpt>
      <trkpt lat="46.57465" lon="0.64403">
        <ele>125.6</ele>
        <time>2020-06-28T07:38:47Z</time>
      </trkpt>
      <trkpt lat="46.57459" lon="0.64414">
        <ele>125.4</ele>
        <time>2020-06-28T07:38:50Z</time>
      </trkpt>
      <trkpt lat="46.57455" lon="0.64426">
        <ele>125.3</ele>
        <time>2020-06-28T07:38:54Z</time>
      </trkpt>
      <trkpt lat="46.57449" lon="0.64437">
        <ele>125.2</ele>
        <time>2020-06-28T07:38:56Z</time>
      </trkpt>
      <trkpt lat="46.57442" lon="0.6445">
        <ele>125.1</ele>
        <time>2020-06-28T07:38:59Z</time>
      </trkpt>
      <trkpt lat="46.57436" lon="0.64461">
        <ele>125</ele>
        <time>2020-06-28T07:39:01Z</time>
      </trkpt>
      <trkpt lat="46.57429" lon="0.64478">
        <ele>124.9</ele>
        <time>2020-06-28T07:39:04Z</time>
      </trkpt>
      <trkpt lat="46.57422" lon="0.64494">
        <ele>124.7</ele>
        <time>2020-06-28T07:39:07Z</time>
      </trkpt>
      <trkpt lat="46.57417" lon="0.64505">
        <ele>124.7</ele>
        <time>2020-06-28T07:39:09Z</time>
      </trkpt>
      <trkpt lat="46.57412" lon="0.64516">
        <ele>124.6</ele>
        <time>2020-06-28T07:39:11Z</time>
      </trkpt>
      <trkpt lat="46.57403" lon="0.64531">
        <ele>124.5</ele>
        <time>2020-06-28T07:39:14Z</time>
      </trkpt>
      <trkpt lat="46.57392" lon="0.64543">
        <ele>124.5</ele>
        <time>2020-06-28T07:39:17Z</time>
      </trkpt>
      <trkpt lat="46.57385" lon="0.64551">
        <ele>124.4</ele>
        <time>2020-06-28T07:39:19Z</time>
      </trkpt>
      <trkpt lat="46.57376" lon="0.64563">
        <ele>124.1</ele>
        <time>2020-06-28T07:39:22Z</time>
      </trkpt>
      <trkpt lat="46.57366" lon="0.64578">
        <ele>123.7</ele>
        <time>2020-06-28T07:39:25Z</time>
      </trkpt>
      <trkpt lat="46.57361" lon="0.6459">
        <ele>123.3</ele>
        <time>2020-06-28T07:39:27Z</time>
      </trkpt>
      <trkpt lat="46.57356" lon="0.64606">
        <ele>123.2</ele>
        <time>2020-06-28T07:39:29Z</time>
      </trkpt>
      <trkpt lat="46.57353" lon="0.64621">
        <ele>123.2</ele>
        <time>2020-06-28T07:39:31Z</time>
      </trkpt>
      <trkpt lat="46.57351" lon="0.64636">
        <ele>123.2</ele>
        <time>2020-06-28T07:39:33Z</time>
      </trkpt>
      <trkpt lat="46.5735" lon="0.64649">
        <ele>123.1</ele>
        <time>2020-06-28T07:39:35Z</time>
      </trkpt>
      <trkpt lat="46.57348" lon="0.64662">
        <ele>122.8</ele>
        <time>2020-06-28T07:39:37Z</time>
      </trkpt>
      <trkpt lat="46.57345" lon="0.64677">
        <ele>122.5</ele>
        <time>2020-06-28T07:39:39Z</time>
      </trkpt>
      <trkpt lat="46.57343" lon="0.64693">
        <ele>122.1</ele>
        <time>2020-06-28T07:39:41Z</time>
      </trkpt>
      <trkpt lat="46.57345" lon="0.64709">
        <ele>121.6</ele>
        <time>2020-06-28T07:39:43Z</time>
      </trkpt>
      <trkpt lat="46.57347" lon="0.64727">
        <ele>121</ele>
        <time>2020-06-28T07:39:45Z</time>
      </trkpt>
      <trkpt lat="46.5735" lon="0.64745">
        <ele>120.5</ele>
        <time>2020-06-28T07:39:47Z</time>
      </trkpt>
      <trkpt lat="46.57351" lon="0.64765">
        <ele>119.8</ele>
        <time>2020-06-28T07:39:49Z</time>
      </trkpt>
      <trkpt lat="46.5735" lon="0.64785">
        <ele>119.2</ele>
        <time>2020-06-28T07:39:51Z</time>
      </trkpt>
      <trkpt lat="46.57348" lon="0.64805">
        <ele>118.7</ele>
        <time>2020-06-28T07:39:53Z</time>
      </trkpt>
      <trkpt lat="46.57345" lon="0.64825">
        <ele>118.1</ele>
        <time>2020-06-28T07:39:55Z</time>
      </trkpt>
      <trkpt lat="46.57342" lon="0.64845">
        <ele>117.3</ele>
        <time>2020-06-28T07:39:57Z</time>
      </trkpt>
      <trkpt lat="46.57343" lon="0.64867">
        <ele>116.5</ele>
        <time>2020-06-28T07:39:59Z</time>
      </trkpt>
      <trkpt lat="46.57348" lon="0.64886">
        <ele>116.1</ele>
        <time>2020-06-28T07:40:01Z</time>
      </trkpt>
      <trkpt lat="46.57356" lon="0.64903">
        <ele>115.6</ele>
        <time>2020-06-28T07:40:03Z</time>
      </trkpt>
      <trkpt lat="46.57366" lon="0.64919">
        <ele>115.2</ele>
        <time>2020-06-28T07:40:05Z</time>
      </trkpt>
      <trkpt lat="46.57378" lon="0.64931">
        <ele>114.9</ele>
        <time>2020-06-28T07:40:07Z</time>
      </trkpt>
      <trkpt lat="46.57391" lon="0.6494">
        <ele>114.6</ele>
        <time>2020-06-28T07:40:09Z</time>
      </trkpt>
      <trkpt lat="46.57404" lon="0.64949">
        <ele>114.3</ele>
        <time>2020-06-28T07:40:11Z</time>
      </trkpt>
      <trkpt lat="46.57416" lon="0.64957">
        <ele>114</ele>
        <time>2020-06-28T07:40:13Z</time>
      </trkpt>
      <trkpt lat="46.57423" lon="0.64967">
        <ele>113.7</ele>
        <time>2020-06-28T07:40:15Z</time>
      </trkpt>
      <trkpt lat="46.57417" lon="0.64981">
        <ele>112.9</ele>
        <time>2020-06-28T07:40:18Z</time>
      </trkpt>
      <trkpt lat="46.57407" lon="0.64986">
        <ele>112.3</ele>
        <time>2020-06-28T07:40:20Z</time>
      </trkpt>
      <trkpt lat="46.57398" lon="0.64992">
        <ele>111.6</ele>
        <time>2020-06-28T07:40:22Z</time>
      </trkpt>
      <trkpt lat="46.57389" lon="0.64996">
        <ele>110.9</ele>
        <time>2020-06-28T07:40:24Z</time>
      </trkpt>
      <trkpt lat="46.57376" lon="0.65001">
        <ele>110</ele>
        <time>2020-06-28T07:40:27Z</time>
      </trkpt>
      <trkpt lat="46.57367" lon="0.65006">
        <ele>109.2</ele>
        <time>2020-06-28T07:40:29Z</time>
      </trkpt>
      <trkpt lat="46.57358" lon="0.65012">
        <ele>108.7</ele>
        <time>2020-06-28T07:40:31Z</time>
      </trkpt>
      <trkpt lat="46.57348" lon="0.65017">
        <ele>108</ele>
        <time>2020-06-28T07:40:33Z</time>
      </trkpt>
      <trkpt lat="46.57336" lon="0.65022">
        <ele>107.2</ele>
        <time>2020-06-28T07:40:35Z</time>
      </trkpt>
      <trkpt lat="46.57323" lon="0.65027">
        <ele>106.1</ele>
        <time>2020-06-28T07:40:37Z</time>
      </trkpt>
      <trkpt lat="46.57313" lon="0.6503">
        <ele>105.4</ele>
        <time>2020-06-28T07:40:39Z</time>
      </trkpt>
      <trkpt lat="46.57305" lon="0.65038">
        <ele>104.6</ele>
        <time>2020-06-28T07:40:42Z</time>
      </trkpt>
      <trkpt lat="46.57303" lon="0.65057">
        <ele>103.8</ele>
        <time>2020-06-28T07:40:45Z</time>
      </trkpt>
      <trkpt lat="46.57299" lon="0.65071">
        <ele>103.1</ele>
        <time>2020-06-28T07:40:47Z</time>
      </trkpt>
      <trkpt lat="46.57297" lon="0.65088">
        <ele>102.3</ele>
        <time>2020-06-28T07:40:49Z</time>
      </trkpt>
      <trkpt lat="46.57299" lon="0.65103">
        <ele>101.8</ele>
        <time>2020-06-28T07:40:51Z</time>
      </trkpt>
      <trkpt lat="46.57309" lon="0.65113">
        <ele>101.3</ele>
        <time>2020-06-28T07:40:53Z</time>
      </trkpt>
      <trkpt lat="46.57321" lon="0.6512">
        <ele>100.9</ele>
        <time>2020-06-28T07:40:55Z</time>
      </trkpt>
      <trkpt lat="46.57332" lon="0.65125">
        <ele>100.6</ele>
        <time>2020-06-28T07:40:57Z</time>
      </trkpt>
      <trkpt lat="46.57344" lon="0.65133">
        <ele>100.4</ele>
        <time>2020-06-28T07:40:59Z</time>
      </trkpt>
      <trkpt lat="46.57353" lon="0.65143">
        <ele>100.2</ele>
        <time>2020-06-28T07:41:01Z</time>
      </trkpt>
      <trkpt lat="46.57362" lon="0.65155">
        <ele>100.2</ele>
        <time>2020-06-28T07:41:03Z</time>
      </trkpt>
      <trkpt lat="46.5737" lon="0.65167">
        <ele>100.1</ele>
        <time>2020-06-28T07:41:05Z</time>
      </trkpt>
      <trkpt lat="46.57378" lon="0.6518">
        <ele>100.1</ele>
        <time>2020-06-28T07:41:07Z</time>
      </trkpt>
      <trkpt lat="46.57387" lon="0.65192">
        <ele>100.1</ele>
        <time>2020-06-28T07:41:09Z</time>
      </trkpt>
      <trkpt lat="46.57395" lon="0.65205">
        <ele>100</ele>
        <time>2020-06-28T07:41:11Z</time>
      </trkpt>
      <trkpt lat="46.57403" lon="0.65217">
        <ele>100.1</ele>
        <time>2020-06-28T07:41:13Z</time>
      </trkpt>
      <trkpt lat="46.5741" lon="0.65229">
        <ele>100.2</ele>
        <time>2020-06-28T07:41:15Z</time>
      </trkpt>
      <trkpt lat="46.57418" lon="0.6524">
        <ele>100.2</ele>
        <time>2020-06-28T07:41:17Z</time>
      </trkpt>
      <trkpt lat="46.57426" lon="0.65252">
        <ele>100.2</ele>
        <time>2020-06-28T07:41:19Z</time>
      </trkpt>
      <trkpt lat="46.57435" lon="0.65261">
        <ele>100.2</ele>
        <time>2020-06-28T07:41:21Z</time>
      </trkpt>
      <trkpt lat="46.57445" lon="0.65271">
        <ele>100</ele>
        <time>2020-06-28T07:41:23Z</time>
      </trkpt>
      <trkpt lat="46.57453" lon="0.65281">
        <ele>99.7</ele>
        <time>2020-06-28T07:41:25Z</time>
      </trkpt>
      <trkpt lat="46.57461" lon="0.65293">
        <ele>99.4</ele>
        <time>2020-06-28T07:41:27Z</time>
      </trkpt>
      <trkpt lat="46.5747" lon="0.65307">
        <ele>98.7</ele>
        <time>2020-06-28T07:41:29Z</time>
      </trkpt>
      <trkpt lat="46.57478" lon="0.65324">
        <ele>97.8</ele>
        <time>2020-06-28T07:41:31Z</time>
      </trkpt>
      <trkpt lat="46.57487" lon="0.65343">
        <ele>96.7</ele>
        <time>2020-06-28T07:41:33Z</time>
      </trkpt>
      <trkpt lat="46.57497" lon="0.65363">
        <ele>95.5</ele>
        <time>2020-06-28T07:41:35Z</time>
      </trkpt>
      <trkpt lat="46.57509" lon="0.65382">
        <ele>94.2</ele>
        <time>2020-06-28T07:41:37Z</time>
      </trkpt>
      <trkpt lat="46.57517" lon="0.6539">
        <ele>93.7</ele>
        <time>2020-06-28T07:41:38Z</time>
      </trkpt>
      <trkpt lat="46.57525" lon="0.65397">
        <ele>93.2</ele>
        <time>2020-06-28T07:41:39Z</time>
      </trkpt>
      <trkpt lat="46.57534" lon="0.65402">
        <ele>92.9</ele>
        <time>2020-06-28T07:41:40Z</time>
      </trkpt>
      <trkpt lat="46.57542" lon="0.65406">
        <ele>92.7</ele>
        <time>2020-06-28T07:41:41Z</time>
      </trkpt>
      <trkpt lat="46.57559" lon="0.65411">
        <ele>92.5</ele>
        <time>2020-06-28T07:41:43Z</time>
      </trkpt>
      <trkpt lat="46.57573" lon="0.65422">
        <ele>92.5</ele>
        <time>2020-06-28T07:41:45Z</time>
      </trkpt>
      <trkpt lat="46.57585" lon="0.65434">
        <ele>92.6</ele>
        <time>2020-06-28T07:41:47Z</time>
      </trkpt>
      <trkpt lat="46.57596" lon="0.65444">
        <ele>93.5</ele>
        <time>2020-06-28T07:41:49Z</time>
      </trkpt>
      <trkpt lat="46.57606" lon="0.65453">
        <ele>94.5</ele>
        <time>2020-06-28T07:41:51Z</time>
      </trkpt>
      <trkpt lat="46.57615" lon="0.65461">
        <ele>95.3</ele>
        <time>2020-06-28T07:41:53Z</time>
      </trkpt>
      <trkpt lat="46.57623" lon="0.6547">
        <ele>96.1</ele>
        <time>2020-06-28T07:41:55Z</time>
      </trkpt>
      <trkpt lat="46.57633" lon="0.65482">
        <ele>97.4</ele>
        <time>2020-06-28T07:41:58Z</time>
      </trkpt>
      <trkpt lat="46.5764" lon="0.65491">
        <ele>98.4</ele>
        <time>2020-06-28T07:42:01Z</time>
      </trkpt>
      <trkpt lat="46.57649" lon="0.65503">
        <ele>99.7</ele>
        <time>2020-06-28T07:42:04Z</time>
      </trkpt>
      <trkpt lat="46.57657" lon="0.65512">
        <ele>100.8</ele>
        <time>2020-06-28T07:42:07Z</time>
      </trkpt>
      <trkpt lat="46.57666" lon="0.65519">
        <ele>101.9</ele>
        <time>2020-06-28T07:42:10Z</time>
      </trkpt>
      <trkpt lat="46.57676" lon="0.65526">
        <ele>103.1</ele>
        <time>2020-06-28T07:42:13Z</time>
      </trkpt>
      <trkpt lat="46.57685" lon="0.65532">
        <ele>105</ele>
        <time>2020-06-28T07:42:16Z</time>
      </trkpt>
      <trkpt lat="46.57695" lon="0.6554">
        <ele>106.6</ele>
        <time>2020-06-28T07:42:20Z</time>
      </trkpt>
      <trkpt lat="46.57705" lon="0.65548">
        <ele>107.4</ele>
        <time>2020-06-28T07:42:23Z</time>
      </trkpt>
      <trkpt lat="46.57712" lon="0.65557">
        <ele>107.9</ele>
        <time>2020-06-28T07:42:26Z</time>
      </trkpt>
      <trkpt lat="46.57722" lon="0.65565">
        <ele>108.7</ele>
        <time>2020-06-28T07:42:30Z</time>
      </trkpt>
      <trkpt lat="46.57731" lon="0.65575">
        <ele>109.5</ele>
        <time>2020-06-28T07:42:34Z</time>
      </trkpt>
      <trkpt lat="46.57739" lon="0.65588">
        <ele>110.3</ele>
        <time>2020-06-28T07:42:37Z</time>
      </trkpt>
      <trkpt lat="46.57745" lon="0.65598">
        <ele>110.9</ele>
        <time>2020-06-28T07:42:40Z</time>
      </trkpt>
      <trkpt lat="46.57753" lon="0.65606">
        <ele>111.6</ele>
        <time>2020-06-28T07:42:43Z</time>
      </trkpt>
      <trkpt lat="46.57763" lon="0.65615">
        <ele>112.2</ele>
        <time>2020-06-28T07:42:48Z</time>
      </trkpt>
      <trkpt lat="46.57771" lon="0.65621">
        <ele>112.7</ele>
        <time>2020-06-28T07:42:51Z</time>
      </trkpt>
      <trkpt lat="46.5778" lon="0.6563">
        <ele>113.2</ele>
        <time>2020-06-28T07:42:55Z</time>
      </trkpt>
      <trkpt lat="46.5779" lon="0.65636">
        <ele>113.7</ele>
        <time>2020-06-28T07:42:59Z</time>
      </trkpt>
      <trkpt lat="46.57794" lon="0.65647">
        <ele>114.2</ele>
        <time>2020-06-28T07:43:03Z</time>
      </trkpt>
      <trkpt lat="46.57794" lon="0.65662">
        <ele>114.9</ele>
        <time>2020-06-28T07:43:08Z</time>
      </trkpt>
      <trkpt lat="46.5779" lon="0.65675">
        <ele>114.9</ele>
        <time>2020-06-28T07:43:14Z</time>
      </trkpt>
      <trkpt lat="46.57785" lon="0.65689">
        <ele>114.8</ele>
        <time>2020-06-28T07:43:19Z</time>
      </trkpt>
      <trkpt lat="46.57781" lon="0.65702">
        <ele>115</ele>
        <time>2020-06-28T07:43:23Z</time>
      </trkpt>
      <trkpt lat="46.57777" lon="0.65714">
        <ele>115</ele>
        <time>2020-06-28T07:43:27Z</time>
      </trkpt>
      <trkpt lat="46.57773" lon="0.65726">
        <ele>115</ele>
        <time>2020-06-28T07:43:31Z</time>
      </trkpt>
      <trkpt lat="46.5777" lon="0.65739">
        <ele>115</ele>
        <time>2020-06-28T07:43:35Z</time>
      </trkpt>
      <trkpt lat="46.57766" lon="0.65751">
        <ele>115.1</ele>
        <time>2020-06-28T07:43:39Z</time>
      </trkpt>
      <trkpt lat="46.57762" lon="0.65765">
        <ele>115.3</ele>
        <time>2020-06-28T07:43:44Z</time>
      </trkpt>
      <trkpt lat="46.57758" lon="0.6578">
        <ele>115.7</ele>
        <time>2020-06-28T07:43:48Z</time>
      </trkpt>
      <trkpt lat="46.57755" lon="0.65794">
        <ele>116.4</ele>
        <time>2020-06-28T07:43:52Z</time>
      </trkpt>
      <trkpt lat="46.57751" lon="0.65807">
        <ele>117.1</ele>
        <time>2020-06-28T07:43:55Z</time>
      </trkpt>
      <trkpt lat="46.57747" lon="0.65821">
        <ele>118.2</ele>
        <time>2020-06-28T07:43:59Z</time>
      </trkpt>
      <trkpt lat="46.57743" lon="0.65834">
        <ele>119.4</ele>
        <time>2020-06-28T07:44:02Z</time>
      </trkpt>
      <trkpt lat="46.57739" lon="0.65848">
        <ele>120.6</ele>
        <time>2020-06-28T07:44:06Z</time>
      </trkpt>
      <trkpt lat="46.57735" lon="0.65861">
        <ele>121.8</ele>
        <time>2020-06-28T07:44:09Z</time>
      </trkpt>
      <trkpt lat="46.57732" lon="0.65875">
        <ele>123.1</ele>
        <time>2020-06-28T07:44:12Z</time>
      </trkpt>
      <trkpt lat="46.57729" lon="0.65889">
        <ele>123.5</ele>
        <time>2020-06-28T07:44:15Z</time>
      </trkpt>
      <trkpt lat="46.57725" lon="0.65904">
        <ele>123.7</ele>
        <time>2020-06-28T07:44:18Z</time>
      </trkpt>
      <trkpt lat="46.57723" lon="0.65918">
        <ele>123.8</ele>
        <time>2020-06-28T07:44:21Z</time>
      </trkpt>
      <trkpt lat="46.57718" lon="0.65936">
        <ele>123.8</ele>
        <time>2020-06-28T07:44:24Z</time>
      </trkpt>
      <trkpt lat="46.57713" lon="0.65953">
        <ele>123.7</ele>
        <time>2020-06-28T07:44:27Z</time>
      </trkpt>
      <trkpt lat="46.57709" lon="0.65966">
        <ele>123.6</ele>
        <time>2020-06-28T07:44:29Z</time>
      </trkpt>
      <trkpt lat="46.57706" lon="0.65978">
        <ele>123.4</ele>
        <time>2020-06-28T07:44:31Z</time>
      </trkpt>
      <trkpt lat="46.577" lon="0.65995">
        <ele>123.1</ele>
        <time>2020-06-28T07:44:34Z</time>
      </trkpt>
      <trkpt lat="46.57697" lon="0.66007">
        <ele>122.9</ele>
        <time>2020-06-28T07:44:36Z</time>
      </trkpt>
      <trkpt lat="46.57693" lon="0.66021">
        <ele>122.6</ele>
        <time>2020-06-28T07:44:38Z</time>
      </trkpt>
      <trkpt lat="46.57687" lon="0.66036">
        <ele>122.1</ele>
        <time>2020-06-28T07:44:40Z</time>
      </trkpt>
      <trkpt lat="46.57684" lon="0.6605">
        <ele>121.7</ele>
        <time>2020-06-28T07:44:42Z</time>
      </trkpt>
      <trkpt lat="46.57687" lon="0.66062">
        <ele>121.1</ele>
        <time>2020-06-28T07:44:44Z</time>
      </trkpt>
      <trkpt lat="46.57696" lon="0.66069">
        <ele>120.8</ele>
        <time>2020-06-28T07:44:46Z</time>
      </trkpt>
      <trkpt lat="46.57705" lon="0.66074">
        <ele>120.7</ele>
        <time>2020-06-28T07:44:48Z</time>
      </trkpt>
      <trkpt lat="46.57713" lon="0.66086">
        <ele>120.3</ele>
        <time>2020-06-28T07:44:51Z</time>
      </trkpt>
      <trkpt lat="46.57706" lon="0.66102">
        <ele>119.6</ele>
        <time>2020-06-28T07:44:54Z</time>
      </trkpt>
      <trkpt lat="46.57701" lon="0.6612">
        <ele>118.6</ele>
        <time>2020-06-28T07:44:57Z</time>
      </trkpt>
      <trkpt lat="46.57697" lon="0.66134">
        <ele>117.9</ele>
        <time>2020-06-28T07:44:59Z</time>
      </trkpt>
      <trkpt lat="46.57691" lon="0.66154">
        <ele>117.5</ele>
        <time>2020-06-28T07:45:01Z</time>
      </trkpt>
      <trkpt lat="46.57682" lon="0.6617">
        <ele>117.5</ele>
        <time>2020-06-28T07:45:03Z</time>
      </trkpt>
      <trkpt lat="46.57678" lon="0.66182">
        <ele>117.8</ele>
        <time>2020-06-28T07:45:05Z</time>
      </trkpt>
      <trkpt lat="46.57679" lon="0.662">
        <ele>118.5</ele>
        <time>2020-06-28T07:45:07Z</time>
      </trkpt>
      <trkpt lat="46.57674" lon="0.66212">
        <ele>119.1</ele>
        <time>2020-06-28T07:45:09Z</time>
      </trkpt>
      <trkpt lat="46.57664" lon="0.66217">
        <ele>118.7</ele>
        <time>2020-06-28T07:45:15Z</time>
      </trkpt>
      <trkpt lat="46.57655" lon="0.66214">
        <ele>117.4</ele>
        <time>2020-06-28T07:45:18Z</time>
      </trkpt>
      <trkpt lat="46.5764" lon="0.66218">
        <ele>114.6</ele>
        <time>2020-06-28T07:45:21Z</time>
      </trkpt>
      <trkpt lat="46.57624" lon="0.66223">
        <ele>111.2</ele>
        <time>2020-06-28T07:45:23Z</time>
      </trkpt>
      <trkpt lat="46.57615" lon="0.66232">
        <ele>109.4</ele>
        <time>2020-06-28T07:45:25Z</time>
      </trkpt>
      <trkpt lat="46.5761" lon="0.66245">
        <ele>108.1</ele>
        <time>2020-06-28T07:45:27Z</time>
      </trkpt>
      <trkpt lat="46.57604" lon="0.66259">
        <ele>106.4</ele>
        <time>2020-06-28T07:45:32Z</time>
      </trkpt>
      <trkpt lat="46.57608" lon="0.66275">
        <ele>106.1</ele>
        <time>2020-06-28T07:45:35Z</time>
      </trkpt>
      <trkpt lat="46.57611" lon="0.6629">
        <ele>106</ele>
        <time>2020-06-28T07:45:37Z</time>
      </trkpt>
      <trkpt lat="46.57611" lon="0.66309">
        <ele>104.7</ele>
        <time>2020-06-28T07:45:40Z</time>
      </trkpt>
      <trkpt lat="46.57613" lon="0.66324">
        <ele>104.7</ele>
        <time>2020-06-28T07:45:46Z</time>
      </trkpt>
      <trkpt lat="46.57623" lon="0.66335">
        <ele>105.9</ele>
        <time>2020-06-28T07:45:49Z</time>
      </trkpt>
      <trkpt lat="46.57624" lon="0.66348">
        <ele>105.3</ele>
        <time>2020-06-28T07:46:11Z</time>
      </trkpt>
      <trkpt lat="46.5763" lon="0.66359">
        <ele>106.4</ele>
        <time>2020-06-28T07:46:18Z</time>
      </trkpt>
      <trkpt lat="46.57635" lon="0.6637">
        <ele>106.3</ele>
        <time>2020-06-28T07:46:23Z</time>
      </trkpt>
      <trkpt lat="46.57632" lon="0.66384">
        <ele>105.4</ele>
        <time>2020-06-28T07:46:27Z</time>
      </trkpt>
      <trkpt lat="46.57629" lon="0.664">
        <ele>104.5</ele>
        <time>2020-06-28T07:46:33Z</time>
      </trkpt>
      <trkpt lat="46.57619" lon="0.66407">
        <ele>103.2</ele>
        <time>2020-06-28T07:46:39Z</time>
      </trkpt>
      <trkpt lat="46.57609" lon="0.66405">
        <ele>102.1</ele>
        <time>2020-06-28T07:46:42Z</time>
      </trkpt>
      <trkpt lat="46.57599" lon="0.6641">
        <ele>100.3</ele>
        <time>2020-06-28T07:46:48Z</time>
      </trkpt>
      <trkpt lat="46.5759" lon="0.6641">
        <ele>98.7</ele>
        <time>2020-06-28T07:46:50Z</time>
      </trkpt>
      <trkpt lat="46.57577" lon="0.66411">
        <ele>95.8</ele>
        <time>2020-06-28T07:46:52Z</time>
      </trkpt>
      <trkpt lat="46.57564" lon="0.66407">
        <ele>94.4</ele>
        <time>2020-06-28T07:46:55Z</time>
      </trkpt>
      <trkpt lat="46.57554" lon="0.66409">
        <ele>94.1</ele>
        <time>2020-06-28T07:46:58Z</time>
      </trkpt>
      <trkpt lat="46.57551" lon="0.66422">
        <ele>94.2</ele>
        <time>2020-06-28T07:47:15Z</time>
      </trkpt>
      <trkpt lat="46.57543" lon="0.66413">
        <ele>94.1</ele>
        <time>2020-06-28T07:47:20Z</time>
      </trkpt>
      <trkpt lat="46.57539" lon="0.664">
        <ele>93.9</ele>
        <time>2020-06-28T07:47:24Z</time>
      </trkpt>
      <trkpt lat="46.57536" lon="0.66386">
        <ele>93.5</ele>
        <time>2020-06-28T07:47:28Z</time>
      </trkpt>
      <trkpt lat="46.57533" lon="0.66371">
        <ele>92.9</ele>
        <time>2020-06-28T07:47:32Z</time>
      </trkpt>
      <trkpt lat="46.5753" lon="0.66357">
        <ele>92.5</ele>
        <time>2020-06-28T07:47:35Z</time>
      </trkpt>
      <trkpt lat="46.57528" lon="0.66343">
        <ele>92</ele>
        <time>2020-06-28T07:47:38Z</time>
      </trkpt>
      <trkpt lat="46.57526" lon="0.66323">
        <ele>91.4</ele>
        <time>2020-06-28T07:47:41Z</time>
      </trkpt>
      <trkpt lat="46.57526" lon="0.66305">
        <ele>90.9</ele>
        <time>2020-06-28T07:47:44Z</time>
      </trkpt>
      <trkpt lat="46.57525" lon="0.66292">
        <ele>90.4</ele>
        <time>2020-06-28T07:47:46Z</time>
      </trkpt>
      <trkpt lat="46.57524" lon="0.66278">
        <ele>89.9</ele>
        <time>2020-06-28T07:47:48Z</time>
      </trkpt>
      <trkpt lat="46.57525" lon="0.6626">
        <ele>89.2</ele>
        <time>2020-06-28T07:47:50Z</time>
      </trkpt>
      <trkpt lat="46.57526" lon="0.66243">
        <ele>88.4</ele>
        <time>2020-06-28T07:47:52Z</time>
      </trkpt>
      <trkpt lat="46.57524" lon="0.66227">
        <ele>87.5</ele>
        <time>2020-06-28T07:47:54Z</time>
      </trkpt>
      <trkpt lat="46.57521" lon="0.6621">
        <ele>86.5</ele>
        <time>2020-06-28T07:47:56Z</time>
      </trkpt>
      <trkpt lat="46.57518" lon="0.66191">
        <ele>85.3</ele>
        <time>2020-06-28T07:47:58Z</time>
      </trkpt>
      <trkpt lat="46.57511" lon="0.66172">
        <ele>83.7</ele>
        <time>2020-06-28T07:48:00Z</time>
      </trkpt>
      <trkpt lat="46.57499" lon="0.66155">
        <ele>82</ele>
        <time>2020-06-28T07:48:02Z</time>
      </trkpt>
      <trkpt lat="46.57486" lon="0.66139">
        <ele>80.5</ele>
        <time>2020-06-28T07:48:04Z</time>
      </trkpt>
      <trkpt lat="46.57474" lon="0.66125">
        <ele>79.5</ele>
        <time>2020-06-28T07:48:06Z</time>
      </trkpt>
      <trkpt lat="46.57463" lon="0.6611">
        <ele>78.6</ele>
        <time>2020-06-28T07:48:08Z</time>
      </trkpt>
      <trkpt lat="46.5745" lon="0.661">
        <ele>77.9</ele>
        <time>2020-06-28T07:48:10Z</time>
      </trkpt>
      <trkpt lat="46.57437" lon="0.66088">
        <ele>77.4</ele>
        <time>2020-06-28T07:48:12Z</time>
      </trkpt>
      <trkpt lat="46.57427" lon="0.66076">
        <ele>77</ele>
        <time>2020-06-28T07:48:14Z</time>
      </trkpt>
      <trkpt lat="46.5742" lon="0.66066">
        <ele>76.8</ele>
        <time>2020-06-28T07:48:17Z</time>
      </trkpt>
      <trkpt lat="46.57412" lon="0.6606">
        <ele>76.8</ele>
        <time>2020-06-28T07:49:44Z</time>
      </trkpt>
      <trkpt lat="46.57403" lon="0.66058">
        <ele>76.7</ele>
        <time>2020-06-28T07:50:19Z</time>
      </trkpt>
      <trkpt lat="46.57394" lon="0.66065">
        <ele>76.8</ele>
        <time>2020-06-28T07:50:23Z</time>
      </trkpt>
      <trkpt lat="46.57386" lon="0.66072">
        <ele>76.8</ele>
        <time>2020-06-28T07:50:28Z</time>
      </trkpt>
      <trkpt lat="46.57389" lon="0.66085">
        <ele>76.9</ele>
        <time>2020-06-28T07:50:35Z</time>
      </trkpt>
      <trkpt lat="46.57393" lon="0.66098">
        <ele>77</ele>
        <time>2020-06-28T07:50:38Z</time>
      </trkpt>
      <trkpt lat="46.57403" lon="0.66101">
        <ele>77.1</ele>
        <time>2020-06-28T07:50:42Z</time>
      </trkpt>
      <trkpt lat="46.57411" lon="0.66109">
        <ele>77.3</ele>
        <time>2020-06-28T07:50:47Z</time>
      </trkpt>
      <trkpt lat="46.57418" lon="0.6612">
        <ele>77.5</ele>
        <time>2020-06-28T07:50:50Z</time>
      </trkpt>
      <trkpt lat="46.57426" lon="0.66128">
        <ele>76.8</ele>
        <time>2020-06-28T07:50:55Z</time>
      </trkpt>
      <trkpt lat="46.57429" lon="0.66143">
        <ele>76.2</ele>
        <time>2020-06-28T07:50:58Z</time>
      </trkpt>
      <trkpt lat="46.57426" lon="0.66157">
        <ele>76.6</ele>
        <time>2020-06-28T07:51:02Z</time>
      </trkpt>
      <trkpt lat="46.57419" lon="0.66169">
        <ele>77.4</ele>
        <time>2020-06-28T07:51:09Z</time>
      </trkpt>
      <trkpt lat="46.57409" lon="0.66176">
        <ele>78.4</ele>
        <time>2020-06-28T07:51:16Z</time>
      </trkpt>
      <trkpt lat="46.574" lon="0.66176">
        <ele>79.2</ele>
        <time>2020-06-28T07:51:24Z</time>
      </trkpt>
      <trkpt lat="46.57389" lon="0.66176">
        <ele>80.3</ele>
        <time>2020-06-28T07:51:31Z</time>
      </trkpt>
      <trkpt lat="46.57381" lon="0.66182">
        <ele>80.8</ele>
        <time>2020-06-28T07:51:35Z</time>
      </trkpt>
      <trkpt lat="46.57371" lon="0.66184">
        <ele>81.3</ele>
        <time>2020-06-28T07:51:41Z</time>
      </trkpt>
      <trkpt lat="46.57361" lon="0.66187">
        <ele>81.8</ele>
        <time>2020-06-28T07:51:46Z</time>
      </trkpt>
      <trkpt lat="46.57351" lon="0.6619">
        <ele>82.2</ele>
        <time>2020-06-28T07:51:52Z</time>
      </trkpt>
      <trkpt lat="46.57341" lon="0.6619">
        <ele>82.4</ele>
        <time>2020-06-28T07:51:59Z</time>
      </trkpt>
      <trkpt lat="46.5733" lon="0.6619">
        <ele>82.4</ele>
        <time>2020-06-28T07:52:04Z</time>
      </trkpt>
      <trkpt lat="46.5732" lon="0.66193">
        <ele>82.8</ele>
        <time>2020-06-28T07:52:09Z</time>
      </trkpt>
      <trkpt lat="46.5731" lon="0.66199">
        <ele>83.3</ele>
        <time>2020-06-28T07:52:13Z</time>
      </trkpt>
      <trkpt lat="46.57302" lon="0.66208">
        <ele>84.3</ele>
        <time>2020-06-28T07:52:16Z</time>
      </trkpt>
      <trkpt lat="46.57296" lon="0.66218">
        <ele>85.4</ele>
        <time>2020-06-28T07:52:20Z</time>
      </trkpt>
      <trkpt lat="46.57288" lon="0.66226">
        <ele>86.5</ele>
        <time>2020-06-28T07:52:23Z</time>
      </trkpt>
      <trkpt lat="46.57278" lon="0.66235">
        <ele>87.9</ele>
        <time>2020-06-28T07:52:26Z</time>
      </trkpt>
      <trkpt lat="46.57271" lon="0.66243">
        <ele>89.2</ele>
        <time>2020-06-28T07:52:29Z</time>
      </trkpt>
      <trkpt lat="46.57262" lon="0.66254">
        <ele>91.1</ele>
        <time>2020-06-28T07:52:32Z</time>
      </trkpt>
      <trkpt lat="46.57252" lon="0.66264">
        <ele>92.6</ele>
        <time>2020-06-28T07:52:35Z</time>
      </trkpt>
      <trkpt lat="46.57242" lon="0.66275">
        <ele>93.9</ele>
        <time>2020-06-28T07:52:38Z</time>
      </trkpt>
      <trkpt lat="46.57233" lon="0.66286">
        <ele>94.5</ele>
        <time>2020-06-28T07:52:42Z</time>
      </trkpt>
      <trkpt lat="46.57225" lon="0.66296">
        <ele>94.9</ele>
        <time>2020-06-28T07:52:45Z</time>
      </trkpt>
      <trkpt lat="46.57218" lon="0.66305">
        <ele>95</ele>
        <time>2020-06-28T07:52:48Z</time>
      </trkpt>
      <trkpt lat="46.57208" lon="0.66314">
        <ele>95</ele>
        <time>2020-06-28T07:52:51Z</time>
      </trkpt>
      <trkpt lat="46.57197" lon="0.66325">
        <ele>94.9</ele>
        <time>2020-06-28T07:52:54Z</time>
      </trkpt>
      <trkpt lat="46.57188" lon="0.66334">
        <ele>94.7</ele>
        <time>2020-06-28T07:52:56Z</time>
      </trkpt>
      <trkpt lat="46.5718" lon="0.66342">
        <ele>94.7</ele>
        <time>2020-06-28T07:52:58Z</time>
      </trkpt>
      <trkpt lat="46.57173" lon="0.6635">
        <ele>94.7</ele>
        <time>2020-06-28T07:53:00Z</time>
      </trkpt>
      <trkpt lat="46.57165" lon="0.66356">
        <ele>94.6</ele>
        <time>2020-06-28T07:53:02Z</time>
      </trkpt>
      <trkpt lat="46.57156" lon="0.66363">
        <ele>94.6</ele>
        <time>2020-06-28T07:53:04Z</time>
      </trkpt>
      <trkpt lat="46.57147" lon="0.66373">
        <ele>94.3</ele>
        <time>2020-06-28T07:53:07Z</time>
      </trkpt>
      <trkpt lat="46.57137" lon="0.66383">
        <ele>94.1</ele>
        <time>2020-06-28T07:53:10Z</time>
      </trkpt>
      <trkpt lat="46.57128" lon="0.66387">
        <ele>94</ele>
        <time>2020-06-28T07:53:13Z</time>
      </trkpt>
      <trkpt lat="46.57131" lon="0.66371">
        <ele>94.4</ele>
        <time>2020-06-28T07:53:18Z</time>
      </trkpt>
      <trkpt lat="46.57136" lon="0.66355">
        <ele>94.6</ele>
        <time>2020-06-28T07:53:20Z</time>
      </trkpt>
      <trkpt lat="46.57143" lon="0.66337">
        <ele>94.2</ele>
        <time>2020-06-28T07:53:22Z</time>
      </trkpt>
      <trkpt lat="46.57142" lon="0.66324">
        <ele>93.1</ele>
        <time>2020-06-28T07:53:24Z</time>
      </trkpt>
      <trkpt lat="46.57141" lon="0.66308">
        <ele>90.7</ele>
        <time>2020-06-28T07:53:26Z</time>
      </trkpt>
      <trkpt lat="46.57141" lon="0.66292">
        <ele>88.2</ele>
        <time>2020-06-28T07:53:28Z</time>
      </trkpt>
      <trkpt lat="46.57142" lon="0.66274">
        <ele>83.8</ele>
        <time>2020-06-28T07:53:30Z</time>
      </trkpt>
      <trkpt lat="46.57141" lon="0.66257">
        <ele>78.2</ele>
        <time>2020-06-28T07:53:32Z</time>
      </trkpt>
      <trkpt lat="46.57142" lon="0.66243">
        <ele>75</ele>
        <time>2020-06-28T07:53:36Z</time>
      </trkpt>
      <trkpt lat="46.57134" lon="0.66235">
        <ele>71.5</ele>
        <time>2020-06-28T07:53:42Z</time>
      </trkpt>
      <trkpt lat="46.57125" lon="0.6623">
        <ele>69.4</ele>
        <time>2020-06-28T07:53:45Z</time>
      </trkpt>
      <trkpt lat="46.57116" lon="0.66226">
        <ele>67.4</ele>
        <time>2020-06-28T07:53:55Z</time>
      </trkpt>
      <trkpt lat="46.57103" lon="0.66234">
        <ele>68.4</ele>
        <time>2020-06-28T07:54:01Z</time>
      </trkpt>
      <trkpt lat="46.57096" lon="0.66243">
        <ele>70.4</ele>
        <time>2020-06-28T07:54:07Z</time>
      </trkpt>
      <trkpt lat="46.57086" lon="0.66245">
        <ele>71.2</ele>
        <time>2020-06-28T07:54:11Z</time>
      </trkpt>
      <trkpt lat="46.57076" lon="0.66249">
        <ele>72.3</ele>
        <time>2020-06-28T07:54:14Z</time>
      </trkpt>
      <trkpt lat="46.57066" lon="0.66256">
        <ele>73.3</ele>
        <time>2020-06-28T07:54:16Z</time>
      </trkpt>
      <trkpt lat="46.57058" lon="0.66263">
        <ele>76.1</ele>
        <time>2020-06-28T07:54:19Z</time>
      </trkpt>
      <trkpt lat="46.5705" lon="0.66271">
        <ele>78.4</ele>
        <time>2020-06-28T07:54:56Z</time>
      </trkpt>
      <trkpt lat="46.57042" lon="0.66279">
        <ele>79.8</ele>
        <time>2020-06-28T07:55:00Z</time>
      </trkpt>
      <trkpt lat="46.57031" lon="0.66279">
        <ele>77.2</ele>
        <time>2020-06-28T07:55:07Z</time>
      </trkpt>
      <trkpt lat="46.57026" lon="0.6629">
        <ele>77.4</ele>
        <time>2020-06-28T07:55:13Z</time>
      </trkpt>
      <trkpt lat="46.5702" lon="0.66301">
        <ele>77.7</ele>
        <time>2020-06-28T07:55:17Z</time>
      </trkpt>
      <trkpt lat="46.5701" lon="0.66307">
        <ele>75.7</ele>
        <time>2020-06-28T07:55:21Z</time>
      </trkpt>
      <trkpt lat="46.57002" lon="0.66317">
        <ele>76.1</ele>
        <time>2020-06-28T07:55:25Z</time>
      </trkpt>
      <trkpt lat="46.57009" lon="0.66329">
        <ele>79.8</ele>
        <time>2020-06-28T07:55:30Z</time>
      </trkpt>
      <trkpt lat="46.57016" lon="0.66339">
        <ele>82.1</ele>
        <time>2020-06-28T07:55:33Z</time>
      </trkpt>
      <trkpt lat="46.57017" lon="0.66357">
        <ele>83.5</ele>
        <time>2020-06-28T07:55:36Z</time>
      </trkpt>
      <trkpt lat="46.57022" lon="0.66371">
        <ele>83.9</ele>
        <time>2020-06-28T07:55:40Z</time>
      </trkpt>
      <trkpt lat="46.57024" lon="0.66385">
        <ele>84.6</ele>
        <time>2020-06-28T07:55:43Z</time>
      </trkpt>
      <trkpt lat="46.5703" lon="0.66397">
        <ele>84.5</ele>
        <time>2020-06-28T07:55:47Z</time>
      </trkpt>
      <trkpt lat="46.57037" lon="0.66412">
        <ele>87.5</ele>
        <time>2020-06-28T07:55:51Z</time>
      </trkpt>
      <trkpt lat="46.57044" lon="0.66423">
        <ele>90.6</ele>
        <time>2020-06-28T07:55:54Z</time>
      </trkpt>
      <trkpt lat="46.5705" lon="0.66438">
        <ele>91.7</ele>
        <time>2020-06-28T07:55:57Z</time>
      </trkpt>
      <trkpt lat="46.57062" lon="0.66442">
        <ele>93</ele>
        <time>2020-06-28T07:56:00Z</time>
      </trkpt>
      <trkpt lat="46.57069" lon="0.6645">
        <ele>93</ele>
        <time>2020-06-28T07:56:02Z</time>
      </trkpt>
      <trkpt lat="46.57078" lon="0.66443">
        <ele>95.7</ele>
        <time>2020-06-28T07:56:06Z</time>
      </trkpt>
      <trkpt lat="46.57087" lon="0.66437">
        <ele>97.1</ele>
        <time>2020-06-28T07:56:09Z</time>
      </trkpt>
      <trkpt lat="46.57096" lon="0.66433">
        <ele>97.4</ele>
        <time>2020-06-28T07:56:19Z</time>
      </trkpt>
      <trkpt lat="46.57088" lon="0.66446">
        <ele>96.7</ele>
        <time>2020-06-28T07:56:23Z</time>
      </trkpt>
      <trkpt lat="46.5708" lon="0.66453">
        <ele>95.2</ele>
        <time>2020-06-28T07:56:25Z</time>
      </trkpt>
      <trkpt lat="46.57072" lon="0.66462">
        <ele>93.6</ele>
        <time>2020-06-28T07:56:27Z</time>
      </trkpt>
      <trkpt lat="46.57073" lon="0.66477">
        <ele>92.3</ele>
        <time>2020-06-28T07:56:30Z</time>
      </trkpt>
      <trkpt lat="46.57078" lon="0.66491">
        <ele>93</ele>
        <time>2020-06-28T07:56:34Z</time>
      </trkpt>
      <trkpt lat="46.57083" lon="0.66505">
        <ele>92.9</ele>
        <time>2020-06-28T07:56:37Z</time>
      </trkpt>
      <trkpt lat="46.57086" lon="0.66522">
        <ele>92.1</ele>
        <time>2020-06-28T07:56:40Z</time>
      </trkpt>
      <trkpt lat="46.5709" lon="0.66534">
        <ele>91.8</ele>
        <time>2020-06-28T07:56:43Z</time>
      </trkpt>
      <trkpt lat="46.57098" lon="0.66546">
        <ele>91.1</ele>
        <time>2020-06-28T07:56:46Z</time>
      </trkpt>
      <trkpt lat="46.57102" lon="0.66559">
        <ele>90.4</ele>
        <time>2020-06-28T07:56:48Z</time>
      </trkpt>
      <trkpt lat="46.57099" lon="0.66576">
        <ele>87.3</ele>
        <time>2020-06-28T07:56:52Z</time>
      </trkpt>
      <trkpt lat="46.57095" lon="0.66589">
        <ele>85.2</ele>
        <time>2020-06-28T07:56:55Z</time>
      </trkpt>
      <trkpt lat="46.5709" lon="0.66607">
        <ele>82</ele>
        <time>2020-06-28T07:56:58Z</time>
      </trkpt>
      <trkpt lat="46.57087" lon="0.66624">
        <ele>80.7</ele>
        <time>2020-06-28T07:57:00Z</time>
      </trkpt>
      <trkpt lat="46.57084" lon="0.66641">
        <ele>79.2</ele>
        <time>2020-06-28T07:57:03Z</time>
      </trkpt>
      <trkpt lat="46.57083" lon="0.66657">
        <ele>78.5</ele>
        <time>2020-06-28T07:57:05Z</time>
      </trkpt>
      <trkpt lat="46.57077" lon="0.66671">
        <ele>77.6</ele>
        <time>2020-06-28T07:57:08Z</time>
      </trkpt>
      <trkpt lat="46.57079" lon="0.66685">
        <ele>79.4</ele>
        <time>2020-06-28T07:57:10Z</time>
      </trkpt>
      <trkpt lat="46.57084" lon="0.66697">
        <ele>81.8</ele>
        <time>2020-06-28T07:57:14Z</time>
      </trkpt>
      <trkpt lat="46.57093" lon="0.66696">
        <ele>84.1</ele>
        <time>2020-06-28T07:57:17Z</time>
      </trkpt>
      <trkpt lat="46.57102" lon="0.66693">
        <ele>85.7</ele>
        <time>2020-06-28T07:57:21Z</time>
      </trkpt>
      <trkpt lat="46.57104" lon="0.66707">
        <ele>87.1</ele>
        <time>2020-06-28T07:57:24Z</time>
      </trkpt>
      <trkpt lat="46.571" lon="0.66722">
        <ele>89</ele>
        <time>2020-06-28T07:57:27Z</time>
      </trkpt>
      <trkpt lat="46.57105" lon="0.66735">
        <ele>90.3</ele>
        <time>2020-06-28T07:57:31Z</time>
      </trkpt>
      <trkpt lat="46.57113" lon="0.66746">
        <ele>90.4</ele>
        <time>2020-06-28T07:57:34Z</time>
      </trkpt>
      <trkpt lat="46.57121" lon="0.66755">
        <ele>89.9</ele>
        <time>2020-06-28T07:57:38Z</time>
      </trkpt>
      <trkpt lat="46.57125" lon="0.66772">
        <ele>90.1</ele>
        <time>2020-06-28T07:57:42Z</time>
      </trkpt>
      <trkpt lat="46.57123" lon="0.66789">
        <ele>90.8</ele>
        <time>2020-06-28T07:57:45Z</time>
      </trkpt>
      <trkpt lat="46.57124" lon="0.66804">
        <ele>91.3</ele>
        <time>2020-06-28T07:57:47Z</time>
      </trkpt>
      <trkpt lat="46.57121" lon="0.66819">
        <ele>92.2</ele>
        <time>2020-06-28T07:57:51Z</time>
      </trkpt>
      <trkpt lat="46.57129" lon="0.66829">
        <ele>91.4</ele>
        <time>2020-06-28T07:57:57Z</time>
      </trkpt>
      <trkpt lat="46.57133" lon="0.66843">
        <ele>91.8</ele>
        <time>2020-06-28T07:58:03Z</time>
      </trkpt>
      <trkpt lat="46.57137" lon="0.66858">
        <ele>93</ele>
        <time>2020-06-28T07:58:08Z</time>
      </trkpt>
      <trkpt lat="46.57138" lon="0.66876">
        <ele>93.8</ele>
        <time>2020-06-28T07:58:13Z</time>
      </trkpt>
      <trkpt lat="46.57144" lon="0.6689">
        <ele>93.2</ele>
        <time>2020-06-28T07:58:18Z</time>
      </trkpt>
      <trkpt lat="46.57153" lon="0.66895">
        <ele>91.8</ele>
        <time>2020-06-28T07:58:24Z</time>
      </trkpt>
      <trkpt lat="46.57165" lon="0.66893">
        <ele>89.7</ele>
        <time>2020-06-28T07:58:29Z</time>
      </trkpt>
      <trkpt lat="46.57175" lon="0.66894">
        <ele>88</ele>
        <time>2020-06-28T07:58:33Z</time>
      </trkpt>
      <trkpt lat="46.57185" lon="0.66893">
        <ele>86.1</ele>
        <time>2020-06-28T07:58:38Z</time>
      </trkpt>
      <trkpt lat="46.57193" lon="0.66887">
        <ele>84.6</ele>
        <time>2020-06-28T07:58:47Z</time>
      </trkpt>
      <trkpt lat="46.572" lon="0.66899">
        <ele>84.9</ele>
        <time>2020-06-28T07:58:56Z</time>
      </trkpt>
      <trkpt lat="46.57206" lon="0.66911">
        <ele>85.7</ele>
        <time>2020-06-28T07:59:02Z</time>
      </trkpt>
      <trkpt lat="46.57214" lon="0.66918">
        <ele>85.7</ele>
        <time>2020-06-28T07:59:18Z</time>
      </trkpt>
      <trkpt lat="46.5722" lon="0.6693">
        <ele>86.4</ele>
        <time>2020-06-28T07:59:24Z</time>
      </trkpt>
      <trkpt lat="46.57227" lon="0.66941">
        <ele>87</ele>
        <time>2020-06-28T07:59:41Z</time>
      </trkpt>
      <trkpt lat="46.57231" lon="0.66958">
        <ele>88.2</ele>
        <time>2020-06-28T07:59:47Z</time>
      </trkpt>
      <trkpt lat="46.57234" lon="0.66974">
        <ele>89.1</ele>
        <time>2020-06-28T07:59:55Z</time>
      </trkpt>
      <trkpt lat="46.57237" lon="0.66987">
        <ele>90</ele>
        <time>2020-06-28T07:59:58Z</time>
      </trkpt>
      <trkpt lat="46.57244" lon="0.66996">
        <ele>90.7</ele>
        <time>2020-06-28T08:00:04Z</time>
      </trkpt>
      <trkpt lat="46.57248" lon="0.67008">
        <ele>90.8</ele>
        <time>2020-06-28T08:00:06Z</time>
      </trkpt>
      <trkpt lat="46.5725" lon="0.67022">
        <ele>90.5</ele>
        <time>2020-06-28T08:00:10Z</time>
      </trkpt>
      <trkpt lat="46.57251" lon="0.67035">
        <ele>90.1</ele>
        <time>2020-06-28T08:00:15Z</time>
      </trkpt>
      <trkpt lat="46.57253" lon="0.67048">
        <ele>89.9</ele>
        <time>2020-06-28T08:00:23Z</time>
      </trkpt>
      <trkpt lat="46.57244" lon="0.67052">
        <ele>89.5</ele>
        <time>2020-06-28T08:00:27Z</time>
      </trkpt>
      <trkpt lat="46.57235" lon="0.67046">
        <ele>89.2</ele>
        <time>2020-06-28T08:00:32Z</time>
      </trkpt>
      <trkpt lat="46.57233" lon="0.67031">
        <ele>89.2</ele>
        <time>2020-06-28T08:00:35Z</time>
      </trkpt>
      <trkpt lat="46.57234" lon="0.67017">
        <ele>88.8</ele>
        <time>2020-06-28T08:00:38Z</time>
      </trkpt>
      <trkpt lat="46.57232" lon="0.67">
        <ele>88.5</ele>
        <time>2020-06-28T08:00:41Z</time>
      </trkpt>
      <trkpt lat="46.5723" lon="0.66986">
        <ele>88.3</ele>
        <time>2020-06-28T08:00:45Z</time>
      </trkpt>
      <trkpt lat="46.57223" lon="0.66978">
        <ele>88.1</ele>
        <time>2020-06-28T08:00:55Z</time>
      </trkpt>
      <trkpt lat="46.57215" lon="0.66967">
        <ele>87.9</ele>
        <time>2020-06-28T08:01:02Z</time>
      </trkpt>
      <trkpt lat="46.57212" lon="0.66954">
        <ele>87.7</ele>
        <time>2020-06-28T08:01:10Z</time>
      </trkpt>
      <trkpt lat="46.57201" lon="0.6695">
        <ele>87.5</ele>
        <time>2020-06-28T08:01:17Z</time>
      </trkpt>
      <trkpt lat="46.57191" lon="0.66948">
        <ele>87.5</ele>
        <time>2020-06-28T08:01:24Z</time>
      </trkpt>
      <trkpt lat="46.57187" lon="0.66936">
        <ele>87.5</ele>
        <time>2020-06-28T08:01:29Z</time>
      </trkpt>
      <trkpt lat="46.57174" lon="0.66938">
        <ele>87.5</ele>
        <time>2020-06-28T08:01:36Z</time>
      </trkpt>
      <trkpt lat="46.57163" lon="0.66935">
        <ele>87.3</ele>
        <time>2020-06-28T08:01:39Z</time>
      </trkpt>
      <trkpt lat="46.57153" lon="0.66929">
        <ele>86.3</ele>
        <time>2020-06-28T08:01:41Z</time>
      </trkpt>
      <trkpt lat="46.57143" lon="0.6692">
        <ele>85.2</ele>
        <time>2020-06-28T08:01:45Z</time>
      </trkpt>
      <trkpt lat="46.57135" lon="0.66914">
        <ele>84.4</ele>
        <time>2020-06-28T08:01:47Z</time>
      </trkpt>
      <trkpt lat="46.5713" lon="0.66902">
        <ele>83.8</ele>
        <time>2020-06-28T08:01:50Z</time>
      </trkpt>
      <trkpt lat="46.57123" lon="0.66893">
        <ele>83.3</ele>
        <time>2020-06-28T08:01:52Z</time>
      </trkpt>
      <trkpt lat="46.57115" lon="0.66886">
        <ele>82.7</ele>
        <time>2020-06-28T08:01:54Z</time>
      </trkpt>
      <trkpt lat="46.57105" lon="0.66876">
        <ele>82</ele>
        <time>2020-06-28T08:01:58Z</time>
      </trkpt>
      <trkpt lat="46.57095" lon="0.66874">
        <ele>81.5</ele>
        <time>2020-06-28T08:02:01Z</time>
      </trkpt>
      <trkpt lat="46.57086" lon="0.66864">
        <ele>80.9</ele>
        <time>2020-06-28T08:02:04Z</time>
      </trkpt>
      <trkpt lat="46.57073" lon="0.66854">
        <ele>80.2</ele>
        <time>2020-06-28T08:02:07Z</time>
      </trkpt>
      <trkpt lat="46.57064" lon="0.66844">
        <ele>79.9</ele>
        <time>2020-06-28T08:02:09Z</time>
      </trkpt>
      <trkpt lat="46.57058" lon="0.66832">
        <ele>79.6</ele>
        <time>2020-06-28T08:02:11Z</time>
      </trkpt>
      <trkpt lat="46.57053" lon="0.66821">
        <ele>79.4</ele>
        <time>2020-06-28T08:02:13Z</time>
      </trkpt>
      <trkpt lat="46.57047" lon="0.66808">
        <ele>79.1</ele>
        <time>2020-06-28T08:02:15Z</time>
      </trkpt>
      <trkpt lat="46.57038" lon="0.6679">
        <ele>78.7</ele>
        <time>2020-06-28T08:02:17Z</time>
      </trkpt>
      <trkpt lat="46.57032" lon="0.66776">
        <ele>78.3</ele>
        <time>2020-06-28T08:02:19Z</time>
      </trkpt>
      <trkpt lat="46.57027" lon="0.66763">
        <ele>78.1</ele>
        <time>2020-06-28T08:02:21Z</time>
      </trkpt>
      <trkpt lat="46.57021" lon="0.66752">
        <ele>78</ele>
        <time>2020-06-28T08:02:24Z</time>
      </trkpt>
      <trkpt lat="46.5702" lon="0.66737">
        <ele>75</ele>
        <time>2020-06-28T08:02:27Z</time>
      </trkpt>
      <trkpt lat="46.5702" lon="0.66721">
        <ele>72.7</ele>
        <time>2020-06-28T08:02:31Z</time>
      </trkpt>
      <trkpt lat="46.57016" lon="0.66707">
        <ele>69.9</ele>
        <time>2020-06-28T08:02:37Z</time>
      </trkpt>
      <trkpt lat="46.57023" lon="0.66699">
        <ele>70.3</ele>
        <time>2020-06-28T08:03:06Z</time>
      </trkpt>
      <trkpt lat="46.57022" lon="0.66685">
        <ele>69.8</ele>
        <time>2020-06-28T08:03:10Z</time>
      </trkpt>
      <trkpt lat="46.57024" lon="0.6667">
        <ele>69.6</ele>
        <time>2020-06-28T08:03:13Z</time>
      </trkpt>
      <trkpt lat="46.57028" lon="0.6665">
        <ele>70.6</ele>
        <time>2020-06-28T08:03:17Z</time>
      </trkpt>
      <trkpt lat="46.57036" lon="0.66641">
        <ele>71.9</ele>
        <time>2020-06-28T08:03:22Z</time>
      </trkpt>
      <trkpt lat="46.57045" lon="0.66634">
        <ele>73.6</ele>
        <time>2020-06-28T08:03:27Z</time>
      </trkpt>
      <trkpt lat="46.57054" lon="0.66628">
        <ele>75</ele>
        <time>2020-06-28T08:03:35Z</time>
      </trkpt>
      <trkpt lat="46.57062" lon="0.6662">
        <ele>76.8</ele>
        <time>2020-06-28T08:03:42Z</time>
      </trkpt>
      <trkpt lat="46.57071" lon="0.66613">
        <ele>78.5</ele>
        <time>2020-06-28T08:03:52Z</time>
      </trkpt>
      <trkpt lat="46.57081" lon="0.66609">
        <ele>81.1</ele>
        <time>2020-06-28T08:03:58Z</time>
      </trkpt>
      <trkpt lat="46.57088" lon="0.66602">
        <ele>83.9</ele>
        <time>2020-06-28T08:04:08Z</time>
      </trkpt>
      <trkpt lat="46.57093" lon="0.6659">
        <ele>86</ele>
        <time>2020-06-28T08:04:38Z</time>
      </trkpt>
      <trkpt lat="46.57092" lon="0.66577">
        <ele>87.5</ele>
        <time>2020-06-28T08:04:53Z</time>
      </trkpt>
      <trkpt lat="46.57094" lon="0.66563">
        <ele>89.9</ele>
        <time>2020-06-28T08:05:17Z</time>
      </trkpt>
      <trkpt lat="46.57091" lon="0.66549">
        <ele>91.2</ele>
        <time>2020-06-28T08:05:25Z</time>
      </trkpt>
      <trkpt lat="46.57084" lon="0.66538">
        <ele>91.9</ele>
        <time>2020-06-28T08:05:31Z</time>
      </trkpt>
      <trkpt lat="46.57079" lon="0.66527">
        <ele>92.2</ele>
        <time>2020-06-28T08:05:52Z</time>
      </trkpt>
      <trkpt lat="46.57075" lon="0.66512">
        <ele>92.9</ele>
        <time>2020-06-28T08:06:05Z</time>
      </trkpt>
      <trkpt lat="46.5707" lon="0.665">
        <ele>92.6</ele>
        <time>2020-06-28T08:06:10Z</time>
      </trkpt>
      <trkpt lat="46.57064" lon="0.66484">
        <ele>92.4</ele>
        <time>2020-06-28T08:06:14Z</time>
      </trkpt>
      <trkpt lat="46.57065" lon="0.66466">
        <ele>93.8</ele>
        <time>2020-06-28T08:06:17Z</time>
      </trkpt>
      <trkpt lat="46.57067" lon="0.66452">
        <ele>95.6</ele>
        <time>2020-06-28T08:06:20Z</time>
      </trkpt>
      <trkpt lat="46.57056" lon="0.6644">
        <ele>95.3</ele>
        <time>2020-06-28T08:06:25Z</time>
      </trkpt>
      <trkpt lat="46.57051" lon="0.66428">
        <ele>95.3</ele>
        <time>2020-06-28T08:06:28Z</time>
      </trkpt>
      <trkpt lat="46.57044" lon="0.66418">
        <ele>92.9</ele>
        <time>2020-06-28T08:06:32Z</time>
      </trkpt>
      <trkpt lat="46.5704" lon="0.66405">
        <ele>89.7</ele>
        <time>2020-06-28T08:06:35Z</time>
      </trkpt>
      <trkpt lat="46.57035" lon="0.66393">
        <ele>87.3</ele>
        <time>2020-06-28T08:06:39Z</time>
      </trkpt>
      <trkpt lat="46.57026" lon="0.66382">
        <ele>87.3</ele>
        <time>2020-06-28T08:06:42Z</time>
      </trkpt>
      <trkpt lat="46.57019" lon="0.66366">
        <ele>87.4</ele>
        <time>2020-06-28T08:06:46Z</time>
      </trkpt>
      <trkpt lat="46.57017" lon="0.66347">
        <ele>85.8</ele>
        <time>2020-06-28T08:06:49Z</time>
      </trkpt>
      <trkpt lat="46.5701" lon="0.66335">
        <ele>84.6</ele>
        <time>2020-06-28T08:06:54Z</time>
      </trkpt>
      <trkpt lat="46.57005" lon="0.66324">
        <ele>82</ele>
        <time>2020-06-28T08:06:57Z</time>
      </trkpt>
      <trkpt lat="46.57009" lon="0.66311">
        <ele>80.3</ele>
        <time>2020-06-28T08:07:02Z</time>
      </trkpt>
      <trkpt lat="46.57018" lon="0.66306">
        <ele>81.4</ele>
        <time>2020-06-28T08:07:05Z</time>
      </trkpt>
      <trkpt lat="46.57025" lon="0.66294">
        <ele>82</ele>
        <time>2020-06-28T08:07:08Z</time>
      </trkpt>
      <trkpt lat="46.57029" lon="0.6628">
        <ele>80.1</ele>
        <time>2020-06-28T08:07:13Z</time>
      </trkpt>
      <trkpt lat="46.57039" lon="0.6627">
        <ele>78.1</ele>
        <time>2020-06-28T08:07:17Z</time>
      </trkpt>
      <trkpt lat="46.57049" lon="0.66265">
        <ele>78.9</ele>
        <time>2020-06-28T08:07:20Z</time>
      </trkpt>
      <trkpt lat="46.5706" lon="0.66254">
        <ele>76.9</ele>
        <time>2020-06-28T08:07:24Z</time>
      </trkpt>
      <trkpt lat="46.5707" lon="0.66248">
        <ele>74.7</ele>
        <time>2020-06-28T08:07:27Z</time>
      </trkpt>
      <trkpt lat="46.5708" lon="0.66247">
        <ele>75.3</ele>
        <time>2020-06-28T08:07:29Z</time>
      </trkpt>
      <trkpt lat="46.57089" lon="0.66243">
        <ele>74.4</ele>
        <time>2020-06-28T08:07:31Z</time>
      </trkpt>
      <trkpt lat="46.571" lon="0.66238">
        <ele>73.9</ele>
        <time>2020-06-28T08:07:35Z</time>
      </trkpt>
      <trkpt lat="46.57108" lon="0.66225">
        <ele>71.4</ele>
        <time>2020-06-28T08:07:37Z</time>
      </trkpt>
      <trkpt lat="46.57115" lon="0.66209">
        <ele>68.2</ele>
        <time>2020-06-28T08:07:43Z</time>
      </trkpt>
      <trkpt lat="46.57123" lon="0.66197">
        <ele>66.2</ele>
        <time>2020-06-28T08:07:45Z</time>
      </trkpt>
      <trkpt lat="46.57129" lon="0.66187">
        <ele>64.2</ele>
        <time>2020-06-28T08:07:47Z</time>
      </trkpt>
      <trkpt lat="46.57136" lon="0.66176">
        <ele>62.1</ele>
        <time>2020-06-28T08:07:50Z</time>
      </trkpt>
      <trkpt lat="46.57143" lon="0.66167">
        <ele>58.8</ele>
        <time>2020-06-28T08:07:56Z</time>
      </trkpt>
      <trkpt lat="46.57151" lon="0.66158">
        <ele>57.3</ele>
        <time>2020-06-28T08:08:01Z</time>
      </trkpt>
      <trkpt lat="46.57154" lon="0.66143">
        <ele>53.1</ele>
        <time>2020-06-28T08:08:10Z</time>
      </trkpt>
      <trkpt lat="46.57165" lon="0.66131">
        <ele>49.2</ele>
        <time>2020-06-28T08:08:15Z</time>
      </trkpt>
      <trkpt lat="46.57173" lon="0.6612">
        <ele>49.4</ele>
        <time>2020-06-28T08:08:19Z</time>
      </trkpt>
      <trkpt lat="46.57182" lon="0.66117">
        <ele>50.3</ele>
        <time>2020-06-28T08:08:23Z</time>
      </trkpt>
      <trkpt lat="46.57191" lon="0.66105">
        <ele>54.5</ele>
        <time>2020-06-28T08:08:29Z</time>
      </trkpt>
      <trkpt lat="46.57201" lon="0.66104">
        <ele>54</ele>
        <time>2020-06-28T08:08:32Z</time>
      </trkpt>
      <trkpt lat="46.5721" lon="0.66105">
        <ele>53.6</ele>
        <time>2020-06-28T08:08:37Z</time>
      </trkpt>
      <trkpt lat="46.57219" lon="0.66097">
        <ele>53.4</ele>
        <time>2020-06-28T08:08:43Z</time>
      </trkpt>
      <trkpt lat="46.57227" lon="0.66087">
        <ele>51.8</ele>
        <time>2020-06-28T08:08:47Z</time>
      </trkpt>
      <trkpt lat="46.57235" lon="0.66078">
        <ele>50.8</ele>
        <time>2020-06-28T08:08:52Z</time>
      </trkpt>
      <trkpt lat="46.57241" lon="0.66065">
        <ele>52.7</ele>
        <time>2020-06-28T08:08:57Z</time>
      </trkpt>
      <trkpt lat="46.57241" lon="0.66048">
        <ele>57.3</ele>
        <time>2020-06-28T08:09:02Z</time>
      </trkpt>
      <trkpt lat="46.57246" lon="0.66033">
        <ele>57.6</ele>
        <time>2020-06-28T08:09:06Z</time>
      </trkpt>
      <trkpt lat="46.57249" lon="0.66018">
        <ele>55</ele>
        <time>2020-06-28T08:09:11Z</time>
      </trkpt>
      <trkpt lat="46.5725" lon="0.66005">
        <ele>54</ele>
        <time>2020-06-28T08:09:18Z</time>
      </trkpt>
      <trkpt lat="46.57251" lon="0.65991">
        <ele>55.1</ele>
        <time>2020-06-28T08:09:49Z</time>
      </trkpt>
      <trkpt lat="46.57259" lon="0.65981">
        <ele>57.6</ele>
        <time>2020-06-28T08:09:54Z</time>
      </trkpt>
      <trkpt lat="46.57267" lon="0.65972">
        <ele>59.3</ele>
        <time>2020-06-28T08:09:57Z</time>
      </trkpt>
      <trkpt lat="46.57275" lon="0.65963">
        <ele>61.6</ele>
        <time>2020-06-28T08:10:01Z</time>
      </trkpt>
      <trkpt lat="46.57279" lon="0.65951">
        <ele>63.4</ele>
        <time>2020-06-28T08:10:04Z</time>
      </trkpt>
      <trkpt lat="46.57284" lon="0.65937">
        <ele>64.4</ele>
        <time>2020-06-28T08:10:08Z</time>
      </trkpt>
      <trkpt lat="46.57287" lon="0.65924">
        <ele>64.9</ele>
        <time>2020-06-28T08:10:11Z</time>
      </trkpt>
      <trkpt lat="46.57288" lon="0.6591">
        <ele>65.3</ele>
        <time>2020-06-28T08:10:15Z</time>
      </trkpt>
      <trkpt lat="46.57284" lon="0.65897">
        <ele>65.1</ele>
        <time>2020-06-28T08:10:30Z</time>
      </trkpt>
      <trkpt lat="46.57274" lon="0.65896">
        <ele>64.3</ele>
        <time>2020-06-28T08:10:39Z</time>
      </trkpt>
      <trkpt lat="46.57269" lon="0.65909">
        <ele>62.5</ele>
        <time>2020-06-28T08:10:44Z</time>
      </trkpt>
      <trkpt lat="46.57265" lon="0.65922">
        <ele>62.2</ele>
        <time>2020-06-28T08:10:48Z</time>
      </trkpt>
      <trkpt lat="46.57261" lon="0.65934">
        <ele>61.6</ele>
        <time>2020-06-28T08:10:52Z</time>
      </trkpt>
      <trkpt lat="46.57253" lon="0.65943">
        <ele>59.3</ele>
        <time>2020-06-28T08:10:59Z</time>
      </trkpt>
      <trkpt lat="46.57243" lon="0.65948">
        <ele>56.9</ele>
        <time>2020-06-28T08:11:05Z</time>
      </trkpt>
      <trkpt lat="46.57232" lon="0.65946">
        <ele>55.9</ele>
        <time>2020-06-28T08:11:10Z</time>
      </trkpt>
      <trkpt lat="46.57222" lon="0.65945">
        <ele>55.7</ele>
        <time>2020-06-28T08:11:14Z</time>
      </trkpt>
      <trkpt lat="46.57212" lon="0.6595">
        <ele>56.3</ele>
        <time>2020-06-28T08:11:18Z</time>
      </trkpt>
      <trkpt lat="46.57203" lon="0.65951">
        <ele>57</ele>
        <time>2020-06-28T08:11:25Z</time>
      </trkpt>
      <trkpt lat="46.57193" lon="0.65951">
        <ele>57.6</ele>
        <time>2020-06-28T08:11:29Z</time>
      </trkpt>
      <trkpt lat="46.57184" lon="0.65954">
        <ele>58.4</ele>
        <time>2020-06-28T08:11:33Z</time>
      </trkpt>
      <trkpt lat="46.57175" lon="0.65958">
        <ele>59.3</ele>
        <time>2020-06-28T08:11:38Z</time>
      </trkpt>
      <trkpt lat="46.57166" lon="0.65961">
        <ele>60.3</ele>
        <time>2020-06-28T08:11:44Z</time>
      </trkpt>
      <trkpt lat="46.57154" lon="0.65965">
        <ele>60.7</ele>
        <time>2020-06-28T08:11:52Z</time>
      </trkpt>
      <trkpt lat="46.57145" lon="0.65965">
        <ele>60.5</ele>
        <time>2020-06-28T08:12:00Z</time>
      </trkpt>
      <trkpt lat="46.57133" lon="0.65968">
        <ele>60.6</ele>
        <time>2020-06-28T08:12:04Z</time>
      </trkpt>
      <trkpt lat="46.57124" lon="0.6597">
        <ele>61.1</ele>
        <time>2020-06-28T08:12:14Z</time>
      </trkpt>
      <trkpt lat="46.57121" lon="0.65956">
        <ele>63.9</ele>
        <time>2020-06-28T08:12:23Z</time>
      </trkpt>
      <trkpt lat="46.57119" lon="0.65943">
        <ele>67.2</ele>
        <time>2020-06-28T08:12:31Z</time>
      </trkpt>
      <trkpt lat="46.57129" lon="0.65934">
        <ele>65.4</ele>
        <time>2020-06-28T08:12:41Z</time>
      </trkpt>
      <trkpt lat="46.57136" lon="0.65921">
        <ele>66.7</ele>
        <time>2020-06-28T08:12:45Z</time>
      </trkpt>
      <trkpt lat="46.5714" lon="0.65908">
        <ele>69</ele>
        <time>2020-06-28T08:12:49Z</time>
      </trkpt>
      <trkpt lat="46.57144" lon="0.65896">
        <ele>70.8</ele>
        <time>2020-06-28T08:12:53Z</time>
      </trkpt>
      <trkpt lat="46.57145" lon="0.65881">
        <ele>73.7</ele>
        <time>2020-06-28T08:12:58Z</time>
      </trkpt>
      <trkpt lat="46.57146" lon="0.65868">
        <ele>76.4</ele>
        <time>2020-06-28T08:13:03Z</time>
      </trkpt>
      <trkpt lat="46.5715" lon="0.65855">
        <ele>78.8</ele>
        <time>2020-06-28T08:13:08Z</time>
      </trkpt>
      <trkpt lat="46.57159" lon="0.65844">
        <ele>80.6</ele>
        <time>2020-06-28T08:13:11Z</time>
      </trkpt>
      <trkpt lat="46.57165" lon="0.65833">
        <ele>81.4</ele>
        <time>2020-06-28T08:13:15Z</time>
      </trkpt>
      <trkpt lat="46.57163" lon="0.65815">
        <ele>80.7</ele>
        <time>2020-06-28T08:13:19Z</time>
      </trkpt>
      <trkpt lat="46.5716" lon="0.65801">
        <ele>78.3</ele>
        <time>2020-06-28T08:13:22Z</time>
      </trkpt>
      <trkpt lat="46.57157" lon="0.65787">
        <ele>77.4</ele>
        <time>2020-06-28T08:13:25Z</time>
      </trkpt>
      <trkpt lat="46.57155" lon="0.6577">
        <ele>76.4</ele>
        <time>2020-06-28T08:13:30Z</time>
      </trkpt>
      <trkpt lat="46.57153" lon="0.65757">
        <ele>75.8</ele>
        <time>2020-06-28T08:13:33Z</time>
      </trkpt>
      <trkpt lat="46.57152" lon="0.65743">
        <ele>75.3</ele>
        <time>2020-06-28T08:13:37Z</time>
      </trkpt>
      <trkpt lat="46.5715" lon="0.6573">
        <ele>74.8</ele>
        <time>2020-06-28T08:13:42Z</time>
      </trkpt>
      <trkpt lat="46.57146" lon="0.65718">
        <ele>74.3</ele>
        <time>2020-06-28T08:13:47Z</time>
      </trkpt>
      <trkpt lat="46.57143" lon="0.65704">
        <ele>73.9</ele>
        <time>2020-06-28T08:14:55Z</time>
      </trkpt>
      <trkpt lat="46.57138" lon="0.65693">
        <ele>74.3</ele>
        <time>2020-06-28T08:14:59Z</time>
      </trkpt>
      <trkpt lat="46.5713" lon="0.65681">
        <ele>74.7</ele>
        <time>2020-06-28T08:15:03Z</time>
      </trkpt>
      <trkpt lat="46.5712" lon="0.65672">
        <ele>75.2</ele>
        <time>2020-06-28T08:15:06Z</time>
      </trkpt>
      <trkpt lat="46.57112" lon="0.65664">
        <ele>75.6</ele>
        <time>2020-06-28T08:15:08Z</time>
      </trkpt>
      <trkpt lat="46.57103" lon="0.6565">
        <ele>76.2</ele>
        <time>2020-06-28T08:15:11Z</time>
      </trkpt>
      <trkpt lat="46.57097" lon="0.6564">
        <ele>76.6</ele>
        <time>2020-06-28T08:15:13Z</time>
      </trkpt>
      <trkpt lat="46.5709" lon="0.65623">
        <ele>77.1</ele>
        <time>2020-06-28T08:15:16Z</time>
      </trkpt>
      <trkpt lat="46.57086" lon="0.65609">
        <ele>77.4</ele>
        <time>2020-06-28T08:15:18Z</time>
      </trkpt>
      <trkpt lat="46.57083" lon="0.65594">
        <ele>77.6</ele>
        <time>2020-06-28T08:15:20Z</time>
      </trkpt>
      <trkpt lat="46.57079" lon="0.65579">
        <ele>77.7</ele>
        <time>2020-06-28T08:15:22Z</time>
      </trkpt>
      <trkpt lat="46.57076" lon="0.65564">
        <ele>77.9</ele>
        <time>2020-06-28T08:15:24Z</time>
      </trkpt>
      <trkpt lat="46.57073" lon="0.6555">
        <ele>78.1</ele>
        <time>2020-06-28T08:15:26Z</time>
      </trkpt>
      <trkpt lat="46.57071" lon="0.65537">
        <ele>78.3</ele>
        <time>2020-06-28T08:15:28Z</time>
      </trkpt>
      <trkpt lat="46.57069" lon="0.6552">
        <ele>78.5</ele>
        <time>2020-06-28T08:15:31Z</time>
      </trkpt>
      <trkpt lat="46.57068" lon="0.65504">
        <ele>78.5</ele>
        <time>2020-06-28T08:15:34Z</time>
      </trkpt>
      <trkpt lat="46.57069" lon="0.65488">
        <ele>78.2</ele>
        <time>2020-06-28T08:15:37Z</time>
      </trkpt>
      <trkpt lat="46.5707" lon="0.65471">
        <ele>77.8</ele>
        <time>2020-06-28T08:15:40Z</time>
      </trkpt>
      <trkpt lat="46.57072" lon="0.65455">
        <ele>77.2</ele>
        <time>2020-06-28T08:15:43Z</time>
      </trkpt>
      <trkpt lat="46.57075" lon="0.6544">
        <ele>76.8</ele>
        <time>2020-06-28T08:15:46Z</time>
      </trkpt>
      <trkpt lat="46.57079" lon="0.65425">
        <ele>76.3</ele>
        <time>2020-06-28T08:15:50Z</time>
      </trkpt>
      <trkpt lat="46.57082" lon="0.65412">
        <ele>75.9</ele>
        <time>2020-06-28T08:15:54Z</time>
      </trkpt>
      <trkpt lat="46.57082" lon="0.65399">
        <ele>75.6</ele>
        <time>2020-06-28T08:16:01Z</time>
      </trkpt>
      <trkpt lat="46.57085" lon="0.65413">
        <ele>75.9</ele>
        <time>2020-06-28T08:16:52Z</time>
      </trkpt>
      <trkpt lat="46.57083" lon="0.65428">
        <ele>76.4</ele>
        <time>2020-06-28T08:17:04Z</time>
      </trkpt>
      <trkpt lat="46.5708" lon="0.65443">
        <ele>76.9</ele>
        <time>2020-06-28T08:17:19Z</time>
      </trkpt>
      <trkpt lat="46.57078" lon="0.65456">
        <ele>77.3</ele>
        <time>2020-06-28T08:17:22Z</time>
      </trkpt>
      <trkpt lat="46.57076" lon="0.65475">
        <ele>77.9</ele>
        <time>2020-06-28T08:17:26Z</time>
      </trkpt>
      <trkpt lat="46.57076" lon="0.65489">
        <ele>78.2</ele>
        <time>2020-06-28T08:17:30Z</time>
      </trkpt>
      <trkpt lat="46.57078" lon="0.65476">
        <ele>77.9</ele>
        <time>2020-06-28T08:19:24Z</time>
      </trkpt>
      <trkpt lat="46.57079" lon="0.65459">
        <ele>77.4</ele>
        <time>2020-06-28T08:19:27Z</time>
      </trkpt>
      <trkpt lat="46.57082" lon="0.65437">
        <ele>76.7</ele>
        <time>2020-06-28T08:19:30Z</time>
      </trkpt>
      <trkpt lat="46.57084" lon="0.65421">
        <ele>76.1</ele>
        <time>2020-06-28T08:19:32Z</time>
      </trkpt>
      <trkpt lat="46.57086" lon="0.65407">
        <ele>75.7</ele>
        <time>2020-06-28T08:19:34Z</time>
      </trkpt>
      <trkpt lat="46.57091" lon="0.65387">
        <ele>75.3</ele>
        <time>2020-06-28T08:19:37Z</time>
      </trkpt>
      <trkpt lat="46.57095" lon="0.65372">
        <ele>75</ele>
        <time>2020-06-28T08:19:39Z</time>
      </trkpt>
      <trkpt lat="46.57098" lon="0.65359">
        <ele>75</ele>
        <time>2020-06-28T08:19:41Z</time>
      </trkpt>
      <trkpt lat="46.57101" lon="0.65346">
        <ele>74.9</ele>
        <time>2020-06-28T08:19:43Z</time>
      </trkpt>
      <trkpt lat="46.57103" lon="0.65333">
        <ele>74.9</ele>
        <time>2020-06-28T08:19:45Z</time>
      </trkpt>
      <trkpt lat="46.57106" lon="0.65314">
        <ele>75.3</ele>
        <time>2020-06-28T08:19:48Z</time>
      </trkpt>
      <trkpt lat="46.57107" lon="0.65298">
        <ele>75.7</ele>
        <time>2020-06-28T08:19:51Z</time>
      </trkpt>
      <trkpt lat="46.57109" lon="0.65281">
        <ele>76.1</ele>
        <time>2020-06-28T08:19:54Z</time>
      </trkpt>
      <trkpt lat="46.57111" lon="0.65263">
        <ele>76.7</ele>
        <time>2020-06-28T08:19:57Z</time>
      </trkpt>
      <trkpt lat="46.57115" lon="0.65248">
        <ele>77.3</ele>
        <time>2020-06-28T08:20:00Z</time>
      </trkpt>
      <trkpt lat="46.5712" lon="0.65233">
        <ele>78</ele>
        <time>2020-06-28T08:20:03Z</time>
      </trkpt>
      <trkpt lat="46.57129" lon="0.65221">
        <ele>78.8</ele>
        <time>2020-06-28T08:20:06Z</time>
      </trkpt>
      <trkpt lat="46.57137" lon="0.6521">
        <ele>79.4</ele>
        <time>2020-06-28T08:20:09Z</time>
      </trkpt>
      <trkpt lat="46.57143" lon="0.65202">
        <ele>80</ele>
        <time>2020-06-28T08:20:11Z</time>
      </trkpt>
      <trkpt lat="46.57154" lon="0.65191">
        <ele>80.8</ele>
        <time>2020-06-28T08:20:14Z</time>
      </trkpt>
      <trkpt lat="46.57161" lon="0.65178">
        <ele>81.4</ele>
        <time>2020-06-28T08:20:18Z</time>
      </trkpt>
      <trkpt lat="46.57166" lon="0.65166">
        <ele>81.7</ele>
        <time>2020-06-28T08:20:21Z</time>
      </trkpt>
      <trkpt lat="46.57164" lon="0.65149">
        <ele>81</ele>
        <time>2020-06-28T08:20:25Z</time>
      </trkpt>
      <trkpt lat="46.57157" lon="0.65139">
        <ele>80.4</ele>
        <time>2020-06-28T08:20:27Z</time>
      </trkpt>
      <trkpt lat="46.57148" lon="0.65128">
        <ele>79.7</ele>
        <time>2020-06-28T08:20:29Z</time>
      </trkpt>
      <trkpt lat="46.57138" lon="0.65114">
        <ele>78.8</ele>
        <time>2020-06-28T08:20:31Z</time>
      </trkpt>
      <trkpt lat="46.57128" lon="0.65102">
        <ele>78</ele>
        <time>2020-06-28T08:20:33Z</time>
      </trkpt>
      <trkpt lat="46.5712" lon="0.65091">
        <ele>77.5</ele>
        <time>2020-06-28T08:20:35Z</time>
      </trkpt>
      <trkpt lat="46.57112" lon="0.65084">
        <ele>76.8</ele>
        <time>2020-06-28T08:20:38Z</time>
      </trkpt>
      <trkpt lat="46.57103" lon="0.65095">
        <ele>76.4</ele>
        <time>2020-06-28T08:20:41Z</time>
      </trkpt>
      <trkpt lat="46.57091" lon="0.65107">
        <ele>76.3</ele>
        <time>2020-06-28T08:20:43Z</time>
      </trkpt>
      <trkpt lat="46.57079" lon="0.65123">
        <ele>76.6</ele>
        <time>2020-06-28T08:20:45Z</time>
      </trkpt>
      <trkpt lat="46.57064" lon="0.65127">
        <ele>74.6</ele>
        <time>2020-06-28T08:20:47Z</time>
      </trkpt>
      <trkpt lat="46.5705" lon="0.65124">
        <ele>73.1</ele>
        <time>2020-06-28T08:20:49Z</time>
      </trkpt>
      <trkpt lat="46.5704" lon="0.65123">
        <ele>72.7</ele>
        <time>2020-06-28T08:20:51Z</time>
      </trkpt>
      <trkpt lat="46.57028" lon="0.65117">
        <ele>72</ele>
        <time>2020-06-28T08:20:54Z</time>
      </trkpt>
      <trkpt lat="46.57017" lon="0.6512">
        <ele>71.6</ele>
        <time>2020-06-28T08:20:57Z</time>
      </trkpt>
      <trkpt lat="46.57008" lon="0.65121">
        <ele>71</ele>
        <time>2020-06-28T08:21:00Z</time>
      </trkpt>
      <trkpt lat="46.56999" lon="0.65125">
        <ele>70.4</ele>
        <time>2020-06-28T08:21:10Z</time>
      </trkpt>
      <trkpt lat="46.5699" lon="0.65118">
        <ele>70.3</ele>
        <time>2020-06-28T08:21:35Z</time>
      </trkpt>
      <trkpt lat="46.56982" lon="0.65102">
        <ele>70.8</ele>
        <time>2020-06-28T08:21:39Z</time>
      </trkpt>
      <trkpt lat="46.56984" lon="0.65085">
        <ele>70.8</ele>
        <time>2020-06-28T08:21:41Z</time>
      </trkpt>
      <trkpt lat="46.56979" lon="0.65068">
        <ele>70.7</ele>
        <time>2020-06-28T08:21:44Z</time>
      </trkpt>
      <trkpt lat="46.56972" lon="0.65059">
        <ele>70.7</ele>
        <time>2020-06-28T08:21:47Z</time>
      </trkpt>
      <trkpt lat="46.5696" lon="0.65056">
        <ele>70.7</ele>
        <time>2020-06-28T08:21:51Z</time>
      </trkpt>
      <trkpt lat="46.56948" lon="0.65057">
        <ele>70.6</ele>
        <time>2020-06-28T08:21:55Z</time>
      </trkpt>
      <trkpt lat="46.56935" lon="0.65057">
        <ele>70.7</ele>
        <time>2020-06-28T08:21:58Z</time>
      </trkpt>
      <trkpt lat="46.56925" lon="0.65057">
        <ele>70.7</ele>
        <time>2020-06-28T08:22:01Z</time>
      </trkpt>
      <trkpt lat="46.56912" lon="0.65054">
        <ele>70.7</ele>
        <time>2020-06-28T08:22:04Z</time>
      </trkpt>
      <trkpt lat="46.56904" lon="0.65048">
        <ele>70.7</ele>
        <time>2020-06-28T08:22:06Z</time>
      </trkpt>
      <trkpt lat="46.56893" lon="0.65041">
        <ele>70.7</ele>
        <time>2020-06-28T08:22:09Z</time>
      </trkpt>
      <trkpt lat="46.56884" lon="0.65038">
        <ele>70.6</ele>
        <time>2020-06-28T08:22:11Z</time>
      </trkpt>
      <trkpt lat="46.56871" lon="0.65036">
        <ele>70.6</ele>
        <time>2020-06-28T08:22:14Z</time>
      </trkpt>
      <trkpt lat="46.56862" lon="0.65034">
        <ele>70.6</ele>
        <time>2020-06-28T08:22:16Z</time>
      </trkpt>
      <trkpt lat="46.56853" lon="0.65029">
        <ele>70.6</ele>
        <time>2020-06-28T08:22:18Z</time>
      </trkpt>
      <trkpt lat="46.56843" lon="0.65023">
        <ele>70.6</ele>
        <time>2020-06-28T08:22:21Z</time>
      </trkpt>
      <trkpt lat="46.56834" lon="0.65018">
        <ele>70.6</ele>
        <time>2020-06-28T08:22:24Z</time>
      </trkpt>
      <trkpt lat="46.56824" lon="0.65013">
        <ele>70.5</ele>
        <time>2020-06-28T08:22:27Z</time>
      </trkpt>
      <trkpt lat="46.56818" lon="0.65002">
        <ele>70.5</ele>
        <time>2020-06-28T08:22:29Z</time>
      </trkpt>
      <trkpt lat="46.56808" lon="0.64993">
        <ele>70.6</ele>
        <time>2020-06-28T08:22:32Z</time>
      </trkpt>
      <trkpt lat="46.56799" lon="0.64985">
        <ele>70.6</ele>
        <time>2020-06-28T08:22:35Z</time>
      </trkpt>
      <trkpt lat="46.56794" lon="0.64973">
        <ele>70.7</ele>
        <time>2020-06-28T08:22:48Z</time>
      </trkpt>
      <trkpt lat="46.56788" lon="0.64963">
        <ele>70.6</ele>
        <time>2020-06-28T08:22:53Z</time>
      </trkpt>
      <trkpt lat="46.56782" lon="0.64953">
        <ele>70.6</ele>
        <time>2020-06-28T08:22:57Z</time>
      </trkpt>
      <trkpt lat="46.56783" lon="0.64938">
        <ele>70.5</ele>
        <time>2020-06-28T08:23:04Z</time>
      </trkpt>
      <trkpt lat="46.56792" lon="0.64932">
        <ele>70.2</ele>
        <time>2020-06-28T08:23:07Z</time>
      </trkpt>
      <trkpt lat="46.56805" lon="0.64928">
        <ele>70.1</ele>
        <time>2020-06-28T08:23:10Z</time>
      </trkpt>
      <trkpt lat="46.56815" lon="0.64926">
        <ele>70.1</ele>
        <time>2020-06-28T08:23:12Z</time>
      </trkpt>
      <trkpt lat="46.56825" lon="0.64924">
        <ele>70.1</ele>
        <time>2020-06-28T08:23:14Z</time>
      </trkpt>
      <trkpt lat="46.56838" lon="0.64926">
        <ele>70.5</ele>
        <time>2020-06-28T08:23:17Z</time>
      </trkpt>
      <trkpt lat="46.56848" lon="0.64933">
        <ele>71</ele>
        <time>2020-06-28T08:23:20Z</time>
      </trkpt>
      <trkpt lat="46.56857" lon="0.64941">
        <ele>71.4</ele>
        <time>2020-06-28T08:23:23Z</time>
      </trkpt>
      <trkpt lat="46.56864" lon="0.6493">
        <ele>70.4</ele>
        <time>2020-06-28T08:23:29Z</time>
      </trkpt>
      <trkpt lat="46.56863" lon="0.64916">
        <ele>69.7</ele>
        <time>2020-06-28T08:23:33Z</time>
      </trkpt>
      <trkpt lat="46.56871" lon="0.64907">
        <ele>69</ele>
        <time>2020-06-28T08:23:38Z</time>
      </trkpt>
      <trkpt lat="46.56879" lon="0.649">
        <ele>70.3</ele>
        <time>2020-06-28T08:23:43Z</time>
      </trkpt>
      <trkpt lat="46.56887" lon="0.64891">
        <ele>72.7</ele>
        <time>2020-06-28T08:23:50Z</time>
      </trkpt>
      <trkpt lat="46.56893" lon="0.64879">
        <ele>74.8</ele>
        <time>2020-06-28T08:23:57Z</time>
      </trkpt>
      <trkpt lat="46.56899" lon="0.64868">
        <ele>76.7</ele>
        <time>2020-06-28T08:24:02Z</time>
      </trkpt>
      <trkpt lat="46.56908" lon="0.64867">
        <ele>78.5</ele>
        <time>2020-06-28T08:24:06Z</time>
      </trkpt>
      <trkpt lat="46.56918" lon="0.64866">
        <ele>80.1</ele>
        <time>2020-06-28T08:24:13Z</time>
      </trkpt>
      <trkpt lat="46.56927" lon="0.64863">
        <ele>81.3</ele>
        <time>2020-06-28T08:24:19Z</time>
      </trkpt>
      <trkpt lat="46.56937" lon="0.64857">
        <ele>100.1</ele>
        <time>2020-06-28T08:24:28Z</time>
      </trkpt>
      <trkpt lat="46.56937" lon="0.64871">
        <ele>100.5</ele>
        <time>2020-06-28T08:24:36Z</time>
      </trkpt>
      <trkpt lat="46.5694" lon="0.64886">
        <ele>100.9</ele>
        <time>2020-06-28T08:24:43Z</time>
      </trkpt>
      <trkpt lat="46.56942" lon="0.64898">
        <ele>101.1</ele>
        <time>2020-06-28T08:24:48Z</time>
      </trkpt>
      <trkpt lat="46.56947" lon="0.64911">
        <ele>101.4</ele>
        <time>2020-06-28T08:24:54Z</time>
      </trkpt>
      <trkpt lat="46.56952" lon="0.64924">
        <ele>101.7</ele>
        <time>2020-06-28T08:25:00Z</time>
      </trkpt>
      <trkpt lat="46.56953" lon="0.64909">
        <ele>102</ele>
        <time>2020-06-28T08:25:12Z</time>
      </trkpt>
      <trkpt lat="46.56952" lon="0.64896">
        <ele>102.2</ele>
        <time>2020-06-28T08:25:19Z</time>
      </trkpt>
      <trkpt lat="46.56959" lon="0.64889">
        <ele>102.4</ele>
        <time>2020-06-28T08:25:24Z</time>
      </trkpt>
      <trkpt lat="46.56971" lon="0.64888">
        <ele>102.8</ele>
        <time>2020-06-28T08:25:29Z</time>
      </trkpt>
      <trkpt lat="46.56981" lon="0.64886">
        <ele>103.2</ele>
        <time>2020-06-28T08:25:33Z</time>
      </trkpt>
      <trkpt lat="46.56991" lon="0.64886">
        <ele>103.6</ele>
        <time>2020-06-28T08:25:37Z</time>
      </trkpt>
      <trkpt lat="46.57" lon="0.64886">
        <ele>104.1</ele>
        <time>2020-06-28T08:25:41Z</time>
      </trkpt>
      <trkpt lat="46.5701" lon="0.64891">
        <ele>105.3</ele>
        <time>2020-06-28T08:25:45Z</time>
      </trkpt>
      <trkpt lat="46.57021" lon="0.64894">
        <ele>106.3</ele>
        <time>2020-06-28T08:25:48Z</time>
      </trkpt>
      <trkpt lat="46.57033" lon="0.64892">
        <ele>107.2</ele>
        <time>2020-06-28T08:25:53Z</time>
      </trkpt>
      <trkpt lat="46.57042" lon="0.64892">
        <ele>107.4</ele>
        <time>2020-06-28T08:25:57Z</time>
      </trkpt>
      <trkpt lat="46.5705" lon="0.64884">
        <ele>107.4</ele>
        <time>2020-06-28T08:26:02Z</time>
      </trkpt>
      <trkpt lat="46.57056" lon="0.64871">
        <ele>107.4</ele>
        <time>2020-06-28T08:26:07Z</time>
      </trkpt>
      <trkpt lat="46.57062" lon="0.64859">
        <ele>107.3</ele>
        <time>2020-06-28T08:26:11Z</time>
      </trkpt>
      <trkpt lat="46.57069" lon="0.64852">
        <ele>107.1</ele>
        <time>2020-06-28T08:26:17Z</time>
      </trkpt>
      <trkpt lat="46.57073" lon="0.6487">
        <ele>106.9</ele>
        <time>2020-06-28T08:26:30Z</time>
      </trkpt>
      <trkpt lat="46.57075" lon="0.64886">
        <ele>106.6</ele>
        <time>2020-06-28T08:26:32Z</time>
      </trkpt>
      <trkpt lat="46.57076" lon="0.64901">
        <ele>106.5</ele>
        <time>2020-06-28T08:26:34Z</time>
      </trkpt>
      <trkpt lat="46.57081" lon="0.64914">
        <ele>106.5</ele>
        <time>2020-06-28T08:26:38Z</time>
      </trkpt>
      <trkpt lat="46.57092" lon="0.64913">
        <ele>106.5</ele>
        <time>2020-06-28T08:26:42Z</time>
      </trkpt>
      <trkpt lat="46.57099" lon="0.64905">
        <ele>106.6</ele>
        <time>2020-06-28T08:26:48Z</time>
      </trkpt>
      <trkpt lat="46.5711" lon="0.64906">
        <ele>106.6</ele>
        <time>2020-06-28T08:26:54Z</time>
      </trkpt>
      <trkpt lat="46.57119" lon="0.64899">
        <ele>107.4</ele>
        <time>2020-06-28T08:26:58Z</time>
      </trkpt>
      <trkpt lat="46.57121" lon="0.64884">
        <ele>108.2</ele>
        <time>2020-06-28T08:27:01Z</time>
      </trkpt>
      <trkpt lat="46.57117" lon="0.64871">
        <ele>108.5</ele>
        <time>2020-06-28T08:27:06Z</time>
      </trkpt>
      <trkpt lat="46.57117" lon="0.64858">
        <ele>109.9</ele>
        <time>2020-06-28T08:27:11Z</time>
      </trkpt>
      <trkpt lat="46.57114" lon="0.64842">
        <ele>111.5</ele>
        <time>2020-06-28T08:27:16Z</time>
      </trkpt>
      <trkpt lat="46.57111" lon="0.64829">
        <ele>112.5</ele>
        <time>2020-06-28T08:27:20Z</time>
      </trkpt>
      <trkpt lat="46.5711" lon="0.64814">
        <ele>113.2</ele>
        <time>2020-06-28T08:27:24Z</time>
      </trkpt>
      <trkpt lat="46.57106" lon="0.64803">
        <ele>113.8</ele>
        <time>2020-06-28T08:27:27Z</time>
      </trkpt>
      <trkpt lat="46.57105" lon="0.64786">
        <ele>113.9</ele>
        <time>2020-06-28T08:27:31Z</time>
      </trkpt>
      <trkpt lat="46.57108" lon="0.64769">
        <ele>113.6</ele>
        <time>2020-06-28T08:27:34Z</time>
      </trkpt>
      <trkpt lat="46.57115" lon="0.64759">
        <ele>114.2</ele>
        <time>2020-06-28T08:27:37Z</time>
      </trkpt>
      <trkpt lat="46.57122" lon="0.64747">
        <ele>114.7</ele>
        <time>2020-06-28T08:27:41Z</time>
      </trkpt>
      <trkpt lat="46.57128" lon="0.64738">
        <ele>115.1</ele>
        <time>2020-06-28T08:27:44Z</time>
      </trkpt>
      <trkpt lat="46.57135" lon="0.6473">
        <ele>115.5</ele>
        <time>2020-06-28T08:27:47Z</time>
      </trkpt>
      <trkpt lat="46.57144" lon="0.64721">
        <ele>115.8</ele>
        <time>2020-06-28T08:27:50Z</time>
      </trkpt>
      <trkpt lat="46.57152" lon="0.64714">
        <ele>116</ele>
        <time>2020-06-28T08:27:53Z</time>
      </trkpt>
      <trkpt lat="46.57162" lon="0.64712">
        <ele>116.4</ele>
        <time>2020-06-28T08:28:01Z</time>
      </trkpt>
      <trkpt lat="46.57172" lon="0.64707">
        <ele>116.7</ele>
        <time>2020-06-28T08:28:09Z</time>
      </trkpt>
      <trkpt lat="46.57181" lon="0.64703">
        <ele>117</ele>
        <time>2020-06-28T08:28:13Z</time>
      </trkpt>
      <trkpt lat="46.57192" lon="0.64697">
        <ele>117.4</ele>
        <time>2020-06-28T08:28:16Z</time>
      </trkpt>
      <trkpt lat="46.57202" lon="0.64689">
        <ele>117.8</ele>
        <time>2020-06-28T08:28:19Z</time>
      </trkpt>
      <trkpt lat="46.57211" lon="0.64681">
        <ele>118.3</ele>
        <time>2020-06-28T08:28:22Z</time>
      </trkpt>
      <trkpt lat="46.57221" lon="0.64672">
        <ele>118.6</ele>
        <time>2020-06-28T08:28:26Z</time>
      </trkpt>
      <trkpt lat="46.5723" lon="0.64665">
        <ele>118.8</ele>
        <time>2020-06-28T08:28:29Z</time>
      </trkpt>
      <trkpt lat="46.57239" lon="0.6466">
        <ele>119.1</ele>
        <time>2020-06-28T08:28:32Z</time>
      </trkpt>
      <trkpt lat="46.5725" lon="0.64656">
        <ele>119.4</ele>
        <time>2020-06-28T08:28:35Z</time>
      </trkpt>
      <trkpt lat="46.57259" lon="0.64651">
        <ele>119.5</ele>
        <time>2020-06-28T08:28:37Z</time>
      </trkpt>
      <trkpt lat="46.57269" lon="0.64647">
        <ele>119.6</ele>
        <time>2020-06-28T08:28:39Z</time>
      </trkpt>
      <trkpt lat="46.57279" lon="0.64642">
        <ele>119.8</ele>
        <time>2020-06-28T08:28:41Z</time>
      </trkpt>
      <trkpt lat="46.57287" lon="0.64637">
        <ele>120</ele>
        <time>2020-06-28T08:28:43Z</time>
      </trkpt>
      <trkpt lat="46.57296" lon="0.64632">
        <ele>120.3</ele>
        <time>2020-06-28T08:28:45Z</time>
      </trkpt>
      <trkpt lat="46.57305" lon="0.64628">
        <ele>120.5</ele>
        <time>2020-06-28T08:28:49Z</time>
      </trkpt>
      <trkpt lat="46.57304" lon="0.64613">
        <ele>119.4</ele>
        <time>2020-06-28T08:28:55Z</time>
      </trkpt>
      <trkpt lat="46.57299" lon="0.646">
        <ele>118.2</ele>
        <time>2020-06-28T08:28:57Z</time>
      </trkpt>
      <trkpt lat="46.57293" lon="0.64586">
        <ele>116.2</ele>
        <time>2020-06-28T08:28:59Z</time>
      </trkpt>
      <trkpt lat="46.57288" lon="0.64571">
        <ele>114</ele>
        <time>2020-06-28T08:29:01Z</time>
      </trkpt>
      <trkpt lat="46.57281" lon="0.64553">
        <ele>111.2</ele>
        <time>2020-06-28T08:29:03Z</time>
      </trkpt>
      <trkpt lat="46.57276" lon="0.64539">
        <ele>108.8</ele>
        <time>2020-06-28T08:29:05Z</time>
      </trkpt>
      <trkpt lat="46.57271" lon="0.64524">
        <ele>106.2</ele>
        <time>2020-06-28T08:29:07Z</time>
      </trkpt>
      <trkpt lat="46.57264" lon="0.64513">
        <ele>103.7</ele>
        <time>2020-06-28T08:29:09Z</time>
      </trkpt>
      <trkpt lat="46.57257" lon="0.64499">
        <ele>100.1</ele>
        <time>2020-06-28T08:29:11Z</time>
      </trkpt>
      <trkpt lat="46.5725" lon="0.64489">
        <ele>97</ele>
        <time>2020-06-28T08:29:13Z</time>
      </trkpt>
      <trkpt lat="46.57243" lon="0.64479">
        <ele>93.9</ele>
        <time>2020-06-28T08:29:15Z</time>
      </trkpt>
      <trkpt lat="46.57237" lon="0.64466">
        <ele>90</ele>
        <time>2020-06-28T08:29:18Z</time>
      </trkpt>
      <trkpt lat="46.57231" lon="0.64456">
        <ele>86.4</ele>
        <time>2020-06-28T08:29:22Z</time>
      </trkpt>
      <trkpt lat="46.57224" lon="0.64444">
        <ele>82.4</ele>
        <time>2020-06-28T08:29:26Z</time>
      </trkpt>
      <trkpt lat="46.57229" lon="0.64432">
        <ele>78.3</ele>
        <time>2020-06-28T08:29:39Z</time>
      </trkpt>
      <trkpt lat="46.57225" lon="0.64419">
        <ele>77.1</ele>
        <time>2020-06-28T08:29:55Z</time>
      </trkpt>
      <trkpt lat="46.57224" lon="0.64406">
        <ele>72.5</ele>
        <time>2020-06-28T08:30:11Z</time>
      </trkpt>
      <trkpt lat="46.57215" lon="0.64413">
        <ele>72.4</ele>
        <time>2020-06-28T08:33:24Z</time>
      </trkpt>
      <trkpt lat="46.57208" lon="0.64423">
        <ele>72.4</ele>
        <time>2020-06-28T08:33:31Z</time>
      </trkpt>
      <trkpt lat="46.57196" lon="0.6442">
        <ele>71.7</ele>
        <time>2020-06-28T08:33:35Z</time>
      </trkpt>
      <trkpt lat="46.57186" lon="0.6441">
        <ele>70.7</ele>
        <time>2020-06-28T08:33:37Z</time>
      </trkpt>
      <trkpt lat="46.57176" lon="0.64396">
        <ele>69.8</ele>
        <time>2020-06-28T08:33:39Z</time>
      </trkpt>
      <trkpt lat="46.57165" lon="0.64383">
        <ele>68.9</ele>
        <time>2020-06-28T08:33:41Z</time>
      </trkpt>
      <trkpt lat="46.57156" lon="0.64371">
        <ele>68.2</ele>
        <time>2020-06-28T08:33:43Z</time>
      </trkpt>
      <trkpt lat="46.57143" lon="0.64359">
        <ele>67.5</ele>
        <time>2020-06-28T08:33:45Z</time>
      </trkpt>
      <trkpt lat="46.5713" lon="0.64354">
        <ele>66.9</ele>
        <time>2020-06-28T08:33:47Z</time>
      </trkpt>
      <trkpt lat="46.57122" lon="0.64348">
        <ele>66.5</ele>
        <time>2020-06-28T08:33:49Z</time>
      </trkpt>
      <trkpt lat="46.5711" lon="0.64333">
        <ele>66</ele>
        <time>2020-06-28T08:33:51Z</time>
      </trkpt>
      <trkpt lat="46.57101" lon="0.6432">
        <ele>65.8</ele>
        <time>2020-06-28T08:33:53Z</time>
      </trkpt>
      <trkpt lat="46.57092" lon="0.64305">
        <ele>65.6</ele>
        <time>2020-06-28T08:33:55Z</time>
      </trkpt>
      <trkpt lat="46.57084" lon="0.64294">
        <ele>65.5</ele>
        <time>2020-06-28T08:33:57Z</time>
      </trkpt>
      <trkpt lat="46.57074" lon="0.6429">
        <ele>65.6</ele>
        <time>2020-06-28T08:33:59Z</time>
      </trkpt>
      <trkpt lat="46.57062" lon="0.64291">
        <ele>65.7</ele>
        <time>2020-06-28T08:34:01Z</time>
      </trkpt>
      <trkpt lat="46.5705" lon="0.64294">
        <ele>65.8</ele>
        <time>2020-06-28T08:34:03Z</time>
      </trkpt>
      <trkpt lat="46.57038" lon="0.64294">
        <ele>65.9</ele>
        <time>2020-06-28T08:34:06Z</time>
      </trkpt>
      <trkpt lat="46.57029" lon="0.64297">
        <ele>66</ele>
        <time>2020-06-28T08:34:09Z</time>
      </trkpt>
      <trkpt lat="46.57016" lon="0.64304">
        <ele>66.2</ele>
        <time>2020-06-28T08:34:12Z</time>
      </trkpt>
      <trkpt lat="46.57007" lon="0.64307">
        <ele>66.4</ele>
        <time>2020-06-28T08:34:14Z</time>
      </trkpt>
      <trkpt lat="46.56995" lon="0.64311">
        <ele>66.6</ele>
        <time>2020-06-28T08:34:17Z</time>
      </trkpt>
      <trkpt lat="46.56985" lon="0.64314">
        <ele>66.9</ele>
        <time>2020-06-28T08:34:21Z</time>
      </trkpt>
      <trkpt lat="46.5698" lon="0.64302">
        <ele>67.3</ele>
        <time>2020-06-28T08:34:26Z</time>
      </trkpt>
      <trkpt lat="46.56976" lon="0.64287">
        <ele>67.3</ele>
        <time>2020-06-28T08:34:29Z</time>
      </trkpt>
      <trkpt lat="46.56969" lon="0.64276">
        <ele>67.3</ele>
        <time>2020-06-28T08:34:31Z</time>
      </trkpt>
      <trkpt lat="46.56962" lon="0.64264">
        <ele>67.5</ele>
        <time>2020-06-28T08:34:33Z</time>
      </trkpt>
      <trkpt lat="46.5696" lon="0.64248">
        <ele>67.8</ele>
        <time>2020-06-28T08:34:35Z</time>
      </trkpt>
      <trkpt lat="46.56958" lon="0.64231">
        <ele>68</ele>
        <time>2020-06-28T08:34:37Z</time>
      </trkpt>
      <trkpt lat="46.56957" lon="0.64216">
        <ele>68</ele>
        <time>2020-06-28T08:34:39Z</time>
      </trkpt>
      <trkpt lat="46.56958" lon="0.64202">
        <ele>68</ele>
        <time>2020-06-28T08:34:41Z</time>
      </trkpt>
      <trkpt lat="46.56958" lon="0.64188">
        <ele>68</ele>
        <time>2020-06-28T08:34:43Z</time>
      </trkpt>
      <trkpt lat="46.56956" lon="0.64173">
        <ele>68</ele>
        <time>2020-06-28T08:34:45Z</time>
      </trkpt>
      <trkpt lat="46.56953" lon="0.64158">
        <ele>68</ele>
        <time>2020-06-28T08:34:47Z</time>
      </trkpt>
      <trkpt lat="46.56952" lon="0.64143">
        <ele>68.1</ele>
        <time>2020-06-28T08:34:49Z</time>
      </trkpt>
      <trkpt lat="46.56949" lon="0.64129">
        <ele>68.1</ele>
        <time>2020-06-28T08:34:51Z</time>
      </trkpt>
      <trkpt lat="46.56946" lon="0.64111">
        <ele>68.1</ele>
        <time>2020-06-28T08:34:53Z</time>
      </trkpt>
      <trkpt lat="46.56944" lon="0.64095">
        <ele>68</ele>
        <time>2020-06-28T08:34:55Z</time>
      </trkpt>
      <trkpt lat="46.56941" lon="0.64077">
        <ele>67.9</ele>
        <time>2020-06-28T08:34:57Z</time>
      </trkpt>
      <trkpt lat="46.56938" lon="0.6406">
        <ele>67.8</ele>
        <time>2020-06-28T08:34:59Z</time>
      </trkpt>
      <trkpt lat="46.56936" lon="0.64044">
        <ele>67.7</ele>
        <time>2020-06-28T08:35:01Z</time>
      </trkpt>
      <trkpt lat="46.56933" lon="0.64027">
        <ele>67.5</ele>
        <time>2020-06-28T08:35:03Z</time>
      </trkpt>
      <trkpt lat="46.56934" lon="0.6401">
        <ele>67.1</ele>
        <time>2020-06-28T08:35:05Z</time>
      </trkpt>
      <trkpt lat="46.5694" lon="0.63993">
        <ele>66.5</ele>
        <time>2020-06-28T08:35:07Z</time>
      </trkpt>
      <trkpt lat="46.56947" lon="0.63976">
        <ele>66</ele>
        <time>2020-06-28T08:35:09Z</time>
      </trkpt>
      <trkpt lat="46.56958" lon="0.6396">
        <ele>65.4</ele>
        <time>2020-06-28T08:35:11Z</time>
      </trkpt>
      <trkpt lat="46.5697" lon="0.63946">
        <ele>65</ele>
        <time>2020-06-28T08:35:13Z</time>
      </trkpt>
      <trkpt lat="46.56982" lon="0.63935">
        <ele>64.7</ele>
        <time>2020-06-28T08:35:15Z</time>
      </trkpt>
      <trkpt lat="46.56996" lon="0.63928">
        <ele>64.7</ele>
        <time>2020-06-28T08:35:17Z</time>
      </trkpt>
      <trkpt lat="46.57007" lon="0.6392">
        <ele>64.7</ele>
        <time>2020-06-28T08:35:19Z</time>
      </trkpt>
      <trkpt lat="46.57018" lon="0.63911">
        <ele>64.7</ele>
        <time>2020-06-28T08:35:21Z</time>
      </trkpt>
      <trkpt lat="46.57027" lon="0.63902">
        <ele>64.7</ele>
        <time>2020-06-28T08:35:23Z</time>
      </trkpt>
      <trkpt lat="46.57035" lon="0.63892">
        <ele>64.7</ele>
        <time>2020-06-28T08:35:25Z</time>
      </trkpt>
      <trkpt lat="46.57043" lon="0.6388">
        <ele>64.8</ele>
        <time>2020-06-28T08:35:27Z</time>
      </trkpt>
      <trkpt lat="46.5705" lon="0.63866">
        <ele>65</ele>
        <time>2020-06-28T08:35:29Z</time>
      </trkpt>
      <trkpt lat="46.57057" lon="0.63852">
        <ele>65.1</ele>
        <time>2020-06-28T08:35:31Z</time>
      </trkpt>
      <trkpt lat="46.57064" lon="0.6384">
        <ele>65.3</ele>
        <time>2020-06-28T08:35:33Z</time>
      </trkpt>
      <trkpt lat="46.57072" lon="0.63828">
        <ele>65.6</ele>
        <time>2020-06-28T08:35:35Z</time>
      </trkpt>
      <trkpt lat="46.57078" lon="0.63818">
        <ele>65.8</ele>
        <time>2020-06-28T08:35:37Z</time>
      </trkpt>
      <trkpt lat="46.57084" lon="0.63806">
        <ele>66.1</ele>
        <time>2020-06-28T08:35:39Z</time>
      </trkpt>
      <trkpt lat="46.57089" lon="0.63794">
        <ele>66.3</ele>
        <time>2020-06-28T08:35:41Z</time>
      </trkpt>
      <trkpt lat="46.57095" lon="0.63781">
        <ele>66.4</ele>
        <time>2020-06-28T08:35:43Z</time>
      </trkpt>
      <trkpt lat="46.57102" lon="0.63769">
        <ele>66.7</ele>
        <time>2020-06-28T08:35:45Z</time>
      </trkpt>
      <trkpt lat="46.57107" lon="0.63758">
        <ele>67</ele>
        <time>2020-06-28T08:35:47Z</time>
      </trkpt>
      <trkpt lat="46.57115" lon="0.63747">
        <ele>67.3</ele>
        <time>2020-06-28T08:35:49Z</time>
      </trkpt>
      <trkpt lat="46.57121" lon="0.63736">
        <ele>67.5</ele>
        <time>2020-06-28T08:35:51Z</time>
      </trkpt>
      <trkpt lat="46.57128" lon="0.63722">
        <ele>67.7</ele>
        <time>2020-06-28T08:35:54Z</time>
      </trkpt>
      <trkpt lat="46.57134" lon="0.63712">
        <ele>68.1</ele>
        <time>2020-06-28T08:35:56Z</time>
      </trkpt>
      <trkpt lat="46.57141" lon="0.63697">
        <ele>68.5</ele>
        <time>2020-06-28T08:35:59Z</time>
      </trkpt>
      <trkpt lat="46.57148" lon="0.63683">
        <ele>68.8</ele>
        <time>2020-06-28T08:36:02Z</time>
      </trkpt>
      <trkpt lat="46.57154" lon="0.63671">
        <ele>69.1</ele>
        <time>2020-06-28T08:36:05Z</time>
      </trkpt>
      <trkpt lat="46.57162" lon="0.63655">
        <ele>69.4</ele>
        <time>2020-06-28T08:36:08Z</time>
      </trkpt>
      <trkpt lat="46.57167" lon="0.63644">
        <ele>69.7</ele>
        <time>2020-06-28T08:36:10Z</time>
      </trkpt>
      <trkpt lat="46.57173" lon="0.63633">
        <ele>70</ele>
        <time>2020-06-28T08:36:12Z</time>
      </trkpt>
      <trkpt lat="46.5718" lon="0.63617">
        <ele>70.3</ele>
        <time>2020-06-28T08:36:15Z</time>
      </trkpt>
      <trkpt lat="46.57184" lon="0.63605">
        <ele>70.4</ele>
        <time>2020-06-28T08:36:17Z</time>
      </trkpt>
      <trkpt lat="46.57188" lon="0.63592">
        <ele>70.5</ele>
        <time>2020-06-28T08:36:19Z</time>
      </trkpt>
      <trkpt lat="46.57193" lon="0.63578">
        <ele>70.4</ele>
        <time>2020-06-28T08:36:21Z</time>
      </trkpt>
      <trkpt lat="46.57199" lon="0.63564">
        <ele>70.4</ele>
        <time>2020-06-28T08:36:23Z</time>
      </trkpt>
      <trkpt lat="46.57205" lon="0.6355">
        <ele>70.4</ele>
        <time>2020-06-28T08:36:25Z</time>
      </trkpt>
      <trkpt lat="46.57211" lon="0.63538">
        <ele>70.4</ele>
        <time>2020-06-28T08:36:27Z</time>
      </trkpt>
      <trkpt lat="46.57217" lon="0.63525">
        <ele>70.4</ele>
        <time>2020-06-28T08:36:29Z</time>
      </trkpt>
      <trkpt lat="46.57222" lon="0.63511">
        <ele>70.4</ele>
        <time>2020-06-28T08:36:31Z</time>
      </trkpt>
      <trkpt lat="46.57228" lon="0.63496">
        <ele>70.4</ele>
        <time>2020-06-28T08:36:33Z</time>
      </trkpt>
      <trkpt lat="46.57232" lon="0.63483">
        <ele>70.4</ele>
        <time>2020-06-28T08:36:35Z</time>
      </trkpt>
      <trkpt lat="46.57237" lon="0.63466">
        <ele>70.5</ele>
        <time>2020-06-28T08:36:37Z</time>
      </trkpt>
      <trkpt lat="46.57241" lon="0.63451">
        <ele>70.5</ele>
        <time>2020-06-28T08:36:39Z</time>
      </trkpt>
      <trkpt lat="46.57246" lon="0.63435">
        <ele>70.6</ele>
        <time>2020-06-28T08:36:41Z</time>
      </trkpt>
      <trkpt lat="46.5725" lon="0.63423">
        <ele>70.6</ele>
        <time>2020-06-28T08:36:43Z</time>
      </trkpt>
      <trkpt lat="46.57253" lon="0.63408">
        <ele>70.6</ele>
        <time>2020-06-28T08:36:45Z</time>
      </trkpt>
      <trkpt lat="46.57255" lon="0.63391">
        <ele>70.6</ele>
        <time>2020-06-28T08:36:47Z</time>
      </trkpt>
      <trkpt lat="46.57259" lon="0.63375">
        <ele>70.6</ele>
        <time>2020-06-28T08:36:49Z</time>
      </trkpt>
      <trkpt lat="46.57264" lon="0.63359">
        <ele>70.6</ele>
        <time>2020-06-28T08:36:51Z</time>
      </trkpt>
      <trkpt lat="46.57267" lon="0.63343">
        <ele>70.6</ele>
        <time>2020-06-28T08:36:53Z</time>
      </trkpt>
      <trkpt lat="46.57271" lon="0.63326">
        <ele>70.6</ele>
        <time>2020-06-28T08:36:55Z</time>
      </trkpt>
      <trkpt lat="46.57274" lon="0.63311">
        <ele>70.6</ele>
        <time>2020-06-28T08:36:57Z</time>
      </trkpt>
      <trkpt lat="46.57276" lon="0.63295">
        <ele>70.6</ele>
        <time>2020-06-28T08:36:59Z</time>
      </trkpt>
      <trkpt lat="46.57279" lon="0.63279">
        <ele>70.5</ele>
        <time>2020-06-28T08:37:01Z</time>
      </trkpt>
      <trkpt lat="46.57282" lon="0.63266">
        <ele>70.5</ele>
        <time>2020-06-28T08:37:03Z</time>
      </trkpt>
      <trkpt lat="46.57285" lon="0.63249">
        <ele>70.4</ele>
        <time>2020-06-28T08:37:05Z</time>
      </trkpt>
      <trkpt lat="46.57287" lon="0.63234">
        <ele>70.4</ele>
        <time>2020-06-28T08:37:07Z</time>
      </trkpt>
      <trkpt lat="46.5729" lon="0.63216">
        <ele>70.3</ele>
        <time>2020-06-28T08:37:09Z</time>
      </trkpt>
      <trkpt lat="46.57294" lon="0.63201">
        <ele>70.1</ele>
        <time>2020-06-28T08:37:11Z</time>
      </trkpt>
      <trkpt lat="46.57298" lon="0.63186">
        <ele>70</ele>
        <time>2020-06-28T08:37:13Z</time>
      </trkpt>
      <trkpt lat="46.57303" lon="0.63169">
        <ele>69.9</ele>
        <time>2020-06-28T08:37:15Z</time>
      </trkpt>
      <trkpt lat="46.57309" lon="0.63153">
        <ele>69.6</ele>
        <time>2020-06-28T08:37:17Z</time>
      </trkpt>
      <trkpt lat="46.57313" lon="0.63138">
        <ele>69.4</ele>
        <time>2020-06-28T08:37:19Z</time>
      </trkpt>
      <trkpt lat="46.57318" lon="0.63123">
        <ele>69.2</ele>
        <time>2020-06-28T08:37:21Z</time>
      </trkpt>
      <trkpt lat="46.57324" lon="0.63107">
        <ele>69</ele>
        <time>2020-06-28T08:37:23Z</time>
      </trkpt>
      <trkpt lat="46.5733" lon="0.63092">
        <ele>68.8</ele>
        <time>2020-06-28T08:37:25Z</time>
      </trkpt>
      <trkpt lat="46.57335" lon="0.63078">
        <ele>68.6</ele>
        <time>2020-06-28T08:37:27Z</time>
      </trkpt>
      <trkpt lat="46.57341" lon="0.63061">
        <ele>68.3</ele>
        <time>2020-06-28T08:37:29Z</time>
      </trkpt>
      <trkpt lat="46.57346" lon="0.63046">
        <ele>68</ele>
        <time>2020-06-28T08:37:31Z</time>
      </trkpt>
      <trkpt lat="46.57353" lon="0.63026">
        <ele>67.6</ele>
        <time>2020-06-28T08:37:33Z</time>
      </trkpt>
      <trkpt lat="46.57357" lon="0.63012">
        <ele>67.4</ele>
        <time>2020-06-28T08:37:35Z</time>
      </trkpt>
      <trkpt lat="46.57361" lon="0.62996">
        <ele>67.1</ele>
        <time>2020-06-28T08:37:37Z</time>
      </trkpt>
      <trkpt lat="46.57364" lon="0.62979">
        <ele>66.9</ele>
        <time>2020-06-28T08:37:39Z</time>
      </trkpt>
      <trkpt lat="46.57367" lon="0.62961">
        <ele>66.9</ele>
        <time>2020-06-28T08:37:41Z</time>
      </trkpt>
      <trkpt lat="46.57369" lon="0.62942">
        <ele>67</ele>
        <time>2020-06-28T08:37:43Z</time>
      </trkpt>
      <trkpt lat="46.57371" lon="0.62924">
        <ele>67.1</ele>
        <time>2020-06-28T08:37:45Z</time>
      </trkpt>
      <trkpt lat="46.57372" lon="0.62906">
        <ele>67.3</ele>
        <time>2020-06-28T08:37:47Z</time>
      </trkpt>
      <trkpt lat="46.57373" lon="0.62889">
        <ele>67.7</ele>
        <time>2020-06-28T08:37:49Z</time>
      </trkpt>
      <trkpt lat="46.57375" lon="0.62874">
        <ele>68.1</ele>
        <time>2020-06-28T08:37:51Z</time>
      </trkpt>
      <trkpt lat="46.57376" lon="0.62861">
        <ele>68.6</ele>
        <time>2020-06-28T08:37:53Z</time>
      </trkpt>
      <trkpt lat="46.57377" lon="0.62848">
        <ele>69</ele>
        <time>2020-06-28T08:37:55Z</time>
      </trkpt>
      <trkpt lat="46.57373" lon="0.62836">
        <ele>69.5</ele>
        <time>2020-06-28T08:37:57Z</time>
      </trkpt>
      <trkpt lat="46.57362" lon="0.62824">
        <ele>70.2</ele>
        <time>2020-06-28T08:38:00Z</time>
      </trkpt>
      <trkpt lat="46.57353" lon="0.6282">
        <ele>70.7</ele>
        <time>2020-06-28T08:38:02Z</time>
      </trkpt>
      <trkpt lat="46.57345" lon="0.62809">
        <ele>71.4</ele>
        <time>2020-06-28T08:38:05Z</time>
      </trkpt>
      <trkpt lat="46.57348" lon="0.62793">
        <ele>72.1</ele>
        <time>2020-06-28T08:38:07Z</time>
      </trkpt>
      <trkpt lat="46.57352" lon="0.62781">
        <ele>72.7</ele>
        <time>2020-06-28T08:38:09Z</time>
      </trkpt>
      <trkpt lat="46.57358" lon="0.6277">
        <ele>73.2</ele>
        <time>2020-06-28T08:38:11Z</time>
      </trkpt>
      <trkpt lat="46.57364" lon="0.62758">
        <ele>73.8</ele>
        <time>2020-06-28T08:38:13Z</time>
      </trkpt>
      <trkpt lat="46.57369" lon="0.62747">
        <ele>74.3</ele>
        <time>2020-06-28T08:38:15Z</time>
      </trkpt>
      <trkpt lat="46.57375" lon="0.62736">
        <ele>74.8</ele>
        <time>2020-06-28T08:38:17Z</time>
      </trkpt>
      <trkpt lat="46.57381" lon="0.62725">
        <ele>75.3</ele>
        <time>2020-06-28T08:38:19Z</time>
      </trkpt>
      <trkpt lat="46.57386" lon="0.62714">
        <ele>75.8</ele>
        <time>2020-06-28T08:38:21Z</time>
      </trkpt>
      <trkpt lat="46.57391" lon="0.62702">
        <ele>76.3</ele>
        <time>2020-06-28T08:38:23Z</time>
      </trkpt>
      <trkpt lat="46.57397" lon="0.62689">
        <ele>76.7</ele>
        <time>2020-06-28T08:38:25Z</time>
      </trkpt>
      <trkpt lat="46.57402" lon="0.62679">
        <ele>77.1</ele>
        <time>2020-06-28T08:38:27Z</time>
      </trkpt>
      <trkpt lat="46.57408" lon="0.62664">
        <ele>77.7</ele>
        <time>2020-06-28T08:38:30Z</time>
      </trkpt>
      <trkpt lat="46.57414" lon="0.62652">
        <ele>78.1</ele>
        <time>2020-06-28T08:38:32Z</time>
      </trkpt>
      <trkpt lat="46.57418" lon="0.62641">
        <ele>78.6</ele>
        <time>2020-06-28T08:38:34Z</time>
      </trkpt>
      <trkpt lat="46.57424" lon="0.62625">
        <ele>79.3</ele>
        <time>2020-06-28T08:38:37Z</time>
      </trkpt>
      <trkpt lat="46.57428" lon="0.62609">
        <ele>79.9</ele>
        <time>2020-06-28T08:38:40Z</time>
      </trkpt>
      <trkpt lat="46.57432" lon="0.62597">
        <ele>80.4</ele>
        <time>2020-06-28T08:38:42Z</time>
      </trkpt>
      <trkpt lat="46.57435" lon="0.62584">
        <ele>81</ele>
        <time>2020-06-28T08:38:44Z</time>
      </trkpt>
      <trkpt lat="46.57441" lon="0.6257">
        <ele>81.6</ele>
        <time>2020-06-28T08:38:46Z</time>
      </trkpt>
      <trkpt lat="46.5745" lon="0.62556">
        <ele>82.3</ele>
        <time>2020-06-28T08:38:49Z</time>
      </trkpt>
      <trkpt lat="46.57453" lon="0.62542">
        <ele>82.9</ele>
        <time>2020-06-28T08:38:51Z</time>
      </trkpt>
      <trkpt lat="46.57459" lon="0.6253">
        <ele>83.8</ele>
        <time>2020-06-28T08:38:53Z</time>
      </trkpt>
      <trkpt lat="46.57464" lon="0.62517">
        <ele>84.6</ele>
        <time>2020-06-28T08:38:56Z</time>
      </trkpt>
      <trkpt lat="46.57469" lon="0.62505">
        <ele>85.2</ele>
        <time>2020-06-28T08:38:58Z</time>
      </trkpt>
      <trkpt lat="46.57473" lon="0.62489">
        <ele>86</ele>
        <time>2020-06-28T08:39:02Z</time>
      </trkpt>
      <trkpt lat="46.57477" lon="0.62476">
        <ele>86.7</ele>
        <time>2020-06-28T08:39:05Z</time>
      </trkpt>
      <trkpt lat="46.57478" lon="0.62461">
        <ele>87.4</ele>
        <time>2020-06-28T08:39:08Z</time>
      </trkpt>
      <trkpt lat="46.57481" lon="0.62446">
        <ele>88.1</ele>
        <time>2020-06-28T08:39:11Z</time>
      </trkpt>
      <trkpt lat="46.57482" lon="0.62431">
        <ele>88.7</ele>
        <time>2020-06-28T08:39:14Z</time>
      </trkpt>
      <trkpt lat="46.57482" lon="0.62418">
        <ele>89.3</ele>
        <time>2020-06-28T08:39:17Z</time>
      </trkpt>
      <trkpt lat="46.57483" lon="0.62402">
        <ele>89.9</ele>
        <time>2020-06-28T08:39:20Z</time>
      </trkpt>
      <trkpt lat="46.57486" lon="0.62388">
        <ele>90.2</ele>
        <time>2020-06-28T08:39:23Z</time>
      </trkpt>
      <trkpt lat="46.57492" lon="0.62369">
        <ele>90.6</ele>
        <time>2020-06-28T08:39:26Z</time>
      </trkpt>
      <trkpt lat="46.57497" lon="0.62349">
        <ele>90.7</ele>
        <time>2020-06-28T08:39:29Z</time>
      </trkpt>
      <trkpt lat="46.57501" lon="0.62336">
        <ele>90.8</ele>
        <time>2020-06-28T08:39:31Z</time>
      </trkpt>
      <trkpt lat="46.57504" lon="0.6232">
        <ele>90.9</ele>
        <time>2020-06-28T08:39:33Z</time>
      </trkpt>
      <trkpt lat="46.57509" lon="0.62304">
        <ele>91</ele>
        <time>2020-06-28T08:39:35Z</time>
      </trkpt>
      <trkpt lat="46.57513" lon="0.62288">
        <ele>91.1</ele>
        <time>2020-06-28T08:39:37Z</time>
      </trkpt>
      <trkpt lat="46.57519" lon="0.62272">
        <ele>91.2</ele>
        <time>2020-06-28T08:39:39Z</time>
      </trkpt>
      <trkpt lat="46.57522" lon="0.62259">
        <ele>91.4</ele>
        <time>2020-06-28T08:39:41Z</time>
      </trkpt>
      <trkpt lat="46.57528" lon="0.62246">
        <ele>91.5</ele>
        <time>2020-06-28T08:39:43Z</time>
      </trkpt>
      <trkpt lat="46.57529" lon="0.62226">
        <ele>91.7</ele>
        <time>2020-06-28T08:39:46Z</time>
      </trkpt>
      <trkpt lat="46.57537" lon="0.6221">
        <ele>91.8</ele>
        <time>2020-06-28T08:39:48Z</time>
      </trkpt>
      <trkpt lat="46.57539" lon="0.62193">
        <ele>91.9</ele>
        <time>2020-06-28T08:39:50Z</time>
      </trkpt>
      <trkpt lat="46.57543" lon="0.62176">
        <ele>92.1</ele>
        <time>2020-06-28T08:39:52Z</time>
      </trkpt>
      <trkpt lat="46.57545" lon="0.62162">
        <ele>92.3</ele>
        <time>2020-06-28T08:39:54Z</time>
      </trkpt>
      <trkpt lat="46.57551" lon="0.62147">
        <ele>92.6</ele>
        <time>2020-06-28T08:39:56Z</time>
      </trkpt>
      <trkpt lat="46.57554" lon="0.62131">
        <ele>92.9</ele>
        <time>2020-06-28T08:39:58Z</time>
      </trkpt>
      <trkpt lat="46.57556" lon="0.62116">
        <ele>93.3</ele>
        <time>2020-06-28T08:40:00Z</time>
      </trkpt>
      <trkpt lat="46.57558" lon="0.621">
        <ele>93.7</ele>
        <time>2020-06-28T08:40:02Z</time>
      </trkpt>
      <trkpt lat="46.57557" lon="0.62084">
        <ele>94.1</ele>
        <time>2020-06-28T08:40:04Z</time>
      </trkpt>
      <trkpt lat="46.57557" lon="0.62068">
        <ele>94.5</ele>
        <time>2020-06-28T08:40:06Z</time>
      </trkpt>
      <trkpt lat="46.57556" lon="0.62052">
        <ele>94.9</ele>
        <time>2020-06-28T08:40:08Z</time>
      </trkpt>
      <trkpt lat="46.57555" lon="0.62036">
        <ele>95.2</ele>
        <time>2020-06-28T08:40:10Z</time>
      </trkpt>
      <trkpt lat="46.57555" lon="0.62021">
        <ele>95.6</ele>
        <time>2020-06-28T08:40:12Z</time>
      </trkpt>
      <trkpt lat="46.57554" lon="0.62006">
        <ele>95.8</ele>
        <time>2020-06-28T08:40:14Z</time>
      </trkpt>
      <trkpt lat="46.57552" lon="0.61992">
        <ele>96.1</ele>
        <time>2020-06-28T08:40:16Z</time>
      </trkpt>
      <trkpt lat="46.5755" lon="0.61977">
        <ele>96.4</ele>
        <time>2020-06-28T08:40:18Z</time>
      </trkpt>
      <trkpt lat="46.57548" lon="0.61962">
        <ele>96.7</ele>
        <time>2020-06-28T08:40:20Z</time>
      </trkpt>
      <trkpt lat="46.57547" lon="0.61948">
        <ele>97</ele>
        <time>2020-06-28T08:40:22Z</time>
      </trkpt>
      <trkpt lat="46.57547" lon="0.61933">
        <ele>97.3</ele>
        <time>2020-06-28T08:40:24Z</time>
      </trkpt>
      <trkpt lat="46.57547" lon="0.61919">
        <ele>97.5</ele>
        <time>2020-06-28T08:40:26Z</time>
      </trkpt>
      <trkpt lat="46.57548" lon="0.61905">
        <ele>97.8</ele>
        <time>2020-06-28T08:40:28Z</time>
      </trkpt>
      <trkpt lat="46.57549" lon="0.61888">
        <ele>98</ele>
        <time>2020-06-28T08:40:31Z</time>
      </trkpt>
      <trkpt lat="46.5755" lon="0.61875">
        <ele>98.1</ele>
        <time>2020-06-28T08:40:33Z</time>
      </trkpt>
      <trkpt lat="46.57554" lon="0.61858">
        <ele>98.4</ele>
        <time>2020-06-28T08:40:35Z</time>
      </trkpt>
      <trkpt lat="46.57558" lon="0.61843">
        <ele>98.5</ele>
        <time>2020-06-28T08:40:37Z</time>
      </trkpt>
      <trkpt lat="46.57562" lon="0.6183">
        <ele>98.7</ele>
        <time>2020-06-28T08:40:39Z</time>
      </trkpt>
      <trkpt lat="46.57568" lon="0.61816">
        <ele>98.9</ele>
        <time>2020-06-28T08:40:41Z</time>
      </trkpt>
      <trkpt lat="46.57573" lon="0.61804">
        <ele>99</ele>
        <time>2020-06-28T08:40:43Z</time>
      </trkpt>
      <trkpt lat="46.57581" lon="0.61792">
        <ele>99.1</ele>
        <time>2020-06-28T08:40:45Z</time>
      </trkpt>
      <trkpt lat="46.57589" lon="0.61778">
        <ele>99</ele>
        <time>2020-06-28T08:40:47Z</time>
      </trkpt>
      <trkpt lat="46.57598" lon="0.61765">
        <ele>98.8</ele>
        <time>2020-06-28T08:40:49Z</time>
      </trkpt>
      <trkpt lat="46.57608" lon="0.61754">
        <ele>98.5</ele>
        <time>2020-06-28T08:40:51Z</time>
      </trkpt>
      <trkpt lat="46.57618" lon="0.61747">
        <ele>98.2</ele>
        <time>2020-06-28T08:40:53Z</time>
      </trkpt>
      <trkpt lat="46.57628" lon="0.61738">
        <ele>98</ele>
        <time>2020-06-28T08:40:55Z</time>
      </trkpt>
      <trkpt lat="46.57638" lon="0.6173">
        <ele>97.7</ele>
        <time>2020-06-28T08:40:57Z</time>
      </trkpt>
      <trkpt lat="46.57649" lon="0.6172">
        <ele>97.2</ele>
        <time>2020-06-28T08:40:59Z</time>
      </trkpt>
      <trkpt lat="46.5766" lon="0.61709">
        <ele>96.7</ele>
        <time>2020-06-28T08:41:01Z</time>
      </trkpt>
      <trkpt lat="46.5767" lon="0.61695">
        <ele>96</ele>
        <time>2020-06-28T08:41:03Z</time>
      </trkpt>
      <trkpt lat="46.57679" lon="0.61678">
        <ele>95.3</ele>
        <time>2020-06-28T08:41:05Z</time>
      </trkpt>
      <trkpt lat="46.57685" lon="0.61658">
        <ele>94.8</ele>
        <time>2020-06-28T08:41:07Z</time>
      </trkpt>
      <trkpt lat="46.57691" lon="0.6164">
        <ele>94.7</ele>
        <time>2020-06-28T08:41:09Z</time>
      </trkpt>
      <trkpt lat="46.57694" lon="0.61624">
        <ele>94.8</ele>
        <time>2020-06-28T08:41:11Z</time>
      </trkpt>
      <trkpt lat="46.57699" lon="0.61609">
        <ele>95.2</ele>
        <time>2020-06-28T08:41:13Z</time>
      </trkpt>
      <trkpt lat="46.57704" lon="0.61596">
        <ele>95.7</ele>
        <time>2020-06-28T08:41:15Z</time>
      </trkpt>
      <trkpt lat="46.57711" lon="0.61585">
        <ele>96.4</ele>
        <time>2020-06-28T08:41:17Z</time>
      </trkpt>
      <trkpt lat="46.57716" lon="0.61574">
        <ele>97.1</ele>
        <time>2020-06-28T08:41:19Z</time>
      </trkpt>
      <trkpt lat="46.57723" lon="0.61562">
        <ele>97.9</ele>
        <time>2020-06-28T08:41:21Z</time>
      </trkpt>
      <trkpt lat="46.5773" lon="0.61552">
        <ele>98.5</ele>
        <time>2020-06-28T08:41:23Z</time>
      </trkpt>
      <trkpt lat="46.57737" lon="0.61542">
        <ele>99.1</ele>
        <time>2020-06-28T08:41:25Z</time>
      </trkpt>
      <trkpt lat="46.57745" lon="0.61531">
        <ele>99.7</ele>
        <time>2020-06-28T08:41:27Z</time>
      </trkpt>
      <trkpt lat="46.57753" lon="0.61519">
        <ele>100.2</ele>
        <time>2020-06-28T08:41:29Z</time>
      </trkpt>
      <trkpt lat="46.57761" lon="0.61507">
        <ele>100.5</ele>
        <time>2020-06-28T08:41:31Z</time>
      </trkpt>
      <trkpt lat="46.57766" lon="0.61492">
        <ele>100.9</ele>
        <time>2020-06-28T08:41:33Z</time>
      </trkpt>
      <trkpt lat="46.57767" lon="0.61474">
        <ele>101.2</ele>
        <time>2020-06-28T08:41:35Z</time>
      </trkpt>
      <trkpt lat="46.57767" lon="0.61456">
        <ele>101.4</ele>
        <time>2020-06-28T08:41:37Z</time>
      </trkpt>
      <trkpt lat="46.57768" lon="0.6144">
        <ele>101.7</ele>
        <time>2020-06-28T08:41:39Z</time>
      </trkpt>
      <trkpt lat="46.57769" lon="0.61425">
        <ele>101.8</ele>
        <time>2020-06-28T08:41:41Z</time>
      </trkpt>
      <trkpt lat="46.57773" lon="0.61412">
        <ele>101.9</ele>
        <time>2020-06-28T08:41:43Z</time>
      </trkpt>
      <trkpt lat="46.57782" lon="0.61405">
        <ele>102</ele>
        <time>2020-06-28T08:41:45Z</time>
      </trkpt>
      <trkpt lat="46.57792" lon="0.61399">
        <ele>102.1</ele>
        <time>2020-06-28T08:41:47Z</time>
      </trkpt>
      <trkpt lat="46.57803" lon="0.61392">
        <ele>102.2</ele>
        <time>2020-06-28T08:41:49Z</time>
      </trkpt>
      <trkpt lat="46.57805" lon="0.61377">
        <ele>102.5</ele>
        <time>2020-06-28T08:41:51Z</time>
      </trkpt>
      <trkpt lat="46.578" lon="0.61363">
        <ele>102.8</ele>
        <time>2020-06-28T08:41:53Z</time>
      </trkpt>
      <trkpt lat="46.57794" lon="0.61348">
        <ele>103.1</ele>
        <time>2020-06-28T08:41:55Z</time>
      </trkpt>
      <trkpt lat="46.57788" lon="0.61335">
        <ele>103.3</ele>
        <time>2020-06-28T08:41:57Z</time>
      </trkpt>
      <trkpt lat="46.57781" lon="0.6132">
        <ele>103.7</ele>
        <time>2020-06-28T08:41:59Z</time>
      </trkpt>
      <trkpt lat="46.57775" lon="0.61307">
        <ele>104</ele>
        <time>2020-06-28T08:42:01Z</time>
      </trkpt>
      <trkpt lat="46.57768" lon="0.61293">
        <ele>104</ele>
        <time>2020-06-28T08:42:03Z</time>
      </trkpt>
      <trkpt lat="46.57762" lon="0.6128">
        <ele>104.2</ele>
        <time>2020-06-28T08:42:05Z</time>
      </trkpt>
      <trkpt lat="46.57757" lon="0.61267">
        <ele>104.2</ele>
        <time>2020-06-28T08:42:07Z</time>
      </trkpt>
      <trkpt lat="46.57757" lon="0.61251">
        <ele>104.2</ele>
        <time>2020-06-28T08:42:09Z</time>
      </trkpt>
      <trkpt lat="46.57761" lon="0.61235">
        <ele>104.4</ele>
        <time>2020-06-28T08:42:11Z</time>
      </trkpt>
      <trkpt lat="46.57766" lon="0.61222">
        <ele>104.9</ele>
        <time>2020-06-28T08:42:13Z</time>
      </trkpt>
      <trkpt lat="46.5777" lon="0.61209">
        <ele>105.2</ele>
        <time>2020-06-28T08:42:15Z</time>
      </trkpt>
      <trkpt lat="46.57775" lon="0.61195">
        <ele>105.9</ele>
        <time>2020-06-28T08:42:17Z</time>
      </trkpt>
      <trkpt lat="46.5778" lon="0.61183">
        <ele>106.4</ele>
        <time>2020-06-28T08:42:19Z</time>
      </trkpt>
      <trkpt lat="46.57785" lon="0.61171">
        <ele>107</ele>
        <time>2020-06-28T08:42:21Z</time>
      </trkpt>
      <trkpt lat="46.57789" lon="0.61159">
        <ele>107.4</ele>
        <time>2020-06-28T08:42:23Z</time>
      </trkpt>
      <trkpt lat="46.57794" lon="0.61145">
        <ele>107.9</ele>
        <time>2020-06-28T08:42:25Z</time>
      </trkpt>
      <trkpt lat="46.578" lon="0.61131">
        <ele>108.2</ele>
        <time>2020-06-28T08:42:27Z</time>
      </trkpt>
      <trkpt lat="46.57805" lon="0.6112">
        <ele>108.5</ele>
        <time>2020-06-28T08:42:29Z</time>
      </trkpt>
      <trkpt lat="46.57811" lon="0.61109">
        <ele>109.1</ele>
        <time>2020-06-28T08:42:31Z</time>
      </trkpt>
      <trkpt lat="46.57818" lon="0.61094">
        <ele>109.3</ele>
        <time>2020-06-28T08:42:34Z</time>
      </trkpt>
      <trkpt lat="46.57827" lon="0.61087">
        <ele>109.5</ele>
        <time>2020-06-28T08:42:36Z</time>
      </trkpt>
      <trkpt lat="46.57835" lon="0.61078">
        <ele>109.7</ele>
        <time>2020-06-28T08:42:38Z</time>
      </trkpt>
      <trkpt lat="46.57841" lon="0.61068">
        <ele>109.6</ele>
        <time>2020-06-28T08:42:40Z</time>
      </trkpt>
      <trkpt lat="46.57851" lon="0.61061">
        <ele>109.4</ele>
        <time>2020-06-28T08:42:42Z</time>
      </trkpt>
      <trkpt lat="46.5786" lon="0.61056">
        <ele>109.2</ele>
        <time>2020-06-28T08:42:44Z</time>
      </trkpt>
      <trkpt lat="46.57871" lon="0.61048">
        <ele>108.9</ele>
        <time>2020-06-28T08:42:47Z</time>
      </trkpt>
      <trkpt lat="46.5787" lon="0.61034">
        <ele>109.1</ele>
        <time>2020-06-28T08:42:49Z</time>
      </trkpt>
      <trkpt lat="46.57869" lon="0.61021">
        <ele>109.2</ele>
        <time>2020-06-28T08:42:51Z</time>
      </trkpt>
      <trkpt lat="46.5787" lon="0.61003">
        <ele>109.5</ele>
        <time>2020-06-28T08:42:53Z</time>
      </trkpt>
      <trkpt lat="46.57872" lon="0.60987">
        <ele>109.8</ele>
        <time>2020-06-28T08:42:55Z</time>
      </trkpt>
      <trkpt lat="46.57869" lon="0.60975">
        <ele>110</ele>
        <time>2020-06-28T08:42:57Z</time>
      </trkpt>
      <trkpt lat="46.57865" lon="0.60958">
        <ele>110.2</ele>
        <time>2020-06-28T08:42:59Z</time>
      </trkpt>
      <trkpt lat="46.57861" lon="0.60944">
        <ele>110.3</ele>
        <time>2020-06-28T08:43:01Z</time>
      </trkpt>
      <trkpt lat="46.57857" lon="0.6093">
        <ele>110.3</ele>
        <time>2020-06-28T08:43:03Z</time>
      </trkpt>
      <trkpt lat="46.57851" lon="0.60914">
        <ele>110.4</ele>
        <time>2020-06-28T08:43:05Z</time>
      </trkpt>
      <trkpt lat="46.57847" lon="0.60903">
        <ele>110.4</ele>
        <time>2020-06-28T08:43:07Z</time>
      </trkpt>
      <trkpt lat="46.57841" lon="0.60889">
        <ele>110.5</ele>
        <time>2020-06-28T08:43:09Z</time>
      </trkpt>
      <trkpt lat="46.57836" lon="0.60875">
        <ele>110.5</ele>
        <time>2020-06-28T08:43:11Z</time>
      </trkpt>
      <trkpt lat="46.5783" lon="0.60861">
        <ele>110.5</ele>
        <time>2020-06-28T08:43:13Z</time>
      </trkpt>
      <trkpt lat="46.57825" lon="0.60847">
        <ele>110.5</ele>
        <time>2020-06-28T08:43:15Z</time>
      </trkpt>
      <trkpt lat="46.57819" lon="0.60833">
        <ele>110.4</ele>
        <time>2020-06-28T08:43:17Z</time>
      </trkpt>
      <trkpt lat="46.57818" lon="0.60816">
        <ele>110.4</ele>
        <time>2020-06-28T08:43:19Z</time>
      </trkpt>
      <trkpt lat="46.57826" lon="0.608">
        <ele>110.5</ele>
        <time>2020-06-28T08:43:21Z</time>
      </trkpt>
      <trkpt lat="46.57831" lon="0.60789">
        <ele>110.5</ele>
        <time>2020-06-28T08:43:23Z</time>
      </trkpt>
      <trkpt lat="46.57839" lon="0.60777">
        <ele>110.5</ele>
        <time>2020-06-28T08:43:25Z</time>
      </trkpt>
      <trkpt lat="46.57846" lon="0.60766">
        <ele>110.5</ele>
        <time>2020-06-28T08:43:27Z</time>
      </trkpt>
      <trkpt lat="46.57853" lon="0.60756">
        <ele>110.5</ele>
        <time>2020-06-28T08:43:29Z</time>
      </trkpt>
      <trkpt lat="46.5786" lon="0.60743">
        <ele>110.6</ele>
        <time>2020-06-28T08:43:31Z</time>
      </trkpt>
      <trkpt lat="46.57867" lon="0.60731">
        <ele>110.6</ele>
        <time>2020-06-28T08:43:33Z</time>
      </trkpt>
      <trkpt lat="46.57874" lon="0.6072">
        <ele>110.6</ele>
        <time>2020-06-28T08:43:35Z</time>
      </trkpt>
      <trkpt lat="46.57881" lon="0.60708">
        <ele>110.7</ele>
        <time>2020-06-28T08:43:37Z</time>
      </trkpt>
      <trkpt lat="46.57887" lon="0.60697">
        <ele>110.7</ele>
        <time>2020-06-28T08:43:39Z</time>
      </trkpt>
      <trkpt lat="46.57895" lon="0.60684">
        <ele>110.7</ele>
        <time>2020-06-28T08:43:41Z</time>
      </trkpt>
      <trkpt lat="46.57902" lon="0.6067">
        <ele>110.7</ele>
        <time>2020-06-28T08:43:43Z</time>
      </trkpt>
      <trkpt lat="46.57908" lon="0.60659">
        <ele>110.8</ele>
        <time>2020-06-28T08:43:45Z</time>
      </trkpt>
      <trkpt lat="46.57917" lon="0.60643">
        <ele>110.8</ele>
        <time>2020-06-28T08:43:48Z</time>
      </trkpt>
      <trkpt lat="46.57924" lon="0.6063">
        <ele>110.8</ele>
        <time>2020-06-28T08:43:50Z</time>
      </trkpt>
      <trkpt lat="46.57931" lon="0.60618">
        <ele>110.9</ele>
        <time>2020-06-28T08:43:52Z</time>
      </trkpt>
      <trkpt lat="46.57938" lon="0.60608">
        <ele>110.9</ele>
        <time>2020-06-28T08:43:54Z</time>
      </trkpt>
      <trkpt lat="46.57945" lon="0.60597">
        <ele>110.9</ele>
        <time>2020-06-28T08:43:56Z</time>
      </trkpt>
      <trkpt lat="46.57952" lon="0.60587">
        <ele>110.9</ele>
        <time>2020-06-28T08:43:58Z</time>
      </trkpt>
      <trkpt lat="46.57959" lon="0.60577">
        <ele>111</ele>
        <time>2020-06-28T08:44:00Z</time>
      </trkpt>
      <trkpt lat="46.57969" lon="0.60562">
        <ele>111</ele>
        <time>2020-06-28T08:44:03Z</time>
      </trkpt>
      <trkpt lat="46.57976" lon="0.60552">
        <ele>111</ele>
        <time>2020-06-28T08:44:05Z</time>
      </trkpt>
      <trkpt lat="46.57985" lon="0.6054">
        <ele>111</ele>
        <time>2020-06-28T08:44:07Z</time>
      </trkpt>
      <trkpt lat="46.57992" lon="0.60531">
        <ele>111.1</ele>
        <time>2020-06-28T08:44:09Z</time>
      </trkpt>
      <trkpt lat="46.58" lon="0.60521">
        <ele>111.1</ele>
        <time>2020-06-28T08:44:11Z</time>
      </trkpt>
      <trkpt lat="46.58007" lon="0.60511">
        <ele>111.1</ele>
        <time>2020-06-28T08:44:13Z</time>
      </trkpt>
      <trkpt lat="46.58015" lon="0.60502">
        <ele>111.1</ele>
        <time>2020-06-28T08:44:15Z</time>
      </trkpt>
      <trkpt lat="46.58024" lon="0.60493">
        <ele>111.2</ele>
        <time>2020-06-28T08:44:17Z</time>
      </trkpt>
      <trkpt lat="46.58033" lon="0.60483">
        <ele>111.2</ele>
        <time>2020-06-28T08:44:19Z</time>
      </trkpt>
      <trkpt lat="46.58042" lon="0.60474">
        <ele>111.2</ele>
        <time>2020-06-28T08:44:21Z</time>
      </trkpt>
      <trkpt lat="46.58049" lon="0.60466">
        <ele>111.2</ele>
        <time>2020-06-28T08:44:23Z</time>
      </trkpt>
      <trkpt lat="46.5806" lon="0.60455">
        <ele>111.3</ele>
        <time>2020-06-28T08:44:26Z</time>
      </trkpt>
      <trkpt lat="46.58068" lon="0.60447">
        <ele>111.3</ele>
        <time>2020-06-28T08:44:28Z</time>
      </trkpt>
      <trkpt lat="46.58064" lon="0.60433">
        <ele>111.1</ele>
        <time>2020-06-28T08:44:32Z</time>
      </trkpt>
      <trkpt lat="46.58054" lon="0.60419">
        <ele>111.2</ele>
        <time>2020-06-28T08:44:35Z</time>
      </trkpt>
      <trkpt lat="46.58045" lon="0.60408">
        <ele>111.4</ele>
        <time>2020-06-28T08:44:37Z</time>
      </trkpt>
      <trkpt lat="46.58038" lon="0.60398">
        <ele>111.5</ele>
        <time>2020-06-28T08:44:39Z</time>
      </trkpt>
      <trkpt lat="46.5803" lon="0.60387">
        <ele>111.7</ele>
        <time>2020-06-28T08:44:41Z</time>
      </trkpt>
      <trkpt lat="46.58023" lon="0.60377">
        <ele>111.7</ele>
        <time>2020-06-28T08:44:43Z</time>
      </trkpt>
      <trkpt lat="46.58016" lon="0.60368">
        <ele>111.9</ele>
        <time>2020-06-28T08:44:45Z</time>
      </trkpt>
      <trkpt lat="46.58009" lon="0.60358">
        <ele>112</ele>
        <time>2020-06-28T08:44:47Z</time>
      </trkpt>
      <trkpt lat="46.58001" lon="0.60345">
        <ele>112.1</ele>
        <time>2020-06-28T08:44:49Z</time>
      </trkpt>
      <trkpt lat="46.57991" lon="0.60333">
        <ele>112.1</ele>
        <time>2020-06-28T08:44:51Z</time>
      </trkpt>
      <trkpt lat="46.57985" lon="0.60323">
        <ele>112.1</ele>
        <time>2020-06-28T08:44:53Z</time>
      </trkpt>
      <trkpt lat="46.57977" lon="0.60313">
        <ele>112.1</ele>
        <time>2020-06-28T08:44:55Z</time>
      </trkpt>
      <trkpt lat="46.57969" lon="0.60303">
        <ele>112.1</ele>
        <time>2020-06-28T08:44:57Z</time>
      </trkpt>
      <trkpt lat="46.57961" lon="0.60291">
        <ele>112.1</ele>
        <time>2020-06-28T08:44:59Z</time>
      </trkpt>
      <trkpt lat="46.57954" lon="0.60281">
        <ele>112.3</ele>
        <time>2020-06-28T08:45:01Z</time>
      </trkpt>
      <trkpt lat="46.57945" lon="0.6027">
        <ele>112.3</ele>
        <time>2020-06-28T08:45:03Z</time>
      </trkpt>
      <trkpt lat="46.57938" lon="0.60261">
        <ele>112.6</ele>
        <time>2020-06-28T08:45:05Z</time>
      </trkpt>
      <trkpt lat="46.57933" lon="0.6025">
        <ele>112.7</ele>
        <time>2020-06-28T08:45:07Z</time>
      </trkpt>
      <trkpt lat="46.57926" lon="0.60241">
        <ele>112.9</ele>
        <time>2020-06-28T08:45:09Z</time>
      </trkpt>
      <trkpt lat="46.57918" lon="0.60229">
        <ele>113.2</ele>
        <time>2020-06-28T08:45:11Z</time>
      </trkpt>
      <trkpt lat="46.57909" lon="0.60217">
        <ele>113.5</ele>
        <time>2020-06-28T08:45:14Z</time>
      </trkpt>
      <trkpt lat="46.579" lon="0.60203">
        <ele>113.8</ele>
        <time>2020-06-28T08:45:17Z</time>
      </trkpt>
      <trkpt lat="46.57893" lon="0.60194">
        <ele>114</ele>
        <time>2020-06-28T08:45:19Z</time>
      </trkpt>
      <trkpt lat="46.57884" lon="0.60182">
        <ele>114.3</ele>
        <time>2020-06-28T08:45:22Z</time>
      </trkpt>
      <trkpt lat="46.57873" lon="0.60169">
        <ele>114.7</ele>
        <time>2020-06-28T08:45:25Z</time>
      </trkpt>
      <trkpt lat="46.57865" lon="0.6016">
        <ele>115</ele>
        <time>2020-06-28T08:45:27Z</time>
      </trkpt>
      <trkpt lat="46.57856" lon="0.60145">
        <ele>115.3</ele>
        <time>2020-06-28T08:45:30Z</time>
      </trkpt>
      <trkpt lat="46.57847" lon="0.60134">
        <ele>115.7</ele>
        <time>2020-06-28T08:45:33Z</time>
      </trkpt>
      <trkpt lat="46.57841" lon="0.60123">
        <ele>115.8</ele>
        <time>2020-06-28T08:45:35Z</time>
      </trkpt>
      <trkpt lat="46.57834" lon="0.60113">
        <ele>116.1</ele>
        <time>2020-06-28T08:45:38Z</time>
      </trkpt>
      <trkpt lat="46.57834" lon="0.60095">
        <ele>116.1</ele>
        <time>2020-06-28T08:45:41Z</time>
      </trkpt>
      <trkpt lat="46.57844" lon="0.60081">
        <ele>115.6</ele>
        <time>2020-06-28T08:45:44Z</time>
      </trkpt>
      <trkpt lat="46.57851" lon="0.60065">
        <ele>115.2</ele>
        <time>2020-06-28T08:45:47Z</time>
      </trkpt>
      <trkpt lat="46.57858" lon="0.60054">
        <ele>114.9</ele>
        <time>2020-06-28T08:45:49Z</time>
      </trkpt>
      <trkpt lat="46.57865" lon="0.60042">
        <ele>114.8</ele>
        <time>2020-06-28T08:45:51Z</time>
      </trkpt>
      <trkpt lat="46.57873" lon="0.60031">
        <ele>114.8</ele>
        <time>2020-06-28T08:45:53Z</time>
      </trkpt>
      <trkpt lat="46.57881" lon="0.6002">
        <ele>115.1</ele>
        <time>2020-06-28T08:45:55Z</time>
      </trkpt>
      <trkpt lat="46.57888" lon="0.60009">
        <ele>115.4</ele>
        <time>2020-06-28T08:45:57Z</time>
      </trkpt>
      <trkpt lat="46.57895" lon="0.59998">
        <ele>116</ele>
        <time>2020-06-28T08:45:59Z</time>
      </trkpt>
      <trkpt lat="46.579" lon="0.59988">
        <ele>116.5</ele>
        <time>2020-06-28T08:46:01Z</time>
      </trkpt>
      <trkpt lat="46.57907" lon="0.59977">
        <ele>117.1</ele>
        <time>2020-06-28T08:46:03Z</time>
      </trkpt>
      <trkpt lat="46.57914" lon="0.59964">
        <ele>117.5</ele>
        <time>2020-06-28T08:46:05Z</time>
      </trkpt>
      <trkpt lat="46.57922" lon="0.59951">
        <ele>117.9</ele>
        <time>2020-06-28T08:46:07Z</time>
      </trkpt>
      <trkpt lat="46.5793" lon="0.59939">
        <ele>118.2</ele>
        <time>2020-06-28T08:46:09Z</time>
      </trkpt>
      <trkpt lat="46.57937" lon="0.59927">
        <ele>118.5</ele>
        <time>2020-06-28T08:46:11Z</time>
      </trkpt>
      <trkpt lat="46.57944" lon="0.59917">
        <ele>118.6</ele>
        <time>2020-06-28T08:46:13Z</time>
      </trkpt>
      <trkpt lat="46.57951" lon="0.59905">
        <ele>118.6</ele>
        <time>2020-06-28T08:46:15Z</time>
      </trkpt>
      <trkpt lat="46.57959" lon="0.59894">
        <ele>118.7</ele>
        <time>2020-06-28T08:46:17Z</time>
      </trkpt>
      <trkpt lat="46.57968" lon="0.59878">
        <ele>118.7</ele>
        <time>2020-06-28T08:46:20Z</time>
      </trkpt>
      <trkpt lat="46.57975" lon="0.59868">
        <ele>118.7</ele>
        <time>2020-06-28T08:46:22Z</time>
      </trkpt>
      <trkpt lat="46.57976" lon="0.59849">
        <ele>118.9</ele>
        <time>2020-06-28T08:46:25Z</time>
      </trkpt>
      <trkpt lat="46.57967" lon="0.59842">
        <ele>119.1</ele>
        <time>2020-06-28T08:46:27Z</time>
      </trkpt>
      <trkpt lat="46.57957" lon="0.59833">
        <ele>119.3</ele>
        <time>2020-06-28T08:46:30Z</time>
      </trkpt>
      <trkpt lat="46.5795" lon="0.59823">
        <ele>119.4</ele>
        <time>2020-06-28T08:46:32Z</time>
      </trkpt>
      <trkpt lat="46.57942" lon="0.59814">
        <ele>119.6</ele>
        <time>2020-06-28T08:46:34Z</time>
      </trkpt>
      <trkpt lat="46.57933" lon="0.59804">
        <ele>119.8</ele>
        <time>2020-06-28T08:46:37Z</time>
      </trkpt>
      <trkpt lat="46.57923" lon="0.59793">
        <ele>120</ele>
        <time>2020-06-28T08:46:40Z</time>
      </trkpt>
      <trkpt lat="46.57914" lon="0.59782">
        <ele>120.2</ele>
        <time>2020-06-28T08:46:43Z</time>
      </trkpt>
      <trkpt lat="46.57903" lon="0.59768">
        <ele>120.4</ele>
        <time>2020-06-28T08:46:46Z</time>
      </trkpt>
      <trkpt lat="46.57896" lon="0.5976">
        <ele>120.5</ele>
        <time>2020-06-28T08:46:48Z</time>
      </trkpt>
      <trkpt lat="46.57886" lon="0.59748">
        <ele>120.7</ele>
        <time>2020-06-28T08:46:51Z</time>
      </trkpt>
      <trkpt lat="46.57877" lon="0.59738">
        <ele>120.9</ele>
        <time>2020-06-28T08:46:54Z</time>
      </trkpt>
      <trkpt lat="46.57867" lon="0.59727">
        <ele>121.1</ele>
        <time>2020-06-28T08:46:57Z</time>
      </trkpt>
      <trkpt lat="46.5786" lon="0.59716">
        <ele>121.3</ele>
        <time>2020-06-28T08:46:59Z</time>
      </trkpt>
      <trkpt lat="46.57851" lon="0.59707">
        <ele>121.5</ele>
        <time>2020-06-28T08:47:02Z</time>
      </trkpt>
      <trkpt lat="46.57842" lon="0.59696">
        <ele>121.6</ele>
        <time>2020-06-28T08:47:05Z</time>
      </trkpt>
      <trkpt lat="46.57833" lon="0.59686">
        <ele>121.8</ele>
        <time>2020-06-28T08:47:08Z</time>
      </trkpt>
      <trkpt lat="46.57825" lon="0.59676">
        <ele>122</ele>
        <time>2020-06-28T08:47:11Z</time>
      </trkpt>
      <trkpt lat="46.57818" lon="0.59667">
        <ele>122.1</ele>
        <time>2020-06-28T08:47:13Z</time>
      </trkpt>
      <trkpt lat="46.57807" lon="0.59655">
        <ele>122.3</ele>
        <time>2020-06-28T08:47:16Z</time>
      </trkpt>
      <trkpt lat="46.578" lon="0.59645">
        <ele>122.5</ele>
        <time>2020-06-28T08:47:18Z</time>
      </trkpt>
      <trkpt lat="46.57793" lon="0.59634">
        <ele>122.7</ele>
        <time>2020-06-28T08:47:21Z</time>
      </trkpt>
      <trkpt lat="46.57783" lon="0.59625">
        <ele>122.9</ele>
        <time>2020-06-28T08:47:24Z</time>
      </trkpt>
      <trkpt lat="46.57775" lon="0.59614">
        <ele>123</ele>
        <time>2020-06-28T08:47:26Z</time>
      </trkpt>
      <trkpt lat="46.57766" lon="0.59602">
        <ele>123.2</ele>
        <time>2020-06-28T08:47:28Z</time>
      </trkpt>
      <trkpt lat="46.57757" lon="0.59589">
        <ele>123.4</ele>
        <time>2020-06-28T08:47:31Z</time>
      </trkpt>
      <trkpt lat="46.57748" lon="0.59581">
        <ele>123.6</ele>
        <time>2020-06-28T08:47:33Z</time>
      </trkpt>
      <trkpt lat="46.5774" lon="0.59573">
        <ele>123.7</ele>
        <time>2020-06-28T08:47:35Z</time>
      </trkpt>
      <trkpt lat="46.57732" lon="0.59565">
        <ele>123.9</ele>
        <time>2020-06-28T08:47:37Z</time>
      </trkpt>
      <trkpt lat="46.57721" lon="0.59554">
        <ele>124.1</ele>
        <time>2020-06-28T08:47:40Z</time>
      </trkpt>
      <trkpt lat="46.57713" lon="0.59546">
        <ele>124.3</ele>
        <time>2020-06-28T08:47:42Z</time>
      </trkpt>
      <trkpt lat="46.57705" lon="0.59537">
        <ele>124.4</ele>
        <time>2020-06-28T08:47:44Z</time>
      </trkpt>
      <trkpt lat="46.57697" lon="0.59528">
        <ele>124.6</ele>
        <time>2020-06-28T08:47:46Z</time>
      </trkpt>
      <trkpt lat="46.57689" lon="0.59519">
        <ele>124.7</ele>
        <time>2020-06-28T08:47:48Z</time>
      </trkpt>
      <trkpt lat="46.57682" lon="0.59511">
        <ele>124.9</ele>
        <time>2020-06-28T08:47:50Z</time>
      </trkpt>
      <trkpt lat="46.57673" lon="0.59502">
        <ele>125</ele>
        <time>2020-06-28T08:47:52Z</time>
      </trkpt>
      <trkpt lat="46.57665" lon="0.59493">
        <ele>125.1</ele>
        <time>2020-06-28T08:47:54Z</time>
      </trkpt>
      <trkpt lat="46.57658" lon="0.59484">
        <ele>124.9</ele>
        <time>2020-06-28T08:47:56Z</time>
      </trkpt>
      <trkpt lat="46.57651" lon="0.59473">
        <ele>124.9</ele>
        <time>2020-06-28T08:47:58Z</time>
      </trkpt>
      <trkpt lat="46.57642" lon="0.59465">
        <ele>124.9</ele>
        <time>2020-06-28T08:48:00Z</time>
      </trkpt>
      <trkpt lat="46.57635" lon="0.59456">
        <ele>124.8</ele>
        <time>2020-06-28T08:48:02Z</time>
      </trkpt>
      <trkpt lat="46.57626" lon="0.59446">
        <ele>124.7</ele>
        <time>2020-06-28T08:48:04Z</time>
      </trkpt>
      <trkpt lat="46.57616" lon="0.59436">
        <ele>124.5</ele>
        <time>2020-06-28T08:48:06Z</time>
      </trkpt>
      <trkpt lat="46.57607" lon="0.59426">
        <ele>124.3</ele>
        <time>2020-06-28T08:48:08Z</time>
      </trkpt>
      <trkpt lat="46.57599" lon="0.59416">
        <ele>124.2</ele>
        <time>2020-06-28T08:48:10Z</time>
      </trkpt>
      <trkpt lat="46.57591" lon="0.59406">
        <ele>124</ele>
        <time>2020-06-28T08:48:12Z</time>
      </trkpt>
      <trkpt lat="46.57584" lon="0.59394">
        <ele>123.9</ele>
        <time>2020-06-28T08:48:14Z</time>
      </trkpt>
      <trkpt lat="46.57573" lon="0.59382">
        <ele>123.5</ele>
        <time>2020-06-28T08:48:16Z</time>
      </trkpt>
      <trkpt lat="46.57563" lon="0.59372">
        <ele>123.1</ele>
        <time>2020-06-28T08:48:18Z</time>
      </trkpt>
      <trkpt lat="46.57554" lon="0.59361">
        <ele>122.9</ele>
        <time>2020-06-28T08:48:20Z</time>
      </trkpt>
      <trkpt lat="46.57545" lon="0.59352">
        <ele>122.7</ele>
        <time>2020-06-28T08:48:22Z</time>
      </trkpt>
      <trkpt lat="46.57535" lon="0.59341">
        <ele>122.5</ele>
        <time>2020-06-28T08:48:24Z</time>
      </trkpt>
      <trkpt lat="46.57525" lon="0.59331">
        <ele>122.4</ele>
        <time>2020-06-28T08:48:26Z</time>
      </trkpt>
      <trkpt lat="46.57515" lon="0.59321">
        <ele>122.3</ele>
        <time>2020-06-28T08:48:28Z</time>
      </trkpt>
      <trkpt lat="46.57505" lon="0.5931">
        <ele>122.2</ele>
        <time>2020-06-28T08:48:30Z</time>
      </trkpt>
      <trkpt lat="46.57499" lon="0.593">
        <ele>122.2</ele>
        <time>2020-06-28T08:48:32Z</time>
      </trkpt>
      <trkpt lat="46.57501" lon="0.59284">
        <ele>122.3</ele>
        <time>2020-06-28T08:48:35Z</time>
      </trkpt>
      <trkpt lat="46.57503" lon="0.59269">
        <ele>122.4</ele>
        <time>2020-06-28T08:48:37Z</time>
      </trkpt>
      <trkpt lat="46.57507" lon="0.59256">
        <ele>122.5</ele>
        <time>2020-06-28T08:48:39Z</time>
      </trkpt>
      <trkpt lat="46.57516" lon="0.59244">
        <ele>122.6</ele>
        <time>2020-06-28T08:48:41Z</time>
      </trkpt>
      <trkpt lat="46.57526" lon="0.59232">
        <ele>122.5</ele>
        <time>2020-06-28T08:48:43Z</time>
      </trkpt>
      <trkpt lat="46.57535" lon="0.59222">
        <ele>122.5</ele>
        <time>2020-06-28T08:48:45Z</time>
      </trkpt>
      <trkpt lat="46.57544" lon="0.59209">
        <ele>122.6</ele>
        <time>2020-06-28T08:48:47Z</time>
      </trkpt>
      <trkpt lat="46.57552" lon="0.59199">
        <ele>122.8</ele>
        <time>2020-06-28T08:48:49Z</time>
      </trkpt>
      <trkpt lat="46.57562" lon="0.59186">
        <ele>122.9</ele>
        <time>2020-06-28T08:48:51Z</time>
      </trkpt>
      <trkpt lat="46.5757" lon="0.59171">
        <ele>122.8</ele>
        <time>2020-06-28T08:48:53Z</time>
      </trkpt>
      <trkpt lat="46.57577" lon="0.59157">
        <ele>122.5</ele>
        <time>2020-06-28T08:48:55Z</time>
      </trkpt>
      <trkpt lat="46.57584" lon="0.59142">
        <ele>122.1</ele>
        <time>2020-06-28T08:48:57Z</time>
      </trkpt>
      <trkpt lat="46.57593" lon="0.59126">
        <ele>121.7</ele>
        <time>2020-06-28T08:48:59Z</time>
      </trkpt>
      <trkpt lat="46.57602" lon="0.59109">
        <ele>121.3</ele>
        <time>2020-06-28T08:49:01Z</time>
      </trkpt>
      <trkpt lat="46.57611" lon="0.59094">
        <ele>120.9</ele>
        <time>2020-06-28T08:49:03Z</time>
      </trkpt>
      <trkpt lat="46.57622" lon="0.59079">
        <ele>120.5</ele>
        <time>2020-06-28T08:49:05Z</time>
      </trkpt>
      <trkpt lat="46.57632" lon="0.59065">
        <ele>120.1</ele>
        <time>2020-06-28T08:49:07Z</time>
      </trkpt>
      <trkpt lat="46.57644" lon="0.59052">
        <ele>119.5</ele>
        <time>2020-06-28T08:49:09Z</time>
      </trkpt>
      <trkpt lat="46.57655" lon="0.59038">
        <ele>119</ele>
        <time>2020-06-28T08:49:11Z</time>
      </trkpt>
      <trkpt lat="46.57667" lon="0.59024">
        <ele>118.3</ele>
        <time>2020-06-28T08:49:13Z</time>
      </trkpt>
      <trkpt lat="46.57678" lon="0.59009">
        <ele>117.4</ele>
        <time>2020-06-28T08:49:15Z</time>
      </trkpt>
      <trkpt lat="46.57689" lon="0.58992">
        <ele>116.3</ele>
        <time>2020-06-28T08:49:17Z</time>
      </trkpt>
      <trkpt lat="46.57702" lon="0.58977">
        <ele>115.1</ele>
        <time>2020-06-28T08:49:19Z</time>
      </trkpt>
      <trkpt lat="46.57716" lon="0.58963">
        <ele>113.9</ele>
        <time>2020-06-28T08:49:21Z</time>
      </trkpt>
      <trkpt lat="46.57732" lon="0.5895">
        <ele>112.5</ele>
        <time>2020-06-28T08:49:23Z</time>
      </trkpt>
      <trkpt lat="46.5774" lon="0.58944">
        <ele>111.6</ele>
        <time>2020-06-28T08:49:24Z</time>
      </trkpt>
      <trkpt lat="46.57749" lon="0.58939">
        <ele>110.8</ele>
        <time>2020-06-28T08:49:25Z</time>
      </trkpt>
      <trkpt lat="46.57758" lon="0.58934">
        <ele>110</ele>
        <time>2020-06-28T08:49:26Z</time>
      </trkpt>
      <trkpt lat="46.57767" lon="0.58927">
        <ele>109.3</ele>
        <time>2020-06-28T08:49:27Z</time>
      </trkpt>
      <trkpt lat="46.57776" lon="0.58921">
        <ele>108.5</ele>
        <time>2020-06-28T08:49:28Z</time>
      </trkpt>
      <trkpt lat="46.57785" lon="0.58915">
        <ele>107.7</ele>
        <time>2020-06-28T08:49:29Z</time>
      </trkpt>
      <trkpt lat="46.57793" lon="0.58908">
        <ele>106.9</ele>
        <time>2020-06-28T08:49:30Z</time>
      </trkpt>
      <trkpt lat="46.57802" lon="0.58899">
        <ele>106.2</ele>
        <time>2020-06-28T08:49:31Z</time>
      </trkpt>
      <trkpt lat="46.5781" lon="0.5889">
        <ele>105.5</ele>
        <time>2020-06-28T08:49:32Z</time>
      </trkpt>
      <trkpt lat="46.57819" lon="0.58881">
        <ele>104.9</ele>
        <time>2020-06-28T08:49:33Z</time>
      </trkpt>
      <trkpt lat="46.57827" lon="0.58872">
        <ele>104</ele>
        <time>2020-06-28T08:49:34Z</time>
      </trkpt>
      <trkpt lat="46.57835" lon="0.58862">
        <ele>103.1</ele>
        <time>2020-06-28T08:49:35Z</time>
      </trkpt>
      <trkpt lat="46.57843" lon="0.58852">
        <ele>102</ele>
        <time>2020-06-28T08:49:36Z</time>
      </trkpt>
      <trkpt lat="46.5785" lon="0.58844">
        <ele>101.4</ele>
        <time>2020-06-28T08:49:37Z</time>
      </trkpt>
      <trkpt lat="46.57858" lon="0.58835">
        <ele>101.2</ele>
        <time>2020-06-28T08:49:38Z</time>
      </trkpt>
      <trkpt lat="46.57872" lon="0.5882">
        <ele>101.5</ele>
        <time>2020-06-28T08:49:40Z</time>
      </trkpt>
      <trkpt lat="46.57886" lon="0.58806">
        <ele>102.1</ele>
        <time>2020-06-28T08:49:42Z</time>
      </trkpt>
      <trkpt lat="46.57898" lon="0.5879">
        <ele>103.1</ele>
        <time>2020-06-28T08:49:44Z</time>
      </trkpt>
      <trkpt lat="46.5791" lon="0.58775">
        <ele>104.2</ele>
        <time>2020-06-28T08:49:46Z</time>
      </trkpt>
      <trkpt lat="46.57924" lon="0.58764">
        <ele>105.4</ele>
        <time>2020-06-28T08:49:48Z</time>
      </trkpt>
      <trkpt lat="46.57936" lon="0.58755">
        <ele>106.7</ele>
        <time>2020-06-28T08:49:50Z</time>
      </trkpt>
      <trkpt lat="46.57947" lon="0.58752">
        <ele>107.8</ele>
        <time>2020-06-28T08:49:52Z</time>
      </trkpt>
      <trkpt lat="46.57956" lon="0.58746">
        <ele>108.6</ele>
        <time>2020-06-28T08:49:54Z</time>
      </trkpt>
      <trkpt lat="46.57966" lon="0.5874">
        <ele>109.6</ele>
        <time>2020-06-28T08:49:57Z</time>
      </trkpt>
      <trkpt lat="46.57972" lon="0.5873">
        <ele>110.4</ele>
        <time>2020-06-28T08:50:00Z</time>
      </trkpt>
      <trkpt lat="46.57979" lon="0.5872">
        <ele>111.1</ele>
        <time>2020-06-28T08:50:03Z</time>
      </trkpt>
      <trkpt lat="46.57986" lon="0.58707">
        <ele>111.9</ele>
        <time>2020-06-28T08:50:06Z</time>
      </trkpt>
      <trkpt lat="46.57992" lon="0.58692">
        <ele>112.8</ele>
        <time>2020-06-28T08:50:09Z</time>
      </trkpt>
      <trkpt lat="46.57997" lon="0.58678">
        <ele>113.4</ele>
        <time>2020-06-28T08:50:12Z</time>
      </trkpt>
      <trkpt lat="46.58002" lon="0.58667">
        <ele>113.8</ele>
        <time>2020-06-28T08:50:15Z</time>
      </trkpt>
      <trkpt lat="46.58006" lon="0.58653">
        <ele>114.2</ele>
        <time>2020-06-28T08:50:18Z</time>
      </trkpt>
      <trkpt lat="46.58012" lon="0.58638">
        <ele>114.7</ele>
        <time>2020-06-28T08:50:22Z</time>
      </trkpt>
      <trkpt lat="46.58019" lon="0.58625">
        <ele>115.1</ele>
        <time>2020-06-28T08:50:26Z</time>
      </trkpt>
      <trkpt lat="46.58024" lon="0.5861">
        <ele>115.5</ele>
        <time>2020-06-28T08:50:30Z</time>
      </trkpt>
      <trkpt lat="46.58029" lon="0.58597">
        <ele>115.9</ele>
        <time>2020-06-28T08:50:34Z</time>
      </trkpt>
      <trkpt lat="46.58033" lon="0.5858">
        <ele>116.3</ele>
        <time>2020-06-28T08:50:38Z</time>
      </trkpt>
      <trkpt lat="46.58037" lon="0.58565">
        <ele>116.7</ele>
        <time>2020-06-28T08:50:41Z</time>
      </trkpt>
      <trkpt lat="46.58042" lon="0.58551">
        <ele>117</ele>
        <time>2020-06-28T08:50:44Z</time>
      </trkpt>
      <trkpt lat="46.58046" lon="0.58534">
        <ele>117.4</ele>
        <time>2020-06-28T08:50:48Z</time>
      </trkpt>
      <trkpt lat="46.5805" lon="0.58522">
        <ele>117.6</ele>
        <time>2020-06-28T08:50:51Z</time>
      </trkpt>
      <trkpt lat="46.58054" lon="0.58504">
        <ele>117.9</ele>
        <time>2020-06-28T08:50:54Z</time>
      </trkpt>
      <trkpt lat="46.58059" lon="0.58492">
        <ele>118.1</ele>
        <time>2020-06-28T08:50:56Z</time>
      </trkpt>
      <trkpt lat="46.58064" lon="0.58477">
        <ele>118.3</ele>
        <time>2020-06-28T08:50:59Z</time>
      </trkpt>
      <trkpt lat="46.58073" lon="0.58484">
        <ele>118.5</ele>
        <time>2020-06-28T08:51:02Z</time>
      </trkpt>
      <trkpt lat="46.58074" lon="0.58499">
        <ele>118.8</ele>
        <time>2020-06-28T08:51:08Z</time>
      </trkpt>
      <trkpt lat="46.58075" lon="0.58513">
        <ele>119</ele>
        <time>2020-06-28T08:51:11Z</time>
      </trkpt>
      <trkpt lat="46.58077" lon="0.58526">
        <ele>119.1</ele>
        <time>2020-06-28T08:51:14Z</time>
      </trkpt>
      <trkpt lat="46.58081" lon="0.58541">
        <ele>119.3</ele>
        <time>2020-06-28T08:51:16Z</time>
      </trkpt>
      <trkpt lat="46.58084" lon="0.58556">
        <ele>119.4</ele>
        <time>2020-06-28T08:51:18Z</time>
      </trkpt>
      <trkpt lat="46.58087" lon="0.58572">
        <ele>119.4</ele>
        <time>2020-06-28T08:51:20Z</time>
      </trkpt>
      <trkpt lat="46.5809" lon="0.58591">
        <ele>119.5</ele>
        <time>2020-06-28T08:51:22Z</time>
      </trkpt>
      <trkpt lat="46.58094" lon="0.58612">
        <ele>119.4</ele>
        <time>2020-06-28T08:51:24Z</time>
      </trkpt>
      <trkpt lat="46.58098" lon="0.58634">
        <ele>119.3</ele>
        <time>2020-06-28T08:51:26Z</time>
      </trkpt>
      <trkpt lat="46.58102" lon="0.58657">
        <ele>119</ele>
        <time>2020-06-28T08:51:28Z</time>
      </trkpt>
      <trkpt lat="46.58105" lon="0.5868">
        <ele>118.8</ele>
        <time>2020-06-28T08:51:30Z</time>
      </trkpt>
      <trkpt lat="46.58107" lon="0.58703">
        <ele>118.4</ele>
        <time>2020-06-28T08:51:32Z</time>
      </trkpt>
      <trkpt lat="46.58108" lon="0.58726">
        <ele>117.9</ele>
        <time>2020-06-28T08:51:34Z</time>
      </trkpt>
      <trkpt lat="46.58111" lon="0.5875">
        <ele>117.6</ele>
        <time>2020-06-28T08:51:36Z</time>
      </trkpt>
      <trkpt lat="46.58114" lon="0.58771">
        <ele>117.2</ele>
        <time>2020-06-28T08:51:38Z</time>
      </trkpt>
      <trkpt lat="46.5811" lon="0.58795">
        <ele>116.2</ele>
        <time>2020-06-28T08:51:40Z</time>
      </trkpt>
      <trkpt lat="46.58114" lon="0.58811">
        <ele>115.9</ele>
        <time>2020-06-28T08:51:42Z</time>
      </trkpt>
      <trkpt lat="46.58114" lon="0.58826">
        <ele>115.2</ele>
        <time>2020-06-28T08:51:44Z</time>
      </trkpt>
      <trkpt lat="46.58112" lon="0.58841">
        <ele>114.7</ele>
        <time>2020-06-28T08:51:46Z</time>
      </trkpt>
      <trkpt lat="46.58118" lon="0.58853">
        <ele>114.2</ele>
        <time>2020-06-28T08:51:49Z</time>
      </trkpt>
      <trkpt lat="46.58113" lon="0.58868">
        <ele>113.4</ele>
        <time>2020-06-28T08:51:52Z</time>
      </trkpt>
      <trkpt lat="46.58107" lon="0.58884">
        <ele>112.7</ele>
        <time>2020-06-28T08:51:55Z</time>
      </trkpt>
      <trkpt lat="46.58105" lon="0.58902">
        <ele>111.5</ele>
        <time>2020-06-28T08:51:57Z</time>
      </trkpt>
      <trkpt lat="46.58103" lon="0.58924">
        <ele>110.3</ele>
        <time>2020-06-28T08:51:59Z</time>
      </trkpt>
      <trkpt lat="46.58099" lon="0.58938">
        <ele>109.6</ele>
        <time>2020-06-28T08:52:00Z</time>
      </trkpt>
      <trkpt lat="46.58095" lon="0.58952">
        <ele>108.8</ele>
        <time>2020-06-28T08:52:01Z</time>
      </trkpt>
      <trkpt lat="46.5809" lon="0.58964">
        <ele>108</ele>
        <time>2020-06-28T08:52:02Z</time>
      </trkpt>
      <trkpt lat="46.58083" lon="0.58987">
        <ele>106.5</ele>
        <time>2020-06-28T08:52:04Z</time>
      </trkpt>
      <trkpt lat="46.58081" lon="0.5901">
        <ele>105</ele>
        <time>2020-06-28T08:52:06Z</time>
      </trkpt>
      <trkpt lat="46.58078" lon="0.59029">
        <ele>104.1</ele>
        <time>2020-06-28T08:52:08Z</time>
      </trkpt>
      <trkpt lat="46.58078" lon="0.59049">
        <ele>103.2</ele>
        <time>2020-06-28T08:52:10Z</time>
      </trkpt>
      <trkpt lat="46.58068" lon="0.59056">
        <ele>102.3</ele>
        <time>2020-06-28T08:52:17Z</time>
      </trkpt>
      <trkpt lat="46.58061" lon="0.59048">
        <ele>102.4</ele>
        <time>2020-06-28T08:52:19Z</time>
      </trkpt>
      <trkpt lat="46.58051" lon="0.59038">
        <ele>102.6</ele>
        <time>2020-06-28T08:52:21Z</time>
      </trkpt>
      <trkpt lat="46.58041" lon="0.59031">
        <ele>102.6</ele>
        <time>2020-06-28T08:52:23Z</time>
      </trkpt>
      <trkpt lat="46.58031" lon="0.59022">
        <ele>102.6</ele>
        <time>2020-06-28T08:52:25Z</time>
      </trkpt>
      <trkpt lat="46.58023" lon="0.59011">
        <ele>102.8</ele>
        <time>2020-06-28T08:52:27Z</time>
      </trkpt>
      <trkpt lat="46.58014" lon="0.59002">
        <ele>102.8</ele>
        <time>2020-06-28T08:52:29Z</time>
      </trkpt>
      <trkpt lat="46.58004" lon="0.58993">
        <ele>102.7</ele>
        <time>2020-06-28T08:52:31Z</time>
      </trkpt>
      <trkpt lat="46.57994" lon="0.58985">
        <ele>102.7</ele>
        <time>2020-06-28T08:52:33Z</time>
      </trkpt>
      <trkpt lat="46.57985" lon="0.58977">
        <ele>102.8</ele>
        <time>2020-06-28T08:52:35Z</time>
      </trkpt>
      <trkpt lat="46.57976" lon="0.58969">
        <ele>102.8</ele>
        <time>2020-06-28T08:52:37Z</time>
      </trkpt>
      <trkpt lat="46.57966" lon="0.58962">
        <ele>102.8</ele>
        <time>2020-06-28T08:52:39Z</time>
      </trkpt>
      <trkpt lat="46.57956" lon="0.58956">
        <ele>102.9</ele>
        <time>2020-06-28T08:52:41Z</time>
      </trkpt>
      <trkpt lat="46.57946" lon="0.58948">
        <ele>102.9</ele>
        <time>2020-06-28T08:52:43Z</time>
      </trkpt>
      <trkpt lat="46.57932" lon="0.58944">
        <ele>102.9</ele>
        <time>2020-06-28T08:52:45Z</time>
      </trkpt>
      <trkpt lat="46.5792" lon="0.58938">
        <ele>102.9</ele>
        <time>2020-06-28T08:52:47Z</time>
      </trkpt>
      <trkpt lat="46.57907" lon="0.58929">
        <ele>102.9</ele>
        <time>2020-06-28T08:52:49Z</time>
      </trkpt>
      <trkpt lat="46.57895" lon="0.58921">
        <ele>103</ele>
        <time>2020-06-28T08:52:51Z</time>
      </trkpt>
      <trkpt lat="46.57885" lon="0.58914">
        <ele>102.9</ele>
        <time>2020-06-28T08:52:53Z</time>
      </trkpt>
      <trkpt lat="46.57876" lon="0.58909">
        <ele>102.6</ele>
        <time>2020-06-28T08:52:55Z</time>
      </trkpt>
      <trkpt lat="46.57868" lon="0.58903">
        <ele>102.3</ele>
        <time>2020-06-28T08:52:57Z</time>
      </trkpt>
      <trkpt lat="46.57859" lon="0.58897">
        <ele>101.9</ele>
        <time>2020-06-28T08:53:00Z</time>
      </trkpt>
      <trkpt lat="46.5785" lon="0.58888">
        <ele>101.3</ele>
        <time>2020-06-28T08:53:03Z</time>
      </trkpt>
      <trkpt lat="46.57851" lon="0.58902">
        <ele>101.1</ele>
        <time>2020-06-28T08:53:19Z</time>
      </trkpt>
      <trkpt lat="46.57854" lon="0.58915">
        <ele>101.1</ele>
        <time>2020-06-28T08:53:24Z</time>
      </trkpt>
      <trkpt lat="46.57858" lon="0.58928">
        <ele>100.7</ele>
        <time>2020-06-28T08:53:28Z</time>
      </trkpt>
      <trkpt lat="46.57863" lon="0.58941">
        <ele>100.4</ele>
        <time>2020-06-28T08:53:32Z</time>
      </trkpt>
      <trkpt lat="46.57868" lon="0.58955">
        <ele>100</ele>
        <time>2020-06-28T08:53:37Z</time>
      </trkpt>
      <trkpt lat="46.57873" lon="0.58969">
        <ele>99.8</ele>
        <time>2020-06-28T08:53:41Z</time>
      </trkpt>
      <trkpt lat="46.57878" lon="0.58982">
        <ele>100</ele>
        <time>2020-06-28T08:53:45Z</time>
      </trkpt>
      <trkpt lat="46.57883" lon="0.58994">
        <ele>100.5</ele>
        <time>2020-06-28T08:53:48Z</time>
      </trkpt>
      <trkpt lat="46.57888" lon="0.59005">
        <ele>101.4</ele>
        <time>2020-06-28T08:53:51Z</time>
      </trkpt>
      <trkpt lat="46.5789" lon="0.5902">
        <ele>102.4</ele>
        <time>2020-06-28T08:53:54Z</time>
      </trkpt>
      <trkpt lat="46.5789" lon="0.59035">
        <ele>103.7</ele>
        <time>2020-06-28T08:53:57Z</time>
      </trkpt>
      <trkpt lat="46.57891" lon="0.59049">
        <ele>104.9</ele>
        <time>2020-06-28T08:54:00Z</time>
      </trkpt>
      <trkpt lat="46.57891" lon="0.59066">
        <ele>106.7</ele>
        <time>2020-06-28T08:54:03Z</time>
      </trkpt>
      <trkpt lat="46.57889" lon="0.59081">
        <ele>108</ele>
        <time>2020-06-28T08:54:07Z</time>
      </trkpt>
      <trkpt lat="46.57887" lon="0.59097">
        <ele>110.2</ele>
        <time>2020-06-28T08:54:11Z</time>
      </trkpt>
      <trkpt lat="46.57889" lon="0.59112">
        <ele>112.2</ele>
        <time>2020-06-28T08:54:15Z</time>
      </trkpt>
      <trkpt lat="46.5789" lon="0.59127">
        <ele>113.5</ele>
        <time>2020-06-28T08:54:19Z</time>
      </trkpt>
      <trkpt lat="46.57888" lon="0.59141">
        <ele>114.7</ele>
        <time>2020-06-28T08:54:23Z</time>
      </trkpt>
      <trkpt lat="46.57884" lon="0.59155">
        <ele>116.1</ele>
        <time>2020-06-28T08:54:25Z</time>
      </trkpt>
      <trkpt lat="46.5788" lon="0.5917">
        <ele>117.4</ele>
        <time>2020-06-28T08:54:28Z</time>
      </trkpt>
      <trkpt lat="46.57876" lon="0.59183">
        <ele>118.7</ele>
        <time>2020-06-28T08:54:31Z</time>
      </trkpt>
      <trkpt lat="46.57877" lon="0.59197">
        <ele>119.7</ele>
        <time>2020-06-28T08:54:35Z</time>
      </trkpt>
      <trkpt lat="46.57879" lon="0.59213">
        <ele>120.6</ele>
        <time>2020-06-28T08:54:40Z</time>
      </trkpt>
      <trkpt lat="46.57881" lon="0.59226">
        <ele>121.1</ele>
        <time>2020-06-28T08:54:44Z</time>
      </trkpt>
      <trkpt lat="46.57885" lon="0.59239">
        <ele>121.7</ele>
        <time>2020-06-28T08:54:48Z</time>
      </trkpt>
      <trkpt lat="46.57892" lon="0.59253">
        <ele>122.5</ele>
        <time>2020-06-28T08:54:52Z</time>
      </trkpt>
      <trkpt lat="46.57901" lon="0.59266">
        <ele>122.8</ele>
        <time>2020-06-28T08:54:56Z</time>
      </trkpt>
      <trkpt lat="46.57906" lon="0.59277">
        <ele>122.5</ele>
        <time>2020-06-28T08:54:58Z</time>
      </trkpt>
      <trkpt lat="46.57913" lon="0.59288">
        <ele>121.4</ele>
        <time>2020-06-28T08:55:01Z</time>
      </trkpt>
      <trkpt lat="46.57919" lon="0.59301">
        <ele>120.5</ele>
        <time>2020-06-28T08:55:03Z</time>
      </trkpt>
      <trkpt lat="46.57926" lon="0.59311">
        <ele>120</ele>
        <time>2020-06-28T08:55:05Z</time>
      </trkpt>
      <trkpt lat="46.57933" lon="0.59325">
        <ele>119.4</ele>
        <time>2020-06-28T08:55:08Z</time>
      </trkpt>
      <trkpt lat="46.5794" lon="0.59336">
        <ele>118.8</ele>
        <time>2020-06-28T08:55:10Z</time>
      </trkpt>
      <trkpt lat="46.57947" lon="0.59346">
        <ele>118.5</ele>
        <time>2020-06-28T08:55:12Z</time>
      </trkpt>
      <trkpt lat="46.57955" lon="0.59357">
        <ele>118.2</ele>
        <time>2020-06-28T08:55:14Z</time>
      </trkpt>
      <trkpt lat="46.57964" lon="0.59368">
        <ele>117.9</ele>
        <time>2020-06-28T08:55:16Z</time>
      </trkpt>
      <trkpt lat="46.57975" lon="0.59382">
        <ele>117.6</ele>
        <time>2020-06-28T08:55:19Z</time>
      </trkpt>
      <trkpt lat="46.57983" lon="0.59393">
        <ele>117.2</ele>
        <time>2020-06-28T08:55:21Z</time>
      </trkpt>
      <trkpt lat="46.57992" lon="0.59405">
        <ele>116.6</ele>
        <time>2020-06-28T08:55:23Z</time>
      </trkpt>
      <trkpt lat="46.58" lon="0.59416">
        <ele>115.7</ele>
        <time>2020-06-28T08:55:25Z</time>
      </trkpt>
      <trkpt lat="46.58009" lon="0.59427">
        <ele>114.8</ele>
        <time>2020-06-28T08:55:27Z</time>
      </trkpt>
      <trkpt lat="46.58019" lon="0.59435">
        <ele>113.9</ele>
        <time>2020-06-28T08:55:29Z</time>
      </trkpt>
      <trkpt lat="46.58027" lon="0.59443">
        <ele>113</ele>
        <time>2020-06-28T08:55:31Z</time>
      </trkpt>
      <trkpt lat="46.58036" lon="0.59452">
        <ele>112.3</ele>
        <time>2020-06-28T08:55:33Z</time>
      </trkpt>
      <trkpt lat="46.58045" lon="0.59458">
        <ele>111.6</ele>
        <time>2020-06-28T08:55:35Z</time>
      </trkpt>
      <trkpt lat="46.58053" lon="0.59466">
        <ele>111.3</ele>
        <time>2020-06-28T08:55:37Z</time>
      </trkpt>
      <trkpt lat="46.58063" lon="0.59473">
        <ele>111</ele>
        <time>2020-06-28T08:55:39Z</time>
      </trkpt>
      <trkpt lat="46.58073" lon="0.59468">
        <ele>109.8</ele>
        <time>2020-06-28T08:55:44Z</time>
      </trkpt>
      <trkpt lat="46.58072" lon="0.59452">
        <ele>108.6</ele>
        <time>2020-06-28T08:55:46Z</time>
      </trkpt>
      <trkpt lat="46.58074" lon="0.59433">
        <ele>107.1</ele>
        <time>2020-06-28T08:55:48Z</time>
      </trkpt>
      <trkpt lat="46.5808" lon="0.59419">
        <ele>106</ele>
        <time>2020-06-28T08:55:50Z</time>
      </trkpt>
      <trkpt lat="46.58083" lon="0.59402">
        <ele>105.8</ele>
        <time>2020-06-28T08:55:53Z</time>
      </trkpt>
      <trkpt lat="46.58088" lon="0.5939">
        <ele>106.5</ele>
        <time>2020-06-28T08:55:55Z</time>
      </trkpt>
      <trkpt lat="46.58097" lon="0.59378">
        <ele>107.5</ele>
        <time>2020-06-28T08:55:57Z</time>
      </trkpt>
      <trkpt lat="46.58095" lon="0.59362">
        <ele>110.6</ele>
        <time>2020-06-28T08:56:00Z</time>
      </trkpt>
      <trkpt lat="46.58096" lon="0.59349">
        <ele>112.3</ele>
        <time>2020-06-28T08:56:04Z</time>
      </trkpt>
      <trkpt lat="46.58102" lon="0.59336">
        <ele>113.1</ele>
        <time>2020-06-28T08:56:06Z</time>
      </trkpt>
      <trkpt lat="46.58104" lon="0.59322">
        <ele>113</ele>
        <time>2020-06-28T08:56:08Z</time>
      </trkpt>
      <trkpt lat="46.58102" lon="0.59308">
        <ele>112.4</ele>
        <time>2020-06-28T08:56:10Z</time>
      </trkpt>
      <trkpt lat="46.58098" lon="0.59296">
        <ele>111.9</ele>
        <time>2020-06-28T08:56:12Z</time>
      </trkpt>
      <trkpt lat="46.58103" lon="0.59279">
        <ele>109.8</ele>
        <time>2020-06-28T08:56:15Z</time>
      </trkpt>
      <trkpt lat="46.58105" lon="0.59266">
        <ele>107.7</ele>
        <time>2020-06-28T08:56:17Z</time>
      </trkpt>
      <trkpt lat="46.58104" lon="0.59253">
        <ele>106.1</ele>
        <time>2020-06-28T08:56:21Z</time>
      </trkpt>
      <trkpt lat="46.58108" lon="0.59238">
        <ele>103.3</ele>
        <time>2020-06-28T08:56:24Z</time>
      </trkpt>
      <trkpt lat="46.58117" lon="0.59227">
        <ele>100.5</ele>
        <time>2020-06-28T08:56:26Z</time>
      </trkpt>
      <trkpt lat="46.58121" lon="0.59213">
        <ele>99</ele>
        <time>2020-06-28T08:56:28Z</time>
      </trkpt>
      <trkpt lat="46.58131" lon="0.5921">
        <ele>98.2</ele>
        <time>2020-06-28T08:56:32Z</time>
      </trkpt>
      <trkpt lat="46.58141" lon="0.59216">
        <ele>97.9</ele>
        <time>2020-06-28T08:56:36Z</time>
      </trkpt>
      <trkpt lat="46.58151" lon="0.59222">
        <ele>97.7</ele>
        <time>2020-06-28T08:56:39Z</time>
      </trkpt>
      <trkpt lat="46.58163" lon="0.59226">
        <ele>97.7</ele>
        <time>2020-06-28T08:56:43Z</time>
      </trkpt>
      <trkpt lat="46.58175" lon="0.59233">
        <ele>97.8</ele>
        <time>2020-06-28T08:56:46Z</time>
      </trkpt>
      <trkpt lat="46.58185" lon="0.59244">
        <ele>98.1</ele>
        <time>2020-06-28T08:56:48Z</time>
      </trkpt>
      <trkpt lat="46.58193" lon="0.59249">
        <ele>98.4</ele>
        <time>2020-06-28T08:56:50Z</time>
      </trkpt>
      <trkpt lat="46.58206" lon="0.59252">
        <ele>99.1</ele>
        <time>2020-06-28T08:56:53Z</time>
      </trkpt>
      <trkpt lat="46.58219" lon="0.59259">
        <ele>99.7</ele>
        <time>2020-06-28T08:56:56Z</time>
      </trkpt>
      <trkpt lat="46.5823" lon="0.59266">
        <ele>100.9</ele>
        <time>2020-06-28T08:56:58Z</time>
      </trkpt>
      <trkpt lat="46.58241" lon="0.59271">
        <ele>102.1</ele>
        <time>2020-06-28T08:57:00Z</time>
      </trkpt>
      <trkpt lat="46.58251" lon="0.5928">
        <ele>103.1</ele>
        <time>2020-06-28T08:57:02Z</time>
      </trkpt>
      <trkpt lat="46.58262" lon="0.59291">
        <ele>104.7</ele>
        <time>2020-06-28T08:57:04Z</time>
      </trkpt>
      <trkpt lat="46.58272" lon="0.59299">
        <ele>105.4</ele>
        <time>2020-06-28T08:57:06Z</time>
      </trkpt>
      <trkpt lat="46.58286" lon="0.59309">
        <ele>106.9</ele>
        <time>2020-06-28T08:57:08Z</time>
      </trkpt>
      <trkpt lat="46.58297" lon="0.59319">
        <ele>108.3</ele>
        <time>2020-06-28T08:57:10Z</time>
      </trkpt>
      <trkpt lat="46.58309" lon="0.5933">
        <ele>108</ele>
        <time>2020-06-28T08:57:12Z</time>
      </trkpt>
      <trkpt lat="46.58324" lon="0.59342">
        <ele>106.8</ele>
        <time>2020-06-28T08:57:14Z</time>
      </trkpt>
      <trkpt lat="46.58338" lon="0.59354">
        <ele>105.6</ele>
        <time>2020-06-28T08:57:16Z</time>
      </trkpt>
      <trkpt lat="46.58349" lon="0.59366">
        <ele>104.3</ele>
        <time>2020-06-28T08:57:18Z</time>
      </trkpt>
      <trkpt lat="46.58363" lon="0.59378">
        <ele>105.2</ele>
        <time>2020-06-28T08:57:20Z</time>
      </trkpt>
      <trkpt lat="46.58374" lon="0.59388">
        <ele>105.5</ele>
        <time>2020-06-28T08:57:22Z</time>
      </trkpt>
      <trkpt lat="46.58386" lon="0.59398">
        <ele>105.3</ele>
        <time>2020-06-28T08:57:24Z</time>
      </trkpt>
      <trkpt lat="46.58398" lon="0.5941">
        <ele>104.1</ele>
        <time>2020-06-28T08:57:26Z</time>
      </trkpt>
      <trkpt lat="46.58407" lon="0.59424">
        <ele>102.5</ele>
        <time>2020-06-28T08:57:28Z</time>
      </trkpt>
      <trkpt lat="46.58419" lon="0.5944">
        <ele>101.1</ele>
        <time>2020-06-28T08:57:30Z</time>
      </trkpt>
      <trkpt lat="46.58429" lon="0.5946">
        <ele>99</ele>
        <time>2020-06-28T08:57:32Z</time>
      </trkpt>
      <trkpt lat="46.58439" lon="0.59477">
        <ele>98.1</ele>
        <time>2020-06-28T08:57:34Z</time>
      </trkpt>
      <trkpt lat="46.58448" lon="0.59494">
        <ele>96.7</ele>
        <time>2020-06-28T08:57:36Z</time>
      </trkpt>
      <trkpt lat="46.58457" lon="0.59509">
        <ele>95.7</ele>
        <time>2020-06-28T08:57:38Z</time>
      </trkpt>
      <trkpt lat="46.58465" lon="0.59521">
        <ele>94.7</ele>
        <time>2020-06-28T08:57:40Z</time>
      </trkpt>
      <trkpt lat="46.5847" lon="0.59534">
        <ele>93.6</ele>
        <time>2020-06-28T08:57:42Z</time>
      </trkpt>
      <trkpt lat="46.58469" lon="0.59549">
        <ele>93.1</ele>
        <time>2020-06-28T08:57:45Z</time>
      </trkpt>
      <trkpt lat="46.58473" lon="0.59564">
        <ele>93.1</ele>
        <time>2020-06-28T08:57:48Z</time>
      </trkpt>
      <trkpt lat="46.58478" lon="0.59576">
        <ele>92.9</ele>
        <time>2020-06-28T08:57:51Z</time>
      </trkpt>
      <trkpt lat="46.58481" lon="0.59589">
        <ele>92.6</ele>
        <time>2020-06-28T08:57:56Z</time>
      </trkpt>
      <trkpt lat="46.58483" lon="0.59603">
        <ele>92.3</ele>
        <time>2020-06-28T08:58:02Z</time>
      </trkpt>
      <trkpt lat="46.58485" lon="0.59618">
        <ele>92.2</ele>
        <time>2020-06-28T08:58:06Z</time>
      </trkpt>
      <trkpt lat="46.58487" lon="0.59632">
        <ele>91.9</ele>
        <time>2020-06-28T08:58:11Z</time>
      </trkpt>
      <trkpt lat="46.58489" lon="0.59646">
        <ele>91.8</ele>
        <time>2020-06-28T08:58:18Z</time>
      </trkpt>
      <trkpt lat="46.58489" lon="0.5966">
        <ele>91.6</ele>
        <time>2020-06-28T08:58:25Z</time>
      </trkpt>
      <trkpt lat="46.58488" lon="0.59676">
        <ele>91</ele>
        <time>2020-06-28T08:58:31Z</time>
      </trkpt>
      <trkpt lat="46.58487" lon="0.59692">
        <ele>90</ele>
        <time>2020-06-28T08:58:38Z</time>
      </trkpt>
      <trkpt lat="46.58484" lon="0.59705">
        <ele>89.4</ele>
        <time>2020-06-28T08:58:43Z</time>
      </trkpt>
      <trkpt lat="46.58481" lon="0.59719">
        <ele>89.4</ele>
        <time>2020-06-28T08:58:48Z</time>
      </trkpt>
      <trkpt lat="46.58479" lon="0.59733">
        <ele>89.7</ele>
        <time>2020-06-28T08:58:52Z</time>
      </trkpt>
      <trkpt lat="46.58476" lon="0.59748">
        <ele>90.2</ele>
        <time>2020-06-28T08:58:56Z</time>
      </trkpt>
      <trkpt lat="46.58476" lon="0.59761">
        <ele>90.3</ele>
        <time>2020-06-28T08:59:00Z</time>
      </trkpt>
      <trkpt lat="46.58478" lon="0.59775">
        <ele>90.2</ele>
        <time>2020-06-28T08:59:03Z</time>
      </trkpt>
      <trkpt lat="46.58479" lon="0.5979">
        <ele>90.8</ele>
        <time>2020-06-28T08:59:07Z</time>
      </trkpt>
      <trkpt lat="46.58479" lon="0.59803">
        <ele>91.4</ele>
        <time>2020-06-28T08:59:10Z</time>
      </trkpt>
      <trkpt lat="46.58476" lon="0.59818">
        <ele>92.4</ele>
        <time>2020-06-28T08:59:14Z</time>
      </trkpt>
      <trkpt lat="46.58475" lon="0.59833">
        <ele>93.5</ele>
        <time>2020-06-28T08:59:18Z</time>
      </trkpt>
      <trkpt lat="46.58475" lon="0.59852">
        <ele>94.9</ele>
        <time>2020-06-28T08:59:22Z</time>
      </trkpt>
      <trkpt lat="46.58474" lon="0.59866">
        <ele>96</ele>
        <time>2020-06-28T08:59:25Z</time>
      </trkpt>
      <trkpt lat="46.58472" lon="0.5988">
        <ele>97.4</ele>
        <time>2020-06-28T08:59:28Z</time>
      </trkpt>
      <trkpt lat="46.58474" lon="0.59897">
        <ele>98.7</ele>
        <time>2020-06-28T08:59:31Z</time>
      </trkpt>
      <trkpt lat="46.58477" lon="0.59915">
        <ele>99.9</ele>
        <time>2020-06-28T08:59:34Z</time>
      </trkpt>
      <trkpt lat="46.58478" lon="0.59929">
        <ele>100.9</ele>
        <time>2020-06-28T08:59:37Z</time>
      </trkpt>
      <trkpt lat="46.58478" lon="0.59943">
        <ele>102</ele>
        <time>2020-06-28T08:59:40Z</time>
      </trkpt>
      <trkpt lat="46.58477" lon="0.59958">
        <ele>103.4</ele>
        <time>2020-06-28T08:59:44Z</time>
      </trkpt>
      <trkpt lat="46.58477" lon="0.59972">
        <ele>104.2</ele>
        <time>2020-06-28T08:59:47Z</time>
      </trkpt>
      <trkpt lat="46.58477" lon="0.59989">
        <ele>105.2</ele>
        <time>2020-06-28T08:59:51Z</time>
      </trkpt>
      <trkpt lat="46.58477" lon="0.60006">
        <ele>106</ele>
        <time>2020-06-28T08:59:54Z</time>
      </trkpt>
      <trkpt lat="46.58477" lon="0.60022">
        <ele>106.9</ele>
        <time>2020-06-28T08:59:57Z</time>
      </trkpt>
      <trkpt lat="46.58477" lon="0.60035">
        <ele>107.6</ele>
        <time>2020-06-28T08:59:59Z</time>
      </trkpt>
      <trkpt lat="46.58475" lon="0.60048">
        <ele>108.4</ele>
        <time>2020-06-28T09:00:01Z</time>
      </trkpt>
      <trkpt lat="46.58468" lon="0.6006">
        <ele>109.1</ele>
        <time>2020-06-28T09:00:03Z</time>
      </trkpt>
      <trkpt lat="46.58462" lon="0.60074">
        <ele>109.7</ele>
        <time>2020-06-28T09:00:06Z</time>
      </trkpt>
      <trkpt lat="46.58459" lon="0.60086">
        <ele>110.2</ele>
        <time>2020-06-28T09:00:11Z</time>
      </trkpt>
      <trkpt lat="46.58466" lon="0.60099">
        <ele>110.3</ele>
        <time>2020-06-28T09:00:14Z</time>
      </trkpt>
      <trkpt lat="46.58473" lon="0.60114">
        <ele>110.3</ele>
        <time>2020-06-28T09:00:17Z</time>
      </trkpt>
      <trkpt lat="46.58479" lon="0.60127">
        <ele>110.4</ele>
        <time>2020-06-28T09:00:19Z</time>
      </trkpt>
      <trkpt lat="46.58488" lon="0.60139">
        <ele>110.4</ele>
        <time>2020-06-28T09:00:21Z</time>
      </trkpt>
      <trkpt lat="46.58496" lon="0.6015">
        <ele>110.3</ele>
        <time>2020-06-28T09:00:23Z</time>
      </trkpt>
      <trkpt lat="46.58504" lon="0.60159">
        <ele>110.3</ele>
        <time>2020-06-28T09:00:25Z</time>
      </trkpt>
      <trkpt lat="46.58512" lon="0.60167">
        <ele>110.2</ele>
        <time>2020-06-28T09:00:27Z</time>
      </trkpt>
      <trkpt lat="46.58521" lon="0.60178">
        <ele>110</ele>
        <time>2020-06-28T09:00:29Z</time>
      </trkpt>
      <trkpt lat="46.58531" lon="0.60186">
        <ele>109.7</ele>
        <time>2020-06-28T09:00:31Z</time>
      </trkpt>
      <trkpt lat="46.58542" lon="0.60191">
        <ele>109.1</ele>
        <time>2020-06-28T09:00:33Z</time>
      </trkpt>
      <trkpt lat="46.58553" lon="0.60197">
        <ele>108.7</ele>
        <time>2020-06-28T09:00:35Z</time>
      </trkpt>
      <trkpt lat="46.58563" lon="0.60206">
        <ele>108.1</ele>
        <time>2020-06-28T09:00:37Z</time>
      </trkpt>
      <trkpt lat="46.5857" lon="0.60226">
        <ele>107.9</ele>
        <time>2020-06-28T09:00:39Z</time>
      </trkpt>
      <trkpt lat="46.58577" lon="0.6025">
        <ele>107.6</ele>
        <time>2020-06-28T09:00:41Z</time>
      </trkpt>
      <trkpt lat="46.58583" lon="0.60273">
        <ele>107.4</ele>
        <time>2020-06-28T09:00:43Z</time>
      </trkpt>
      <trkpt lat="46.58587" lon="0.60296">
        <ele>107.2</ele>
        <time>2020-06-28T09:00:45Z</time>
      </trkpt>
      <trkpt lat="46.58591" lon="0.60318">
        <ele>106.9</ele>
        <time>2020-06-28T09:00:47Z</time>
      </trkpt>
      <trkpt lat="46.58596" lon="0.60339">
        <ele>106.6</ele>
        <time>2020-06-28T09:00:49Z</time>
      </trkpt>
      <trkpt lat="46.58599" lon="0.60359">
        <ele>106.5</ele>
        <time>2020-06-28T09:00:51Z</time>
      </trkpt>
      <trkpt lat="46.586" lon="0.60375">
        <ele>106.4</ele>
        <time>2020-06-28T09:00:53Z</time>
      </trkpt>
      <trkpt lat="46.58605" lon="0.60389">
        <ele>106.2</ele>
        <time>2020-06-28T09:00:55Z</time>
      </trkpt>
      <trkpt lat="46.58613" lon="0.60404">
        <ele>105.7</ele>
        <time>2020-06-28T09:00:57Z</time>
      </trkpt>
      <trkpt lat="46.58621" lon="0.60422">
        <ele>105.4</ele>
        <time>2020-06-28T09:00:59Z</time>
      </trkpt>
      <trkpt lat="46.58628" lon="0.60439">
        <ele>104.9</ele>
        <time>2020-06-28T09:01:01Z</time>
      </trkpt>
      <trkpt lat="46.58631" lon="0.60454">
        <ele>104.8</ele>
        <time>2020-06-28T09:01:03Z</time>
      </trkpt>
      <trkpt lat="46.5863" lon="0.60473">
        <ele>104.6</ele>
        <time>2020-06-28T09:01:06Z</time>
      </trkpt>
      <trkpt lat="46.58627" lon="0.60488">
        <ele>104.6</ele>
        <time>2020-06-28T09:01:08Z</time>
      </trkpt>
      <trkpt lat="46.58622" lon="0.60506">
        <ele>104.5</ele>
        <time>2020-06-28T09:01:10Z</time>
      </trkpt>
      <trkpt lat="46.5862" lon="0.60526">
        <ele>104.2</ele>
        <time>2020-06-28T09:01:12Z</time>
      </trkpt>
      <trkpt lat="46.58624" lon="0.60541">
        <ele>103.8</ele>
        <time>2020-06-28T09:01:15Z</time>
      </trkpt>
      <trkpt lat="46.58633" lon="0.60535">
        <ele>103.3</ele>
        <time>2020-06-28T09:01:18Z</time>
      </trkpt>
      <trkpt lat="46.58636" lon="0.60521">
        <ele>102.6</ele>
        <time>2020-06-28T09:01:28Z</time>
      </trkpt>
      <trkpt lat="46.58645" lon="0.6051">
        <ele>101.7</ele>
        <time>2020-06-28T09:01:33Z</time>
      </trkpt>
      <trkpt lat="46.58657" lon="0.60507">
        <ele>101</ele>
        <time>2020-06-28T09:01:36Z</time>
      </trkpt>
      <trkpt lat="46.58663" lon="0.60498">
        <ele>100.4</ele>
        <time>2020-06-28T09:01:38Z</time>
      </trkpt>
      <trkpt lat="46.58675" lon="0.60495">
        <ele>99.7</ele>
        <time>2020-06-28T09:01:41Z</time>
      </trkpt>
      <trkpt lat="46.58684" lon="0.60491">
        <ele>99.1</ele>
        <time>2020-06-28T09:01:44Z</time>
      </trkpt>
      <trkpt lat="46.58693" lon="0.60487">
        <ele>98.5</ele>
        <time>2020-06-28T09:01:47Z</time>
      </trkpt>
      <trkpt lat="46.58698" lon="0.60476">
        <ele>97.9</ele>
        <time>2020-06-28T09:01:51Z</time>
      </trkpt>
      <trkpt lat="46.58704" lon="0.60464">
        <ele>97.2</ele>
        <time>2020-06-28T09:01:56Z</time>
      </trkpt>
      <trkpt lat="46.58709" lon="0.6045">
        <ele>96.5</ele>
        <time>2020-06-28T09:02:00Z</time>
      </trkpt>
      <trkpt lat="46.58714" lon="0.60437">
        <ele>95.9</ele>
        <time>2020-06-28T09:02:02Z</time>
      </trkpt>
      <trkpt lat="46.58718" lon="0.60424">
        <ele>95.3</ele>
        <time>2020-06-28T09:02:04Z</time>
      </trkpt>
      <trkpt lat="46.58724" lon="0.60413">
        <ele>94.7</ele>
        <time>2020-06-28T09:02:06Z</time>
      </trkpt>
      <trkpt lat="46.58732" lon="0.60401">
        <ele>94.2</ele>
        <time>2020-06-28T09:02:09Z</time>
      </trkpt>
      <trkpt lat="46.58741" lon="0.60394">
        <ele>93.8</ele>
        <time>2020-06-28T09:02:12Z</time>
      </trkpt>
      <trkpt lat="46.58749" lon="0.60383">
        <ele>93.3</ele>
        <time>2020-06-28T09:02:16Z</time>
      </trkpt>
      <trkpt lat="46.5876" lon="0.60372">
        <ele>92.7</ele>
        <time>2020-06-28T09:02:20Z</time>
      </trkpt>
      <trkpt lat="46.58768" lon="0.60365">
        <ele>92.3</ele>
        <time>2020-06-28T09:02:22Z</time>
      </trkpt>
      <trkpt lat="46.58777" lon="0.60359">
        <ele>91.9</ele>
        <time>2020-06-28T09:02:25Z</time>
      </trkpt>
      <trkpt lat="46.58788" lon="0.60353">
        <ele>91.4</ele>
        <time>2020-06-28T09:02:28Z</time>
      </trkpt>
      <trkpt lat="46.58797" lon="0.6035">
        <ele>91</ele>
        <time>2020-06-28T09:02:31Z</time>
      </trkpt>
      <trkpt lat="46.58807" lon="0.60345">
        <ele>90.5</ele>
        <time>2020-06-28T09:02:34Z</time>
      </trkpt>
      <trkpt lat="46.58816" lon="0.6034">
        <ele>90</ele>
        <time>2020-06-28T09:02:38Z</time>
      </trkpt>
      <trkpt lat="46.58826" lon="0.60338">
        <ele>89.5</ele>
        <time>2020-06-28T09:02:52Z</time>
      </trkpt>
      <trkpt lat="46.58834" lon="0.60346">
        <ele>89</ele>
        <time>2020-06-28T09:03:02Z</time>
      </trkpt>
      <trkpt lat="46.58844" lon="0.60349">
        <ele>88.3</ele>
        <time>2020-06-28T09:03:28Z</time>
      </trkpt>
      <trkpt lat="46.58854" lon="0.60347">
        <ele>87.7</ele>
        <time>2020-06-28T09:03:30Z</time>
      </trkpt>
      <trkpt lat="46.58863" lon="0.60344">
        <ele>87.3</ele>
        <time>2020-06-28T09:03:34Z</time>
      </trkpt>
      <trkpt lat="46.58873" lon="0.6034">
        <ele>86.8</ele>
        <time>2020-06-28T09:03:38Z</time>
      </trkpt>
      <trkpt lat="46.58884" lon="0.60336">
        <ele>86.1</ele>
        <time>2020-06-28T09:03:41Z</time>
      </trkpt>
      <trkpt lat="46.58897" lon="0.60336">
        <ele>85.3</ele>
        <time>2020-06-28T09:03:45Z</time>
      </trkpt>
      <trkpt lat="46.58906" lon="0.6034">
        <ele>84.7</ele>
        <time>2020-06-28T09:03:48Z</time>
      </trkpt>
      <trkpt lat="46.58915" lon="0.60339">
        <ele>84.2</ele>
        <time>2020-06-28T09:03:51Z</time>
      </trkpt>
      <trkpt lat="46.58925" lon="0.60341">
        <ele>83.6</ele>
        <time>2020-06-28T09:04:06Z</time>
      </trkpt>
      <trkpt lat="46.58934" lon="0.60335">
        <ele>83.1</ele>
        <time>2020-06-28T09:04:09Z</time>
      </trkpt>
      <trkpt lat="46.58943" lon="0.60333">
        <ele>82.5</ele>
        <time>2020-06-28T09:04:12Z</time>
      </trkpt>
      <trkpt lat="46.58952" lon="0.60331">
        <ele>82</ele>
        <time>2020-06-28T09:04:16Z</time>
      </trkpt>
      <trkpt lat="46.58962" lon="0.60332">
        <ele>81.3</ele>
        <time>2020-06-28T09:04:23Z</time>
      </trkpt>
      <trkpt lat="46.58971" lon="0.6033">
        <ele>80.6</ele>
        <time>2020-06-28T09:04:29Z</time>
      </trkpt>
      <trkpt lat="46.5898" lon="0.60327">
        <ele>79.9</ele>
        <time>2020-06-28T09:04:32Z</time>
      </trkpt>
      <trkpt lat="46.58989" lon="0.60327">
        <ele>79.2</ele>
        <time>2020-06-28T09:04:35Z</time>
      </trkpt>
      <trkpt lat="46.59001" lon="0.6033">
        <ele>78.2</ele>
        <time>2020-06-28T09:04:39Z</time>
      </trkpt>
      <trkpt lat="46.5901" lon="0.60328">
        <ele>77.5</ele>
        <time>2020-06-28T09:04:41Z</time>
      </trkpt>
      <trkpt lat="46.5902" lon="0.60324">
        <ele>76.7</ele>
        <time>2020-06-28T09:04:43Z</time>
      </trkpt>
      <trkpt lat="46.59031" lon="0.60331">
        <ele>75.8</ele>
        <time>2020-06-28T09:04:46Z</time>
      </trkpt>
      <trkpt lat="46.59039" lon="0.60339">
        <ele>75</ele>
        <time>2020-06-28T09:04:55Z</time>
      </trkpt>
      <trkpt lat="46.59048" lon="0.60333">
        <ele>74.3</ele>
        <time>2020-06-28T09:05:20Z</time>
      </trkpt>
      <trkpt lat="46.59052" lon="0.60317">
        <ele>73.3</ele>
        <time>2020-06-28T09:05:24Z</time>
      </trkpt>
      <trkpt lat="46.59057" lon="0.60304">
        <ele>72.5</ele>
        <time>2020-06-28T09:05:27Z</time>
      </trkpt>
      <trkpt lat="46.59062" lon="0.60292">
        <ele>71.8</ele>
        <time>2020-06-28T09:05:30Z</time>
      </trkpt>
      <trkpt lat="46.59068" lon="0.6028">
        <ele>71</ele>
        <time>2020-06-28T09:05:34Z</time>
      </trkpt>
      <trkpt lat="46.59074" lon="0.60271">
        <ele>70.3</ele>
        <time>2020-06-28T09:05:39Z</time>
      </trkpt>
      <trkpt lat="46.59082" lon="0.60261">
        <ele>69.6</ele>
        <time>2020-06-28T09:05:47Z</time>
      </trkpt>
      <trkpt lat="46.59091" lon="0.60255">
        <ele>69</ele>
        <time>2020-06-28T09:06:04Z</time>
      </trkpt>
      <trkpt lat="46.591" lon="0.60258">
        <ele>68.5</ele>
        <time>2020-06-28T09:06:12Z</time>
      </trkpt>
      <trkpt lat="46.5911" lon="0.60269">
        <ele>67.9</ele>
        <time>2020-06-28T09:06:15Z</time>
      </trkpt>
      <trkpt lat="46.59119" lon="0.60273">
        <ele>67.5</ele>
        <time>2020-06-28T09:06:17Z</time>
      </trkpt>
      <trkpt lat="46.5913" lon="0.60276">
        <ele>67.1</ele>
        <time>2020-06-28T09:06:19Z</time>
      </trkpt>
      <trkpt lat="46.59143" lon="0.60281">
        <ele>66.6</ele>
        <time>2020-06-28T09:06:21Z</time>
      </trkpt>
      <trkpt lat="46.59154" lon="0.60285">
        <ele>66.2</ele>
        <time>2020-06-28T09:06:23Z</time>
      </trkpt>
      <trkpt lat="46.59167" lon="0.60288">
        <ele>65.8</ele>
        <time>2020-06-28T09:06:26Z</time>
      </trkpt>
      <trkpt lat="46.59179" lon="0.60286">
        <ele>65.4</ele>
        <time>2020-06-28T09:06:30Z</time>
      </trkpt>
      <trkpt lat="46.59188" lon="0.60287">
        <ele>65.1</ele>
        <time>2020-06-28T09:06:33Z</time>
      </trkpt>
      <trkpt lat="46.59198" lon="0.60283">
        <ele>64.9</ele>
        <time>2020-06-28T09:06:36Z</time>
      </trkpt>
      <trkpt lat="46.59209" lon="0.60283">
        <ele>64.8</ele>
        <time>2020-06-28T09:06:40Z</time>
      </trkpt>
      <trkpt lat="46.59219" lon="0.60282">
        <ele>64.7</ele>
        <time>2020-06-28T09:06:44Z</time>
      </trkpt>
      <trkpt lat="46.59229" lon="0.60283">
        <ele>64.7</ele>
        <time>2020-06-28T09:06:49Z</time>
      </trkpt>
      <trkpt lat="46.5924" lon="0.60283">
        <ele>64.5</ele>
        <time>2020-06-28T09:06:55Z</time>
      </trkpt>
      <trkpt lat="46.5925" lon="0.60282">
        <ele>64.4</ele>
        <time>2020-06-28T09:07:00Z</time>
      </trkpt>
      <trkpt lat="46.59259" lon="0.60283">
        <ele>64.4</ele>
        <time>2020-06-28T09:07:04Z</time>
      </trkpt>
      <trkpt lat="46.59269" lon="0.60283">
        <ele>64.2</ele>
        <time>2020-06-28T09:07:08Z</time>
      </trkpt>
      <trkpt lat="46.5928" lon="0.60282">
        <ele>64</ele>
        <time>2020-06-28T09:07:13Z</time>
      </trkpt>
      <trkpt lat="46.59291" lon="0.60282">
        <ele>63.4</ele>
        <time>2020-06-28T09:07:20Z</time>
      </trkpt>
      <trkpt lat="46.593" lon="0.60279">
        <ele>64.1</ele>
        <time>2020-06-28T09:07:26Z</time>
      </trkpt>
      <trkpt lat="46.59308" lon="0.60269">
        <ele>66.3</ele>
        <time>2020-06-28T09:07:32Z</time>
      </trkpt>
      <trkpt lat="46.59314" lon="0.6026">
        <ele>67.5</ele>
        <time>2020-06-28T09:07:38Z</time>
      </trkpt>
      <trkpt lat="46.59323" lon="0.60252">
        <ele>69.6</ele>
        <time>2020-06-28T09:07:44Z</time>
      </trkpt>
      <trkpt lat="46.5933" lon="0.60245">
        <ele>70.8</ele>
        <time>2020-06-28T09:07:48Z</time>
      </trkpt>
      <trkpt lat="46.59338" lon="0.60236">
        <ele>71.4</ele>
        <time>2020-06-28T09:07:52Z</time>
      </trkpt>
      <trkpt lat="46.59347" lon="0.60226">
        <ele>73.5</ele>
        <time>2020-06-28T09:07:55Z</time>
      </trkpt>
      <trkpt lat="46.59355" lon="0.60212">
        <ele>75.5</ele>
        <time>2020-06-28T09:07:58Z</time>
      </trkpt>
      <trkpt lat="46.59364" lon="0.60199">
        <ele>78.1</ele>
        <time>2020-06-28T09:08:01Z</time>
      </trkpt>
      <trkpt lat="46.59375" lon="0.60187">
        <ele>80</ele>
        <time>2020-06-28T09:08:04Z</time>
      </trkpt>
      <trkpt lat="46.59386" lon="0.60176">
        <ele>82.5</ele>
        <time>2020-06-28T09:08:07Z</time>
      </trkpt>
      <trkpt lat="46.59392" lon="0.60162">
        <ele>85.7</ele>
        <time>2020-06-28T09:08:09Z</time>
      </trkpt>
      <trkpt lat="46.59397" lon="0.60144">
        <ele>89.7</ele>
        <time>2020-06-28T09:08:11Z</time>
      </trkpt>
      <trkpt lat="46.59404" lon="0.60128">
        <ele>94.1</ele>
        <time>2020-06-28T09:08:13Z</time>
      </trkpt>
      <trkpt lat="46.59415" lon="0.60122">
        <ele>95.3</ele>
        <time>2020-06-28T09:08:15Z</time>
      </trkpt>
      <trkpt lat="46.59426" lon="0.60116">
        <ele>96.8</ele>
        <time>2020-06-28T09:08:18Z</time>
      </trkpt>
      <trkpt lat="46.59435" lon="0.60117">
        <ele>97.1</ele>
        <time>2020-06-28T09:08:20Z</time>
      </trkpt>
      <trkpt lat="46.59448" lon="0.60118">
        <ele>97.4</ele>
        <time>2020-06-28T09:08:23Z</time>
      </trkpt>
      <trkpt lat="46.59459" lon="0.60114">
        <ele>97.5</ele>
        <time>2020-06-28T09:08:26Z</time>
      </trkpt>
      <trkpt lat="46.59468" lon="0.60101">
        <ele>97.6</ele>
        <time>2020-06-28T09:08:29Z</time>
      </trkpt>
      <trkpt lat="46.59473" lon="0.60089">
        <ele>97.7</ele>
        <time>2020-06-28T09:08:32Z</time>
      </trkpt>
      <trkpt lat="46.5948" lon="0.60074">
        <ele>97.7</ele>
        <time>2020-06-28T09:08:36Z</time>
      </trkpt>
      <trkpt lat="46.59486" lon="0.60058">
        <ele>97.7</ele>
        <time>2020-06-28T09:08:39Z</time>
      </trkpt>
      <trkpt lat="46.59492" lon="0.60044">
        <ele>97.6</ele>
        <time>2020-06-28T09:08:42Z</time>
      </trkpt>
      <trkpt lat="46.595" lon="0.60031">
        <ele>97.4</ele>
        <time>2020-06-28T09:08:45Z</time>
      </trkpt>
      <trkpt lat="46.59508" lon="0.6002">
        <ele>97.3</ele>
        <time>2020-06-28T09:08:48Z</time>
      </trkpt>
      <trkpt lat="46.59519" lon="0.60009">
        <ele>97.1</ele>
        <time>2020-06-28T09:08:51Z</time>
      </trkpt>
      <trkpt lat="46.59529" lon="0.60003">
        <ele>96.8</ele>
        <time>2020-06-28T09:08:54Z</time>
      </trkpt>
      <trkpt lat="46.59539" lon="0.59991">
        <ele>96.4</ele>
        <time>2020-06-28T09:08:57Z</time>
      </trkpt>
      <trkpt lat="46.59546" lon="0.59981">
        <ele>96</ele>
        <time>2020-06-28T09:08:59Z</time>
      </trkpt>
      <trkpt lat="46.59555" lon="0.59971">
        <ele>95.5</ele>
        <time>2020-06-28T09:09:01Z</time>
      </trkpt>
      <trkpt lat="46.59564" lon="0.59963">
        <ele>95</ele>
        <time>2020-06-28T09:09:03Z</time>
      </trkpt>
      <trkpt lat="46.59575" lon="0.59957">
        <ele>94.4</ele>
        <time>2020-06-28T09:09:05Z</time>
      </trkpt>
      <trkpt lat="46.59585" lon="0.59951">
        <ele>93.6</ele>
        <time>2020-06-28T09:09:07Z</time>
      </trkpt>
      <trkpt lat="46.59596" lon="0.59944">
        <ele>92.8</ele>
        <time>2020-06-28T09:09:09Z</time>
      </trkpt>
      <trkpt lat="46.59609" lon="0.59934">
        <ele>91.7</ele>
        <time>2020-06-28T09:09:11Z</time>
      </trkpt>
      <trkpt lat="46.59619" lon="0.59917">
        <ele>90.5</ele>
        <time>2020-06-28T09:09:13Z</time>
      </trkpt>
      <trkpt lat="46.59622" lon="0.59892">
        <ele>89</ele>
        <time>2020-06-28T09:09:15Z</time>
      </trkpt>
      <trkpt lat="46.5962" lon="0.59867">
        <ele>87.5</ele>
        <time>2020-06-28T09:09:17Z</time>
      </trkpt>
      <trkpt lat="46.59616" lon="0.59842">
        <ele>86.4</ele>
        <time>2020-06-28T09:09:19Z</time>
      </trkpt>
      <trkpt lat="46.59614" lon="0.59819">
        <ele>85.7</ele>
        <time>2020-06-28T09:09:21Z</time>
      </trkpt>
      <trkpt lat="46.59615" lon="0.59802">
        <ele>85.2</ele>
        <time>2020-06-28T09:09:23Z</time>
      </trkpt>
      <trkpt lat="46.59616" lon="0.59788">
        <ele>84.5</ele>
        <time>2020-06-28T09:09:28Z</time>
      </trkpt>
      <trkpt lat="46.59612" lon="0.59776">
        <ele>85.1</ele>
        <time>2020-06-28T09:09:32Z</time>
      </trkpt>
      <trkpt lat="46.59603" lon="0.59765">
        <ele>85.8</ele>
        <time>2020-06-28T09:09:35Z</time>
      </trkpt>
      <trkpt lat="46.59596" lon="0.59757">
        <ele>86.4</ele>
        <time>2020-06-28T09:09:37Z</time>
      </trkpt>
      <trkpt lat="46.59585" lon="0.59746">
        <ele>87.3</ele>
        <time>2020-06-28T09:09:40Z</time>
      </trkpt>
      <trkpt lat="46.59578" lon="0.59737">
        <ele>87.8</ele>
        <time>2020-06-28T09:09:42Z</time>
      </trkpt>
      <trkpt lat="46.59567" lon="0.59725">
        <ele>88.7</ele>
        <time>2020-06-28T09:09:45Z</time>
      </trkpt>
      <trkpt lat="46.59557" lon="0.59714">
        <ele>89.6</ele>
        <time>2020-06-28T09:09:48Z</time>
      </trkpt>
      <trkpt lat="46.59547" lon="0.59703">
        <ele>90.5</ele>
        <time>2020-06-28T09:09:51Z</time>
      </trkpt>
      <trkpt lat="46.59537" lon="0.59692">
        <ele>91.3</ele>
        <time>2020-06-28T09:09:54Z</time>
      </trkpt>
      <trkpt lat="46.59528" lon="0.59682">
        <ele>92</ele>
        <time>2020-06-28T09:09:57Z</time>
      </trkpt>
      <trkpt lat="46.59521" lon="0.59673">
        <ele>92.6</ele>
        <time>2020-06-28T09:10:00Z</time>
      </trkpt>
      <trkpt lat="46.59513" lon="0.59664">
        <ele>93.2</ele>
        <time>2020-06-28T09:10:03Z</time>
      </trkpt>
      <trkpt lat="46.59505" lon="0.59655">
        <ele>93.7</ele>
        <time>2020-06-28T09:10:06Z</time>
      </trkpt>
      <trkpt lat="46.59496" lon="0.59644">
        <ele>94.4</ele>
        <time>2020-06-28T09:10:09Z</time>
      </trkpt>
      <trkpt lat="46.59487" lon="0.59633">
        <ele>95</ele>
        <time>2020-06-28T09:10:12Z</time>
      </trkpt>
      <trkpt lat="46.59478" lon="0.59622">
        <ele>95.6</ele>
        <time>2020-06-28T09:10:15Z</time>
      </trkpt>
      <trkpt lat="46.59469" lon="0.59611">
        <ele>96.2</ele>
        <time>2020-06-28T09:10:18Z</time>
      </trkpt>
      <trkpt lat="46.59462" lon="0.59601">
        <ele>96.7</ele>
        <time>2020-06-28T09:10:21Z</time>
      </trkpt>
      <trkpt lat="46.59452" lon="0.59589">
        <ele>97.3</ele>
        <time>2020-06-28T09:10:24Z</time>
      </trkpt>
      <trkpt lat="46.59443" lon="0.59578">
        <ele>98</ele>
        <time>2020-06-28T09:10:28Z</time>
      </trkpt>
      <trkpt lat="46.59435" lon="0.59568">
        <ele>98.5</ele>
        <time>2020-06-28T09:10:31Z</time>
      </trkpt>
      <trkpt lat="46.59427" lon="0.59561">
        <ele>99</ele>
        <time>2020-06-28T09:10:34Z</time>
      </trkpt>
      <trkpt lat="46.59416" lon="0.5956">
        <ele>99.7</ele>
        <time>2020-06-28T09:10:38Z</time>
      </trkpt>
      <trkpt lat="46.59407" lon="0.59565">
        <ele>100</ele>
        <time>2020-06-28T09:10:42Z</time>
      </trkpt>
      <trkpt lat="46.59398" lon="0.59572">
        <ele>100.5</ele>
        <time>2020-06-28T09:10:47Z</time>
      </trkpt>
      <trkpt lat="46.5939" lon="0.5958">
        <ele>101</ele>
        <time>2020-06-28T09:10:51Z</time>
      </trkpt>
      <trkpt lat="46.59381" lon="0.59589">
        <ele>101.7</ele>
        <time>2020-06-28T09:10:55Z</time>
      </trkpt>
      <trkpt lat="46.59374" lon="0.59596">
        <ele>102.2</ele>
        <time>2020-06-28T09:10:58Z</time>
      </trkpt>
      <trkpt lat="46.59366" lon="0.59603">
        <ele>102.7</ele>
        <time>2020-06-28T09:11:01Z</time>
      </trkpt>
      <trkpt lat="46.59358" lon="0.59611">
        <ele>103.2</ele>
        <time>2020-06-28T09:11:04Z</time>
      </trkpt>
      <trkpt lat="46.59349" lon="0.5962">
        <ele>103.8</ele>
        <time>2020-06-28T09:11:07Z</time>
      </trkpt>
      <trkpt lat="46.5934" lon="0.5963">
        <ele>104.2</ele>
        <time>2020-06-28T09:11:10Z</time>
      </trkpt>
      <trkpt lat="46.5933" lon="0.59642">
        <ele>104.5</ele>
        <time>2020-06-28T09:11:13Z</time>
      </trkpt>
      <trkpt lat="46.5932" lon="0.59653">
        <ele>104.6</ele>
        <time>2020-06-28T09:11:16Z</time>
      </trkpt>
      <trkpt lat="46.5931" lon="0.59665">
        <ele>104.6</ele>
        <time>2020-06-28T09:11:19Z</time>
      </trkpt>
      <trkpt lat="46.593" lon="0.59677">
        <ele>104.5</ele>
        <time>2020-06-28T09:11:22Z</time>
      </trkpt>
      <trkpt lat="46.59293" lon="0.59687">
        <ele>104.4</ele>
        <time>2020-06-28T09:11:24Z</time>
      </trkpt>
      <trkpt lat="46.59284" lon="0.59697">
        <ele>104.5</ele>
        <time>2020-06-28T09:11:26Z</time>
      </trkpt>
      <trkpt lat="46.59274" lon="0.59706">
        <ele>104.6</ele>
        <time>2020-06-28T09:11:28Z</time>
      </trkpt>
      <trkpt lat="46.59264" lon="0.59715">
        <ele>104.6</ele>
        <time>2020-06-28T09:11:30Z</time>
      </trkpt>
      <trkpt lat="46.59253" lon="0.59723">
        <ele>104.5</ele>
        <time>2020-06-28T09:11:32Z</time>
      </trkpt>
      <trkpt lat="46.59244" lon="0.59732">
        <ele>104.6</ele>
        <time>2020-06-28T09:11:34Z</time>
      </trkpt>
      <trkpt lat="46.59235" lon="0.59739">
        <ele>104.6</ele>
        <time>2020-06-28T09:11:36Z</time>
      </trkpt>
      <trkpt lat="46.59226" lon="0.59747">
        <ele>104.6</ele>
        <time>2020-06-28T09:11:38Z</time>
      </trkpt>
      <trkpt lat="46.59215" lon="0.59755">
        <ele>104.5</ele>
        <time>2020-06-28T09:11:40Z</time>
      </trkpt>
      <trkpt lat="46.59205" lon="0.59763">
        <ele>104.3</ele>
        <time>2020-06-28T09:11:42Z</time>
      </trkpt>
      <trkpt lat="46.59194" lon="0.59772">
        <ele>104</ele>
        <time>2020-06-28T09:11:44Z</time>
      </trkpt>
      <trkpt lat="46.59182" lon="0.59784">
        <ele>103.8</ele>
        <time>2020-06-28T09:11:46Z</time>
      </trkpt>
      <trkpt lat="46.5917" lon="0.59796">
        <ele>103.6</ele>
        <time>2020-06-28T09:11:48Z</time>
      </trkpt>
      <trkpt lat="46.5916" lon="0.59807">
        <ele>103.5</ele>
        <time>2020-06-28T09:11:50Z</time>
      </trkpt>
      <trkpt lat="46.59152" lon="0.59818">
        <ele>103.5</ele>
        <time>2020-06-28T09:11:52Z</time>
      </trkpt>
      <trkpt lat="46.59144" lon="0.59829">
        <ele>103.6</ele>
        <time>2020-06-28T09:11:54Z</time>
      </trkpt>
      <trkpt lat="46.59136" lon="0.59839">
        <ele>103.9</ele>
        <time>2020-06-28T09:11:56Z</time>
      </trkpt>
      <trkpt lat="46.59128" lon="0.59848">
        <ele>104.2</ele>
        <time>2020-06-28T09:11:58Z</time>
      </trkpt>
      <trkpt lat="46.59119" lon="0.59855">
        <ele>104.6</ele>
        <time>2020-06-28T09:12:00Z</time>
      </trkpt>
      <trkpt lat="46.59108" lon="0.59859">
        <ele>105</ele>
        <time>2020-06-28T09:12:02Z</time>
      </trkpt>
      <trkpt lat="46.59098" lon="0.59862">
        <ele>105.4</ele>
        <time>2020-06-28T09:12:04Z</time>
      </trkpt>
      <trkpt lat="46.59087" lon="0.59861">
        <ele>105.9</ele>
        <time>2020-06-28T09:12:06Z</time>
      </trkpt>
      <trkpt lat="46.59076" lon="0.59859">
        <ele>106.3</ele>
        <time>2020-06-28T09:12:08Z</time>
      </trkpt>
      <trkpt lat="46.59066" lon="0.59855">
        <ele>106.7</ele>
        <time>2020-06-28T09:12:10Z</time>
      </trkpt>
      <trkpt lat="46.59055" lon="0.59849">
        <ele>107</ele>
        <time>2020-06-28T09:12:12Z</time>
      </trkpt>
      <trkpt lat="46.59045" lon="0.59843">
        <ele>107.2</ele>
        <time>2020-06-28T09:12:14Z</time>
      </trkpt>
      <trkpt lat="46.59035" lon="0.59836">
        <ele>107.3</ele>
        <time>2020-06-28T09:12:16Z</time>
      </trkpt>
      <trkpt lat="46.59025" lon="0.59829">
        <ele>107.7</ele>
        <time>2020-06-28T09:12:18Z</time>
      </trkpt>
      <trkpt lat="46.59015" lon="0.59823">
        <ele>108.1</ele>
        <time>2020-06-28T09:12:20Z</time>
      </trkpt>
      <trkpt lat="46.59005" lon="0.59818">
        <ele>108.5</ele>
        <time>2020-06-28T09:12:22Z</time>
      </trkpt>
      <trkpt lat="46.58996" lon="0.59813">
        <ele>108.8</ele>
        <time>2020-06-28T09:12:24Z</time>
      </trkpt>
      <trkpt lat="46.58987" lon="0.59807">
        <ele>109</ele>
        <time>2020-06-28T09:12:26Z</time>
      </trkpt>
      <trkpt lat="46.58975" lon="0.59799">
        <ele>109.2</ele>
        <time>2020-06-28T09:12:29Z</time>
      </trkpt>
      <trkpt lat="46.58967" lon="0.59791">
        <ele>109.4</ele>
        <time>2020-06-28T09:12:31Z</time>
      </trkpt>
      <trkpt lat="46.58961" lon="0.59781">
        <ele>109.5</ele>
        <time>2020-06-28T09:12:33Z</time>
      </trkpt>
      <trkpt lat="46.58955" lon="0.59768">
        <ele>109.6</ele>
        <time>2020-06-28T09:12:35Z</time>
      </trkpt>
      <trkpt lat="46.5895" lon="0.59755">
        <ele>109.6</ele>
        <time>2020-06-28T09:12:37Z</time>
      </trkpt>
      <trkpt lat="46.58944" lon="0.59744">
        <ele>109.6</ele>
        <time>2020-06-28T09:12:39Z</time>
      </trkpt>
      <trkpt lat="46.58939" lon="0.59732">
        <ele>109.6</ele>
        <time>2020-06-28T09:12:41Z</time>
      </trkpt>
      <trkpt lat="46.58934" lon="0.59721">
        <ele>109.7</ele>
        <time>2020-06-28T09:12:43Z</time>
      </trkpt>
      <trkpt lat="46.58929" lon="0.59709">
        <ele>109.9</ele>
        <time>2020-06-28T09:12:45Z</time>
      </trkpt>
      <trkpt lat="46.58925" lon="0.59695">
        <ele>110</ele>
        <time>2020-06-28T09:12:47Z</time>
      </trkpt>
      <trkpt lat="46.5892" lon="0.59681">
        <ele>110.1</ele>
        <time>2020-06-28T09:12:49Z</time>
      </trkpt>
      <trkpt lat="46.58916" lon="0.59667">
        <ele>110.2</ele>
        <time>2020-06-28T09:12:51Z</time>
      </trkpt>
      <trkpt lat="46.58912" lon="0.59652">
        <ele>110.2</ele>
        <time>2020-06-28T09:12:53Z</time>
      </trkpt>
      <trkpt lat="46.58908" lon="0.59639">
        <ele>110.2</ele>
        <time>2020-06-28T09:12:55Z</time>
      </trkpt>
      <trkpt lat="46.58903" lon="0.59626">
        <ele>110.5</ele>
        <time>2020-06-28T09:12:57Z</time>
      </trkpt>
      <trkpt lat="46.58899" lon="0.59611">
        <ele>110.9</ele>
        <time>2020-06-28T09:12:59Z</time>
      </trkpt>
      <trkpt lat="46.58895" lon="0.59597">
        <ele>111.2</ele>
        <time>2020-06-28T09:13:01Z</time>
      </trkpt>
      <trkpt lat="46.58891" lon="0.59583">
        <ele>111.5</ele>
        <time>2020-06-28T09:13:03Z</time>
      </trkpt>
      <trkpt lat="46.58886" lon="0.5957">
        <ele>111.7</ele>
        <time>2020-06-28T09:13:05Z</time>
      </trkpt>
      <trkpt lat="46.5888" lon="0.59558">
        <ele>111.9</ele>
        <time>2020-06-28T09:13:07Z</time>
      </trkpt>
      <trkpt lat="46.58875" lon="0.59548">
        <ele>112</ele>
        <time>2020-06-28T09:13:09Z</time>
      </trkpt>
      <trkpt lat="46.58868" lon="0.59537">
        <ele>111.9</ele>
        <time>2020-06-28T09:13:11Z</time>
      </trkpt>
      <trkpt lat="46.58861" lon="0.59527">
        <ele>111.7</ele>
        <time>2020-06-28T09:13:13Z</time>
      </trkpt>
      <trkpt lat="46.58854" lon="0.59516">
        <ele>111.5</ele>
        <time>2020-06-28T09:13:15Z</time>
      </trkpt>
      <trkpt lat="46.58846" lon="0.59506">
        <ele>111.5</ele>
        <time>2020-06-28T09:13:17Z</time>
      </trkpt>
      <trkpt lat="46.58839" lon="0.59496">
        <ele>111.6</ele>
        <time>2020-06-28T09:13:19Z</time>
      </trkpt>
      <trkpt lat="46.58831" lon="0.59485">
        <ele>111.6</ele>
        <time>2020-06-28T09:13:21Z</time>
      </trkpt>
      <trkpt lat="46.58821" lon="0.59475">
        <ele>111.6</ele>
        <time>2020-06-28T09:13:24Z</time>
      </trkpt>
      <trkpt lat="46.58811" lon="0.59476">
        <ele>111.6</ele>
        <time>2020-06-28T09:13:26Z</time>
      </trkpt>
      <trkpt lat="46.58802" lon="0.59476">
        <ele>111.6</ele>
        <time>2020-06-28T09:13:28Z</time>
      </trkpt>
      <trkpt lat="46.58793" lon="0.59468">
        <ele>111.7</ele>
        <time>2020-06-28T09:13:30Z</time>
      </trkpt>
      <trkpt lat="46.58789" lon="0.59453">
        <ele>111.8</ele>
        <time>2020-06-28T09:13:32Z</time>
      </trkpt>
      <trkpt lat="46.5879" lon="0.59436">
        <ele>111.9</ele>
        <time>2020-06-28T09:13:35Z</time>
      </trkpt>
      <trkpt lat="46.58786" lon="0.59422">
        <ele>112</ele>
        <time>2020-06-28T09:13:38Z</time>
      </trkpt>
      <trkpt lat="46.58781" lon="0.59404">
        <ele>112.1</ele>
        <time>2020-06-28T09:13:41Z</time>
      </trkpt>
      <trkpt lat="46.58777" lon="0.59392">
        <ele>112.2</ele>
        <time>2020-06-28T09:13:43Z</time>
      </trkpt>
      <trkpt lat="46.58773" lon="0.59379">
        <ele>112.3</ele>
        <time>2020-06-28T09:13:45Z</time>
      </trkpt>
      <trkpt lat="46.58769" lon="0.59365">
        <ele>112.4</ele>
        <time>2020-06-28T09:13:47Z</time>
      </trkpt>
      <trkpt lat="46.58763" lon="0.59352">
        <ele>112.5</ele>
        <time>2020-06-28T09:13:49Z</time>
      </trkpt>
      <trkpt lat="46.58756" lon="0.59343">
        <ele>112.6</ele>
        <time>2020-06-28T09:13:51Z</time>
      </trkpt>
      <trkpt lat="46.58747" lon="0.59329">
        <ele>112.7</ele>
        <time>2020-06-28T09:13:54Z</time>
      </trkpt>
      <trkpt lat="46.5874" lon="0.59321">
        <ele>112.8</ele>
        <time>2020-06-28T09:13:56Z</time>
      </trkpt>
      <trkpt lat="46.58735" lon="0.59309">
        <ele>112.9</ele>
        <time>2020-06-28T09:13:58Z</time>
      </trkpt>
      <trkpt lat="46.58728" lon="0.59296">
        <ele>113</ele>
        <time>2020-06-28T09:14:00Z</time>
      </trkpt>
      <trkpt lat="46.58723" lon="0.59285">
        <ele>113.1</ele>
        <time>2020-06-28T09:14:02Z</time>
      </trkpt>
      <trkpt lat="46.58718" lon="0.59271">
        <ele>113.2</ele>
        <time>2020-06-28T09:14:04Z</time>
      </trkpt>
      <trkpt lat="46.58714" lon="0.59256">
        <ele>113.3</ele>
        <time>2020-06-28T09:14:06Z</time>
      </trkpt>
      <trkpt lat="46.58709" lon="0.5924">
        <ele>113.4</ele>
        <time>2020-06-28T09:14:08Z</time>
      </trkpt>
      <trkpt lat="46.58706" lon="0.59227">
        <ele>113.5</ele>
        <time>2020-06-28T09:14:10Z</time>
      </trkpt>
      <trkpt lat="46.587" lon="0.59213">
        <ele>113.6</ele>
        <time>2020-06-28T09:14:12Z</time>
      </trkpt>
      <trkpt lat="46.58696" lon="0.59199">
        <ele>113.7</ele>
        <time>2020-06-28T09:14:14Z</time>
      </trkpt>
      <trkpt lat="46.5869" lon="0.59184">
        <ele>113.8</ele>
        <time>2020-06-28T09:14:16Z</time>
      </trkpt>
      <trkpt lat="46.58685" lon="0.59172">
        <ele>113.9</ele>
        <time>2020-06-28T09:14:18Z</time>
      </trkpt>
      <trkpt lat="46.58679" lon="0.59159">
        <ele>114</ele>
        <time>2020-06-28T09:14:20Z</time>
      </trkpt>
      <trkpt lat="46.58674" lon="0.59142">
        <ele>114.1</ele>
        <time>2020-06-28T09:14:22Z</time>
      </trkpt>
      <trkpt lat="46.58671" lon="0.59124">
        <ele>114.2</ele>
        <time>2020-06-28T09:14:24Z</time>
      </trkpt>
      <trkpt lat="46.58667" lon="0.59113">
        <ele>114.3</ele>
        <time>2020-06-28T09:14:29Z</time>
      </trkpt>
      <trkpt lat="46.58664" lon="0.59129">
        <ele>114.4</ele>
        <time>2020-06-28T09:14:34Z</time>
      </trkpt>
      <trkpt lat="46.58665" lon="0.59149">
        <ele>114.7</ele>
        <time>2020-06-28T09:14:37Z</time>
      </trkpt>
      <trkpt lat="46.58664" lon="0.59168">
        <ele>114.9</ele>
        <time>2020-06-28T09:14:39Z</time>
      </trkpt>
      <trkpt lat="46.5866" lon="0.59184">
        <ele>114.9</ele>
        <time>2020-06-28T09:14:41Z</time>
      </trkpt>
      <trkpt lat="46.58655" lon="0.592">
        <ele>114.9</ele>
        <time>2020-06-28T09:14:43Z</time>
      </trkpt>
      <trkpt lat="46.58651" lon="0.59215">
        <ele>114.9</ele>
        <time>2020-06-28T09:14:45Z</time>
      </trkpt>
      <trkpt lat="46.58647" lon="0.59232">
        <ele>114.8</ele>
        <time>2020-06-28T09:14:47Z</time>
      </trkpt>
      <trkpt lat="46.58642" lon="0.59247">
        <ele>114.8</ele>
        <time>2020-06-28T09:14:49Z</time>
      </trkpt>
      <trkpt lat="46.58638" lon="0.59261">
        <ele>114.7</ele>
        <time>2020-06-28T09:14:51Z</time>
      </trkpt>
      <trkpt lat="46.58633" lon="0.59278">
        <ele>114.6</ele>
        <time>2020-06-28T09:14:53Z</time>
      </trkpt>
      <trkpt lat="46.58627" lon="0.59293">
        <ele>114.4</ele>
        <time>2020-06-28T09:14:56Z</time>
      </trkpt>
      <trkpt lat="46.58621" lon="0.59306">
        <ele>114.2</ele>
        <time>2020-06-28T09:14:58Z</time>
      </trkpt>
      <trkpt lat="46.58616" lon="0.59317">
        <ele>114.1</ele>
        <time>2020-06-28T09:15:00Z</time>
      </trkpt>
      <trkpt lat="46.58608" lon="0.59328">
        <ele>113.7</ele>
        <time>2020-06-28T09:15:02Z</time>
      </trkpt>
      <trkpt lat="46.58599" lon="0.59341">
        <ele>113.4</ele>
        <time>2020-06-28T09:15:04Z</time>
      </trkpt>
      <trkpt lat="46.5859" lon="0.59345">
        <ele>113.2</ele>
        <time>2020-06-28T09:15:27Z</time>
      </trkpt>
      <trkpt lat="46.58581" lon="0.59346">
        <ele>113</ele>
        <time>2020-06-28T09:15:50Z</time>
      </trkpt>
    </trkseg>
  </trk>
</gpx>